<?xml version="1.0" encoding="UTF-8" standalone="no" ?>
<gpx xmlns="http://www.topografix.com/GPX/1/1" xmlns:xsi="http://www.w3.org/2001/XMLSchema-instance" xsi:schemaLocation="http://www.topografix.com/GPX/1/1 http://www.topografix.com/GPX/1/1/gpx.xsd" version="1.1" creator="VisuGPX - https://www.visugpx.com">
  <metadata>
    <name>Coupe Du Chasseron 2018 25km</name>
    <desc><![CDATA[Coupe Du Chasseron 2018 

25km                                                                                                                                            ]]></desc>
  </metadata>
  <trk>
    <name><![CDATA[Coupe du Chasseron  2017 25KM  D+J]]></name>
    <trkseg>
      <trkpt lat="46.82907" lon="6.53801">
        <ele>1184.1999511719</ele>
        <time>2017-04-22T11:01:22.000Z</time>
      </trkpt>
      <trkpt lat="46.82908" lon="6.53808">
        <ele>1183.8000488281</ele>
        <time>2017-04-22T11:01:27.000Z</time>
      </trkpt>
      <trkpt lat="46.82912" lon="6.53825">
        <ele>1184</ele>
        <time>2017-04-22T11:01:32.000Z</time>
      </trkpt>
      <trkpt lat="46.8292" lon="6.53853">
        <ele>1184.4000244141</ele>
        <time>2017-04-22T11:01:38.000Z</time>
      </trkpt>
      <trkpt lat="46.82934" lon="6.53897">
        <ele>1184.1999511719</ele>
        <time>2017-04-22T11:01:47.000Z</time>
      </trkpt>
      <trkpt lat="46.82944" lon="6.5392">
        <ele>1184</ele>
        <time>2017-04-22T11:01:52.000Z</time>
      </trkpt>
      <trkpt lat="46.82947" lon="6.53924">
        <ele>1184</ele>
        <time>2017-04-22T11:01:53.000Z</time>
      </trkpt>
      <trkpt lat="46.82961" lon="6.53952">
        <ele>1184</ele>
        <time>2017-04-22T11:01:59.000Z</time>
      </trkpt>
      <trkpt lat="46.82968" lon="6.53987">
        <ele>1183.8000488281</ele>
        <time>2017-04-22T11:02:06.000Z</time>
      </trkpt>
      <trkpt lat="46.82978" lon="6.54028">
        <ele>1184.8000488281</ele>
        <time>2017-04-22T11:02:15.000Z</time>
      </trkpt>
      <trkpt lat="46.82984" lon="6.54054">
        <ele>1185.1999511719</ele>
        <time>2017-04-22T11:02:21.000Z</time>
      </trkpt>
      <trkpt lat="46.82987" lon="6.54066">
        <ele>1185.5999755859</ele>
        <time>2017-04-22T11:02:24.000Z</time>
      </trkpt>
      <trkpt lat="46.82996" lon="6.54094">
        <ele>1186.4000244141</ele>
        <time>2017-04-22T11:02:32.000Z</time>
      </trkpt>
      <trkpt lat="46.83002" lon="6.54113">
        <ele>1187.4000244141</ele>
        <time>2017-04-22T11:02:38.000Z</time>
      </trkpt>
      <trkpt lat="46.83005" lon="6.54119">
        <ele>1187.5999755859</ele>
        <time>2017-04-22T11:02:40.000Z</time>
      </trkpt>
      <trkpt lat="46.83014" lon="6.54145">
        <ele>1188.1999511719</ele>
        <time>2017-04-22T11:02:48.000Z</time>
      </trkpt>
      <trkpt lat="46.83015" lon="6.54148">
        <ele>1188.5999755859</ele>
        <time>2017-04-22T11:02:49.000Z</time>
      </trkpt>
      <trkpt lat="46.83021" lon="6.54167">
        <ele>1189.4000244141</ele>
        <time>2017-04-22T11:02:55.000Z</time>
      </trkpt>
      <trkpt lat="46.83022" lon="6.54171">
        <ele>1189.5999755859</ele>
        <time>2017-04-22T11:02:56.000Z</time>
      </trkpt>
      <trkpt lat="46.83034" lon="6.54196">
        <ele>1189.8000488281</ele>
        <time>2017-04-22T11:03:03.000Z</time>
      </trkpt>
      <trkpt lat="46.83047" lon="6.5422">
        <ele>1190.5999755859</ele>
        <time>2017-04-22T11:03:10.000Z</time>
      </trkpt>
      <trkpt lat="46.83051" lon="6.54227">
        <ele>1191.1999511719</ele>
        <time>2017-04-22T11:03:12.000Z</time>
      </trkpt>
      <trkpt lat="46.83055" lon="6.54234">
        <ele>1191.8000488281</ele>
        <time>2017-04-22T11:03:14.000Z</time>
      </trkpt>
      <trkpt lat="46.83068" lon="6.54252">
        <ele>1192.8000488281</ele>
        <time>2017-04-22T11:03:20.000Z</time>
      </trkpt>
      <trkpt lat="46.8307" lon="6.54255">
        <ele>1193.1999511719</ele>
        <time>2017-04-22T11:03:21.000Z</time>
      </trkpt>
      <trkpt lat="46.83078" lon="6.54263">
        <ele>1193.8000488281</ele>
        <time>2017-04-22T11:03:24.000Z</time>
      </trkpt>
      <trkpt lat="46.83092" lon="6.54276">
        <ele>1194.8000488281</ele>
        <time>2017-04-22T11:03:29.000Z</time>
      </trkpt>
      <trkpt lat="46.83094" lon="6.54279">
        <ele>1195</ele>
        <time>2017-04-22T11:03:30.000Z</time>
      </trkpt>
      <trkpt lat="46.8311" lon="6.54296">
        <ele>1196.1999511719</ele>
        <time>2017-04-22T11:03:36.000Z</time>
      </trkpt>
      <trkpt lat="46.83116" lon="6.54302">
        <ele>1196.5999755859</ele>
        <time>2017-04-22T11:03:38.000Z</time>
      </trkpt>
      <trkpt lat="46.83124" lon="6.5431">
        <ele>1197.4000244141</ele>
        <time>2017-04-22T11:03:41.000Z</time>
      </trkpt>
      <trkpt lat="46.83132" lon="6.54318">
        <ele>1198.4000244141</ele>
        <time>2017-04-22T11:03:44.000Z</time>
      </trkpt>
      <trkpt lat="46.8314" lon="6.54324">
        <ele>1199.5999755859</ele>
        <time>2017-04-22T11:03:47.000Z</time>
      </trkpt>
      <trkpt lat="46.83142" lon="6.54325">
        <ele>1200</ele>
        <time>2017-04-22T11:03:48.000Z</time>
      </trkpt>
      <trkpt lat="46.83149" lon="6.5433">
        <ele>1201</ele>
        <time>2017-04-22T11:03:51.000Z</time>
      </trkpt>
      <trkpt lat="46.83159" lon="6.54336">
        <ele>1202.1999511719</ele>
        <time>2017-04-22T11:03:55.000Z</time>
      </trkpt>
      <trkpt lat="46.83167" lon="6.5434">
        <ele>1202.8000488281</ele>
        <time>2017-04-22T11:03:58.000Z</time>
      </trkpt>
      <trkpt lat="46.83172" lon="6.54342">
        <ele>1203.4000244141</ele>
        <time>2017-04-22T11:04:00.000Z</time>
      </trkpt>
      <trkpt lat="46.8318" lon="6.54346">
        <ele>1204.4000244141</ele>
        <time>2017-04-22T11:04:03.000Z</time>
      </trkpt>
      <trkpt lat="46.83191" lon="6.54351">
        <ele>1205.8000488281</ele>
        <time>2017-04-22T11:04:07.000Z</time>
      </trkpt>
      <trkpt lat="46.83202" lon="6.54355">
        <ele>1206.8000488281</ele>
        <time>2017-04-22T11:04:11.000Z</time>
      </trkpt>
      <trkpt lat="46.83212" lon="6.5436">
        <ele>1208</ele>
        <time>2017-04-22T11:04:15.000Z</time>
      </trkpt>
      <trkpt lat="46.83217" lon="6.54364">
        <ele>1208.8000488281</ele>
        <time>2017-04-22T11:04:17.000Z</time>
      </trkpt>
      <trkpt lat="46.83219" lon="6.54365">
        <ele>1209</ele>
        <time>2017-04-22T11:04:18.000Z</time>
      </trkpt>
      <trkpt lat="46.8323" lon="6.5437">
        <ele>1210</ele>
        <time>2017-04-22T11:04:22.000Z</time>
      </trkpt>
      <trkpt lat="46.83238" lon="6.54373">
        <ele>1210.8000488281</ele>
        <time>2017-04-22T11:04:25.000Z</time>
      </trkpt>
      <trkpt lat="46.8324" lon="6.54375">
        <ele>1211.1999511719</ele>
        <time>2017-04-22T11:04:26.000Z</time>
      </trkpt>
      <trkpt lat="46.83253" lon="6.54383">
        <ele>1212.4000244141</ele>
        <time>2017-04-22T11:04:31.000Z</time>
      </trkpt>
      <trkpt lat="46.83257" lon="6.54387">
        <ele>1213</ele>
        <time>2017-04-22T11:04:33.000Z</time>
      </trkpt>
      <trkpt lat="46.83262" lon="6.54392">
        <ele>1213.4000244141</ele>
        <time>2017-04-22T11:04:35.000Z</time>
      </trkpt>
      <trkpt lat="46.83271" lon="6.544">
        <ele>1214.4000244141</ele>
        <time>2017-04-22T11:04:39.000Z</time>
      </trkpt>
      <trkpt lat="46.83273" lon="6.54402">
        <ele>1214.5999755859</ele>
        <time>2017-04-22T11:04:40.000Z</time>
      </trkpt>
      <trkpt lat="46.83281" lon="6.54412">
        <ele>1215.5999755859</ele>
        <time>2017-04-22T11:04:44.000Z</time>
      </trkpt>
      <trkpt lat="46.83288" lon="6.54419">
        <ele>1216.4000244141</ele>
        <time>2017-04-22T11:04:47.000Z</time>
      </trkpt>
      <trkpt lat="46.83292" lon="6.5442">
        <ele>1217</ele>
        <time>2017-04-22T11:04:49.000Z</time>
      </trkpt>
      <trkpt lat="46.83294" lon="6.54419">
        <ele>1217.1999511719</ele>
        <time>2017-04-22T11:04:50.000Z</time>
      </trkpt>
      <trkpt lat="46.83295" lon="6.54418">
        <ele>1217.4000244141</ele>
        <time>2017-04-22T11:04:51.000Z</time>
      </trkpt>
      <trkpt lat="46.83297" lon="6.54412">
        <ele>1218.5999755859</ele>
        <time>2017-04-22T11:04:53.000Z</time>
      </trkpt>
      <trkpt lat="46.83297" lon="6.54406">
        <ele>1219.5999755859</ele>
        <time>2017-04-22T11:04:55.000Z</time>
      </trkpt>
      <trkpt lat="46.83297" lon="6.54403">
        <ele>1219.5999755859</ele>
        <time>2017-04-22T11:04:56.000Z</time>
      </trkpt>
      <trkpt lat="46.83296" lon="6.54394">
        <ele>1220.4000244141</ele>
        <time>2017-04-22T11:04:59.000Z</time>
      </trkpt>
      <trkpt lat="46.83295" lon="6.54391">
        <ele>1220.8000488281</ele>
        <time>2017-04-22T11:05:00.000Z</time>
      </trkpt>
      <trkpt lat="46.83295" lon="6.54388">
        <ele>1221</ele>
        <time>2017-04-22T11:05:01.000Z</time>
      </trkpt>
      <trkpt lat="46.83293" lon="6.54375">
        <ele>1221.8000488281</ele>
        <time>2017-04-22T11:05:05.000Z</time>
      </trkpt>
      <trkpt lat="46.83292" lon="6.5436">
        <ele>1222.5999755859</ele>
        <time>2017-04-22T11:05:09.000Z</time>
      </trkpt>
      <trkpt lat="46.83291" lon="6.54352">
        <ele>1223</ele>
        <time>2017-04-22T11:05:11.000Z</time>
      </trkpt>
      <trkpt lat="46.83291" lon="6.54337">
        <ele>1223.5999755859</ele>
        <time>2017-04-22T11:05:15.000Z</time>
      </trkpt>
      <trkpt lat="46.83291" lon="6.54315">
        <ele>1224.1999511719</ele>
        <time>2017-04-22T11:05:21.000Z</time>
      </trkpt>
      <trkpt lat="46.83291" lon="6.54308">
        <ele>1224.8000488281</ele>
        <time>2017-04-22T11:05:23.000Z</time>
      </trkpt>
      <trkpt lat="46.83291" lon="6.54302">
        <ele>1225.4000244141</ele>
        <time>2017-04-22T11:05:25.000Z</time>
      </trkpt>
      <trkpt lat="46.83291" lon="6.54296">
        <ele>1225.8000488281</ele>
        <time>2017-04-22T11:05:27.000Z</time>
      </trkpt>
      <trkpt lat="46.83291" lon="6.54293">
        <ele>1226</ele>
        <time>2017-04-22T11:05:28.000Z</time>
      </trkpt>
      <trkpt lat="46.8329" lon="6.54287">
        <ele>1226.8000488281</ele>
        <time>2017-04-22T11:05:30.000Z</time>
      </trkpt>
      <trkpt lat="46.83291" lon="6.54274">
        <ele>1227.8000488281</ele>
        <time>2017-04-22T11:05:34.000Z</time>
      </trkpt>
      <trkpt lat="46.83291" lon="6.54271">
        <ele>1228</ele>
        <time>2017-04-22T11:05:35.000Z</time>
      </trkpt>
      <trkpt lat="46.83292" lon="6.54262">
        <ele>1229.1999511719</ele>
        <time>2017-04-22T11:05:38.000Z</time>
      </trkpt>
      <trkpt lat="46.83293" lon="6.54257">
        <ele>1229.8000488281</ele>
        <time>2017-04-22T11:05:40.000Z</time>
      </trkpt>
      <trkpt lat="46.83293" lon="6.54254">
        <ele>1230.4000244141</ele>
        <time>2017-04-22T11:05:41.000Z</time>
      </trkpt>
      <trkpt lat="46.83297" lon="6.54248">
        <ele>1231.5999755859</ele>
        <time>2017-04-22T11:05:44.000Z</time>
      </trkpt>
      <trkpt lat="46.83298" lon="6.54247">
        <ele>1232</ele>
        <time>2017-04-22T11:05:45.000Z</time>
      </trkpt>
      <trkpt lat="46.83302" lon="6.54251">
        <ele>1232.5999755859</ele>
        <time>2017-04-22T11:05:48.000Z</time>
      </trkpt>
      <trkpt lat="46.83304" lon="6.54253">
        <ele>1232.8000488281</ele>
        <time>2017-04-22T11:05:49.000Z</time>
      </trkpt>
      <trkpt lat="46.83309" lon="6.54262">
        <ele>1233.8000488281</ele>
        <time>2017-04-22T11:05:53.000Z</time>
      </trkpt>
      <trkpt lat="46.8331" lon="6.54265">
        <ele>1234</ele>
        <time>2017-04-22T11:05:54.000Z</time>
      </trkpt>
      <trkpt lat="46.83314" lon="6.54273">
        <ele>1235</ele>
        <time>2017-04-22T11:05:57.000Z</time>
      </trkpt>
      <trkpt lat="46.83319" lon="6.54282">
        <ele>1235.5999755859</ele>
        <time>2017-04-22T11:06:01.000Z</time>
      </trkpt>
      <trkpt lat="46.8332" lon="6.54284">
        <ele>1236</ele>
        <time>2017-04-22T11:06:02.000Z</time>
      </trkpt>
      <trkpt lat="46.83322" lon="6.54289">
        <ele>1236.1999511719</ele>
        <time>2017-04-22T11:06:04.000Z</time>
      </trkpt>
      <trkpt lat="46.83328" lon="6.54296">
        <ele>1236.8000488281</ele>
        <time>2017-04-22T11:06:07.000Z</time>
      </trkpt>
      <trkpt lat="46.83332" lon="6.543">
        <ele>1237</ele>
        <time>2017-04-22T11:06:09.000Z</time>
      </trkpt>
      <trkpt lat="46.8334" lon="6.54307">
        <ele>1237.5999755859</ele>
        <time>2017-04-22T11:06:13.000Z</time>
      </trkpt>
      <trkpt lat="46.83344" lon="6.54309">
        <ele>1238</ele>
        <time>2017-04-22T11:06:15.000Z</time>
      </trkpt>
      <trkpt lat="46.83352" lon="6.54315">
        <ele>1239</ele>
        <time>2017-04-22T11:06:19.000Z</time>
      </trkpt>
      <trkpt lat="46.83353" lon="6.54317">
        <ele>1239.1999511719</ele>
        <time>2017-04-22T11:06:20.000Z</time>
      </trkpt>
      <trkpt lat="46.83362" lon="6.54327">
        <ele>1239.8000488281</ele>
        <time>2017-04-22T11:06:25.000Z</time>
      </trkpt>
      <trkpt lat="46.83366" lon="6.54332">
        <ele>1240.5999755859</ele>
        <time>2017-04-22T11:06:27.000Z</time>
      </trkpt>
      <trkpt lat="46.83374" lon="6.54343">
        <ele>1241</ele>
        <time>2017-04-22T11:06:31.000Z</time>
      </trkpt>
      <trkpt lat="46.83382" lon="6.54354">
        <ele>1241.8000488281</ele>
        <time>2017-04-22T11:06:35.000Z</time>
      </trkpt>
      <trkpt lat="46.83384" lon="6.54356">
        <ele>1242</ele>
        <time>2017-04-22T11:06:36.000Z</time>
      </trkpt>
      <trkpt lat="46.83398" lon="6.54375">
        <ele>1242.1999511719</ele>
        <time>2017-04-22T11:06:42.000Z</time>
      </trkpt>
      <trkpt lat="46.83406" lon="6.54388">
        <ele>1243</ele>
        <time>2017-04-22T11:06:46.000Z</time>
      </trkpt>
      <trkpt lat="46.83412" lon="6.54395">
        <ele>1243.4000244141</ele>
        <time>2017-04-22T11:06:48.000Z</time>
      </trkpt>
      <trkpt lat="46.83425" lon="6.54412">
        <ele>1243.8000488281</ele>
        <time>2017-04-22T11:06:53.000Z</time>
      </trkpt>
      <trkpt lat="46.83426" lon="6.54416">
        <ele>1244.1999511719</ele>
        <time>2017-04-22T11:06:54.000Z</time>
      </trkpt>
      <trkpt lat="46.83428" lon="6.54421">
        <ele>1244.4000244141</ele>
        <time>2017-04-22T11:06:56.000Z</time>
      </trkpt>
      <trkpt lat="46.83435" lon="6.54423">
        <ele>1245</ele>
        <time>2017-04-22T11:06:59.000Z</time>
      </trkpt>
      <trkpt lat="46.83439" lon="6.54425">
        <ele>1245.1999511719</ele>
        <time>2017-04-22T11:07:01.000Z</time>
      </trkpt>
      <trkpt lat="46.83447" lon="6.54421">
        <ele>1246.4000244141</ele>
        <time>2017-04-22T11:07:05.000Z</time>
      </trkpt>
      <trkpt lat="46.83447" lon="6.54418">
        <ele>1246.8000488281</ele>
        <time>2017-04-22T11:07:06.000Z</time>
      </trkpt>
      <trkpt lat="46.83445" lon="6.54404">
        <ele>1247.8000488281</ele>
        <time>2017-04-22T11:07:10.000Z</time>
      </trkpt>
      <trkpt lat="46.83444" lon="6.54401">
        <ele>1248.1999511719</ele>
        <time>2017-04-22T11:07:11.000Z</time>
      </trkpt>
      <trkpt lat="46.83442" lon="6.54387">
        <ele>1249.4000244141</ele>
        <time>2017-04-22T11:07:15.000Z</time>
      </trkpt>
      <trkpt lat="46.83439" lon="6.54377">
        <ele>1250.1999511719</ele>
        <time>2017-04-22T11:07:18.000Z</time>
      </trkpt>
      <trkpt lat="46.83437" lon="6.54369">
        <ele>1250.5999755859</ele>
        <time>2017-04-22T11:07:20.000Z</time>
      </trkpt>
      <trkpt lat="46.83432" lon="6.54355">
        <ele>1252</ele>
        <time>2017-04-22T11:07:24.000Z</time>
      </trkpt>
      <trkpt lat="46.83432" lon="6.54351">
        <ele>1252.1999511719</ele>
        <time>2017-04-22T11:07:25.000Z</time>
      </trkpt>
      <trkpt lat="46.83428" lon="6.54342">
        <ele>1253</ele>
        <time>2017-04-22T11:07:28.000Z</time>
      </trkpt>
      <trkpt lat="46.83427" lon="6.54334">
        <ele>1253.8000488281</ele>
        <time>2017-04-22T11:07:30.000Z</time>
      </trkpt>
      <trkpt lat="46.83426" lon="6.54331">
        <ele>1254</ele>
        <time>2017-04-22T11:07:31.000Z</time>
      </trkpt>
      <trkpt lat="46.83423" lon="6.54311">
        <ele>1255</ele>
        <time>2017-04-22T11:07:36.000Z</time>
      </trkpt>
      <trkpt lat="46.83422" lon="6.54307">
        <ele>1255.1999511719</ele>
        <time>2017-04-22T11:07:37.000Z</time>
      </trkpt>
      <trkpt lat="46.8342" lon="6.54291">
        <ele>1256.1999511719</ele>
        <time>2017-04-22T11:07:41.000Z</time>
      </trkpt>
      <trkpt lat="46.83419" lon="6.54287">
        <ele>1256.4000244141</ele>
        <time>2017-04-22T11:07:42.000Z</time>
      </trkpt>
      <trkpt lat="46.83416" lon="6.54272">
        <ele>1257.5999755859</ele>
        <time>2017-04-22T11:07:46.000Z</time>
      </trkpt>
      <trkpt lat="46.83416" lon="6.54268">
        <ele>1257.8000488281</ele>
        <time>2017-04-22T11:07:47.000Z</time>
      </trkpt>
      <trkpt lat="46.83412" lon="6.5425">
        <ele>1258.8000488281</ele>
        <time>2017-04-22T11:07:51.000Z</time>
      </trkpt>
      <trkpt lat="46.83411" lon="6.54246">
        <ele>1259</ele>
        <time>2017-04-22T11:07:52.000Z</time>
      </trkpt>
      <trkpt lat="46.83407" lon="6.5423">
        <ele>1260.1999511719</ele>
        <time>2017-04-22T11:07:56.000Z</time>
      </trkpt>
      <trkpt lat="46.83404" lon="6.54214">
        <ele>1261.1999511719</ele>
        <time>2017-04-22T11:08:00.000Z</time>
      </trkpt>
      <trkpt lat="46.83402" lon="6.54203">
        <ele>1262.1999511719</ele>
        <time>2017-04-22T11:08:03.000Z</time>
      </trkpt>
      <trkpt lat="46.83402" lon="6.542">
        <ele>1262.4000244141</ele>
        <time>2017-04-22T11:08:04.000Z</time>
      </trkpt>
      <trkpt lat="46.834" lon="6.54179">
        <ele>1263.5999755859</ele>
        <time>2017-04-22T11:08:10.000Z</time>
      </trkpt>
      <trkpt lat="46.83401" lon="6.54165">
        <ele>1264.8000488281</ele>
        <time>2017-04-22T11:08:14.000Z</time>
      </trkpt>
      <trkpt lat="46.83403" lon="6.54156">
        <ele>1265.4000244141</ele>
        <time>2017-04-22T11:08:17.000Z</time>
      </trkpt>
      <trkpt lat="46.83404" lon="6.54154">
        <ele>1265.8000488281</ele>
        <time>2017-04-22T11:08:18.000Z</time>
      </trkpt>
      <trkpt lat="46.83408" lon="6.54145">
        <ele>1267</ele>
        <time>2017-04-22T11:08:22.000Z</time>
      </trkpt>
      <trkpt lat="46.83412" lon="6.54139">
        <ele>1267.5999755859</ele>
        <time>2017-04-22T11:08:25.000Z</time>
      </trkpt>
      <trkpt lat="46.83415" lon="6.54135">
        <ele>1268</ele>
        <time>2017-04-22T11:08:27.000Z</time>
      </trkpt>
      <trkpt lat="46.83416" lon="6.54131">
        <ele>1268.1999511719</ele>
        <time>2017-04-22T11:08:29.000Z</time>
      </trkpt>
      <trkpt lat="46.83416" lon="6.54119">
        <ele>1269.5999755859</ele>
        <time>2017-04-22T11:08:34.000Z</time>
      </trkpt>
      <trkpt lat="46.83415" lon="6.54112">
        <ele>1270.5999755859</ele>
        <time>2017-04-22T11:08:38.000Z</time>
      </trkpt>
      <trkpt lat="46.83414" lon="6.5411">
        <ele>1270.8000488281</ele>
        <time>2017-04-22T11:08:39.000Z</time>
      </trkpt>
      <trkpt lat="46.83413" lon="6.54101">
        <ele>1271.8000488281</ele>
        <time>2017-04-22T11:08:42.000Z</time>
      </trkpt>
      <trkpt lat="46.83413" lon="6.54099">
        <ele>1272.1999511719</ele>
        <time>2017-04-22T11:08:43.000Z</time>
      </trkpt>
      <trkpt lat="46.83408" lon="6.54093">
        <ele>1272.8000488281</ele>
        <time>2017-04-22T11:08:46.000Z</time>
      </trkpt>
      <trkpt lat="46.83407" lon="6.54091">
        <ele>1273</ele>
        <time>2017-04-22T11:08:47.000Z</time>
      </trkpt>
      <trkpt lat="46.83407" lon="6.54076">
        <ele>1273.1999511719</ele>
        <time>2017-04-22T11:08:52.000Z</time>
      </trkpt>
      <trkpt lat="46.83406" lon="6.5406">
        <ele>1273.4000244141</ele>
        <time>2017-04-22T11:08:56.000Z</time>
      </trkpt>
      <trkpt lat="46.83406" lon="6.54056">
        <ele>1273.5999755859</ele>
        <time>2017-04-22T11:08:57.000Z</time>
      </trkpt>
      <trkpt lat="46.83406" lon="6.54048">
        <ele>1274</ele>
        <time>2017-04-22T11:08:59.000Z</time>
      </trkpt>
      <trkpt lat="46.83408" lon="6.54029">
        <ele>1274.8000488281</ele>
        <time>2017-04-22T11:09:04.000Z</time>
      </trkpt>
      <trkpt lat="46.83408" lon="6.54021">
        <ele>1275</ele>
        <time>2017-04-22T11:09:06.000Z</time>
      </trkpt>
      <trkpt lat="46.83407" lon="6.54006">
        <ele>1275.8000488281</ele>
        <time>2017-04-22T11:09:10.000Z</time>
      </trkpt>
      <trkpt lat="46.83406" lon="6.54003">
        <ele>1276.1999511719</ele>
        <time>2017-04-22T11:09:11.000Z</time>
      </trkpt>
      <trkpt lat="46.83401" lon="6.53983">
        <ele>1277.1999511719</ele>
        <time>2017-04-22T11:09:16.000Z</time>
      </trkpt>
      <trkpt lat="46.83399" lon="6.53978">
        <ele>1277.1999511719</ele>
        <time>2017-04-22T11:09:17.000Z</time>
      </trkpt>
      <trkpt lat="46.83394" lon="6.53965">
        <ele>1278.5999755859</ele>
        <time>2017-04-22T11:09:21.000Z</time>
      </trkpt>
      <trkpt lat="46.83392" lon="6.5396">
        <ele>1279</ele>
        <time>2017-04-22T11:09:23.000Z</time>
      </trkpt>
      <trkpt lat="46.83388" lon="6.53955">
        <ele>1279.5999755859</ele>
        <time>2017-04-22T11:09:25.000Z</time>
      </trkpt>
      <trkpt lat="46.83382" lon="6.53947">
        <ele>1281</ele>
        <time>2017-04-22T11:09:29.000Z</time>
      </trkpt>
      <trkpt lat="46.83381" lon="6.53944">
        <ele>1281.4000244141</ele>
        <time>2017-04-22T11:09:30.000Z</time>
      </trkpt>
      <trkpt lat="46.83378" lon="6.53939">
        <ele>1282</ele>
        <time>2017-04-22T11:09:32.000Z</time>
      </trkpt>
      <trkpt lat="46.83369" lon="6.53924">
        <ele>1283</ele>
        <time>2017-04-22T11:09:37.000Z</time>
      </trkpt>
      <trkpt lat="46.83355" lon="6.539">
        <ele>1284</ele>
        <time>2017-04-22T11:09:43.000Z</time>
      </trkpt>
      <trkpt lat="46.83353" lon="6.53896">
        <ele>1284</ele>
        <time>2017-04-22T11:09:44.000Z</time>
      </trkpt>
      <trkpt lat="46.8335" lon="6.53891">
        <ele>1284.1999511719</ele>
        <time>2017-04-22T11:09:45.000Z</time>
      </trkpt>
      <trkpt lat="46.83342" lon="6.53875">
        <ele>1284.5999755859</ele>
        <time>2017-04-22T11:09:48.000Z</time>
      </trkpt>
      <trkpt lat="46.8334" lon="6.53869">
        <ele>1284.5999755859</ele>
        <time>2017-04-22T11:09:49.000Z</time>
      </trkpt>
      <trkpt lat="46.8333" lon="6.53853">
        <ele>1284.5999755859</ele>
        <time>2017-04-22T11:09:52.000Z</time>
      </trkpt>
      <trkpt lat="46.83326" lon="6.53848">
        <ele>1284.4000244141</ele>
        <time>2017-04-22T11:09:53.000Z</time>
      </trkpt>
      <trkpt lat="46.83311" lon="6.53829">
        <ele>1284</ele>
        <time>2017-04-22T11:09:57.000Z</time>
      </trkpt>
      <trkpt lat="46.83302" lon="6.53818">
        <ele>1283.5999755859</ele>
        <time>2017-04-22T11:09:59.000Z</time>
      </trkpt>
      <trkpt lat="46.83279" lon="6.53788">
        <ele>1284</ele>
        <time>2017-04-22T11:10:05.000Z</time>
      </trkpt>
      <trkpt lat="46.83269" lon="6.53772">
        <ele>1285.4000244141</ele>
        <time>2017-04-22T11:10:09.000Z</time>
      </trkpt>
      <trkpt lat="46.83267" lon="6.53768">
        <ele>1286.1999511719</ele>
        <time>2017-04-22T11:10:10.000Z</time>
      </trkpt>
      <trkpt lat="46.83266" lon="6.53762">
        <ele>1286.5999755859</ele>
        <time>2017-04-22T11:10:11.000Z</time>
      </trkpt>
      <trkpt lat="46.83262" lon="6.53745">
        <ele>1287.1999511719</ele>
        <time>2017-04-22T11:10:14.000Z</time>
      </trkpt>
      <trkpt lat="46.83261" lon="6.53732">
        <ele>1287.1999511719</ele>
        <time>2017-04-22T11:10:16.000Z</time>
      </trkpt>
      <trkpt lat="46.83267" lon="6.53707">
        <ele>1287.4000244141</ele>
        <time>2017-04-22T11:10:20.000Z</time>
      </trkpt>
      <trkpt lat="46.83277" lon="6.53682">
        <ele>1287.4000244141</ele>
        <time>2017-04-22T11:10:24.000Z</time>
      </trkpt>
      <trkpt lat="46.83278" lon="6.53675">
        <ele>1287.4000244141</ele>
        <time>2017-04-22T11:10:25.000Z</time>
      </trkpt>
      <trkpt lat="46.83274" lon="6.53657">
        <ele>1287.8000488281</ele>
        <time>2017-04-22T11:10:28.000Z</time>
      </trkpt>
      <trkpt lat="46.83272" lon="6.53647">
        <ele>1288</ele>
        <time>2017-04-22T11:10:30.000Z</time>
      </trkpt>
      <trkpt lat="46.83266" lon="6.53632">
        <ele>1289</ele>
        <time>2017-04-22T11:10:33.000Z</time>
      </trkpt>
      <trkpt lat="46.83261" lon="6.53617">
        <ele>1290.1999511719</ele>
        <time>2017-04-22T11:10:36.000Z</time>
      </trkpt>
      <trkpt lat="46.83259" lon="6.5361">
        <ele>1290.4000244141</ele>
        <time>2017-04-22T11:10:37.000Z</time>
      </trkpt>
      <trkpt lat="46.83257" lon="6.53604">
        <ele>1290.4000244141</ele>
        <time>2017-04-22T11:10:38.000Z</time>
      </trkpt>
      <trkpt lat="46.83251" lon="6.53592">
        <ele>1290.4000244141</ele>
        <time>2017-04-22T11:10:40.000Z</time>
      </trkpt>
      <trkpt lat="46.83248" lon="6.53587">
        <ele>1290.4000244141</ele>
        <time>2017-04-22T11:10:41.000Z</time>
      </trkpt>
      <trkpt lat="46.8323" lon="6.53562">
        <ele>1290.4000244141</ele>
        <time>2017-04-22T11:10:46.000Z</time>
      </trkpt>
      <trkpt lat="46.83226" lon="6.53554">
        <ele>1290.5999755859</ele>
        <time>2017-04-22T11:10:48.000Z</time>
      </trkpt>
      <trkpt lat="46.83223" lon="6.53545">
        <ele>1291</ele>
        <time>2017-04-22T11:10:50.000Z</time>
      </trkpt>
      <trkpt lat="46.8322" lon="6.53536">
        <ele>1291.5999755859</ele>
        <time>2017-04-22T11:10:52.000Z</time>
      </trkpt>
      <trkpt lat="46.83219" lon="6.53525">
        <ele>1292.5999755859</ele>
        <time>2017-04-22T11:10:55.000Z</time>
      </trkpt>
      <trkpt lat="46.83218" lon="6.53509">
        <ele>1293.8000488281</ele>
        <time>2017-04-22T11:10:59.000Z</time>
      </trkpt>
      <trkpt lat="46.83217" lon="6.53502">
        <ele>1294.5999755859</ele>
        <time>2017-04-22T11:11:01.000Z</time>
      </trkpt>
      <trkpt lat="46.83216" lon="6.53499">
        <ele>1295</ele>
        <time>2017-04-22T11:11:02.000Z</time>
      </trkpt>
      <trkpt lat="46.83211" lon="6.53485">
        <ele>1296</ele>
        <time>2017-04-22T11:11:06.000Z</time>
      </trkpt>
      <trkpt lat="46.83209" lon="6.53477">
        <ele>1296.1999511719</ele>
        <time>2017-04-22T11:11:08.000Z</time>
      </trkpt>
      <trkpt lat="46.83209" lon="6.53473">
        <ele>1296.4000244141</ele>
        <time>2017-04-22T11:11:09.000Z</time>
      </trkpt>
      <trkpt lat="46.83209" lon="6.53465">
        <ele>1297</ele>
        <time>2017-04-22T11:11:12.000Z</time>
      </trkpt>
      <trkpt lat="46.83209" lon="6.53463">
        <ele>1297.4000244141</ele>
        <time>2017-04-22T11:11:13.000Z</time>
      </trkpt>
      <trkpt lat="46.83208" lon="6.53454">
        <ele>1298.4000244141</ele>
        <time>2017-04-22T11:11:16.000Z</time>
      </trkpt>
      <trkpt lat="46.83207" lon="6.53447">
        <ele>1299.1999511719</ele>
        <time>2017-04-22T11:11:18.000Z</time>
      </trkpt>
      <trkpt lat="46.83207" lon="6.53443">
        <ele>1300.1999511719</ele>
        <time>2017-04-22T11:11:20.000Z</time>
      </trkpt>
      <trkpt lat="46.83207" lon="6.53436">
        <ele>1301.1999511719</ele>
        <time>2017-04-22T11:11:23.000Z</time>
      </trkpt>
      <trkpt lat="46.83207" lon="6.53433">
        <ele>1301.5999755859</ele>
        <time>2017-04-22T11:11:24.000Z</time>
      </trkpt>
      <trkpt lat="46.83207" lon="6.53431">
        <ele>1302.1999511719</ele>
        <time>2017-04-22T11:11:25.000Z</time>
      </trkpt>
      <trkpt lat="46.83209" lon="6.53421">
        <ele>1303.4000244141</ele>
        <time>2017-04-22T11:11:29.000Z</time>
      </trkpt>
      <trkpt lat="46.83209" lon="6.53418">
        <ele>1303.8000488281</ele>
        <time>2017-04-22T11:11:30.000Z</time>
      </trkpt>
      <trkpt lat="46.83209" lon="6.53413">
        <ele>1304.5999755859</ele>
        <time>2017-04-22T11:11:32.000Z</time>
      </trkpt>
      <trkpt lat="46.83206" lon="6.53399">
        <ele>1305</ele>
        <time>2017-04-22T11:11:36.000Z</time>
      </trkpt>
      <trkpt lat="46.83203" lon="6.53376">
        <ele>1305.4000244141</ele>
        <time>2017-04-22T11:11:41.000Z</time>
      </trkpt>
      <trkpt lat="46.83203" lon="6.53353">
        <ele>1305.5999755859</ele>
        <time>2017-04-22T11:11:46.000Z</time>
      </trkpt>
      <trkpt lat="46.83202" lon="6.53327">
        <ele>1305.8000488281</ele>
        <time>2017-04-22T11:11:51.000Z</time>
      </trkpt>
      <trkpt lat="46.83204" lon="6.53312">
        <ele>1305.4000244141</ele>
        <time>2017-04-22T11:11:53.000Z</time>
      </trkpt>
      <trkpt lat="46.83207" lon="6.53299">
        <ele>1304.5999755859</ele>
        <time>2017-04-22T11:11:55.000Z</time>
      </trkpt>
      <trkpt lat="46.83209" lon="6.53285">
        <ele>1305.1999511719</ele>
        <time>2017-04-22T11:11:59.000Z</time>
      </trkpt>
      <trkpt lat="46.8321" lon="6.53279">
        <ele>1305.8000488281</ele>
        <time>2017-04-22T11:12:01.000Z</time>
      </trkpt>
      <trkpt lat="46.83212" lon="6.53274">
        <ele>1306.4000244141</ele>
        <time>2017-04-22T11:12:03.000Z</time>
      </trkpt>
      <trkpt lat="46.83213" lon="6.53271">
        <ele>1306.8000488281</ele>
        <time>2017-04-22T11:12:04.000Z</time>
      </trkpt>
      <trkpt lat="46.83212" lon="6.53259">
        <ele>1308.1999511719</ele>
        <time>2017-04-22T11:12:08.000Z</time>
      </trkpt>
      <trkpt lat="46.83211" lon="6.53258">
        <ele>1308.5999755859</ele>
        <time>2017-04-22T11:12:09.000Z</time>
      </trkpt>
      <trkpt lat="46.8321" lon="6.53256">
        <ele>1308.8000488281</ele>
        <time>2017-04-22T11:12:10.000Z</time>
      </trkpt>
      <trkpt lat="46.83203" lon="6.53263">
        <ele>1307.8000488281</ele>
        <time>2017-04-22T11:12:13.000Z</time>
      </trkpt>
      <trkpt lat="46.83199" lon="6.53266">
        <ele>1306.4000244141</ele>
        <time>2017-04-22T11:12:14.000Z</time>
      </trkpt>
      <trkpt lat="46.83195" lon="6.53268">
        <ele>1305.1999511719</ele>
        <time>2017-04-22T11:12:15.000Z</time>
      </trkpt>
      <trkpt lat="46.83193" lon="6.53269">
        <ele>1304.1999511719</ele>
        <time>2017-04-22T11:12:16.000Z</time>
      </trkpt>
      <trkpt lat="46.8319" lon="6.53271">
        <ele>1303.5999755859</ele>
        <time>2017-04-22T11:12:17.000Z</time>
      </trkpt>
      <trkpt lat="46.83188" lon="6.53273">
        <ele>1303</ele>
        <time>2017-04-22T11:12:18.000Z</time>
      </trkpt>
      <trkpt lat="46.83186" lon="6.53276">
        <ele>1302.8000488281</ele>
        <time>2017-04-22T11:12:19.000Z</time>
      </trkpt>
      <trkpt lat="46.83183" lon="6.53281">
        <ele>1302.4000244141</ele>
        <time>2017-04-22T11:12:20.000Z</time>
      </trkpt>
      <trkpt lat="46.8318" lon="6.53285">
        <ele>1302</ele>
        <time>2017-04-22T11:12:21.000Z</time>
      </trkpt>
      <trkpt lat="46.83177" lon="6.53284">
        <ele>1301.1999511719</ele>
        <time>2017-04-22T11:12:22.000Z</time>
      </trkpt>
      <trkpt lat="46.83173" lon="6.53281">
        <ele>1300.4000244141</ele>
        <time>2017-04-22T11:12:23.000Z</time>
      </trkpt>
      <trkpt lat="46.8317" lon="6.53278">
        <ele>1299.4000244141</ele>
        <time>2017-04-22T11:12:24.000Z</time>
      </trkpt>
      <trkpt lat="46.83164" lon="6.53276">
        <ele>1297.8000488281</ele>
        <time>2017-04-22T11:12:26.000Z</time>
      </trkpt>
      <trkpt lat="46.83161" lon="6.53276">
        <ele>1297</ele>
        <time>2017-04-22T11:12:27.000Z</time>
      </trkpt>
      <trkpt lat="46.83157" lon="6.53276">
        <ele>1296</ele>
        <time>2017-04-22T11:12:28.000Z</time>
      </trkpt>
      <trkpt lat="46.8315" lon="6.53281">
        <ele>1294.1999511719</ele>
        <time>2017-04-22T11:12:30.000Z</time>
      </trkpt>
      <trkpt lat="46.83148" lon="6.53284">
        <ele>1293.5999755859</ele>
        <time>2017-04-22T11:12:31.000Z</time>
      </trkpt>
      <trkpt lat="46.83146" lon="6.53288">
        <ele>1293</ele>
        <time>2017-04-22T11:12:32.000Z</time>
      </trkpt>
      <trkpt lat="46.83143" lon="6.53294">
        <ele>1292</ele>
        <time>2017-04-22T11:12:34.000Z</time>
      </trkpt>
      <trkpt lat="46.83141" lon="6.53296">
        <ele>1291.8000488281</ele>
        <time>2017-04-22T11:12:35.000Z</time>
      </trkpt>
      <trkpt lat="46.83135" lon="6.533">
        <ele>1291.1999511719</ele>
        <time>2017-04-22T11:12:37.000Z</time>
      </trkpt>
      <trkpt lat="46.83132" lon="6.533">
        <ele>1291</ele>
        <time>2017-04-22T11:12:38.000Z</time>
      </trkpt>
      <trkpt lat="46.83129" lon="6.533">
        <ele>1290.5999755859</ele>
        <time>2017-04-22T11:12:39.000Z</time>
      </trkpt>
      <trkpt lat="46.83125" lon="6.53303">
        <ele>1288.8000488281</ele>
        <time>2017-04-22T11:12:42.000Z</time>
      </trkpt>
      <trkpt lat="46.83123" lon="6.53305">
        <ele>1287.5999755859</ele>
        <time>2017-04-22T11:12:45.000Z</time>
      </trkpt>
      <trkpt lat="46.83119" lon="6.53312">
        <ele>1287</ele>
        <time>2017-04-22T11:12:48.000Z</time>
      </trkpt>
      <trkpt lat="46.83117" lon="6.53318">
        <ele>1286.8000488281</ele>
        <time>2017-04-22T11:12:50.000Z</time>
      </trkpt>
      <trkpt lat="46.83117" lon="6.53322">
        <ele>1286.5999755859</ele>
        <time>2017-04-22T11:12:51.000Z</time>
      </trkpt>
      <trkpt lat="46.83117" lon="6.53325">
        <ele>1286.4000244141</ele>
        <time>2017-04-22T11:12:52.000Z</time>
      </trkpt>
      <trkpt lat="46.83119" lon="6.53332">
        <ele>1286.4000244141</ele>
        <time>2017-04-22T11:12:54.000Z</time>
      </trkpt>
      <trkpt lat="46.83119" lon="6.53335">
        <ele>1286.5999755859</ele>
        <time>2017-04-22T11:12:55.000Z</time>
      </trkpt>
      <trkpt lat="46.83122" lon="6.53348">
        <ele>1287.4000244141</ele>
        <time>2017-04-22T11:12:59.000Z</time>
      </trkpt>
      <trkpt lat="46.83124" lon="6.53355">
        <ele>1288</ele>
        <time>2017-04-22T11:13:01.000Z</time>
      </trkpt>
      <trkpt lat="46.83127" lon="6.53367">
        <ele>1288.4000244141</ele>
        <time>2017-04-22T11:13:04.000Z</time>
      </trkpt>
      <trkpt lat="46.83132" lon="6.53382">
        <ele>1289.1999511719</ele>
        <time>2017-04-22T11:13:08.000Z</time>
      </trkpt>
      <trkpt lat="46.83134" lon="6.53386">
        <ele>1289.4000244141</ele>
        <time>2017-04-22T11:13:09.000Z</time>
      </trkpt>
      <trkpt lat="46.83141" lon="6.53402">
        <ele>1290.4000244141</ele>
        <time>2017-04-22T11:13:13.000Z</time>
      </trkpt>
      <trkpt lat="46.83143" lon="6.53406">
        <ele>1290.5999755859</ele>
        <time>2017-04-22T11:13:14.000Z</time>
      </trkpt>
      <trkpt lat="46.83152" lon="6.53429">
        <ele>1290.5999755859</ele>
        <time>2017-04-22T11:13:19.000Z</time>
      </trkpt>
      <trkpt lat="46.83164" lon="6.53454">
        <ele>1290.4000244141</ele>
        <time>2017-04-22T11:13:24.000Z</time>
      </trkpt>
      <trkpt lat="46.83172" lon="6.53474">
        <ele>1289.5999755859</ele>
        <time>2017-04-22T11:13:28.000Z</time>
      </trkpt>
      <trkpt lat="46.83174" lon="6.53479">
        <ele>1289.4000244141</ele>
        <time>2017-04-22T11:13:29.000Z</time>
      </trkpt>
      <trkpt lat="46.83185" lon="6.53497">
        <ele>1289.4000244141</ele>
        <time>2017-04-22T11:13:33.000Z</time>
      </trkpt>
      <trkpt lat="46.83191" lon="6.53511">
        <ele>1289.8000488281</ele>
        <time>2017-04-22T11:13:36.000Z</time>
      </trkpt>
      <trkpt lat="46.83195" lon="6.5352">
        <ele>1290.1999511719</ele>
        <time>2017-04-22T11:13:38.000Z</time>
      </trkpt>
      <trkpt lat="46.832" lon="6.53529">
        <ele>1290.5999755859</ele>
        <time>2017-04-22T11:13:40.000Z</time>
      </trkpt>
      <trkpt lat="46.83207" lon="6.53534">
        <ele>1290.8000488281</ele>
        <time>2017-04-22T11:13:42.000Z</time>
      </trkpt>
      <trkpt lat="46.83211" lon="6.53544">
        <ele>1290.8000488281</ele>
        <time>2017-04-22T11:13:45.000Z</time>
      </trkpt>
      <trkpt lat="46.83206" lon="6.53548">
        <ele>1290.8000488281</ele>
        <time>2017-04-22T11:13:47.000Z</time>
      </trkpt>
      <trkpt lat="46.83203" lon="6.53552">
        <ele>1290.5999755859</ele>
        <time>2017-04-22T11:13:48.000Z</time>
      </trkpt>
      <trkpt lat="46.83198" lon="6.53558">
        <ele>1289.4000244141</ele>
        <time>2017-04-22T11:13:50.000Z</time>
      </trkpt>
      <trkpt lat="46.83195" lon="6.53561">
        <ele>1288</ele>
        <time>2017-04-22T11:13:51.000Z</time>
      </trkpt>
      <trkpt lat="46.83191" lon="6.53566">
        <ele>1286.4000244141</ele>
        <time>2017-04-22T11:13:52.000Z</time>
      </trkpt>
      <trkpt lat="46.83183" lon="6.53575">
        <ele>1284</ele>
        <time>2017-04-22T11:13:54.000Z</time>
      </trkpt>
      <trkpt lat="46.83175" lon="6.53582">
        <ele>1282.5999755859</ele>
        <time>2017-04-22T11:13:56.000Z</time>
      </trkpt>
      <trkpt lat="46.83166" lon="6.53586">
        <ele>1281</ele>
        <time>2017-04-22T11:13:58.000Z</time>
      </trkpt>
      <trkpt lat="46.83156" lon="6.53591">
        <ele>1279.1999511719</ele>
        <time>2017-04-22T11:14:00.000Z</time>
      </trkpt>
      <trkpt lat="46.83151" lon="6.53591">
        <ele>1277.1999511719</ele>
        <time>2017-04-22T11:14:01.000Z</time>
      </trkpt>
      <trkpt lat="46.83146" lon="6.5359">
        <ele>1275.1999511719</ele>
        <time>2017-04-22T11:14:02.000Z</time>
      </trkpt>
      <trkpt lat="46.8314" lon="6.53588">
        <ele>1274.1999511719</ele>
        <time>2017-04-22T11:14:03.000Z</time>
      </trkpt>
      <trkpt lat="46.83134" lon="6.53585">
        <ele>1273.1999511719</ele>
        <time>2017-04-22T11:14:04.000Z</time>
      </trkpt>
      <trkpt lat="46.83127" lon="6.53579">
        <ele>1272</ele>
        <time>2017-04-22T11:14:05.000Z</time>
      </trkpt>
      <trkpt lat="46.83122" lon="6.53571">
        <ele>1270.4000244141</ele>
        <time>2017-04-22T11:14:06.000Z</time>
      </trkpt>
      <trkpt lat="46.83119" lon="6.53563">
        <ele>1269</ele>
        <time>2017-04-22T11:14:07.000Z</time>
      </trkpt>
      <trkpt lat="46.83116" lon="6.53556">
        <ele>1268</ele>
        <time>2017-04-22T11:14:08.000Z</time>
      </trkpt>
      <trkpt lat="46.83114" lon="6.53549">
        <ele>1267.5999755859</ele>
        <time>2017-04-22T11:14:09.000Z</time>
      </trkpt>
      <trkpt lat="46.83112" lon="6.53542">
        <ele>1267.1999511719</ele>
        <time>2017-04-22T11:14:10.000Z</time>
      </trkpt>
      <trkpt lat="46.83106" lon="6.53518">
        <ele>1267.1999511719</ele>
        <time>2017-04-22T11:14:14.000Z</time>
      </trkpt>
      <trkpt lat="46.83099" lon="6.535">
        <ele>1268.4000244141</ele>
        <time>2017-04-22T11:14:18.000Z</time>
      </trkpt>
      <trkpt lat="46.83093" lon="6.53479">
        <ele>1268.5999755859</ele>
        <time>2017-04-22T11:14:22.000Z</time>
      </trkpt>
      <trkpt lat="46.83091" lon="6.53471">
        <ele>1268.5999755859</ele>
        <time>2017-04-22T11:14:23.000Z</time>
      </trkpt>
      <trkpt lat="46.83084" lon="6.53448">
        <ele>1268.1999511719</ele>
        <time>2017-04-22T11:14:26.000Z</time>
      </trkpt>
      <trkpt lat="46.83079" lon="6.53433">
        <ele>1267.4000244141</ele>
        <time>2017-04-22T11:14:28.000Z</time>
      </trkpt>
      <trkpt lat="46.83077" lon="6.53426">
        <ele>1266.8000488281</ele>
        <time>2017-04-22T11:14:29.000Z</time>
      </trkpt>
      <trkpt lat="46.83076" lon="6.5342">
        <ele>1265.8000488281</ele>
        <time>2017-04-22T11:14:30.000Z</time>
      </trkpt>
      <trkpt lat="46.83072" lon="6.53408">
        <ele>1265.4000244141</ele>
        <time>2017-04-22T11:14:32.000Z</time>
      </trkpt>
      <trkpt lat="46.8307" lon="6.53401">
        <ele>1265.1999511719</ele>
        <time>2017-04-22T11:14:33.000Z</time>
      </trkpt>
      <trkpt lat="46.83064" lon="6.53387">
        <ele>1264.8000488281</ele>
        <time>2017-04-22T11:14:35.000Z</time>
      </trkpt>
      <trkpt lat="46.8306" lon="6.53373">
        <ele>1264</ele>
        <time>2017-04-22T11:14:37.000Z</time>
      </trkpt>
      <trkpt lat="46.83058" lon="6.53367">
        <ele>1263.5999755859</ele>
        <time>2017-04-22T11:14:38.000Z</time>
      </trkpt>
      <trkpt lat="46.83053" lon="6.53357">
        <ele>1262.8000488281</ele>
        <time>2017-04-22T11:14:40.000Z</time>
      </trkpt>
      <trkpt lat="46.83047" lon="6.53351">
        <ele>1261.5999755859</ele>
        <time>2017-04-22T11:14:41.000Z</time>
      </trkpt>
      <trkpt lat="46.83041" lon="6.53343">
        <ele>1259</ele>
        <time>2017-04-22T11:14:42.000Z</time>
      </trkpt>
      <trkpt lat="46.83036" lon="6.53335">
        <ele>1257.1999511719</ele>
        <time>2017-04-22T11:14:43.000Z</time>
      </trkpt>
      <trkpt lat="46.83032" lon="6.53326">
        <ele>1255.8000488281</ele>
        <time>2017-04-22T11:14:44.000Z</time>
      </trkpt>
      <trkpt lat="46.83024" lon="6.5331">
        <ele>1254</ele>
        <time>2017-04-22T11:14:46.000Z</time>
      </trkpt>
      <trkpt lat="46.83019" lon="6.53305">
        <ele>1253.5999755859</ele>
        <time>2017-04-22T11:14:47.000Z</time>
      </trkpt>
      <trkpt lat="46.83012" lon="6.533">
        <ele>1252.8000488281</ele>
        <time>2017-04-22T11:14:48.000Z</time>
      </trkpt>
      <trkpt lat="46.83005" lon="6.53293">
        <ele>1251.8000488281</ele>
        <time>2017-04-22T11:14:49.000Z</time>
      </trkpt>
      <trkpt lat="46.82998" lon="6.53285">
        <ele>1248</ele>
        <time>2017-04-22T11:14:50.000Z</time>
      </trkpt>
      <trkpt lat="46.82994" lon="6.53276">
        <ele>1245.5999755859</ele>
        <time>2017-04-22T11:14:51.000Z</time>
      </trkpt>
      <trkpt lat="46.82989" lon="6.53265">
        <ele>1244.8000488281</ele>
        <time>2017-04-22T11:14:52.000Z</time>
      </trkpt>
      <trkpt lat="46.82984" lon="6.53255">
        <ele>1243.1999511719</ele>
        <time>2017-04-22T11:14:53.000Z</time>
      </trkpt>
      <trkpt lat="46.82979" lon="6.53244">
        <ele>1241.8000488281</ele>
        <time>2017-04-22T11:14:54.000Z</time>
      </trkpt>
      <trkpt lat="46.82975" lon="6.53234">
        <ele>1240</ele>
        <time>2017-04-22T11:14:55.000Z</time>
      </trkpt>
      <trkpt lat="46.82972" lon="6.53225">
        <ele>1238.1999511719</ele>
        <time>2017-04-22T11:14:56.000Z</time>
      </trkpt>
      <trkpt lat="46.82968" lon="6.53215">
        <ele>1237</ele>
        <time>2017-04-22T11:14:57.000Z</time>
      </trkpt>
      <trkpt lat="46.82965" lon="6.53207">
        <ele>1235.8000488281</ele>
        <time>2017-04-22T11:14:58.000Z</time>
      </trkpt>
      <trkpt lat="46.82957" lon="6.53194">
        <ele>1233.8000488281</ele>
        <time>2017-04-22T11:15:00.000Z</time>
      </trkpt>
      <trkpt lat="46.82949" lon="6.53191">
        <ele>1231.8000488281</ele>
        <time>2017-04-22T11:15:02.000Z</time>
      </trkpt>
      <trkpt lat="46.82948" lon="6.53196">
        <ele>1230.5999755859</ele>
        <time>2017-04-22T11:15:03.000Z</time>
      </trkpt>
      <trkpt lat="46.82946" lon="6.53202">
        <ele>1229.5999755859</ele>
        <time>2017-04-22T11:15:04.000Z</time>
      </trkpt>
      <trkpt lat="46.82946" lon="6.53208">
        <ele>1229</ele>
        <time>2017-04-22T11:15:05.000Z</time>
      </trkpt>
      <trkpt lat="46.82945" lon="6.53216">
        <ele>1227.8000488281</ele>
        <time>2017-04-22T11:15:07.000Z</time>
      </trkpt>
      <trkpt lat="46.82942" lon="6.53229">
        <ele>1226.4000244141</ele>
        <time>2017-04-22T11:15:10.000Z</time>
      </trkpt>
      <trkpt lat="46.82941" lon="6.53233">
        <ele>1225.5999755859</ele>
        <time>2017-04-22T11:15:11.000Z</time>
      </trkpt>
      <trkpt lat="46.8294" lon="6.53236">
        <ele>1224.8000488281</ele>
        <time>2017-04-22T11:15:12.000Z</time>
      </trkpt>
      <trkpt lat="46.82939" lon="6.53248">
        <ele>1223.8000488281</ele>
        <time>2017-04-22T11:15:15.000Z</time>
      </trkpt>
      <trkpt lat="46.82938" lon="6.53254">
        <ele>1223.4000244141</ele>
        <time>2017-04-22T11:15:16.000Z</time>
      </trkpt>
      <trkpt lat="46.82936" lon="6.53263">
        <ele>1222.8000488281</ele>
        <time>2017-04-22T11:15:17.000Z</time>
      </trkpt>
      <trkpt lat="46.82937" lon="6.53285">
        <ele>1221.1999511719</ele>
        <time>2017-04-22T11:15:19.000Z</time>
      </trkpt>
      <trkpt lat="46.82939" lon="6.53305">
        <ele>1220.1999511719</ele>
        <time>2017-04-22T11:15:21.000Z</time>
      </trkpt>
      <trkpt lat="46.82941" lon="6.53312">
        <ele>1220</ele>
        <time>2017-04-22T11:15:22.000Z</time>
      </trkpt>
      <trkpt lat="46.82943" lon="6.53316">
        <ele>1220.1999511719</ele>
        <time>2017-04-22T11:15:23.000Z</time>
      </trkpt>
      <trkpt lat="46.82951" lon="6.53332">
        <ele>1221.5999755859</ele>
        <time>2017-04-22T11:15:27.000Z</time>
      </trkpt>
      <trkpt lat="46.82954" lon="6.53338">
        <ele>1222.5999755859</ele>
        <time>2017-04-22T11:15:29.000Z</time>
      </trkpt>
      <trkpt lat="46.82956" lon="6.53342">
        <ele>1223.4000244141</ele>
        <time>2017-04-22T11:15:30.000Z</time>
      </trkpt>
      <trkpt lat="46.82957" lon="6.53347">
        <ele>1223.5999755859</ele>
        <time>2017-04-22T11:15:31.000Z</time>
      </trkpt>
      <trkpt lat="46.82959" lon="6.53356">
        <ele>1224.4000244141</ele>
        <time>2017-04-22T11:15:33.000Z</time>
      </trkpt>
      <trkpt lat="46.82962" lon="6.53364">
        <ele>1225.1999511719</ele>
        <time>2017-04-22T11:15:35.000Z</time>
      </trkpt>
      <trkpt lat="46.82966" lon="6.53371">
        <ele>1226</ele>
        <time>2017-04-22T11:15:37.000Z</time>
      </trkpt>
      <trkpt lat="46.82971" lon="6.53382">
        <ele>1227.1999511719</ele>
        <time>2017-04-22T11:15:40.000Z</time>
      </trkpt>
      <trkpt lat="46.82974" lon="6.53388">
        <ele>1227.8000488281</ele>
        <time>2017-04-22T11:15:42.000Z</time>
      </trkpt>
      <trkpt lat="46.82979" lon="6.53392">
        <ele>1228.4000244141</ele>
        <time>2017-04-22T11:15:44.000Z</time>
      </trkpt>
      <trkpt lat="46.82982" lon="6.53397">
        <ele>1229.5999755859</ele>
        <time>2017-04-22T11:15:46.000Z</time>
      </trkpt>
      <trkpt lat="46.82987" lon="6.53406">
        <ele>1230.5999755859</ele>
        <time>2017-04-22T11:15:49.000Z</time>
      </trkpt>
      <trkpt lat="46.82992" lon="6.53416">
        <ele>1232</ele>
        <time>2017-04-22T11:15:53.000Z</time>
      </trkpt>
      <trkpt lat="46.82994" lon="6.53422">
        <ele>1233.4000244141</ele>
        <time>2017-04-22T11:15:55.000Z</time>
      </trkpt>
      <trkpt lat="46.83" lon="6.53434">
        <ele>1234.1999511719</ele>
        <time>2017-04-22T11:15:59.000Z</time>
      </trkpt>
      <trkpt lat="46.83001" lon="6.53436">
        <ele>1234.4000244141</ele>
        <time>2017-04-22T11:16:00.000Z</time>
      </trkpt>
      <trkpt lat="46.83005" lon="6.53446">
        <ele>1235.4000244141</ele>
        <time>2017-04-22T11:16:04.000Z</time>
      </trkpt>
      <trkpt lat="46.83005" lon="6.53449">
        <ele>1235.5999755859</ele>
        <time>2017-04-22T11:16:05.000Z</time>
      </trkpt>
      <trkpt lat="46.83008" lon="6.53466">
        <ele>1236.4000244141</ele>
        <time>2017-04-22T11:16:09.000Z</time>
      </trkpt>
      <trkpt lat="46.83011" lon="6.53491">
        <ele>1235</ele>
        <time>2017-04-22T11:16:13.000Z</time>
      </trkpt>
      <trkpt lat="46.83011" lon="6.53498">
        <ele>1234.1999511719</ele>
        <time>2017-04-22T11:16:14.000Z</time>
      </trkpt>
      <trkpt lat="46.83012" lon="6.53516">
        <ele>1233</ele>
        <time>2017-04-22T11:16:16.000Z</time>
      </trkpt>
      <trkpt lat="46.83012" lon="6.53525">
        <ele>1232</ele>
        <time>2017-04-22T11:16:17.000Z</time>
      </trkpt>
      <trkpt lat="46.83011" lon="6.53534">
        <ele>1230.8000488281</ele>
        <time>2017-04-22T11:16:18.000Z</time>
      </trkpt>
      <trkpt lat="46.8301" lon="6.5355">
        <ele>1228.8000488281</ele>
        <time>2017-04-22T11:16:20.000Z</time>
      </trkpt>
      <trkpt lat="46.8301" lon="6.53556">
        <ele>1227.8000488281</ele>
        <time>2017-04-22T11:16:21.000Z</time>
      </trkpt>
      <trkpt lat="46.83009" lon="6.53562">
        <ele>1226.8000488281</ele>
        <time>2017-04-22T11:16:22.000Z</time>
      </trkpt>
      <trkpt lat="46.83009" lon="6.53569">
        <ele>1225.8000488281</ele>
        <time>2017-04-22T11:16:23.000Z</time>
      </trkpt>
      <trkpt lat="46.83011" lon="6.53574">
        <ele>1224.8000488281</ele>
        <time>2017-04-22T11:16:24.000Z</time>
      </trkpt>
      <trkpt lat="46.83012" lon="6.53578">
        <ele>1223.8000488281</ele>
        <time>2017-04-22T11:16:25.000Z</time>
      </trkpt>
      <trkpt lat="46.83017" lon="6.53593">
        <ele>1222.8000488281</ele>
        <time>2017-04-22T11:16:28.000Z</time>
      </trkpt>
      <trkpt lat="46.83022" lon="6.53598">
        <ele>1222.5999755859</ele>
        <time>2017-04-22T11:16:30.000Z</time>
      </trkpt>
      <trkpt lat="46.83025" lon="6.53602">
        <ele>1223.1999511719</ele>
        <time>2017-04-22T11:16:32.000Z</time>
      </trkpt>
      <trkpt lat="46.83028" lon="6.53606">
        <ele>1224.4000244141</ele>
        <time>2017-04-22T11:16:34.000Z</time>
      </trkpt>
      <trkpt lat="46.83029" lon="6.53609">
        <ele>1224.8000488281</ele>
        <time>2017-04-22T11:16:35.000Z</time>
      </trkpt>
      <trkpt lat="46.8303" lon="6.53612">
        <ele>1225.1999511719</ele>
        <time>2017-04-22T11:16:36.000Z</time>
      </trkpt>
      <trkpt lat="46.83032" lon="6.53615">
        <ele>1225.5999755859</ele>
        <time>2017-04-22T11:16:37.000Z</time>
      </trkpt>
      <trkpt lat="46.83034" lon="6.5362">
        <ele>1226</ele>
        <time>2017-04-22T11:16:39.000Z</time>
      </trkpt>
      <trkpt lat="46.83038" lon="6.53626">
        <ele>1226.5999755859</ele>
        <time>2017-04-22T11:16:41.000Z</time>
      </trkpt>
      <trkpt lat="46.83039" lon="6.53628">
        <ele>1226.8000488281</ele>
        <time>2017-04-22T11:16:42.000Z</time>
      </trkpt>
      <trkpt lat="46.83042" lon="6.53637">
        <ele>1227</ele>
        <time>2017-04-22T11:16:44.000Z</time>
      </trkpt>
      <trkpt lat="46.83048" lon="6.53653">
        <ele>1227.1999511719</ele>
        <time>2017-04-22T11:16:48.000Z</time>
      </trkpt>
      <trkpt lat="46.83052" lon="6.53659">
        <ele>1227.1999511719</ele>
        <time>2017-04-22T11:16:50.000Z</time>
      </trkpt>
      <trkpt lat="46.83056" lon="6.53665">
        <ele>1227</ele>
        <time>2017-04-22T11:16:52.000Z</time>
      </trkpt>
      <trkpt lat="46.83061" lon="6.53684">
        <ele>1226.4000244141</ele>
        <time>2017-04-22T11:16:56.000Z</time>
      </trkpt>
      <trkpt lat="46.83068" lon="6.53697">
        <ele>1225.5999755859</ele>
        <time>2017-04-22T11:16:58.000Z</time>
      </trkpt>
      <trkpt lat="46.83068" lon="6.53703">
        <ele>1224.8000488281</ele>
        <time>2017-04-22T11:16:59.000Z</time>
      </trkpt>
      <trkpt lat="46.83066" lon="6.53704">
        <ele>1223.5999755859</ele>
        <time>2017-04-22T11:17:00.000Z</time>
      </trkpt>
      <trkpt lat="46.83062" lon="6.53704">
        <ele>1222.5999755859</ele>
        <time>2017-04-22T11:17:01.000Z</time>
      </trkpt>
      <trkpt lat="46.83059" lon="6.53702">
        <ele>1222</ele>
        <time>2017-04-22T11:17:02.000Z</time>
      </trkpt>
      <trkpt lat="46.83055" lon="6.5371">
        <ele>1221</ele>
        <time>2017-04-22T11:17:04.000Z</time>
      </trkpt>
      <trkpt lat="46.83055" lon="6.53718">
        <ele>1219.8000488281</ele>
        <time>2017-04-22T11:17:05.000Z</time>
      </trkpt>
      <trkpt lat="46.83055" lon="6.53725">
        <ele>1219</ele>
        <time>2017-04-22T11:17:06.000Z</time>
      </trkpt>
      <trkpt lat="46.83055" lon="6.53731">
        <ele>1218.4000244141</ele>
        <time>2017-04-22T11:17:07.000Z</time>
      </trkpt>
      <trkpt lat="46.83056" lon="6.53735">
        <ele>1217.5999755859</ele>
        <time>2017-04-22T11:17:08.000Z</time>
      </trkpt>
      <trkpt lat="46.83057" lon="6.53741">
        <ele>1217.1999511719</ele>
        <time>2017-04-22T11:17:09.000Z</time>
      </trkpt>
      <trkpt lat="46.83062" lon="6.53753">
        <ele>1217</ele>
        <time>2017-04-22T11:17:12.000Z</time>
      </trkpt>
      <trkpt lat="46.83064" lon="6.53763">
        <ele>1217.5999755859</ele>
        <time>2017-04-22T11:17:14.000Z</time>
      </trkpt>
      <trkpt lat="46.83067" lon="6.53771">
        <ele>1217.5999755859</ele>
        <time>2017-04-22T11:17:16.000Z</time>
      </trkpt>
      <trkpt lat="46.83069" lon="6.53774">
        <ele>1217.5999755859</ele>
        <time>2017-04-22T11:17:17.000Z</time>
      </trkpt>
      <trkpt lat="46.8307" lon="6.53797">
        <ele>1217.4000244141</ele>
        <time>2017-04-22T11:17:21.000Z</time>
      </trkpt>
      <trkpt lat="46.83072" lon="6.53816">
        <ele>1217</ele>
        <time>2017-04-22T11:17:24.000Z</time>
      </trkpt>
      <trkpt lat="46.83077" lon="6.53833">
        <ele>1216.1999511719</ele>
        <time>2017-04-22T11:17:27.000Z</time>
      </trkpt>
      <trkpt lat="46.8308" lon="6.53839">
        <ele>1216.4000244141</ele>
        <time>2017-04-22T11:17:29.000Z</time>
      </trkpt>
      <trkpt lat="46.83082" lon="6.53841">
        <ele>1216.5999755859</ele>
        <time>2017-04-22T11:17:30.000Z</time>
      </trkpt>
      <trkpt lat="46.83087" lon="6.5385">
        <ele>1218.5999755859</ele>
        <time>2017-04-22T11:17:34.000Z</time>
      </trkpt>
      <trkpt lat="46.8309" lon="6.53855">
        <ele>1219.8000488281</ele>
        <time>2017-04-22T11:17:36.000Z</time>
      </trkpt>
      <trkpt lat="46.83094" lon="6.53862">
        <ele>1221</ele>
        <time>2017-04-22T11:17:39.000Z</time>
      </trkpt>
      <trkpt lat="46.83096" lon="6.53864">
        <ele>1221.4000244141</ele>
        <time>2017-04-22T11:17:40.000Z</time>
      </trkpt>
      <trkpt lat="46.83103" lon="6.53871">
        <ele>1222.1999511719</ele>
        <time>2017-04-22T11:17:44.000Z</time>
      </trkpt>
      <trkpt lat="46.83105" lon="6.53872">
        <ele>1223</ele>
        <time>2017-04-22T11:17:45.000Z</time>
      </trkpt>
      <trkpt lat="46.8311" lon="6.53876">
        <ele>1224.1999511719</ele>
        <time>2017-04-22T11:17:48.000Z</time>
      </trkpt>
      <trkpt lat="46.83114" lon="6.53877">
        <ele>1225.1999511719</ele>
        <time>2017-04-22T11:17:50.000Z</time>
      </trkpt>
      <trkpt lat="46.83115" lon="6.53879">
        <ele>1225.4000244141</ele>
        <time>2017-04-22T11:17:51.000Z</time>
      </trkpt>
      <trkpt lat="46.83119" lon="6.53886">
        <ele>1226.8000488281</ele>
        <time>2017-04-22T11:17:54.000Z</time>
      </trkpt>
      <trkpt lat="46.8312" lon="6.53889">
        <ele>1227.1999511719</ele>
        <time>2017-04-22T11:17:55.000Z</time>
      </trkpt>
      <trkpt lat="46.83125" lon="6.53903">
        <ele>1227.1999511719</ele>
        <time>2017-04-22T11:18:00.000Z</time>
      </trkpt>
      <trkpt lat="46.83129" lon="6.5391">
        <ele>1227</ele>
        <time>2017-04-22T11:18:02.000Z</time>
      </trkpt>
      <trkpt lat="46.83135" lon="6.53924">
        <ele>1227</ele>
        <time>2017-04-22T11:18:05.000Z</time>
      </trkpt>
      <trkpt lat="46.83137" lon="6.53929">
        <ele>1227</ele>
        <time>2017-04-22T11:18:06.000Z</time>
      </trkpt>
      <trkpt lat="46.83143" lon="6.53941">
        <ele>1227</ele>
        <time>2017-04-22T11:18:09.000Z</time>
      </trkpt>
      <trkpt lat="46.83135" lon="6.5394">
        <ele>1226.5999755859</ele>
        <time>2017-04-22T11:18:12.000Z</time>
      </trkpt>
      <trkpt lat="46.83132" lon="6.53937">
        <ele>1226.1999511719</ele>
        <time>2017-04-22T11:18:13.000Z</time>
      </trkpt>
      <trkpt lat="46.83129" lon="6.53932">
        <ele>1225.4000244141</ele>
        <time>2017-04-22T11:18:15.000Z</time>
      </trkpt>
      <trkpt lat="46.83125" lon="6.5393">
        <ele>1225</ele>
        <time>2017-04-22T11:18:17.000Z</time>
      </trkpt>
      <trkpt lat="46.83122" lon="6.5393">
        <ele>1224.8000488281</ele>
        <time>2017-04-22T11:18:19.000Z</time>
      </trkpt>
      <trkpt lat="46.83121" lon="6.53936">
        <ele>1223.4000244141</ele>
        <time>2017-04-22T11:18:21.000Z</time>
      </trkpt>
      <trkpt lat="46.83122" lon="6.53939">
        <ele>1222.8000488281</ele>
        <time>2017-04-22T11:18:22.000Z</time>
      </trkpt>
      <trkpt lat="46.83122" lon="6.53941">
        <ele>1222.1999511719</ele>
        <time>2017-04-22T11:18:23.000Z</time>
      </trkpt>
      <trkpt lat="46.83118" lon="6.53941">
        <ele>1221.1999511719</ele>
        <time>2017-04-22T11:18:26.000Z</time>
      </trkpt>
      <trkpt lat="46.83117" lon="6.53939">
        <ele>1221</ele>
        <time>2017-04-22T11:18:27.000Z</time>
      </trkpt>
      <trkpt lat="46.83116" lon="6.53934">
        <ele>1220.4000244141</ele>
        <time>2017-04-22T11:18:29.000Z</time>
      </trkpt>
      <trkpt lat="46.83114" lon="6.5393">
        <ele>1220.4000244141</ele>
        <time>2017-04-22T11:18:31.000Z</time>
      </trkpt>
      <trkpt lat="46.8311" lon="6.53929">
        <ele>1220.1999511719</ele>
        <time>2017-04-22T11:18:33.000Z</time>
      </trkpt>
      <trkpt lat="46.83109" lon="6.5393">
        <ele>1219.8000488281</ele>
        <time>2017-04-22T11:18:34.000Z</time>
      </trkpt>
      <trkpt lat="46.83108" lon="6.53934">
        <ele>1219</ele>
        <time>2017-04-22T11:18:35.000Z</time>
      </trkpt>
      <trkpt lat="46.83106" lon="6.53947">
        <ele>1218.1999511719</ele>
        <time>2017-04-22T11:18:37.000Z</time>
      </trkpt>
      <trkpt lat="46.83107" lon="6.53953">
        <ele>1217.5999755859</ele>
        <time>2017-04-22T11:18:38.000Z</time>
      </trkpt>
      <trkpt lat="46.83107" lon="6.53958">
        <ele>1216.8000488281</ele>
        <time>2017-04-22T11:18:39.000Z</time>
      </trkpt>
      <trkpt lat="46.83105" lon="6.53961">
        <ele>1216</ele>
        <time>2017-04-22T11:18:40.000Z</time>
      </trkpt>
      <trkpt lat="46.83104" lon="6.53962">
        <ele>1215.1999511719</ele>
        <time>2017-04-22T11:18:41.000Z</time>
      </trkpt>
      <trkpt lat="46.83101" lon="6.53959">
        <ele>1214.4000244141</ele>
        <time>2017-04-22T11:18:43.000Z</time>
      </trkpt>
      <trkpt lat="46.83099" lon="6.53956">
        <ele>1214</ele>
        <time>2017-04-22T11:18:44.000Z</time>
      </trkpt>
      <trkpt lat="46.83096" lon="6.53955">
        <ele>1213.4000244141</ele>
        <time>2017-04-22T11:18:46.000Z</time>
      </trkpt>
      <trkpt lat="46.83094" lon="6.53957">
        <ele>1213.1999511719</ele>
        <time>2017-04-22T11:18:47.000Z</time>
      </trkpt>
      <trkpt lat="46.83089" lon="6.53961">
        <ele>1211.8000488281</ele>
        <time>2017-04-22T11:18:50.000Z</time>
      </trkpt>
      <trkpt lat="46.83087" lon="6.53961">
        <ele>1211.1999511719</ele>
        <time>2017-04-22T11:18:51.000Z</time>
      </trkpt>
      <trkpt lat="46.83086" lon="6.53961">
        <ele>1210.5999755859</ele>
        <time>2017-04-22T11:18:52.000Z</time>
      </trkpt>
      <trkpt lat="46.83085" lon="6.53968">
        <ele>1208.8000488281</ele>
        <time>2017-04-22T11:18:54.000Z</time>
      </trkpt>
      <trkpt lat="46.83084" lon="6.53981">
        <ele>1207.5999755859</ele>
        <time>2017-04-22T11:18:57.000Z</time>
      </trkpt>
      <trkpt lat="46.83083" lon="6.53988">
        <ele>1207.1999511719</ele>
        <time>2017-04-22T11:18:58.000Z</time>
      </trkpt>
      <trkpt lat="46.83082" lon="6.54005">
        <ele>1206</ele>
        <time>2017-04-22T11:19:00.000Z</time>
      </trkpt>
      <trkpt lat="46.83082" lon="6.54014">
        <ele>1204.8000488281</ele>
        <time>2017-04-22T11:19:01.000Z</time>
      </trkpt>
      <trkpt lat="46.83084" lon="6.54023">
        <ele>1203.5999755859</ele>
        <time>2017-04-22T11:19:02.000Z</time>
      </trkpt>
      <trkpt lat="46.83088" lon="6.54036">
        <ele>1202.5999755859</ele>
        <time>2017-04-22T11:19:04.000Z</time>
      </trkpt>
      <trkpt lat="46.83086" lon="6.54043">
        <ele>1202</ele>
        <time>2017-04-22T11:19:05.000Z</time>
      </trkpt>
      <trkpt lat="46.83083" lon="6.5405">
        <ele>1201.5999755859</ele>
        <time>2017-04-22T11:19:06.000Z</time>
      </trkpt>
      <trkpt lat="46.83079" lon="6.54058">
        <ele>1201.1999511719</ele>
        <time>2017-04-22T11:19:07.000Z</time>
      </trkpt>
      <trkpt lat="46.83071" lon="6.54076">
        <ele>1200.5999755859</ele>
        <time>2017-04-22T11:19:09.000Z</time>
      </trkpt>
      <trkpt lat="46.83064" lon="6.5409">
        <ele>1198.8000488281</ele>
        <time>2017-04-22T11:19:11.000Z</time>
      </trkpt>
      <trkpt lat="46.83058" lon="6.54094">
        <ele>1197.5999755859</ele>
        <time>2017-04-22T11:19:12.000Z</time>
      </trkpt>
      <trkpt lat="46.83051" lon="6.54095">
        <ele>1196.5999755859</ele>
        <time>2017-04-22T11:19:13.000Z</time>
      </trkpt>
      <trkpt lat="46.83037" lon="6.54094">
        <ele>1194.8000488281</ele>
        <time>2017-04-22T11:19:15.000Z</time>
      </trkpt>
      <trkpt lat="46.8303" lon="6.54093">
        <ele>1193.5999755859</ele>
        <time>2017-04-22T11:19:16.000Z</time>
      </trkpt>
      <trkpt lat="46.83024" lon="6.54091">
        <ele>1192.5999755859</ele>
        <time>2017-04-22T11:19:17.000Z</time>
      </trkpt>
      <trkpt lat="46.83019" lon="6.54086">
        <ele>1191.8000488281</ele>
        <time>2017-04-22T11:19:18.000Z</time>
      </trkpt>
      <trkpt lat="46.83011" lon="6.54077">
        <ele>1190.1999511719</ele>
        <time>2017-04-22T11:19:20.000Z</time>
      </trkpt>
      <trkpt lat="46.83006" lon="6.54063">
        <ele>1188.8000488281</ele>
        <time>2017-04-22T11:19:22.000Z</time>
      </trkpt>
      <trkpt lat="46.83" lon="6.54049">
        <ele>1188</ele>
        <time>2017-04-22T11:19:24.000Z</time>
      </trkpt>
      <trkpt lat="46.82994" lon="6.54034">
        <ele>1187.1999511719</ele>
        <time>2017-04-22T11:19:26.000Z</time>
      </trkpt>
      <trkpt lat="46.82988" lon="6.54021">
        <ele>1187.1999511719</ele>
        <time>2017-04-22T11:19:28.000Z</time>
      </trkpt>
      <trkpt lat="46.82985" lon="6.54007">
        <ele>1187</ele>
        <time>2017-04-22T11:19:30.000Z</time>
      </trkpt>
      <trkpt lat="46.82985" lon="6.54002">
        <ele>1186.8000488281</ele>
        <time>2017-04-22T11:19:31.000Z</time>
      </trkpt>
      <trkpt lat="46.8299" lon="6.53989">
        <ele>1187.1999511719</ele>
        <time>2017-04-22T11:19:34.000Z</time>
      </trkpt>
      <trkpt lat="46.82991" lon="6.53986">
        <ele>1187.4000244141</ele>
        <time>2017-04-22T11:19:35.000Z</time>
      </trkpt>
      <trkpt lat="46.82994" lon="6.53982">
        <ele>1188</ele>
        <time>2017-04-22T11:19:37.000Z</time>
      </trkpt>
      <trkpt lat="46.82999" lon="6.53975">
        <ele>1189.1999511719</ele>
        <time>2017-04-22T11:19:40.000Z</time>
      </trkpt>
      <trkpt lat="46.83002" lon="6.53966">
        <ele>1190</ele>
        <time>2017-04-22T11:19:43.000Z</time>
      </trkpt>
      <trkpt lat="46.83002" lon="6.53963">
        <ele>1190.4000244141</ele>
        <time>2017-04-22T11:19:44.000Z</time>
      </trkpt>
      <trkpt lat="46.83002" lon="6.53949">
        <ele>1191.4000244141</ele>
        <time>2017-04-22T11:19:48.000Z</time>
      </trkpt>
      <trkpt lat="46.83" lon="6.53942">
        <ele>1191.5999755859</ele>
        <time>2017-04-22T11:19:50.000Z</time>
      </trkpt>
      <trkpt lat="46.82998" lon="6.53926">
        <ele>1192.1999511719</ele>
        <time>2017-04-22T11:19:54.000Z</time>
      </trkpt>
      <trkpt lat="46.82997" lon="6.53918">
        <ele>1192.8000488281</ele>
        <time>2017-04-22T11:19:56.000Z</time>
      </trkpt>
      <trkpt lat="46.82997" lon="6.53909">
        <ele>1194</ele>
        <time>2017-04-22T11:19:59.000Z</time>
      </trkpt>
      <trkpt lat="46.82993" lon="6.53892">
        <ele>1195</ele>
        <time>2017-04-22T11:20:04.000Z</time>
      </trkpt>
      <trkpt lat="46.82992" lon="6.53889">
        <ele>1194.8000488281</ele>
        <time>2017-04-22T11:20:05.000Z</time>
      </trkpt>
      <trkpt lat="46.82979" lon="6.53872">
        <ele>1195</ele>
        <time>2017-04-22T11:20:10.000Z</time>
      </trkpt>
      <trkpt lat="46.82974" lon="6.5387">
        <ele>1193.5999755859</ele>
        <time>2017-04-22T11:20:11.000Z</time>
      </trkpt>
      <trkpt lat="46.82963" lon="6.53866">
        <ele>1192.4000244141</ele>
        <time>2017-04-22T11:20:13.000Z</time>
      </trkpt>
      <trkpt lat="46.82957" lon="6.53862">
        <ele>1191.8000488281</ele>
        <time>2017-04-22T11:20:14.000Z</time>
      </trkpt>
      <trkpt lat="46.82952" lon="6.53856">
        <ele>1191.1999511719</ele>
        <time>2017-04-22T11:20:15.000Z</time>
      </trkpt>
      <trkpt lat="46.8295" lon="6.5385">
        <ele>1190.1999511719</ele>
        <time>2017-04-22T11:20:16.000Z</time>
      </trkpt>
      <trkpt lat="46.82948" lon="6.53844">
        <ele>1189.4000244141</ele>
        <time>2017-04-22T11:20:17.000Z</time>
      </trkpt>
      <trkpt lat="46.82946" lon="6.53835">
        <ele>1189</ele>
        <time>2017-04-22T11:20:19.000Z</time>
      </trkpt>
      <trkpt lat="46.82945" lon="6.53831">
        <ele>1189</ele>
        <time>2017-04-22T11:20:20.000Z</time>
      </trkpt>
      <trkpt lat="46.82938" lon="6.53808">
        <ele>1189</ele>
        <time>2017-04-22T11:20:26.000Z</time>
      </trkpt>
      <trkpt lat="46.82928" lon="6.53788">
        <ele>1189.4000244141</ele>
        <time>2017-04-22T11:20:31.000Z</time>
      </trkpt>
      <trkpt lat="46.82919" lon="6.53771">
        <ele>1188.5999755859</ele>
        <time>2017-04-22T11:20:35.000Z</time>
      </trkpt>
      <trkpt lat="46.82916" lon="6.5377">
        <ele>1188.4000244141</ele>
        <time>2017-04-22T11:20:36.000Z</time>
      </trkpt>
      <trkpt lat="46.82914" lon="6.53772">
        <ele>1188.1999511719</ele>
        <time>2017-04-22T11:20:37.000Z</time>
      </trkpt>
      <trkpt lat="46.82912" lon="6.53777">
        <ele>1187.1999511719</ele>
        <time>2017-04-22T11:20:39.000Z</time>
      </trkpt>
      <trkpt lat="46.82912" lon="6.53778">
        <ele>1186.8000488281</ele>
        <time>2017-04-22T11:20:40.000Z</time>
      </trkpt>
      <trkpt lat="46.82911" lon="6.53779">
        <ele>1185.8000488281</ele>
        <time>2017-04-22T11:20:44.000Z</time>
      </trkpt>
      <trkpt lat="46.8291" lon="6.53793">
        <ele>1186.1999511719</ele>
        <time>2017-04-22T11:20:48.000Z</time>
      </trkpt>
      <trkpt lat="46.82909" lon="6.53805">
        <ele>1186.4000244141</ele>
        <time>2017-04-22T11:20:50.000Z</time>
      </trkpt>
      <trkpt lat="46.82912" lon="6.53822">
        <ele>1186</ele>
        <time>2017-04-22T11:20:53.000Z</time>
      </trkpt>
      <trkpt lat="46.82914" lon="6.53828">
        <ele>1186</ele>
        <time>2017-04-22T11:20:54.000Z</time>
      </trkpt>
      <trkpt lat="46.82915" lon="6.53834">
        <ele>1186</ele>
        <time>2017-04-22T11:20:55.000Z</time>
      </trkpt>
      <trkpt lat="46.82917" lon="6.53846">
        <ele>1186</ele>
        <time>2017-04-22T11:20:57.000Z</time>
      </trkpt>
      <trkpt lat="46.82921" lon="6.53857">
        <ele>1186</ele>
        <time>2017-04-22T11:20:59.000Z</time>
      </trkpt>
      <trkpt lat="46.82934" lon="6.53897">
        <ele>1186</ele>
        <time>2017-04-22T11:21:05.000Z</time>
      </trkpt>
      <trkpt lat="46.82939" lon="6.5391">
        <ele>1185.8000488281</ele>
        <time>2017-04-22T11:21:07.000Z</time>
      </trkpt>
      <trkpt lat="46.82949" lon="6.53926">
        <ele>1185.5999755859</ele>
        <time>2017-04-22T11:21:10.000Z</time>
      </trkpt>
      <trkpt lat="46.82966" lon="6.53962">
        <ele>1185.4000244141</ele>
        <time>2017-04-22T11:21:16.000Z</time>
      </trkpt>
      <trkpt lat="46.82971" lon="6.53995">
        <ele>1185.1999511719</ele>
        <time>2017-04-22T11:21:21.000Z</time>
      </trkpt>
      <trkpt lat="46.82972" lon="6.54001">
        <ele>1185.1999511719</ele>
        <time>2017-04-22T11:21:22.000Z</time>
      </trkpt>
      <trkpt lat="46.82982" lon="6.5404">
        <ele>1186.1999511719</ele>
        <time>2017-04-22T11:21:29.000Z</time>
      </trkpt>
      <trkpt lat="46.82983" lon="6.54046">
        <ele>1186.4000244141</ele>
        <time>2017-04-22T11:21:30.000Z</time>
      </trkpt>
      <trkpt lat="46.82984" lon="6.54051">
        <ele>1186.4000244141</ele>
        <time>2017-04-22T11:21:31.000Z</time>
      </trkpt>
      <trkpt lat="46.82993" lon="6.54079">
        <ele>1186.4000244141</ele>
        <time>2017-04-22T11:21:37.000Z</time>
      </trkpt>
      <trkpt lat="46.82998" lon="6.54097">
        <ele>1187.5999755859</ele>
        <time>2017-04-22T11:21:41.000Z</time>
      </trkpt>
      <trkpt lat="46.83001" lon="6.54109">
        <ele>1188</ele>
        <time>2017-04-22T11:21:44.000Z</time>
      </trkpt>
      <trkpt lat="46.83008" lon="6.54125">
        <ele>1188.5999755859</ele>
        <time>2017-04-22T11:21:48.000Z</time>
      </trkpt>
      <trkpt lat="46.83013" lon="6.54139">
        <ele>1189.4000244141</ele>
        <time>2017-04-22T11:21:51.000Z</time>
      </trkpt>
      <trkpt lat="46.83016" lon="6.54148">
        <ele>1189.8000488281</ele>
        <time>2017-04-22T11:21:53.000Z</time>
      </trkpt>
      <trkpt lat="46.83025" lon="6.54174">
        <ele>1190.4000244141</ele>
        <time>2017-04-22T11:21:59.000Z</time>
      </trkpt>
      <trkpt lat="46.83033" lon="6.54192">
        <ele>1190.8000488281</ele>
        <time>2017-04-22T11:22:03.000Z</time>
      </trkpt>
      <trkpt lat="46.83047" lon="6.54219">
        <ele>1191.5999755859</ele>
        <time>2017-04-22T11:22:09.000Z</time>
      </trkpt>
      <trkpt lat="46.8305" lon="6.54223">
        <ele>1191.8000488281</ele>
        <time>2017-04-22T11:22:10.000Z</time>
      </trkpt>
      <trkpt lat="46.83064" lon="6.54244">
        <ele>1193</ele>
        <time>2017-04-22T11:22:15.000Z</time>
      </trkpt>
      <trkpt lat="46.83069" lon="6.54251">
        <ele>1193.1999511719</ele>
        <time>2017-04-22T11:22:17.000Z</time>
      </trkpt>
      <trkpt lat="46.83077" lon="6.5426">
        <ele>1194</ele>
        <time>2017-04-22T11:22:20.000Z</time>
      </trkpt>
      <trkpt lat="46.83091" lon="6.54274">
        <ele>1195.1999511719</ele>
        <time>2017-04-22T11:22:25.000Z</time>
      </trkpt>
      <trkpt lat="46.83093" lon="6.54277">
        <ele>1195.4000244141</ele>
        <time>2017-04-22T11:22:26.000Z</time>
      </trkpt>
      <trkpt lat="46.83098" lon="6.54284">
        <ele>1196.1999511719</ele>
        <time>2017-04-22T11:22:28.000Z</time>
      </trkpt>
      <trkpt lat="46.83114" lon="6.54298">
        <ele>1197.4000244141</ele>
        <time>2017-04-22T11:22:33.000Z</time>
      </trkpt>
      <trkpt lat="46.83117" lon="6.54301">
        <ele>1197.8000488281</ele>
        <time>2017-04-22T11:22:34.000Z</time>
      </trkpt>
      <trkpt lat="46.83123" lon="6.54307">
        <ele>1198.8000488281</ele>
        <time>2017-04-22T11:22:36.000Z</time>
      </trkpt>
      <trkpt lat="46.83128" lon="6.54313">
        <ele>1199.8000488281</ele>
        <time>2017-04-22T11:22:38.000Z</time>
      </trkpt>
      <trkpt lat="46.83138" lon="6.54322">
        <ele>1200.8000488281</ele>
        <time>2017-04-22T11:22:42.000Z</time>
      </trkpt>
      <trkpt lat="46.83153" lon="6.54333">
        <ele>1201.8000488281</ele>
        <time>2017-04-22T11:22:48.000Z</time>
      </trkpt>
      <trkpt lat="46.83156" lon="6.54334">
        <ele>1202</ele>
        <time>2017-04-22T11:22:49.000Z</time>
      </trkpt>
      <trkpt lat="46.83164" lon="6.54338">
        <ele>1202.8000488281</ele>
        <time>2017-04-22T11:22:52.000Z</time>
      </trkpt>
      <trkpt lat="46.83175" lon="6.54342">
        <ele>1203.8000488281</ele>
        <time>2017-04-22T11:22:56.000Z</time>
      </trkpt>
      <trkpt lat="46.8318" lon="6.54344">
        <ele>1204.4000244141</ele>
        <time>2017-04-22T11:22:58.000Z</time>
      </trkpt>
      <trkpt lat="46.83183" lon="6.54345">
        <ele>1205</ele>
        <time>2017-04-22T11:22:59.000Z</time>
      </trkpt>
      <trkpt lat="46.8319" lon="6.54349">
        <ele>1206</ele>
        <time>2017-04-22T11:23:02.000Z</time>
      </trkpt>
      <trkpt lat="46.832" lon="6.54354">
        <ele>1207</ele>
        <time>2017-04-22T11:23:06.000Z</time>
      </trkpt>
      <trkpt lat="46.8321" lon="6.5436">
        <ele>1208.4000244141</ele>
        <time>2017-04-22T11:23:10.000Z</time>
      </trkpt>
      <trkpt lat="46.83217" lon="6.54363">
        <ele>1209.4000244141</ele>
        <time>2017-04-22T11:23:13.000Z</time>
      </trkpt>
      <trkpt lat="46.83225" lon="6.54367">
        <ele>1210.8000488281</ele>
        <time>2017-04-22T11:23:16.000Z</time>
      </trkpt>
      <trkpt lat="46.83235" lon="6.54373">
        <ele>1211.8000488281</ele>
        <time>2017-04-22T11:23:20.000Z</time>
      </trkpt>
      <trkpt lat="46.83248" lon="6.5438">
        <ele>1213</ele>
        <time>2017-04-22T11:23:25.000Z</time>
      </trkpt>
      <trkpt lat="46.83255" lon="6.54385">
        <ele>1213.5999755859</ele>
        <time>2017-04-22T11:23:28.000Z</time>
      </trkpt>
      <trkpt lat="46.83262" lon="6.54391">
        <ele>1214</ele>
        <time>2017-04-22T11:23:31.000Z</time>
      </trkpt>
      <trkpt lat="46.83268" lon="6.54398">
        <ele>1214.8000488281</ele>
        <time>2017-04-22T11:23:34.000Z</time>
      </trkpt>
      <trkpt lat="46.83272" lon="6.54402">
        <ele>1215.1999511719</ele>
        <time>2017-04-22T11:23:36.000Z</time>
      </trkpt>
      <trkpt lat="46.8328" lon="6.54412">
        <ele>1216.4000244141</ele>
        <time>2017-04-22T11:23:40.000Z</time>
      </trkpt>
      <trkpt lat="46.83284" lon="6.54416">
        <ele>1217</ele>
        <time>2017-04-22T11:23:42.000Z</time>
      </trkpt>
      <trkpt lat="46.83288" lon="6.54418">
        <ele>1217.5999755859</ele>
        <time>2017-04-22T11:23:44.000Z</time>
      </trkpt>
      <trkpt lat="46.83292" lon="6.54418">
        <ele>1218.1999511719</ele>
        <time>2017-04-22T11:23:46.000Z</time>
      </trkpt>
      <trkpt lat="46.83293" lon="6.54417">
        <ele>1218.8000488281</ele>
        <time>2017-04-22T11:23:47.000Z</time>
      </trkpt>
      <trkpt lat="46.83294" lon="6.54415">
        <ele>1219</ele>
        <time>2017-04-22T11:23:48.000Z</time>
      </trkpt>
      <trkpt lat="46.83296" lon="6.54408">
        <ele>1219.8000488281</ele>
        <time>2017-04-22T11:23:51.000Z</time>
      </trkpt>
      <trkpt lat="46.83296" lon="6.544">
        <ele>1220.5999755859</ele>
        <time>2017-04-22T11:23:54.000Z</time>
      </trkpt>
      <trkpt lat="46.83296" lon="6.54397">
        <ele>1221</ele>
        <time>2017-04-22T11:23:55.000Z</time>
      </trkpt>
      <trkpt lat="46.83294" lon="6.54389">
        <ele>1222.4000244141</ele>
        <time>2017-04-22T11:23:58.000Z</time>
      </trkpt>
      <trkpt lat="46.83292" lon="6.54378">
        <ele>1223</ele>
        <time>2017-04-22T11:24:02.000Z</time>
      </trkpt>
      <trkpt lat="46.83292" lon="6.54371">
        <ele>1223.4000244141</ele>
        <time>2017-04-22T11:24:04.000Z</time>
      </trkpt>
      <trkpt lat="46.8329" lon="6.54356">
        <ele>1224.1999511719</ele>
        <time>2017-04-22T11:24:08.000Z</time>
      </trkpt>
      <trkpt lat="46.83289" lon="6.5434">
        <ele>1224.4000244141</ele>
        <time>2017-04-22T11:24:12.000Z</time>
      </trkpt>
      <trkpt lat="46.8329" lon="6.54332">
        <ele>1224.5999755859</ele>
        <time>2017-04-22T11:24:14.000Z</time>
      </trkpt>
      <trkpt lat="46.8329" lon="6.54315">
        <ele>1225.5999755859</ele>
        <time>2017-04-22T11:24:19.000Z</time>
      </trkpt>
      <trkpt lat="46.8329" lon="6.54308">
        <ele>1225.8000488281</ele>
        <time>2017-04-22T11:24:21.000Z</time>
      </trkpt>
      <trkpt lat="46.8329" lon="6.54301">
        <ele>1226.8000488281</ele>
        <time>2017-04-22T11:24:23.000Z</time>
      </trkpt>
      <trkpt lat="46.83289" lon="6.54289">
        <ele>1228</ele>
        <time>2017-04-22T11:24:27.000Z</time>
      </trkpt>
      <trkpt lat="46.83289" lon="6.54286">
        <ele>1228</ele>
        <time>2017-04-22T11:24:28.000Z</time>
      </trkpt>
      <trkpt lat="46.8329" lon="6.54271">
        <ele>1228.8000488281</ele>
        <time>2017-04-22T11:24:33.000Z</time>
      </trkpt>
      <trkpt lat="46.8329" lon="6.54265">
        <ele>1229.4000244141</ele>
        <time>2017-04-22T11:24:35.000Z</time>
      </trkpt>
      <trkpt lat="46.83292" lon="6.54259">
        <ele>1229.8000488281</ele>
        <time>2017-04-22T11:24:37.000Z</time>
      </trkpt>
      <trkpt lat="46.83294" lon="6.5425">
        <ele>1231</ele>
        <time>2017-04-22T11:24:41.000Z</time>
      </trkpt>
      <trkpt lat="46.83298" lon="6.54249">
        <ele>1232.4000244141</ele>
        <time>2017-04-22T11:24:44.000Z</time>
      </trkpt>
      <trkpt lat="46.833" lon="6.54249">
        <ele>1232.5999755859</ele>
        <time>2017-04-22T11:24:45.000Z</time>
      </trkpt>
      <trkpt lat="46.83301" lon="6.5425">
        <ele>1232.5999755859</ele>
        <time>2017-04-22T11:24:46.000Z</time>
      </trkpt>
      <trkpt lat="46.83306" lon="6.54257">
        <ele>1233.4000244141</ele>
        <time>2017-04-22T11:24:50.000Z</time>
      </trkpt>
      <trkpt lat="46.83309" lon="6.54262">
        <ele>1234</ele>
        <time>2017-04-22T11:24:52.000Z</time>
      </trkpt>
      <trkpt lat="46.83311" lon="6.54267">
        <ele>1234.5999755859</ele>
        <time>2017-04-22T11:24:54.000Z</time>
      </trkpt>
      <trkpt lat="46.83316" lon="6.54278">
        <ele>1235.5999755859</ele>
        <time>2017-04-22T11:24:58.000Z</time>
      </trkpt>
      <trkpt lat="46.83325" lon="6.5429">
        <ele>1236.8000488281</ele>
        <time>2017-04-22T11:25:03.000Z</time>
      </trkpt>
      <trkpt lat="46.83327" lon="6.54292">
        <ele>1236.8000488281</ele>
        <time>2017-04-22T11:25:04.000Z</time>
      </trkpt>
      <trkpt lat="46.83333" lon="6.543">
        <ele>1237.4000244141</ele>
        <time>2017-04-22T11:25:07.000Z</time>
      </trkpt>
      <trkpt lat="46.83338" lon="6.54304">
        <ele>1238</ele>
        <time>2017-04-22T11:25:09.000Z</time>
      </trkpt>
      <trkpt lat="46.8334" lon="6.54306">
        <ele>1238</ele>
        <time>2017-04-22T11:25:10.000Z</time>
      </trkpt>
      <trkpt lat="46.83353" lon="6.54316">
        <ele>1238.8000488281</ele>
        <time>2017-04-22T11:25:16.000Z</time>
      </trkpt>
      <trkpt lat="46.83355" lon="6.54318">
        <ele>1239</ele>
        <time>2017-04-22T11:25:17.000Z</time>
      </trkpt>
      <trkpt lat="46.83362" lon="6.54326">
        <ele>1240.4000244141</ele>
        <time>2017-04-22T11:25:21.000Z</time>
      </trkpt>
      <trkpt lat="46.83366" lon="6.54331">
        <ele>1241</ele>
        <time>2017-04-22T11:25:23.000Z</time>
      </trkpt>
      <trkpt lat="46.83377" lon="6.54344">
        <ele>1241.5999755859</ele>
        <time>2017-04-22T11:25:29.000Z</time>
      </trkpt>
      <trkpt lat="46.83379" lon="6.54347">
        <ele>1241.8000488281</ele>
        <time>2017-04-22T11:25:30.000Z</time>
      </trkpt>
      <trkpt lat="46.83388" lon="6.54356">
        <ele>1242.8000488281</ele>
        <time>2017-04-22T11:25:34.000Z</time>
      </trkpt>
      <trkpt lat="46.8339" lon="6.54358">
        <ele>1243</ele>
        <time>2017-04-22T11:25:35.000Z</time>
      </trkpt>
      <trkpt lat="46.83397" lon="6.54366">
        <ele>1243.4000244141</ele>
        <time>2017-04-22T11:25:38.000Z</time>
      </trkpt>
      <trkpt lat="46.834" lon="6.54368">
        <ele>1243.4000244141</ele>
        <time>2017-04-22T11:25:39.000Z</time>
      </trkpt>
      <trkpt lat="46.83407" lon="6.54376">
        <ele>1243.5999755859</ele>
        <time>2017-04-22T11:25:42.000Z</time>
      </trkpt>
      <trkpt lat="46.83409" lon="6.54379">
        <ele>1243.8000488281</ele>
        <time>2017-04-22T11:25:43.000Z</time>
      </trkpt>
      <trkpt lat="46.83411" lon="6.54382">
        <ele>1244</ele>
        <time>2017-04-22T11:25:44.000Z</time>
      </trkpt>
      <trkpt lat="46.83418" lon="6.5439">
        <ele>1244.8000488281</ele>
        <time>2017-04-22T11:25:47.000Z</time>
      </trkpt>
      <trkpt lat="46.83426" lon="6.54398">
        <ele>1245</ele>
        <time>2017-04-22T11:25:50.000Z</time>
      </trkpt>
      <trkpt lat="46.83429" lon="6.54404">
        <ele>1245.4000244141</ele>
        <time>2017-04-22T11:25:52.000Z</time>
      </trkpt>
      <trkpt lat="46.83436" lon="6.54412">
        <ele>1245.5999755859</ele>
        <time>2017-04-22T11:25:55.000Z</time>
      </trkpt>
      <trkpt lat="46.83442" lon="6.54417">
        <ele>1246.1999511719</ele>
        <time>2017-04-22T11:25:58.000Z</time>
      </trkpt>
      <trkpt lat="46.83445" lon="6.5442">
        <ele>1246.5999755859</ele>
        <time>2017-04-22T11:26:00.000Z</time>
      </trkpt>
      <trkpt lat="46.8345" lon="6.54419">
        <ele>1247.1999511719</ele>
        <time>2017-04-22T11:26:03.000Z</time>
      </trkpt>
      <trkpt lat="46.83453" lon="6.54414">
        <ele>1248.1999511719</ele>
        <time>2017-04-22T11:26:05.000Z</time>
      </trkpt>
      <trkpt lat="46.83452" lon="6.54404">
        <ele>1248.4000244141</ele>
        <time>2017-04-22T11:26:08.000Z</time>
      </trkpt>
      <trkpt lat="46.83451" lon="6.54402">
        <ele>1248.5999755859</ele>
        <time>2017-04-22T11:26:09.000Z</time>
      </trkpt>
      <trkpt lat="46.8345" lon="6.54399">
        <ele>1248.8000488281</ele>
        <time>2017-04-22T11:26:10.000Z</time>
      </trkpt>
      <trkpt lat="46.83447" lon="6.54389">
        <ele>1249.5999755859</ele>
        <time>2017-04-22T11:26:13.000Z</time>
      </trkpt>
      <trkpt lat="46.83445" lon="6.54379">
        <ele>1250.1999511719</ele>
        <time>2017-04-22T11:26:16.000Z</time>
      </trkpt>
      <trkpt lat="46.83444" lon="6.54371">
        <ele>1250.5999755859</ele>
        <time>2017-04-22T11:26:18.000Z</time>
      </trkpt>
      <trkpt lat="46.83442" lon="6.54361">
        <ele>1251.5999755859</ele>
        <time>2017-04-22T11:26:21.000Z</time>
      </trkpt>
      <trkpt lat="46.8344" lon="6.54354">
        <ele>1252.4000244141</ele>
        <time>2017-04-22T11:26:23.000Z</time>
      </trkpt>
      <trkpt lat="46.83439" lon="6.54351">
        <ele>1252.8000488281</ele>
        <time>2017-04-22T11:26:24.000Z</time>
      </trkpt>
      <trkpt lat="46.83433" lon="6.54331">
        <ele>1254</ele>
        <time>2017-04-22T11:26:30.000Z</time>
      </trkpt>
      <trkpt lat="46.83431" lon="6.54321">
        <ele>1254.8000488281</ele>
        <time>2017-04-22T11:26:33.000Z</time>
      </trkpt>
      <trkpt lat="46.8343" lon="6.54318">
        <ele>1255</ele>
        <time>2017-04-22T11:26:34.000Z</time>
      </trkpt>
      <trkpt lat="46.83428" lon="6.54308">
        <ele>1256.1999511719</ele>
        <time>2017-04-22T11:26:37.000Z</time>
      </trkpt>
      <trkpt lat="46.83427" lon="6.54301">
        <ele>1256.5999755859</ele>
        <time>2017-04-22T11:26:39.000Z</time>
      </trkpt>
      <trkpt lat="46.83425" lon="6.54291">
        <ele>1257.4000244141</ele>
        <time>2017-04-22T11:26:42.000Z</time>
      </trkpt>
      <trkpt lat="46.83423" lon="6.54278">
        <ele>1258.4000244141</ele>
        <time>2017-04-22T11:26:46.000Z</time>
      </trkpt>
      <trkpt lat="46.83422" lon="6.54274">
        <ele>1258.8000488281</ele>
        <time>2017-04-22T11:26:47.000Z</time>
      </trkpt>
      <trkpt lat="46.83418" lon="6.54254">
        <ele>1259.8000488281</ele>
        <time>2017-04-22T11:26:53.000Z</time>
      </trkpt>
      <trkpt lat="46.83417" lon="6.5425">
        <ele>1259.8000488281</ele>
        <time>2017-04-22T11:26:54.000Z</time>
      </trkpt>
      <trkpt lat="46.83414" lon="6.54237">
        <ele>1260.8000488281</ele>
        <time>2017-04-22T11:26:58.000Z</time>
      </trkpt>
      <trkpt lat="46.83414" lon="6.54234">
        <ele>1261</ele>
        <time>2017-04-22T11:26:59.000Z</time>
      </trkpt>
      <trkpt lat="46.8341" lon="6.54221">
        <ele>1261.8000488281</ele>
        <time>2017-04-22T11:27:03.000Z</time>
      </trkpt>
      <trkpt lat="46.83409" lon="6.54218">
        <ele>1262</ele>
        <time>2017-04-22T11:27:04.000Z</time>
      </trkpt>
      <trkpt lat="46.83406" lon="6.54205">
        <ele>1263</ele>
        <time>2017-04-22T11:27:08.000Z</time>
      </trkpt>
      <trkpt lat="46.83404" lon="6.542">
        <ele>1263.5999755859</ele>
        <time>2017-04-22T11:27:10.000Z</time>
      </trkpt>
      <trkpt lat="46.83403" lon="6.54193">
        <ele>1264.1999511719</ele>
        <time>2017-04-22T11:27:12.000Z</time>
      </trkpt>
      <trkpt lat="46.83403" lon="6.54181">
        <ele>1264.8000488281</ele>
        <time>2017-04-22T11:27:15.000Z</time>
      </trkpt>
      <trkpt lat="46.83402" lon="6.54174">
        <ele>1265.4000244141</ele>
        <time>2017-04-22T11:27:17.000Z</time>
      </trkpt>
      <trkpt lat="46.83403" lon="6.54159">
        <ele>1266.8000488281</ele>
        <time>2017-04-22T11:27:21.000Z</time>
      </trkpt>
      <trkpt lat="46.83404" lon="6.54156">
        <ele>1267</ele>
        <time>2017-04-22T11:27:22.000Z</time>
      </trkpt>
      <trkpt lat="46.83406" lon="6.54147">
        <ele>1267.8000488281</ele>
        <time>2017-04-22T11:27:25.000Z</time>
      </trkpt>
      <trkpt lat="46.83411" lon="6.54138">
        <ele>1268.4000244141</ele>
        <time>2017-04-22T11:27:29.000Z</time>
      </trkpt>
      <trkpt lat="46.83414" lon="6.54137">
        <ele>1268.8000488281</ele>
        <time>2017-04-22T11:27:31.000Z</time>
      </trkpt>
      <trkpt lat="46.83418" lon="6.54139">
        <ele>1269.5999755859</ele>
        <time>2017-04-22T11:27:34.000Z</time>
      </trkpt>
      <trkpt lat="46.8342" lon="6.5414">
        <ele>1269.8000488281</ele>
        <time>2017-04-22T11:27:35.000Z</time>
      </trkpt>
      <trkpt lat="46.83425" lon="6.54148">
        <ele>1271.1999511719</ele>
        <time>2017-04-22T11:27:39.000Z</time>
      </trkpt>
      <trkpt lat="46.83429" lon="6.54157">
        <ele>1272.4000244141</ele>
        <time>2017-04-22T11:27:43.000Z</time>
      </trkpt>
      <trkpt lat="46.83431" lon="6.54161">
        <ele>1272.8000488281</ele>
        <time>2017-04-22T11:27:45.000Z</time>
      </trkpt>
      <trkpt lat="46.83434" lon="6.54165">
        <ele>1273.1999511719</ele>
        <time>2017-04-22T11:27:47.000Z</time>
      </trkpt>
      <trkpt lat="46.83436" lon="6.54169">
        <ele>1273.4000244141</ele>
        <time>2017-04-22T11:27:49.000Z</time>
      </trkpt>
      <trkpt lat="46.83437" lon="6.54171">
        <ele>1273.8000488281</ele>
        <time>2017-04-22T11:27:50.000Z</time>
      </trkpt>
      <trkpt lat="46.83441" lon="6.54177">
        <ele>1274.5999755859</ele>
        <time>2017-04-22T11:27:53.000Z</time>
      </trkpt>
      <trkpt lat="46.83444" lon="6.54181">
        <ele>1274.8000488281</ele>
        <time>2017-04-22T11:27:55.000Z</time>
      </trkpt>
      <trkpt lat="46.83448" lon="6.54186">
        <ele>1275.8000488281</ele>
        <time>2017-04-22T11:27:58.000Z</time>
      </trkpt>
      <trkpt lat="46.83451" lon="6.54193">
        <ele>1276.8000488281</ele>
        <time>2017-04-22T11:28:01.000Z</time>
      </trkpt>
      <trkpt lat="46.83457" lon="6.54205">
        <ele>1278</ele>
        <time>2017-04-22T11:28:05.000Z</time>
      </trkpt>
      <trkpt lat="46.83459" lon="6.54208">
        <ele>1278.1999511719</ele>
        <time>2017-04-22T11:28:06.000Z</time>
      </trkpt>
      <trkpt lat="46.83467" lon="6.54228">
        <ele>1278.5999755859</ele>
        <time>2017-04-22T11:28:11.000Z</time>
      </trkpt>
      <trkpt lat="46.83479" lon="6.54251">
        <ele>1278.8000488281</ele>
        <time>2017-04-22T11:28:17.000Z</time>
      </trkpt>
      <trkpt lat="46.83487" lon="6.54262">
        <ele>1279.1999511719</ele>
        <time>2017-04-22T11:28:20.000Z</time>
      </trkpt>
      <trkpt lat="46.8349" lon="6.54268">
        <ele>1279.4000244141</ele>
        <time>2017-04-22T11:28:22.000Z</time>
      </trkpt>
      <trkpt lat="46.83499" lon="6.54283">
        <ele>1280.4000244141</ele>
        <time>2017-04-22T11:28:27.000Z</time>
      </trkpt>
      <trkpt lat="46.835" lon="6.54286">
        <ele>1281.1999511719</ele>
        <time>2017-04-22T11:28:28.000Z</time>
      </trkpt>
      <trkpt lat="46.83503" lon="6.54291">
        <ele>1281.8000488281</ele>
        <time>2017-04-22T11:28:30.000Z</time>
      </trkpt>
      <trkpt lat="46.8351" lon="6.54304">
        <ele>1282.5999755859</ele>
        <time>2017-04-22T11:28:34.000Z</time>
      </trkpt>
      <trkpt lat="46.83514" lon="6.54309">
        <ele>1282.8000488281</ele>
        <time>2017-04-22T11:28:36.000Z</time>
      </trkpt>
      <trkpt lat="46.83517" lon="6.54313">
        <ele>1283.1999511719</ele>
        <time>2017-04-22T11:28:38.000Z</time>
      </trkpt>
      <trkpt lat="46.83529" lon="6.54323">
        <ele>1284.1999511719</ele>
        <time>2017-04-22T11:28:43.000Z</time>
      </trkpt>
      <trkpt lat="46.83542" lon="6.54335">
        <ele>1285</ele>
        <time>2017-04-22T11:28:48.000Z</time>
      </trkpt>
      <trkpt lat="46.8355" lon="6.54336">
        <ele>1285.1999511719</ele>
        <time>2017-04-22T11:28:50.000Z</time>
      </trkpt>
      <trkpt lat="46.83554" lon="6.54336">
        <ele>1285.4000244141</ele>
        <time>2017-04-22T11:28:51.000Z</time>
      </trkpt>
      <trkpt lat="46.83567" lon="6.54337">
        <ele>1286.4000244141</ele>
        <time>2017-04-22T11:28:56.000Z</time>
      </trkpt>
      <trkpt lat="46.83569" lon="6.54339">
        <ele>1286.8000488281</ele>
        <time>2017-04-22T11:28:57.000Z</time>
      </trkpt>
      <trkpt lat="46.83572" lon="6.54339">
        <ele>1287</ele>
        <time>2017-04-22T11:28:58.000Z</time>
      </trkpt>
      <trkpt lat="46.83583" lon="6.54342">
        <ele>1287.1999511719</ele>
        <time>2017-04-22T11:29:01.000Z</time>
      </trkpt>
      <trkpt lat="46.83598" lon="6.54354">
        <ele>1287.8000488281</ele>
        <time>2017-04-22T11:29:05.000Z</time>
      </trkpt>
      <trkpt lat="46.83602" lon="6.54357">
        <ele>1288</ele>
        <time>2017-04-22T11:29:06.000Z</time>
      </trkpt>
      <trkpt lat="46.83612" lon="6.54363">
        <ele>1288.4000244141</ele>
        <time>2017-04-22T11:29:09.000Z</time>
      </trkpt>
      <trkpt lat="46.83622" lon="6.54375">
        <ele>1289.4000244141</ele>
        <time>2017-04-22T11:29:13.000Z</time>
      </trkpt>
      <trkpt lat="46.83624" lon="6.54378">
        <ele>1289.5999755859</ele>
        <time>2017-04-22T11:29:14.000Z</time>
      </trkpt>
      <trkpt lat="46.83632" lon="6.54385">
        <ele>1290.4000244141</ele>
        <time>2017-04-22T11:29:17.000Z</time>
      </trkpt>
      <trkpt lat="46.83635" lon="6.54388">
        <ele>1290.5999755859</ele>
        <time>2017-04-22T11:29:18.000Z</time>
      </trkpt>
      <trkpt lat="46.83645" lon="6.54407">
        <ele>1291.1999511719</ele>
        <time>2017-04-22T11:29:23.000Z</time>
      </trkpt>
      <trkpt lat="46.83655" lon="6.54421">
        <ele>1291.5999755859</ele>
        <time>2017-04-22T11:29:27.000Z</time>
      </trkpt>
      <trkpt lat="46.83662" lon="6.54429">
        <ele>1292.5999755859</ele>
        <time>2017-04-22T11:29:30.000Z</time>
      </trkpt>
      <trkpt lat="46.83667" lon="6.54432">
        <ele>1293.5999755859</ele>
        <time>2017-04-22T11:29:32.000Z</time>
      </trkpt>
      <trkpt lat="46.83669" lon="6.54434">
        <ele>1293.8000488281</ele>
        <time>2017-04-22T11:29:33.000Z</time>
      </trkpt>
      <trkpt lat="46.8368" lon="6.54443">
        <ele>1294.8000488281</ele>
        <time>2017-04-22T11:29:38.000Z</time>
      </trkpt>
      <trkpt lat="46.83683" lon="6.54445">
        <ele>1294.8000488281</ele>
        <time>2017-04-22T11:29:39.000Z</time>
      </trkpt>
      <trkpt lat="46.83691" lon="6.54453">
        <ele>1295.4000244141</ele>
        <time>2017-04-22T11:29:43.000Z</time>
      </trkpt>
      <trkpt lat="46.83702" lon="6.54467">
        <ele>1296.4000244141</ele>
        <time>2017-04-22T11:29:48.000Z</time>
      </trkpt>
      <trkpt lat="46.83717" lon="6.54479">
        <ele>1297.4000244141</ele>
        <time>2017-04-22T11:29:54.000Z</time>
      </trkpt>
      <trkpt lat="46.83725" lon="6.54484">
        <ele>1298.4000244141</ele>
        <time>2017-04-22T11:29:57.000Z</time>
      </trkpt>
      <trkpt lat="46.83738" lon="6.54492">
        <ele>1299.5999755859</ele>
        <time>2017-04-22T11:30:02.000Z</time>
      </trkpt>
      <trkpt lat="46.83741" lon="6.54495">
        <ele>1300</ele>
        <time>2017-04-22T11:30:03.000Z</time>
      </trkpt>
      <trkpt lat="46.8375" lon="6.54518">
        <ele>1300.5999755859</ele>
        <time>2017-04-22T11:30:09.000Z</time>
      </trkpt>
      <trkpt lat="46.83753" lon="6.5452">
        <ele>1300.8000488281</ele>
        <time>2017-04-22T11:30:10.000Z</time>
      </trkpt>
      <trkpt lat="46.83768" lon="6.54525">
        <ele>1301.1999511719</ele>
        <time>2017-04-22T11:30:14.000Z</time>
      </trkpt>
      <trkpt lat="46.83791" lon="6.54532">
        <ele>1302</ele>
        <time>2017-04-22T11:30:20.000Z</time>
      </trkpt>
      <trkpt lat="46.83795" lon="6.54532">
        <ele>1302</ele>
        <time>2017-04-22T11:30:21.000Z</time>
      </trkpt>
      <trkpt lat="46.83819" lon="6.54542">
        <ele>1302.1999511719</ele>
        <time>2017-04-22T11:30:27.000Z</time>
      </trkpt>
      <trkpt lat="46.83822" lon="6.54545">
        <ele>1302.5999755859</ele>
        <time>2017-04-22T11:30:28.000Z</time>
      </trkpt>
      <trkpt lat="46.83829" lon="6.5455">
        <ele>1303</ele>
        <time>2017-04-22T11:30:30.000Z</time>
      </trkpt>
      <trkpt lat="46.83841" lon="6.54567">
        <ele>1303.8000488281</ele>
        <time>2017-04-22T11:30:34.000Z</time>
      </trkpt>
      <trkpt lat="46.8385" lon="6.54595">
        <ele>1304</ele>
        <time>2017-04-22T11:30:39.000Z</time>
      </trkpt>
      <trkpt lat="46.83852" lon="6.546">
        <ele>1304.1999511719</ele>
        <time>2017-04-22T11:30:40.000Z</time>
      </trkpt>
      <trkpt lat="46.83855" lon="6.54605">
        <ele>1304.4000244141</ele>
        <time>2017-04-22T11:30:41.000Z</time>
      </trkpt>
      <trkpt lat="46.83865" lon="6.54623">
        <ele>1304.5999755859</ele>
        <time>2017-04-22T11:30:45.000Z</time>
      </trkpt>
      <trkpt lat="46.83881" lon="6.54642">
        <ele>1304.4000244141</ele>
        <time>2017-04-22T11:30:50.000Z</time>
      </trkpt>
      <trkpt lat="46.8389" lon="6.54654">
        <ele>1305.4000244141</ele>
        <time>2017-04-22T11:30:54.000Z</time>
      </trkpt>
      <trkpt lat="46.83892" lon="6.54657">
        <ele>1305.8000488281</ele>
        <time>2017-04-22T11:30:55.000Z</time>
      </trkpt>
      <trkpt lat="46.83902" lon="6.54669">
        <ele>1306.5999755859</ele>
        <time>2017-04-22T11:30:59.000Z</time>
      </trkpt>
      <trkpt lat="46.83906" lon="6.54674">
        <ele>1307</ele>
        <time>2017-04-22T11:31:01.000Z</time>
      </trkpt>
      <trkpt lat="46.83912" lon="6.54682">
        <ele>1307.8000488281</ele>
        <time>2017-04-22T11:31:04.000Z</time>
      </trkpt>
      <trkpt lat="46.83916" lon="6.54686">
        <ele>1308.4000244141</ele>
        <time>2017-04-22T11:31:06.000Z</time>
      </trkpt>
      <trkpt lat="46.83921" lon="6.54691">
        <ele>1309</ele>
        <time>2017-04-22T11:31:08.000Z</time>
      </trkpt>
      <trkpt lat="46.83928" lon="6.54699">
        <ele>1309.5999755859</ele>
        <time>2017-04-22T11:31:11.000Z</time>
      </trkpt>
      <trkpt lat="46.83931" lon="6.54704">
        <ele>1310.4000244141</ele>
        <time>2017-04-22T11:31:13.000Z</time>
      </trkpt>
      <trkpt lat="46.83934" lon="6.5471">
        <ele>1311.4000244141</ele>
        <time>2017-04-22T11:31:15.000Z</time>
      </trkpt>
      <trkpt lat="46.83936" lon="6.54713">
        <ele>1311.8000488281</ele>
        <time>2017-04-22T11:31:16.000Z</time>
      </trkpt>
      <trkpt lat="46.8395" lon="6.54722">
        <ele>1312.5999755859</ele>
        <time>2017-04-22T11:31:21.000Z</time>
      </trkpt>
      <trkpt lat="46.83958" lon="6.54728">
        <ele>1303</ele>
        <time>2017-04-22T11:31:25.000Z</time>
      </trkpt>
      <trkpt lat="46.83965" lon="6.54731">
        <ele>1314.4000244141</ele>
        <time>2017-04-22T11:31:28.000Z</time>
      </trkpt>
      <trkpt lat="46.83972" lon="6.54734">
        <ele>1315</ele>
        <time>2017-04-22T11:31:31.000Z</time>
      </trkpt>
      <trkpt lat="46.83981" lon="6.54738">
        <ele>1316</ele>
        <time>2017-04-22T11:31:35.000Z</time>
      </trkpt>
      <trkpt lat="46.83983" lon="6.54739">
        <ele>1316.1999511719</ele>
        <time>2017-04-22T11:31:36.000Z</time>
      </trkpt>
      <trkpt lat="46.83993" lon="6.54745">
        <ele>1317.4000244141</ele>
        <time>2017-04-22T11:31:40.000Z</time>
      </trkpt>
      <trkpt lat="46.83997" lon="6.54747">
        <ele>1318.4000244141</ele>
        <time>2017-04-22T11:31:42.000Z</time>
      </trkpt>
      <trkpt lat="46.83999" lon="6.54748">
        <ele>1318.5999755859</ele>
        <time>2017-04-22T11:31:43.000Z</time>
      </trkpt>
      <trkpt lat="46.84011" lon="6.54754">
        <ele>1320</ele>
        <time>2017-04-22T11:31:48.000Z</time>
      </trkpt>
      <trkpt lat="46.84014" lon="6.54755">
        <ele>1320.1999511719</ele>
        <time>2017-04-22T11:31:49.000Z</time>
      </trkpt>
      <trkpt lat="46.84025" lon="6.54758">
        <ele>1321.5999755859</ele>
        <time>2017-04-22T11:31:53.000Z</time>
      </trkpt>
      <trkpt lat="46.84028" lon="6.54759">
        <ele>1321.8000488281</ele>
        <time>2017-04-22T11:31:54.000Z</time>
      </trkpt>
      <trkpt lat="46.84034" lon="6.5476">
        <ele>1322.8000488281</ele>
        <time>2017-04-22T11:31:56.000Z</time>
      </trkpt>
      <trkpt lat="46.84042" lon="6.54764">
        <ele>1323.8000488281</ele>
        <time>2017-04-22T11:31:59.000Z</time>
      </trkpt>
      <trkpt lat="46.8405" lon="6.54767">
        <ele>1325.1999511719</ele>
        <time>2017-04-22T11:32:02.000Z</time>
      </trkpt>
      <trkpt lat="46.84057" lon="6.54771">
        <ele>1326.1999511719</ele>
        <time>2017-04-22T11:32:05.000Z</time>
      </trkpt>
      <trkpt lat="46.84065" lon="6.54775">
        <ele>1327.4000244141</ele>
        <time>2017-04-22T11:32:08.000Z</time>
      </trkpt>
      <trkpt lat="46.84068" lon="6.54777">
        <ele>1327.8000488281</ele>
        <time>2017-04-22T11:32:09.000Z</time>
      </trkpt>
      <trkpt lat="46.84075" lon="6.54781">
        <ele>1328.5999755859</ele>
        <time>2017-04-22T11:32:12.000Z</time>
      </trkpt>
      <trkpt lat="46.84083" lon="6.54789">
        <ele>1330.1999511719</ele>
        <time>2017-04-22T11:32:16.000Z</time>
      </trkpt>
      <trkpt lat="46.84085" lon="6.54791">
        <ele>1330.4000244141</ele>
        <time>2017-04-22T11:32:17.000Z</time>
      </trkpt>
      <trkpt lat="46.84089" lon="6.54797">
        <ele>1331.1999511719</ele>
        <time>2017-04-22T11:32:19.000Z</time>
      </trkpt>
      <trkpt lat="46.84093" lon="6.54807">
        <ele>1331.8000488281</ele>
        <time>2017-04-22T11:32:22.000Z</time>
      </trkpt>
      <trkpt lat="46.841" lon="6.54821">
        <ele>1332.1999511719</ele>
        <time>2017-04-22T11:32:26.000Z</time>
      </trkpt>
      <trkpt lat="46.84105" lon="6.54836">
        <ele>1332.8000488281</ele>
        <time>2017-04-22T11:32:30.000Z</time>
      </trkpt>
      <trkpt lat="46.84112" lon="6.54861">
        <ele>1333.1999511719</ele>
        <time>2017-04-22T11:32:35.000Z</time>
      </trkpt>
      <trkpt lat="46.84114" lon="6.54868">
        <ele>1333.1999511719</ele>
        <time>2017-04-22T11:32:36.000Z</time>
      </trkpt>
      <trkpt lat="46.84121" lon="6.54899">
        <ele>1332.5999755859</ele>
        <time>2017-04-22T11:32:40.000Z</time>
      </trkpt>
      <trkpt lat="46.84121" lon="6.54907">
        <ele>1332</ele>
        <time>2017-04-22T11:32:41.000Z</time>
      </trkpt>
      <trkpt lat="46.84122" lon="6.54917">
        <ele>1331</ele>
        <time>2017-04-22T11:32:42.000Z</time>
      </trkpt>
      <trkpt lat="46.84123" lon="6.54926">
        <ele>1330.5999755859</ele>
        <time>2017-04-22T11:32:43.000Z</time>
      </trkpt>
      <trkpt lat="46.84123" lon="6.54942">
        <ele>1328.4000244141</ele>
        <time>2017-04-22T11:32:45.000Z</time>
      </trkpt>
      <trkpt lat="46.84122" lon="6.54947">
        <ele>1327.8000488281</ele>
        <time>2017-04-22T11:32:46.000Z</time>
      </trkpt>
      <trkpt lat="46.84121" lon="6.54952">
        <ele>1327.4000244141</ele>
        <time>2017-04-22T11:32:47.000Z</time>
      </trkpt>
      <trkpt lat="46.84119" lon="6.54955">
        <ele>1326.8000488281</ele>
        <time>2017-04-22T11:32:48.000Z</time>
      </trkpt>
      <trkpt lat="46.84117" lon="6.54958">
        <ele>1325.8000488281</ele>
        <time>2017-04-22T11:32:49.000Z</time>
      </trkpt>
      <trkpt lat="46.84116" lon="6.54962">
        <ele>1324.5999755859</ele>
        <time>2017-04-22T11:32:50.000Z</time>
      </trkpt>
      <trkpt lat="46.84117" lon="6.5497">
        <ele>1323.5999755859</ele>
        <time>2017-04-22T11:32:52.000Z</time>
      </trkpt>
      <trkpt lat="46.8412" lon="6.54982">
        <ele>1323.1999511719</ele>
        <time>2017-04-22T11:32:55.000Z</time>
      </trkpt>
      <trkpt lat="46.84121" lon="6.54992">
        <ele>1323.4000244141</ele>
        <time>2017-04-22T11:32:57.000Z</time>
      </trkpt>
      <trkpt lat="46.84128" lon="6.55008">
        <ele>1323.1999511719</ele>
        <time>2017-04-22T11:33:00.000Z</time>
      </trkpt>
      <trkpt lat="46.84134" lon="6.55024">
        <ele>1322.5999755859</ele>
        <time>2017-04-22T11:33:03.000Z</time>
      </trkpt>
      <trkpt lat="46.84134" lon="6.55031">
        <ele>1322.4000244141</ele>
        <time>2017-04-22T11:33:04.000Z</time>
      </trkpt>
      <trkpt lat="46.84136" lon="6.55045">
        <ele>1321.5999755859</ele>
        <time>2017-04-22T11:33:06.000Z</time>
      </trkpt>
      <trkpt lat="46.84137" lon="6.55054">
        <ele>1321</ele>
        <time>2017-04-22T11:33:07.000Z</time>
      </trkpt>
      <trkpt lat="46.84137" lon="6.55067">
        <ele>1319.8000488281</ele>
        <time>2017-04-22T11:33:09.000Z</time>
      </trkpt>
      <trkpt lat="46.84137" lon="6.55084">
        <ele>1319.1999511719</ele>
        <time>2017-04-22T11:33:11.000Z</time>
      </trkpt>
      <trkpt lat="46.84139" lon="6.55092">
        <ele>1318.1999511719</ele>
        <time>2017-04-22T11:33:12.000Z</time>
      </trkpt>
      <trkpt lat="46.84141" lon="6.55098">
        <ele>1316.8000488281</ele>
        <time>2017-04-22T11:33:13.000Z</time>
      </trkpt>
      <trkpt lat="46.84144" lon="6.55104">
        <ele>1315.5999755859</ele>
        <time>2017-04-22T11:33:14.000Z</time>
      </trkpt>
      <trkpt lat="46.84149" lon="6.55112">
        <ele>1314.5999755859</ele>
        <time>2017-04-22T11:33:16.000Z</time>
      </trkpt>
      <trkpt lat="46.8415" lon="6.55117">
        <ele>1314</ele>
        <time>2017-04-22T11:33:17.000Z</time>
      </trkpt>
      <trkpt lat="46.84152" lon="6.55122">
        <ele>1314</ele>
        <time>2017-04-22T11:33:18.000Z</time>
      </trkpt>
      <trkpt lat="46.84158" lon="6.55138">
        <ele>1314</ele>
        <time>2017-04-22T11:33:21.000Z</time>
      </trkpt>
      <trkpt lat="46.8416" lon="6.55145">
        <ele>1313.4000244141</ele>
        <time>2017-04-22T11:33:22.000Z</time>
      </trkpt>
      <trkpt lat="46.84163" lon="6.5515">
        <ele>1313</ele>
        <time>2017-04-22T11:33:23.000Z</time>
      </trkpt>
      <trkpt lat="46.84172" lon="6.55158">
        <ele>1312.8000488281</ele>
        <time>2017-04-22T11:33:25.000Z</time>
      </trkpt>
      <trkpt lat="46.84175" lon="6.55162">
        <ele>1312.4000244141</ele>
        <time>2017-04-22T11:33:26.000Z</time>
      </trkpt>
      <trkpt lat="46.84181" lon="6.55166">
        <ele>1311.5999755859</ele>
        <time>2017-04-22T11:33:28.000Z</time>
      </trkpt>
      <trkpt lat="46.84187" lon="6.55173">
        <ele>1311.4000244141</ele>
        <time>2017-04-22T11:33:30.000Z</time>
      </trkpt>
      <trkpt lat="46.8419" lon="6.55177">
        <ele>1311.4000244141</ele>
        <time>2017-04-22T11:33:31.000Z</time>
      </trkpt>
      <trkpt lat="46.84193" lon="6.55179">
        <ele>1311.4000244141</ele>
        <time>2017-04-22T11:33:32.000Z</time>
      </trkpt>
      <trkpt lat="46.84204" lon="6.5519">
        <ele>1312.1999511719</ele>
        <time>2017-04-22T11:33:36.000Z</time>
      </trkpt>
      <trkpt lat="46.84206" lon="6.55192">
        <ele>1312.1999511719</ele>
        <time>2017-04-22T11:33:37.000Z</time>
      </trkpt>
      <trkpt lat="46.84213" lon="6.55201">
        <ele>1312</ele>
        <time>2017-04-22T11:33:41.000Z</time>
      </trkpt>
      <trkpt lat="46.84222" lon="6.55205">
        <ele>1311.1999511719</ele>
        <time>2017-04-22T11:33:44.000Z</time>
      </trkpt>
      <trkpt lat="46.84229" lon="6.55209">
        <ele>1310.5999755859</ele>
        <time>2017-04-22T11:33:47.000Z</time>
      </trkpt>
      <trkpt lat="46.84232" lon="6.55209">
        <ele>1310.5999755859</ele>
        <time>2017-04-22T11:33:48.000Z</time>
      </trkpt>
      <trkpt lat="46.8424" lon="6.5521">
        <ele>1310.5999755859</ele>
        <time>2017-04-22T11:33:51.000Z</time>
      </trkpt>
      <trkpt lat="46.84242" lon="6.5521">
        <ele>1310.5999755859</ele>
        <time>2017-04-22T11:33:52.000Z</time>
      </trkpt>
      <trkpt lat="46.84252" lon="6.55207">
        <ele>1311.8000488281</ele>
        <time>2017-04-22T11:33:57.000Z</time>
      </trkpt>
      <trkpt lat="46.84254" lon="6.55207">
        <ele>1311.8000488281</ele>
        <time>2017-04-22T11:33:58.000Z</time>
      </trkpt>
      <trkpt lat="46.84257" lon="6.55211">
        <ele>1311.8000488281</ele>
        <time>2017-04-22T11:34:01.000Z</time>
      </trkpt>
      <trkpt lat="46.84262" lon="6.55216">
        <ele>1311.5999755859</ele>
        <time>2017-04-22T11:34:03.000Z</time>
      </trkpt>
      <trkpt lat="46.84266" lon="6.5522">
        <ele>1310.5999755859</ele>
        <time>2017-04-22T11:34:05.000Z</time>
      </trkpt>
      <trkpt lat="46.8427" lon="6.55226">
        <ele>1309.8000488281</ele>
        <time>2017-04-22T11:34:07.000Z</time>
      </trkpt>
      <trkpt lat="46.84276" lon="6.55229">
        <ele>1309.4000244141</ele>
        <time>2017-04-22T11:34:09.000Z</time>
      </trkpt>
      <trkpt lat="46.84281" lon="6.55234">
        <ele>1309.4000244141</ele>
        <time>2017-04-22T11:34:11.000Z</time>
      </trkpt>
      <trkpt lat="46.8429" lon="6.55242">
        <ele>1309.5999755859</ele>
        <time>2017-04-22T11:34:14.000Z</time>
      </trkpt>
      <trkpt lat="46.84298" lon="6.55246">
        <ele>1309.5999755859</ele>
        <time>2017-04-22T11:34:17.000Z</time>
      </trkpt>
      <trkpt lat="46.84301" lon="6.55247">
        <ele>1309.5999755859</ele>
        <time>2017-04-22T11:34:18.000Z</time>
      </trkpt>
      <trkpt lat="46.84314" lon="6.55254">
        <ele>1309.4000244141</ele>
        <time>2017-04-22T11:34:22.000Z</time>
      </trkpt>
      <trkpt lat="46.84316" lon="6.55254">
        <ele>1309.4000244141</ele>
        <time>2017-04-22T11:34:23.000Z</time>
      </trkpt>
      <trkpt lat="46.84329" lon="6.55253">
        <ele>1309.4000244141</ele>
        <time>2017-04-22T11:34:27.000Z</time>
      </trkpt>
      <trkpt lat="46.84334" lon="6.55255">
        <ele>1309.4000244141</ele>
        <time>2017-04-22T11:34:29.000Z</time>
      </trkpt>
      <trkpt lat="46.84339" lon="6.5526">
        <ele>1309.8000488281</ele>
        <time>2017-04-22T11:34:31.000Z</time>
      </trkpt>
      <trkpt lat="46.84341" lon="6.55262">
        <ele>1309.5999755859</ele>
        <time>2017-04-22T11:34:32.000Z</time>
      </trkpt>
      <trkpt lat="46.84344" lon="6.55265">
        <ele>1309.4000244141</ele>
        <time>2017-04-22T11:34:33.000Z</time>
      </trkpt>
      <trkpt lat="46.84347" lon="6.55269">
        <ele>1309.1999511719</ele>
        <time>2017-04-22T11:34:34.000Z</time>
      </trkpt>
      <trkpt lat="46.84354" lon="6.55279">
        <ele>1308.4000244141</ele>
        <time>2017-04-22T11:34:37.000Z</time>
      </trkpt>
      <trkpt lat="46.84357" lon="6.55283">
        <ele>1308</ele>
        <time>2017-04-22T11:34:38.000Z</time>
      </trkpt>
      <trkpt lat="46.84362" lon="6.55291">
        <ele>1307.4000244141</ele>
        <time>2017-04-22T11:34:40.000Z</time>
      </trkpt>
      <trkpt lat="46.84367" lon="6.55296">
        <ele>1306.8000488281</ele>
        <time>2017-04-22T11:34:41.000Z</time>
      </trkpt>
      <trkpt lat="46.84372" lon="6.55308">
        <ele>1305.5999755859</ele>
        <time>2017-04-22T11:34:43.000Z</time>
      </trkpt>
      <trkpt lat="46.84374" lon="6.55315">
        <ele>1304.8000488281</ele>
        <time>2017-04-22T11:34:44.000Z</time>
      </trkpt>
      <trkpt lat="46.84376" lon="6.55321">
        <ele>1304</ele>
        <time>2017-04-22T11:34:45.000Z</time>
      </trkpt>
      <trkpt lat="46.84378" lon="6.55334">
        <ele>1303</ele>
        <time>2017-04-22T11:34:47.000Z</time>
      </trkpt>
      <trkpt lat="46.84379" lon="6.5534">
        <ele>1302.1999511719</ele>
        <time>2017-04-22T11:34:48.000Z</time>
      </trkpt>
      <trkpt lat="46.84382" lon="6.55344">
        <ele>1301.1999511719</ele>
        <time>2017-04-22T11:34:49.000Z</time>
      </trkpt>
      <trkpt lat="46.84385" lon="6.55345">
        <ele>1300</ele>
        <time>2017-04-22T11:34:50.000Z</time>
      </trkpt>
      <trkpt lat="46.84389" lon="6.55351">
        <ele>1299</ele>
        <time>2017-04-22T11:34:52.000Z</time>
      </trkpt>
      <trkpt lat="46.8439" lon="6.5536">
        <ele>1298.1999511719</ele>
        <time>2017-04-22T11:34:54.000Z</time>
      </trkpt>
      <trkpt lat="46.84391" lon="6.55364">
        <ele>1297.4000244141</ele>
        <time>2017-04-22T11:34:55.000Z</time>
      </trkpt>
      <trkpt lat="46.84396" lon="6.5537">
        <ele>1296</ele>
        <time>2017-04-22T11:34:57.000Z</time>
      </trkpt>
      <trkpt lat="46.84404" lon="6.55374">
        <ele>1295.8000488281</ele>
        <time>2017-04-22T11:35:01.000Z</time>
      </trkpt>
      <trkpt lat="46.84411" lon="6.55384">
        <ele>1296</ele>
        <time>2017-04-22T11:35:05.000Z</time>
      </trkpt>
      <trkpt lat="46.84413" lon="6.55391">
        <ele>1296.1999511719</ele>
        <time>2017-04-22T11:35:07.000Z</time>
      </trkpt>
      <trkpt lat="46.84414" lon="6.55395">
        <ele>1296.4000244141</ele>
        <time>2017-04-22T11:35:08.000Z</time>
      </trkpt>
      <trkpt lat="46.84416" lon="6.55397">
        <ele>1296.5999755859</ele>
        <time>2017-04-22T11:35:09.000Z</time>
      </trkpt>
      <trkpt lat="46.8442" lon="6.55411">
        <ele>1296.5999755859</ele>
        <time>2017-04-22T11:35:13.000Z</time>
      </trkpt>
      <trkpt lat="46.84421" lon="6.55417">
        <ele>1296.5999755859</ele>
        <time>2017-04-22T11:35:14.000Z</time>
      </trkpt>
      <trkpt lat="46.84424" lon="6.55438">
        <ele>1296</ele>
        <time>2017-04-22T11:35:18.000Z</time>
      </trkpt>
      <trkpt lat="46.84422" lon="6.55444">
        <ele>1295</ele>
        <time>2017-04-22T11:35:19.000Z</time>
      </trkpt>
      <trkpt lat="46.84419" lon="6.55455">
        <ele>1293.5999755859</ele>
        <time>2017-04-22T11:35:21.000Z</time>
      </trkpt>
      <trkpt lat="46.84417" lon="6.55461">
        <ele>1293</ele>
        <time>2017-04-22T11:35:22.000Z</time>
      </trkpt>
      <trkpt lat="46.84414" lon="6.55466">
        <ele>1292.5999755859</ele>
        <time>2017-04-22T11:35:23.000Z</time>
      </trkpt>
      <trkpt lat="46.84407" lon="6.55477">
        <ele>1290</ele>
        <time>2017-04-22T11:35:25.000Z</time>
      </trkpt>
      <trkpt lat="46.84405" lon="6.55483">
        <ele>1288.1999511719</ele>
        <time>2017-04-22T11:35:26.000Z</time>
      </trkpt>
      <trkpt lat="46.84403" lon="6.5549">
        <ele>1287</ele>
        <time>2017-04-22T11:35:27.000Z</time>
      </trkpt>
      <trkpt lat="46.84401" lon="6.55497">
        <ele>1285.8000488281</ele>
        <time>2017-04-22T11:35:28.000Z</time>
      </trkpt>
      <trkpt lat="46.844" lon="6.55504">
        <ele>1284.5999755859</ele>
        <time>2017-04-22T11:35:29.000Z</time>
      </trkpt>
      <trkpt lat="46.84398" lon="6.55511">
        <ele>1283.8000488281</ele>
        <time>2017-04-22T11:35:30.000Z</time>
      </trkpt>
      <trkpt lat="46.84397" lon="6.55519">
        <ele>1283.4000244141</ele>
        <time>2017-04-22T11:35:31.000Z</time>
      </trkpt>
      <trkpt lat="46.84397" lon="6.55527">
        <ele>1282.4000244141</ele>
        <time>2017-04-22T11:35:32.000Z</time>
      </trkpt>
      <trkpt lat="46.84398" lon="6.55535">
        <ele>1281.5999755859</ele>
        <time>2017-04-22T11:35:33.000Z</time>
      </trkpt>
      <trkpt lat="46.84399" lon="6.55543">
        <ele>1280.5999755859</ele>
        <time>2017-04-22T11:35:34.000Z</time>
      </trkpt>
      <trkpt lat="46.844" lon="6.55552">
        <ele>1279.4000244141</ele>
        <time>2017-04-22T11:35:35.000Z</time>
      </trkpt>
      <trkpt lat="46.844" lon="6.55559">
        <ele>1278.4000244141</ele>
        <time>2017-04-22T11:35:36.000Z</time>
      </trkpt>
      <trkpt lat="46.844" lon="6.55567">
        <ele>1277.4000244141</ele>
        <time>2017-04-22T11:35:37.000Z</time>
      </trkpt>
      <trkpt lat="46.844" lon="6.55576">
        <ele>1276.4000244141</ele>
        <time>2017-04-22T11:35:38.000Z</time>
      </trkpt>
      <trkpt lat="46.84401" lon="6.55592">
        <ele>1274.5999755859</ele>
        <time>2017-04-22T11:35:40.000Z</time>
      </trkpt>
      <trkpt lat="46.84401" lon="6.55601">
        <ele>1273.5999755859</ele>
        <time>2017-04-22T11:35:41.000Z</time>
      </trkpt>
      <trkpt lat="46.84401" lon="6.5561">
        <ele>1272.8000488281</ele>
        <time>2017-04-22T11:35:42.000Z</time>
      </trkpt>
      <trkpt lat="46.84401" lon="6.55619">
        <ele>1271.5999755859</ele>
        <time>2017-04-22T11:35:43.000Z</time>
      </trkpt>
      <trkpt lat="46.84401" lon="6.55627">
        <ele>1270.1999511719</ele>
        <time>2017-04-22T11:35:44.000Z</time>
      </trkpt>
      <trkpt lat="46.844" lon="6.55633">
        <ele>1268.4000244141</ele>
        <time>2017-04-22T11:35:45.000Z</time>
      </trkpt>
      <trkpt lat="46.844" lon="6.55641">
        <ele>1266.5999755859</ele>
        <time>2017-04-22T11:35:46.000Z</time>
      </trkpt>
      <trkpt lat="46.844" lon="6.55649">
        <ele>1265.8000488281</ele>
        <time>2017-04-22T11:35:47.000Z</time>
      </trkpt>
      <trkpt lat="46.844" lon="6.55657">
        <ele>1264.5999755859</ele>
        <time>2017-04-22T11:35:48.000Z</time>
      </trkpt>
      <trkpt lat="46.84401" lon="6.55665">
        <ele>1263.4000244141</ele>
        <time>2017-04-22T11:35:49.000Z</time>
      </trkpt>
      <trkpt lat="46.84404" lon="6.55673">
        <ele>1262.4000244141</ele>
        <time>2017-04-22T11:35:50.000Z</time>
      </trkpt>
      <trkpt lat="46.84407" lon="6.55681">
        <ele>1261.1999511719</ele>
        <time>2017-04-22T11:35:51.000Z</time>
      </trkpt>
      <trkpt lat="46.84414" lon="6.55696">
        <ele>1259.5999755859</ele>
        <time>2017-04-22T11:35:53.000Z</time>
      </trkpt>
      <trkpt lat="46.8442" lon="6.55708">
        <ele>1258.4000244141</ele>
        <time>2017-04-22T11:35:55.000Z</time>
      </trkpt>
      <trkpt lat="46.84423" lon="6.55717">
        <ele>1256.8000488281</ele>
        <time>2017-04-22T11:35:57.000Z</time>
      </trkpt>
      <trkpt lat="46.84421" lon="6.55721">
        <ele>1256.4000244141</ele>
        <time>2017-04-22T11:35:58.000Z</time>
      </trkpt>
      <trkpt lat="46.84418" lon="6.55724">
        <ele>1255.5999755859</ele>
        <time>2017-04-22T11:36:00.000Z</time>
      </trkpt>
      <trkpt lat="46.84417" lon="6.5573">
        <ele>1255</ele>
        <time>2017-04-22T11:36:02.000Z</time>
      </trkpt>
      <trkpt lat="46.84418" lon="6.55734">
        <ele>1254.5999755859</ele>
        <time>2017-04-22T11:36:03.000Z</time>
      </trkpt>
      <trkpt lat="46.84419" lon="6.55739">
        <ele>1254.1999511719</ele>
        <time>2017-04-22T11:36:04.000Z</time>
      </trkpt>
      <trkpt lat="46.84422" lon="6.55746">
        <ele>1252.8000488281</ele>
        <time>2017-04-22T11:36:06.000Z</time>
      </trkpt>
      <trkpt lat="46.84419" lon="6.55756">
        <ele>1251.5999755859</ele>
        <time>2017-04-22T11:36:08.000Z</time>
      </trkpt>
      <trkpt lat="46.84416" lon="6.55761">
        <ele>1250.8000488281</ele>
        <time>2017-04-22T11:36:09.000Z</time>
      </trkpt>
      <trkpt lat="46.84413" lon="6.55762">
        <ele>1249.5999755859</ele>
        <time>2017-04-22T11:36:10.000Z</time>
      </trkpt>
      <trkpt lat="46.84409" lon="6.55762">
        <ele>1248.5999755859</ele>
        <time>2017-04-22T11:36:11.000Z</time>
      </trkpt>
      <trkpt lat="46.84407" lon="6.55761">
        <ele>1248</ele>
        <time>2017-04-22T11:36:12.000Z</time>
      </trkpt>
      <trkpt lat="46.84405" lon="6.55758">
        <ele>1247.5999755859</ele>
        <time>2017-04-22T11:36:13.000Z</time>
      </trkpt>
      <trkpt lat="46.84402" lon="6.55756">
        <ele>1247.4000244141</ele>
        <time>2017-04-22T11:36:14.000Z</time>
      </trkpt>
      <trkpt lat="46.84391" lon="6.55745">
        <ele>1247.4000244141</ele>
        <time>2017-04-22T11:36:17.000Z</time>
      </trkpt>
      <trkpt lat="46.84374" lon="6.55728">
        <ele>1248</ele>
        <time>2017-04-22T11:36:21.000Z</time>
      </trkpt>
      <trkpt lat="46.84369" lon="6.55724">
        <ele>1248.4000244141</ele>
        <time>2017-04-22T11:36:22.000Z</time>
      </trkpt>
      <trkpt lat="46.84346" lon="6.55699">
        <ele>1248.1999511719</ele>
        <time>2017-04-22T11:36:27.000Z</time>
      </trkpt>
      <trkpt lat="46.8433" lon="6.55682">
        <ele>1247.4000244141</ele>
        <time>2017-04-22T11:36:31.000Z</time>
      </trkpt>
      <trkpt lat="46.84326" lon="6.55687">
        <ele>1247.4000244141</ele>
        <time>2017-04-22T11:36:34.000Z</time>
      </trkpt>
      <trkpt lat="46.84327" lon="6.55695">
        <ele>1246.5999755859</ele>
        <time>2017-04-22T11:36:36.000Z</time>
      </trkpt>
      <trkpt lat="46.84327" lon="6.55701">
        <ele>1246</ele>
        <time>2017-04-22T11:36:37.000Z</time>
      </trkpt>
      <trkpt lat="46.84327" lon="6.55707">
        <ele>1245.1999511719</ele>
        <time>2017-04-22T11:36:38.000Z</time>
      </trkpt>
      <trkpt lat="46.84328" lon="6.55724">
        <ele>1243.5999755859</ele>
        <time>2017-04-22T11:36:41.000Z</time>
      </trkpt>
      <trkpt lat="46.84328" lon="6.55728">
        <ele>1243</ele>
        <time>2017-04-22T11:36:42.000Z</time>
      </trkpt>
      <trkpt lat="46.84328" lon="6.55732">
        <ele>1242</ele>
        <time>2017-04-22T11:36:43.000Z</time>
      </trkpt>
      <trkpt lat="46.84328" lon="6.55736">
        <ele>1241</ele>
        <time>2017-04-22T11:36:44.000Z</time>
      </trkpt>
      <trkpt lat="46.84327" lon="6.5574">
        <ele>1240</ele>
        <time>2017-04-22T11:36:45.000Z</time>
      </trkpt>
      <trkpt lat="46.84325" lon="6.55745">
        <ele>1239.4000244141</ele>
        <time>2017-04-22T11:36:46.000Z</time>
      </trkpt>
      <trkpt lat="46.84324" lon="6.55754">
        <ele>1238.1999511719</ele>
        <time>2017-04-22T11:36:48.000Z</time>
      </trkpt>
      <trkpt lat="46.84321" lon="6.55755">
        <ele>1236.8000488281</ele>
        <time>2017-04-22T11:36:50.000Z</time>
      </trkpt>
      <trkpt lat="46.8432" lon="6.55754">
        <ele>1236.5999755859</ele>
        <time>2017-04-22T11:36:51.000Z</time>
      </trkpt>
      <trkpt lat="46.84313" lon="6.55741">
        <ele>1236</ele>
        <time>2017-04-22T11:36:55.000Z</time>
      </trkpt>
      <trkpt lat="46.84307" lon="6.55728">
        <ele>1236.4000244141</ele>
        <time>2017-04-22T11:36:58.000Z</time>
      </trkpt>
      <trkpt lat="46.84303" lon="6.55723">
        <ele>1236.4000244141</ele>
        <time>2017-04-22T11:36:59.000Z</time>
      </trkpt>
      <trkpt lat="46.84299" lon="6.55717">
        <ele>1236.4000244141</ele>
        <time>2017-04-22T11:37:00.000Z</time>
      </trkpt>
      <trkpt lat="46.84287" lon="6.557">
        <ele>1236</ele>
        <time>2017-04-22T11:37:03.000Z</time>
      </trkpt>
      <trkpt lat="46.84281" lon="6.55686">
        <ele>1235.4000244141</ele>
        <time>2017-04-22T11:37:06.000Z</time>
      </trkpt>
      <trkpt lat="46.84278" lon="6.5568">
        <ele>1235.1999511719</ele>
        <time>2017-04-22T11:37:07.000Z</time>
      </trkpt>
      <trkpt lat="46.84274" lon="6.55669">
        <ele>1234.4000244141</ele>
        <time>2017-04-22T11:37:09.000Z</time>
      </trkpt>
      <trkpt lat="46.84272" lon="6.55648">
        <ele>1235.4000244141</ele>
        <time>2017-04-22T11:37:13.000Z</time>
      </trkpt>
      <trkpt lat="46.84271" lon="6.55637">
        <ele>1237</ele>
        <time>2017-04-22T11:37:16.000Z</time>
      </trkpt>
      <trkpt lat="46.84271" lon="6.55634">
        <ele>1237.4000244141</ele>
        <time>2017-04-22T11:37:17.000Z</time>
      </trkpt>
      <trkpt lat="46.8427" lon="6.5563">
        <ele>1238.4000244141</ele>
        <time>2017-04-22T11:37:18.000Z</time>
      </trkpt>
      <trkpt lat="46.84269" lon="6.55622">
        <ele>1239.8000488281</ele>
        <time>2017-04-22T11:37:20.000Z</time>
      </trkpt>
      <trkpt lat="46.84267" lon="6.55614">
        <ele>1241</ele>
        <time>2017-04-22T11:37:22.000Z</time>
      </trkpt>
      <trkpt lat="46.84261" lon="6.55608">
        <ele>1242</ele>
        <time>2017-04-22T11:37:25.000Z</time>
      </trkpt>
      <trkpt lat="46.8425" lon="6.55611">
        <ele>1241</ele>
        <time>2017-04-22T11:37:29.000Z</time>
      </trkpt>
      <trkpt lat="46.84243" lon="6.55611">
        <ele>1240</ele>
        <time>2017-04-22T11:37:31.000Z</time>
      </trkpt>
      <trkpt lat="46.84239" lon="6.55613">
        <ele>1238.5999755859</ele>
        <time>2017-04-22T11:37:33.000Z</time>
      </trkpt>
      <trkpt lat="46.84236" lon="6.55617">
        <ele>1237.5999755859</ele>
        <time>2017-04-22T11:37:35.000Z</time>
      </trkpt>
      <trkpt lat="46.84235" lon="6.5562">
        <ele>1236.4000244141</ele>
        <time>2017-04-22T11:37:37.000Z</time>
      </trkpt>
      <trkpt lat="46.84235" lon="6.5562">
        <ele>1235.8000488281</ele>
        <time>2017-04-22T11:37:38.000Z</time>
      </trkpt>
      <trkpt lat="46.84234" lon="6.55621">
        <ele>1235.4000244141</ele>
        <time>2017-04-22T11:37:42.000Z</time>
      </trkpt>
      <trkpt lat="46.84232" lon="6.55622">
        <ele>1235.1999511719</ele>
        <time>2017-04-22T11:37:45.000Z</time>
      </trkpt>
      <trkpt lat="46.84229" lon="6.55627">
        <ele>1235.1999511719</ele>
        <time>2017-04-22T11:37:50.000Z</time>
      </trkpt>
      <trkpt lat="46.84228" lon="6.55628">
        <ele>1235.1999511719</ele>
        <time>2017-04-22T11:37:51.000Z</time>
      </trkpt>
      <trkpt lat="46.84226" lon="6.5563">
        <ele>1234.5999755859</ele>
        <time>2017-04-22T11:37:54.000Z</time>
      </trkpt>
      <trkpt lat="46.84226" lon="6.55631">
        <ele>1234.5999755859</ele>
        <time>2017-04-22T11:37:56.000Z</time>
      </trkpt>
      <trkpt lat="46.84226" lon="6.55632">
        <ele>1234.4000244141</ele>
        <time>2017-04-22T11:37:57.000Z</time>
      </trkpt>
      <trkpt lat="46.84219" lon="6.55637">
        <ele>1234.1999511719</ele>
        <time>2017-04-22T11:37:59.000Z</time>
      </trkpt>
      <trkpt lat="46.84199" lon="6.55638">
        <ele>1233.4000244141</ele>
        <time>2017-04-22T11:38:02.000Z</time>
      </trkpt>
      <trkpt lat="46.84192" lon="6.55637">
        <ele>1232</ele>
        <time>2017-04-22T11:38:03.000Z</time>
      </trkpt>
      <trkpt lat="46.84185" lon="6.55636">
        <ele>1231.1999511719</ele>
        <time>2017-04-22T11:38:04.000Z</time>
      </trkpt>
      <trkpt lat="46.84179" lon="6.55636">
        <ele>1230.8000488281</ele>
        <time>2017-04-22T11:38:05.000Z</time>
      </trkpt>
      <trkpt lat="46.84172" lon="6.55637">
        <ele>1230.5999755859</ele>
        <time>2017-04-22T11:38:06.000Z</time>
      </trkpt>
      <trkpt lat="46.84158" lon="6.55643">
        <ele>1229</ele>
        <time>2017-04-22T11:38:08.000Z</time>
      </trkpt>
      <trkpt lat="46.84143" lon="6.55654">
        <ele>1227.5999755859</ele>
        <time>2017-04-22T11:38:10.000Z</time>
      </trkpt>
      <trkpt lat="46.84129" lon="6.55661">
        <ele>1226.4000244141</ele>
        <time>2017-04-22T11:38:12.000Z</time>
      </trkpt>
      <trkpt lat="46.84122" lon="6.55662">
        <ele>1225.8000488281</ele>
        <time>2017-04-22T11:38:13.000Z</time>
      </trkpt>
      <trkpt lat="46.84116" lon="6.55664">
        <ele>1223.8000488281</ele>
        <time>2017-04-22T11:38:14.000Z</time>
      </trkpt>
      <trkpt lat="46.84109" lon="6.55667">
        <ele>1222.1999511719</ele>
        <time>2017-04-22T11:38:15.000Z</time>
      </trkpt>
      <trkpt lat="46.84102" lon="6.5567">
        <ele>1221</ele>
        <time>2017-04-22T11:38:16.000Z</time>
      </trkpt>
      <trkpt lat="46.8409" lon="6.55679">
        <ele>1220.5999755859</ele>
        <time>2017-04-22T11:38:18.000Z</time>
      </trkpt>
      <trkpt lat="46.84082" lon="6.55685">
        <ele>1220.8000488281</ele>
        <time>2017-04-22T11:38:20.000Z</time>
      </trkpt>
      <trkpt lat="46.84073" lon="6.55696">
        <ele>1221</ele>
        <time>2017-04-22T11:38:24.000Z</time>
      </trkpt>
      <trkpt lat="46.84074" lon="6.55712">
        <ele>1220.8000488281</ele>
        <time>2017-04-22T11:38:27.000Z</time>
      </trkpt>
      <trkpt lat="46.84074" lon="6.55729">
        <ele>1220.1999511719</ele>
        <time>2017-04-22T11:38:30.000Z</time>
      </trkpt>
      <trkpt lat="46.84074" lon="6.55735">
        <ele>1220</ele>
        <time>2017-04-22T11:38:31.000Z</time>
      </trkpt>
      <trkpt lat="46.84073" lon="6.55741">
        <ele>1220</ele>
        <time>2017-04-22T11:38:32.000Z</time>
      </trkpt>
      <trkpt lat="46.84073" lon="6.55747">
        <ele>1219.1999511719</ele>
        <time>2017-04-22T11:38:33.000Z</time>
      </trkpt>
      <trkpt lat="46.84074" lon="6.55759">
        <ele>1218</ele>
        <time>2017-04-22T11:38:35.000Z</time>
      </trkpt>
      <trkpt lat="46.84074" lon="6.55791">
        <ele>1216.5999755859</ele>
        <time>2017-04-22T11:38:40.000Z</time>
      </trkpt>
      <trkpt lat="46.84066" lon="6.55809">
        <ele>1214.8000488281</ele>
        <time>2017-04-22T11:38:43.000Z</time>
      </trkpt>
      <trkpt lat="46.84059" lon="6.55816">
        <ele>1213</ele>
        <time>2017-04-22T11:38:45.000Z</time>
      </trkpt>
      <trkpt lat="46.84057" lon="6.55822">
        <ele>1212.1999511719</ele>
        <time>2017-04-22T11:38:46.000Z</time>
      </trkpt>
      <trkpt lat="46.84054" lon="6.55831">
        <ele>1211.8000488281</ele>
        <time>2017-04-22T11:38:47.000Z</time>
      </trkpt>
      <trkpt lat="46.84049" lon="6.55857">
        <ele>1210.5999755859</ele>
        <time>2017-04-22T11:38:50.000Z</time>
      </trkpt>
      <trkpt lat="46.84041" lon="6.5587">
        <ele>1208.5999755859</ele>
        <time>2017-04-22T11:38:52.000Z</time>
      </trkpt>
      <trkpt lat="46.84036" lon="6.55875">
        <ele>1207.5999755859</ele>
        <time>2017-04-22T11:38:53.000Z</time>
      </trkpt>
      <trkpt lat="46.84031" lon="6.55878">
        <ele>1206.4000244141</ele>
        <time>2017-04-22T11:38:54.000Z</time>
      </trkpt>
      <trkpt lat="46.8402" lon="6.55885">
        <ele>1204.8000488281</ele>
        <time>2017-04-22T11:38:56.000Z</time>
      </trkpt>
      <trkpt lat="46.84017" lon="6.55887">
        <ele>1204.4000244141</ele>
        <time>2017-04-22T11:38:57.000Z</time>
      </trkpt>
      <trkpt lat="46.84013" lon="6.55892">
        <ele>1204.1999511719</ele>
        <time>2017-04-22T11:39:01.000Z</time>
      </trkpt>
      <trkpt lat="46.84008" lon="6.55895">
        <ele>1204.1999511719</ele>
        <time>2017-04-22T11:39:07.000Z</time>
      </trkpt>
      <trkpt lat="46.83997" lon="6.55888">
        <ele>1204.1999511719</ele>
        <time>2017-04-22T11:39:11.000Z</time>
      </trkpt>
      <trkpt lat="46.83989" lon="6.55885">
        <ele>1204.1999511719</ele>
        <time>2017-04-22T11:39:13.000Z</time>
      </trkpt>
      <trkpt lat="46.83975" lon="6.55884">
        <ele>1204.8000488281</ele>
        <time>2017-04-22T11:39:16.000Z</time>
      </trkpt>
      <trkpt lat="46.83971" lon="6.55883">
        <ele>1204.8000488281</ele>
        <time>2017-04-22T11:39:17.000Z</time>
      </trkpt>
      <trkpt lat="46.83948" lon="6.55879">
        <ele>1205.5999755859</ele>
        <time>2017-04-22T11:39:22.000Z</time>
      </trkpt>
      <trkpt lat="46.83922" lon="6.5587">
        <ele>1206</ele>
        <time>2017-04-22T11:39:28.000Z</time>
      </trkpt>
      <trkpt lat="46.83912" lon="6.55861">
        <ele>1206.1999511719</ele>
        <time>2017-04-22T11:39:31.000Z</time>
      </trkpt>
      <trkpt lat="46.83897" lon="6.55856">
        <ele>1206</ele>
        <time>2017-04-22T11:39:34.000Z</time>
      </trkpt>
      <trkpt lat="46.8387" lon="6.55845">
        <ele>1204.8000488281</ele>
        <time>2017-04-22T11:39:39.000Z</time>
      </trkpt>
      <trkpt lat="46.83864" lon="6.55843">
        <ele>1204.4000244141</ele>
        <time>2017-04-22T11:39:40.000Z</time>
      </trkpt>
      <trkpt lat="46.83825" lon="6.55827">
        <ele>1204</ele>
        <time>2017-04-22T11:39:47.000Z</time>
      </trkpt>
      <trkpt lat="46.83814" lon="6.55824">
        <ele>1204.1999511719</ele>
        <time>2017-04-22T11:39:49.000Z</time>
      </trkpt>
      <trkpt lat="46.83792" lon="6.55815">
        <ele>1204.1999511719</ele>
        <time>2017-04-22T11:39:53.000Z</time>
      </trkpt>
      <trkpt lat="46.83775" lon="6.55808">
        <ele>1203.8000488281</ele>
        <time>2017-04-22T11:39:56.000Z</time>
      </trkpt>
      <trkpt lat="46.83758" lon="6.55801">
        <ele>1202.8000488281</ele>
        <time>2017-04-22T11:39:59.000Z</time>
      </trkpt>
      <trkpt lat="46.83753" lon="6.55799">
        <ele>1202.5999755859</ele>
        <time>2017-04-22T11:40:00.000Z</time>
      </trkpt>
      <trkpt lat="46.83725" lon="6.55789">
        <ele>1202.4000244141</ele>
        <time>2017-04-22T11:40:05.000Z</time>
      </trkpt>
      <trkpt lat="46.83688" lon="6.55771">
        <ele>1201.8000488281</ele>
        <time>2017-04-22T11:40:12.000Z</time>
      </trkpt>
      <trkpt lat="46.83683" lon="6.55768">
        <ele>1201.5999755859</ele>
        <time>2017-04-22T11:40:13.000Z</time>
      </trkpt>
      <trkpt lat="46.83661" lon="6.55761">
        <ele>1201.4000244141</ele>
        <time>2017-04-22T11:40:17.000Z</time>
      </trkpt>
      <trkpt lat="46.83657" lon="6.55759">
        <ele>1201.4000244141</ele>
        <time>2017-04-22T11:40:18.000Z</time>
      </trkpt>
      <trkpt lat="46.83645" lon="6.55748">
        <ele>1201.1999511719</ele>
        <time>2017-04-22T11:40:21.000Z</time>
      </trkpt>
      <trkpt lat="46.8363" lon="6.55724">
        <ele>1201.1999511719</ele>
        <time>2017-04-22T11:40:25.000Z</time>
      </trkpt>
      <trkpt lat="46.83627" lon="6.55699">
        <ele>1200.1999511719</ele>
        <time>2017-04-22T11:40:28.000Z</time>
      </trkpt>
      <trkpt lat="46.83626" lon="6.5568">
        <ele>1199.1999511719</ele>
        <time>2017-04-22T11:40:30.000Z</time>
      </trkpt>
      <trkpt lat="46.83628" lon="6.55654">
        <ele>1198.5999755859</ele>
        <time>2017-04-22T11:40:33.000Z</time>
      </trkpt>
      <trkpt lat="46.83628" lon="6.55637">
        <ele>1198.5999755859</ele>
        <time>2017-04-22T11:40:35.000Z</time>
      </trkpt>
      <trkpt lat="46.83622" lon="6.55624">
        <ele>1198.4000244141</ele>
        <time>2017-04-22T11:40:37.000Z</time>
      </trkpt>
      <trkpt lat="46.83617" lon="6.55618">
        <ele>1198</ele>
        <time>2017-04-22T11:40:38.000Z</time>
      </trkpt>
      <trkpt lat="46.83606" lon="6.556">
        <ele>1197.5999755859</ele>
        <time>2017-04-22T11:40:41.000Z</time>
      </trkpt>
      <trkpt lat="46.83601" lon="6.55595">
        <ele>1197.1999511719</ele>
        <time>2017-04-22T11:40:42.000Z</time>
      </trkpt>
      <trkpt lat="46.83588" lon="6.55578">
        <ele>1196.5999755859</ele>
        <time>2017-04-22T11:40:45.000Z</time>
      </trkpt>
      <trkpt lat="46.83578" lon="6.55568">
        <ele>1196.4000244141</ele>
        <time>2017-04-22T11:40:47.000Z</time>
      </trkpt>
      <trkpt lat="46.83553" lon="6.55545">
        <ele>1195.5999755859</ele>
        <time>2017-04-22T11:40:52.000Z</time>
      </trkpt>
      <trkpt lat="46.83548" lon="6.55541">
        <ele>1195.4000244141</ele>
        <time>2017-04-22T11:40:53.000Z</time>
      </trkpt>
      <trkpt lat="46.83519" lon="6.5552">
        <ele>1195</ele>
        <time>2017-04-22T11:40:59.000Z</time>
      </trkpt>
      <trkpt lat="46.83494" lon="6.55497">
        <ele>1195.5999755859</ele>
        <time>2017-04-22T11:41:05.000Z</time>
      </trkpt>
      <trkpt lat="46.83463" lon="6.55474">
        <ele>1194.8000488281</ele>
        <time>2017-04-22T11:41:12.000Z</time>
      </trkpt>
      <trkpt lat="46.83458" lon="6.5547">
        <ele>1194.1999511719</ele>
        <time>2017-04-22T11:41:13.000Z</time>
      </trkpt>
      <trkpt lat="46.83437" lon="6.55452">
        <ele>1193</ele>
        <time>2017-04-22T11:41:17.000Z</time>
      </trkpt>
      <trkpt lat="46.83433" lon="6.55447">
        <ele>1192.4000244141</ele>
        <time>2017-04-22T11:41:18.000Z</time>
      </trkpt>
      <trkpt lat="46.83425" lon="6.55436">
        <ele>1191.8000488281</ele>
        <time>2017-04-22T11:41:20.000Z</time>
      </trkpt>
      <trkpt lat="46.83421" lon="6.55424">
        <ele>1191.5999755859</ele>
        <time>2017-04-22T11:41:22.000Z</time>
      </trkpt>
      <trkpt lat="46.83414" lon="6.55409">
        <ele>1191.5999755859</ele>
        <time>2017-04-22T11:41:25.000Z</time>
      </trkpt>
      <trkpt lat="46.83413" lon="6.55404">
        <ele>1192</ele>
        <time>2017-04-22T11:41:26.000Z</time>
      </trkpt>
      <trkpt lat="46.83405" lon="6.55376">
        <ele>1192.8000488281</ele>
        <time>2017-04-22T11:41:31.000Z</time>
      </trkpt>
      <trkpt lat="46.83401" lon="6.55366">
        <ele>1192.5999755859</ele>
        <time>2017-04-22T11:41:33.000Z</time>
      </trkpt>
      <trkpt lat="46.83398" lon="6.55362">
        <ele>1192.4000244141</ele>
        <time>2017-04-22T11:41:34.000Z</time>
      </trkpt>
      <trkpt lat="46.83388" lon="6.5535">
        <ele>1192.5999755859</ele>
        <time>2017-04-22T11:41:37.000Z</time>
      </trkpt>
      <trkpt lat="46.83382" lon="6.55335">
        <ele>1193</ele>
        <time>2017-04-22T11:41:40.000Z</time>
      </trkpt>
      <trkpt lat="46.83377" lon="6.55312">
        <ele>1194</ele>
        <time>2017-04-22T11:41:44.000Z</time>
      </trkpt>
      <trkpt lat="46.83376" lon="6.55306">
        <ele>1194.1999511719</ele>
        <time>2017-04-22T11:41:45.000Z</time>
      </trkpt>
      <trkpt lat="46.83374" lon="6.55295">
        <ele>1195</ele>
        <time>2017-04-22T11:41:47.000Z</time>
      </trkpt>
      <trkpt lat="46.83374" lon="6.55267">
        <ele>1195.8000488281</ele>
        <time>2017-04-22T11:41:52.000Z</time>
      </trkpt>
      <trkpt lat="46.83375" lon="6.55243">
        <ele>1196</ele>
        <time>2017-04-22T11:41:56.000Z</time>
      </trkpt>
      <trkpt lat="46.83376" lon="6.55236">
        <ele>1196</ele>
        <time>2017-04-22T11:41:57.000Z</time>
      </trkpt>
      <trkpt lat="46.83379" lon="6.55213">
        <ele>1196.1999511719</ele>
        <time>2017-04-22T11:42:01.000Z</time>
      </trkpt>
      <trkpt lat="46.83373" lon="6.55185">
        <ele>1196.8000488281</ele>
        <time>2017-04-22T11:42:06.000Z</time>
      </trkpt>
      <trkpt lat="46.83363" lon="6.55168">
        <ele>1197</ele>
        <time>2017-04-22T11:42:10.000Z</time>
      </trkpt>
      <trkpt lat="46.83361" lon="6.55165">
        <ele>1196.8000488281</ele>
        <time>2017-04-22T11:42:11.000Z</time>
      </trkpt>
      <trkpt lat="46.83348" lon="6.55151">
        <ele>1197.8000488281</ele>
        <time>2017-04-22T11:42:16.000Z</time>
      </trkpt>
      <trkpt lat="46.83343" lon="6.55146">
        <ele>1198.4000244141</ele>
        <time>2017-04-22T11:42:18.000Z</time>
      </trkpt>
      <trkpt lat="46.83338" lon="6.55141">
        <ele>1199</ele>
        <time>2017-04-22T11:42:20.000Z</time>
      </trkpt>
      <trkpt lat="46.83326" lon="6.5513">
        <ele>1199.4000244141</ele>
        <time>2017-04-22T11:42:24.000Z</time>
      </trkpt>
      <trkpt lat="46.83303" lon="6.55104">
        <ele>1199</ele>
        <time>2017-04-22T11:42:31.000Z</time>
      </trkpt>
      <trkpt lat="46.83282" lon="6.55078">
        <ele>1199.5999755859</ele>
        <time>2017-04-22T11:42:37.000Z</time>
      </trkpt>
      <trkpt lat="46.83257" lon="6.55055">
        <ele>1198.4000244141</ele>
        <time>2017-04-22T11:42:43.000Z</time>
      </trkpt>
      <trkpt lat="46.83239" lon="6.55048">
        <ele>1198.5999755859</ele>
        <time>2017-04-22T11:42:47.000Z</time>
      </trkpt>
      <trkpt lat="46.8323" lon="6.55041">
        <ele>1198.8000488281</ele>
        <time>2017-04-22T11:42:49.000Z</time>
      </trkpt>
      <trkpt lat="46.83216" lon="6.55027">
        <ele>1198.4000244141</ele>
        <time>2017-04-22T11:42:52.000Z</time>
      </trkpt>
      <trkpt lat="46.83207" lon="6.55016">
        <ele>1197.8000488281</ele>
        <time>2017-04-22T11:42:54.000Z</time>
      </trkpt>
      <trkpt lat="46.83198" lon="6.55005">
        <ele>1197.8000488281</ele>
        <time>2017-04-22T11:42:56.000Z</time>
      </trkpt>
      <trkpt lat="46.83189" lon="6.54984">
        <ele>1197.5999755859</ele>
        <time>2017-04-22T11:42:59.000Z</time>
      </trkpt>
      <trkpt lat="46.83187" lon="6.5497">
        <ele>1196.8000488281</ele>
        <time>2017-04-22T11:43:01.000Z</time>
      </trkpt>
      <trkpt lat="46.83184" lon="6.54951">
        <ele>1196.4000244141</ele>
        <time>2017-04-22T11:43:04.000Z</time>
      </trkpt>
      <trkpt lat="46.83181" lon="6.54946">
        <ele>1196.4000244141</ele>
        <time>2017-04-22T11:43:05.000Z</time>
      </trkpt>
      <trkpt lat="46.83171" lon="6.54932">
        <ele>1196.1999511719</ele>
        <time>2017-04-22T11:43:08.000Z</time>
      </trkpt>
      <trkpt lat="46.83148" lon="6.54909">
        <ele>1196.4000244141</ele>
        <time>2017-04-22T11:43:14.000Z</time>
      </trkpt>
      <trkpt lat="46.83132" lon="6.54883">
        <ele>1197</ele>
        <time>2017-04-22T11:43:19.000Z</time>
      </trkpt>
      <trkpt lat="46.83122" lon="6.54846">
        <ele>1196.5999755859</ele>
        <time>2017-04-22T11:43:24.000Z</time>
      </trkpt>
      <trkpt lat="46.83121" lon="6.54839">
        <ele>1196.5999755859</ele>
        <time>2017-04-22T11:43:25.000Z</time>
      </trkpt>
      <trkpt lat="46.83118" lon="6.54798">
        <ele>1197.1999511719</ele>
        <time>2017-04-22T11:43:31.000Z</time>
      </trkpt>
      <trkpt lat="46.8312" lon="6.5478">
        <ele>1197.1999511719</ele>
        <time>2017-04-22T11:43:34.000Z</time>
      </trkpt>
      <trkpt lat="46.83121" lon="6.54775">
        <ele>1197.4000244141</ele>
        <time>2017-04-22T11:43:35.000Z</time>
      </trkpt>
      <trkpt lat="46.8312" lon="6.54758">
        <ele>1198.1999511719</ele>
        <time>2017-04-22T11:43:39.000Z</time>
      </trkpt>
      <trkpt lat="46.83111" lon="6.54731">
        <ele>1198.1999511719</ele>
        <time>2017-04-22T11:43:44.000Z</time>
      </trkpt>
      <trkpt lat="46.83105" lon="6.5471">
        <ele>1198.5999755859</ele>
        <time>2017-04-22T11:43:47.000Z</time>
      </trkpt>
      <trkpt lat="46.831" lon="6.54689">
        <ele>1199</ele>
        <time>2017-04-22T11:43:50.000Z</time>
      </trkpt>
      <trkpt lat="46.83091" lon="6.5466">
        <ele>1199.1999511719</ele>
        <time>2017-04-22T11:43:54.000Z</time>
      </trkpt>
      <trkpt lat="46.83085" lon="6.54638">
        <ele>1199.1999511719</ele>
        <time>2017-04-22T11:43:57.000Z</time>
      </trkpt>
      <trkpt lat="46.83073" lon="6.54592">
        <ele>1198.8000488281</ele>
        <time>2017-04-22T11:44:03.000Z</time>
      </trkpt>
      <trkpt lat="46.83056" lon="6.54536">
        <ele>1198</ele>
        <time>2017-04-22T11:44:10.000Z</time>
      </trkpt>
      <trkpt lat="46.83041" lon="6.5449">
        <ele>1198.4000244141</ele>
        <time>2017-04-22T11:44:16.000Z</time>
      </trkpt>
      <trkpt lat="46.83022" lon="6.54426">
        <ele>1198.1999511719</ele>
        <time>2017-04-22T11:44:24.000Z</time>
      </trkpt>
      <trkpt lat="46.83003" lon="6.54365">
        <ele>1197.1999511719</ele>
        <time>2017-04-22T11:44:32.000Z</time>
      </trkpt>
      <trkpt lat="46.82998" lon="6.54343">
        <ele>1197</ele>
        <time>2017-04-22T11:44:35.000Z</time>
      </trkpt>
      <trkpt lat="46.82993" lon="6.54331">
        <ele>1196.8000488281</ele>
        <time>2017-04-22T11:44:37.000Z</time>
      </trkpt>
      <trkpt lat="46.82989" lon="6.54306">
        <ele>1196.1999511719</ele>
        <time>2017-04-22T11:44:41.000Z</time>
      </trkpt>
      <trkpt lat="46.82988" lon="6.543">
        <ele>1196.1999511719</ele>
        <time>2017-04-22T11:44:42.000Z</time>
      </trkpt>
      <trkpt lat="46.82987" lon="6.54294">
        <ele>1195.8000488281</ele>
        <time>2017-04-22T11:44:43.000Z</time>
      </trkpt>
      <trkpt lat="46.82986" lon="6.54289">
        <ele>1195.4000244141</ele>
        <time>2017-04-22T11:44:44.000Z</time>
      </trkpt>
      <trkpt lat="46.82985" lon="6.54271">
        <ele>1195</ele>
        <time>2017-04-22T11:44:47.000Z</time>
      </trkpt>
      <trkpt lat="46.82986" lon="6.54264">
        <ele>1194.5999755859</ele>
        <time>2017-04-22T11:44:48.000Z</time>
      </trkpt>
      <trkpt lat="46.82987" lon="6.54257">
        <ele>1194.1999511719</ele>
        <time>2017-04-22T11:44:49.000Z</time>
      </trkpt>
      <trkpt lat="46.82993" lon="6.54242">
        <ele>1193.5999755859</ele>
        <time>2017-04-22T11:44:51.000Z</time>
      </trkpt>
      <trkpt lat="46.82999" lon="6.54233">
        <ele>1192.8000488281</ele>
        <time>2017-04-22T11:44:53.000Z</time>
      </trkpt>
      <trkpt lat="46.83001" lon="6.5423">
        <ele>1192.1999511719</ele>
        <time>2017-04-22T11:44:54.000Z</time>
      </trkpt>
      <trkpt lat="46.83004" lon="6.54227">
        <ele>1192.1999511719</ele>
        <time>2017-04-22T11:44:55.000Z</time>
      </trkpt>
      <trkpt lat="46.83016" lon="6.54209">
        <ele>1192.1999511719</ele>
        <time>2017-04-22T11:45:01.000Z</time>
      </trkpt>
      <trkpt lat="46.83023" lon="6.54189">
        <ele>1193.1999511719</ele>
        <time>2017-04-22T11:45:06.000Z</time>
      </trkpt>
      <trkpt lat="46.83022" lon="6.54179">
        <ele>1193.5999755859</ele>
        <time>2017-04-22T11:45:08.000Z</time>
      </trkpt>
      <trkpt lat="46.83018" lon="6.54166">
        <ele>1193.8000488281</ele>
        <time>2017-04-22T11:45:10.000Z</time>
      </trkpt>
      <trkpt lat="46.83012" lon="6.54152">
        <ele>1193.4000244141</ele>
        <time>2017-04-22T11:45:12.000Z</time>
      </trkpt>
      <trkpt lat="46.83" lon="6.54122">
        <ele>1192.8000488281</ele>
        <time>2017-04-22T11:45:16.000Z</time>
      </trkpt>
      <trkpt lat="46.82993" lon="6.54108">
        <ele>1192.1999511719</ele>
        <time>2017-04-22T11:45:18.000Z</time>
      </trkpt>
      <trkpt lat="46.82991" lon="6.541">
        <ele>1191.5999755859</ele>
        <time>2017-04-22T11:45:19.000Z</time>
      </trkpt>
      <trkpt lat="46.82989" lon="6.54093">
        <ele>1191</ele>
        <time>2017-04-22T11:45:20.000Z</time>
      </trkpt>
      <trkpt lat="46.82987" lon="6.54086">
        <ele>1190.5999755859</ele>
        <time>2017-04-22T11:45:21.000Z</time>
      </trkpt>
      <trkpt lat="46.82985" lon="6.54071">
        <ele>1190.1999511719</ele>
        <time>2017-04-22T11:45:23.000Z</time>
      </trkpt>
      <trkpt lat="46.82981" lon="6.54057">
        <ele>1190</ele>
        <time>2017-04-22T11:45:25.000Z</time>
      </trkpt>
      <trkpt lat="46.82979" lon="6.5405">
        <ele>1190</ele>
        <time>2017-04-22T11:45:26.000Z</time>
      </trkpt>
      <trkpt lat="46.82977" lon="6.54043">
        <ele>1189.8000488281</ele>
        <time>2017-04-22T11:45:27.000Z</time>
      </trkpt>
      <trkpt lat="46.82968" lon="6.54016">
        <ele>1189</ele>
        <time>2017-04-22T11:45:31.000Z</time>
      </trkpt>
      <trkpt lat="46.8296" lon="6.53989">
        <ele>1188.5999755859</ele>
        <time>2017-04-22T11:45:35.000Z</time>
      </trkpt>
      <trkpt lat="46.82953" lon="6.5397">
        <ele>1188.4000244141</ele>
        <time>2017-04-22T11:45:38.000Z</time>
      </trkpt>
      <trkpt lat="46.8294" lon="6.53927">
        <ele>1188.5999755859</ele>
        <time>2017-04-22T11:45:45.000Z</time>
      </trkpt>
      <trkpt lat="46.82932" lon="6.53897">
        <ele>1187.5999755859</ele>
        <time>2017-04-22T11:45:50.000Z</time>
      </trkpt>
      <trkpt lat="46.8293" lon="6.53892">
        <ele>1187.4000244141</ele>
        <time>2017-04-22T11:45:51.000Z</time>
      </trkpt>
      <trkpt lat="46.8292" lon="6.53861">
        <ele>1188.1999511719</ele>
        <time>2017-04-22T11:45:58.000Z</time>
      </trkpt>
      <trkpt lat="46.82912" lon="6.53831">
        <ele>1188</ele>
        <time>2017-04-22T11:46:05.000Z</time>
      </trkpt>
      <trkpt lat="46.82913" lon="6.53824">
        <ele>1187.5999755859</ele>
        <time>2017-04-22T11:46:07.000Z</time>
      </trkpt>
      <trkpt lat="46.82918" lon="6.53821">
        <ele>1187.4000244141</ele>
        <time>2017-04-22T11:46:09.000Z</time>
      </trkpt>
      <trkpt lat="46.82922" lon="6.53831">
        <ele>1187.5999755859</ele>
        <time>2017-04-22T11:46:12.000Z</time>
      </trkpt>
      <trkpt lat="46.82921" lon="6.53854">
        <ele>1187.5999755859</ele>
        <time>2017-04-22T11:46:17.000Z</time>
      </trkpt>
      <trkpt lat="46.82927" lon="6.53871">
        <ele>1187.4000244141</ele>
        <time>2017-04-22T11:46:20.000Z</time>
      </trkpt>
      <trkpt lat="46.8293" lon="6.53883">
        <ele>1187.1999511719</ele>
        <time>2017-04-22T11:46:22.000Z</time>
      </trkpt>
      <trkpt lat="46.82941" lon="6.53918">
        <ele>1186.8000488281</ele>
        <time>2017-04-22T11:46:28.000Z</time>
      </trkpt>
      <trkpt lat="46.82944" lon="6.53931">
        <ele>1186.8000488281</ele>
        <time>2017-04-22T11:46:30.000Z</time>
      </trkpt>
      <trkpt lat="46.82953" lon="6.53947">
        <ele>1186.8000488281</ele>
        <time>2017-04-22T11:46:33.000Z</time>
      </trkpt>
      <trkpt lat="46.82956" lon="6.53953">
        <ele>1186.8000488281</ele>
        <time>2017-04-22T11:46:34.000Z</time>
      </trkpt>
      <trkpt lat="46.82962" lon="6.53962">
        <ele>1186.8000488281</ele>
        <time>2017-04-22T11:46:36.000Z</time>
      </trkpt>
      <trkpt lat="46.82965" lon="6.53967">
        <ele>1186.8000488281</ele>
        <time>2017-04-22T11:46:37.000Z</time>
      </trkpt>
      <trkpt lat="46.82972" lon="6.54001">
        <ele>1187.4000244141</ele>
        <time>2017-04-22T11:46:43.000Z</time>
      </trkpt>
      <trkpt lat="46.8298" lon="6.5403">
        <ele>1187.1999511719</ele>
        <time>2017-04-22T11:46:49.000Z</time>
      </trkpt>
      <trkpt lat="46.82987" lon="6.54057">
        <ele>1187.4000244141</ele>
        <time>2017-04-22T11:46:55.000Z</time>
      </trkpt>
      <trkpt lat="46.82992" lon="6.54073">
        <ele>1188.1999511719</ele>
        <time>2017-04-22T11:46:59.000Z</time>
      </trkpt>
      <trkpt lat="46.82999" lon="6.54097">
        <ele>1188.8000488281</ele>
        <time>2017-04-22T11:47:05.000Z</time>
      </trkpt>
      <trkpt lat="46.83002" lon="6.54105">
        <ele>1189.1999511719</ele>
        <time>2017-04-22T11:47:07.000Z</time>
      </trkpt>
      <trkpt lat="46.83006" lon="6.54116">
        <ele>1190.4000244141</ele>
        <time>2017-04-22T11:47:10.000Z</time>
      </trkpt>
      <trkpt lat="46.83008" lon="6.54121">
        <ele>1190.5999755859</ele>
        <time>2017-04-22T11:47:11.000Z</time>
      </trkpt>
      <trkpt lat="46.83018" lon="6.54152">
        <ele>1191.5999755859</ele>
        <time>2017-04-22T11:47:18.000Z</time>
      </trkpt>
      <trkpt lat="46.83021" lon="6.54161">
        <ele>1192</ele>
        <time>2017-04-22T11:47:20.000Z</time>
      </trkpt>
      <trkpt lat="46.83028" lon="6.54178">
        <ele>1192.4000244141</ele>
        <time>2017-04-22T11:47:24.000Z</time>
      </trkpt>
      <trkpt lat="46.83037" lon="6.542">
        <ele>1192.8000488281</ele>
        <time>2017-04-22T11:47:29.000Z</time>
      </trkpt>
      <trkpt lat="46.83048" lon="6.54221">
        <ele>1193.4000244141</ele>
        <time>2017-04-22T11:47:34.000Z</time>
      </trkpt>
      <trkpt lat="46.83052" lon="6.54228">
        <ele>1194</ele>
        <time>2017-04-22T11:47:36.000Z</time>
      </trkpt>
      <trkpt lat="46.83057" lon="6.54236">
        <ele>1194.5999755859</ele>
        <time>2017-04-22T11:47:38.000Z</time>
      </trkpt>
      <trkpt lat="46.83071" lon="6.54256">
        <ele>1195.8000488281</ele>
        <time>2017-04-22T11:47:44.000Z</time>
      </trkpt>
      <trkpt lat="46.83076" lon="6.54263">
        <ele>1196.1999511719</ele>
        <time>2017-04-22T11:47:46.000Z</time>
      </trkpt>
      <trkpt lat="46.83084" lon="6.54273">
        <ele>1196.8000488281</ele>
        <time>2017-04-22T11:47:49.000Z</time>
      </trkpt>
      <trkpt lat="46.83098" lon="6.54288">
        <ele>1198</ele>
        <time>2017-04-22T11:47:54.000Z</time>
      </trkpt>
      <trkpt lat="46.83102" lon="6.54291">
        <ele>1198.4000244141</ele>
        <time>2017-04-22T11:47:55.000Z</time>
      </trkpt>
      <trkpt lat="46.83108" lon="6.54297">
        <ele>1199.1999511719</ele>
        <time>2017-04-22T11:47:57.000Z</time>
      </trkpt>
      <trkpt lat="46.83117" lon="6.54306">
        <ele>1200.4000244141</ele>
        <time>2017-04-22T11:48:00.000Z</time>
      </trkpt>
      <trkpt lat="46.83126" lon="6.54314">
        <ele>1201.1999511719</ele>
        <time>2017-04-22T11:48:03.000Z</time>
      </trkpt>
      <trkpt lat="46.83129" lon="6.54317">
        <ele>1201.4000244141</ele>
        <time>2017-04-22T11:48:04.000Z</time>
      </trkpt>
      <trkpt lat="46.83138" lon="6.54324">
        <ele>1202.8000488281</ele>
        <time>2017-04-22T11:48:07.000Z</time>
      </trkpt>
      <trkpt lat="46.83151" lon="6.54333">
        <ele>1204</ele>
        <time>2017-04-22T11:48:11.000Z</time>
      </trkpt>
      <trkpt lat="46.83154" lon="6.54335">
        <ele>1204.5999755859</ele>
        <time>2017-04-22T11:48:12.000Z</time>
      </trkpt>
      <trkpt lat="46.83161" lon="6.54338">
        <ele>1205.8000488281</ele>
        <time>2017-04-22T11:48:14.000Z</time>
      </trkpt>
      <trkpt lat="46.83172" lon="6.54339">
        <ele>1206.8000488281</ele>
        <time>2017-04-22T11:48:17.000Z</time>
      </trkpt>
      <trkpt lat="46.83175" lon="6.5434">
        <ele>1207.1999511719</ele>
        <time>2017-04-22T11:48:18.000Z</time>
      </trkpt>
      <trkpt lat="46.83182" lon="6.54343">
        <ele>1207.8000488281</ele>
        <time>2017-04-22T11:48:20.000Z</time>
      </trkpt>
      <trkpt lat="46.83191" lon="6.54349">
        <ele>1208.8000488281</ele>
        <time>2017-04-22T11:48:23.000Z</time>
      </trkpt>
      <trkpt lat="46.83194" lon="6.54351">
        <ele>1209.1999511719</ele>
        <time>2017-04-22T11:48:24.000Z</time>
      </trkpt>
      <trkpt lat="46.83201" lon="6.54354">
        <ele>1210</ele>
        <time>2017-04-22T11:48:26.000Z</time>
      </trkpt>
      <trkpt lat="46.83211" lon="6.54359">
        <ele>1211</ele>
        <time>2017-04-22T11:48:29.000Z</time>
      </trkpt>
      <trkpt lat="46.83217" lon="6.54362">
        <ele>1212</ele>
        <time>2017-04-22T11:48:31.000Z</time>
      </trkpt>
      <trkpt lat="46.8322" lon="6.54364">
        <ele>1212.1999511719</ele>
        <time>2017-04-22T11:48:32.000Z</time>
      </trkpt>
      <trkpt lat="46.83229" lon="6.54369">
        <ele>1213.4000244141</ele>
        <time>2017-04-22T11:48:35.000Z</time>
      </trkpt>
      <trkpt lat="46.83239" lon="6.54374">
        <ele>1214.4000244141</ele>
        <time>2017-04-22T11:48:38.000Z</time>
      </trkpt>
      <trkpt lat="46.83251" lon="6.54383">
        <ele>1215.4000244141</ele>
        <time>2017-04-22T11:48:42.000Z</time>
      </trkpt>
      <trkpt lat="46.83257" lon="6.54388">
        <ele>1215.8000488281</ele>
        <time>2017-04-22T11:48:44.000Z</time>
      </trkpt>
      <trkpt lat="46.83263" lon="6.54393">
        <ele>1216.5999755859</ele>
        <time>2017-04-22T11:48:46.000Z</time>
      </trkpt>
      <trkpt lat="46.83274" lon="6.54404">
        <ele>1217.8000488281</ele>
        <time>2017-04-22T11:48:50.000Z</time>
      </trkpt>
      <trkpt lat="46.83281" lon="6.54415">
        <ele>1219</ele>
        <time>2017-04-22T11:48:54.000Z</time>
      </trkpt>
      <trkpt lat="46.83285" lon="6.54419">
        <ele>1219.5999755859</ele>
        <time>2017-04-22T11:48:56.000Z</time>
      </trkpt>
      <trkpt lat="46.83288" lon="6.5442">
        <ele>1220</ele>
        <time>2017-04-22T11:48:57.000Z</time>
      </trkpt>
      <trkpt lat="46.8329" lon="6.5442">
        <ele>1220.1999511719</ele>
        <time>2017-04-22T11:48:58.000Z</time>
      </trkpt>
      <trkpt lat="46.83294" lon="6.54418">
        <ele>1220.8000488281</ele>
        <time>2017-04-22T11:49:00.000Z</time>
      </trkpt>
      <trkpt lat="46.83296" lon="6.54413">
        <ele>1221.5999755859</ele>
        <time>2017-04-22T11:49:02.000Z</time>
      </trkpt>
      <trkpt lat="46.83298" lon="6.54406">
        <ele>1222.5999755859</ele>
        <time>2017-04-22T11:49:05.000Z</time>
      </trkpt>
      <trkpt lat="46.83298" lon="6.54403">
        <ele>1223</ele>
        <time>2017-04-22T11:49:06.000Z</time>
      </trkpt>
      <trkpt lat="46.83296" lon="6.54389">
        <ele>1224.1999511719</ele>
        <time>2017-04-22T11:49:11.000Z</time>
      </trkpt>
      <trkpt lat="46.83293" lon="6.54371">
        <ele>1225</ele>
        <time>2017-04-22T11:49:17.000Z</time>
      </trkpt>
      <trkpt lat="46.83292" lon="6.54368">
        <ele>1225.1999511719</ele>
        <time>2017-04-22T11:49:18.000Z</time>
      </trkpt>
      <trkpt lat="46.83292" lon="6.54357">
        <ele>1225.5999755859</ele>
        <time>2017-04-22T11:49:21.000Z</time>
      </trkpt>
      <trkpt lat="46.83291" lon="6.54353">
        <ele>1225.5999755859</ele>
        <time>2017-04-22T11:49:22.000Z</time>
      </trkpt>
      <trkpt lat="46.83291" lon="6.54346">
        <ele>1225.8000488281</ele>
        <time>2017-04-22T11:49:24.000Z</time>
      </trkpt>
      <trkpt lat="46.83291" lon="6.54333">
        <ele>1226.1999511719</ele>
        <time>2017-04-22T11:49:28.000Z</time>
      </trkpt>
      <trkpt lat="46.83291" lon="6.5433">
        <ele>1226.1999511719</ele>
        <time>2017-04-22T11:49:29.000Z</time>
      </trkpt>
      <trkpt lat="46.83292" lon="6.54311">
        <ele>1227.4000244141</ele>
        <time>2017-04-22T11:49:35.000Z</time>
      </trkpt>
      <trkpt lat="46.83292" lon="6.54308">
        <ele>1227.4000244141</ele>
        <time>2017-04-22T11:49:36.000Z</time>
      </trkpt>
      <trkpt lat="46.83292" lon="6.54303">
        <ele>1228.1999511719</ele>
        <time>2017-04-22T11:49:38.000Z</time>
      </trkpt>
      <trkpt lat="46.83292" lon="6.54294">
        <ele>1229.4000244141</ele>
        <time>2017-04-22T11:49:41.000Z</time>
      </trkpt>
      <trkpt lat="46.83292" lon="6.54285">
        <ele>1230.1999511719</ele>
        <time>2017-04-22T11:49:44.000Z</time>
      </trkpt>
      <trkpt lat="46.83292" lon="6.54281">
        <ele>1230.4000244141</ele>
        <time>2017-04-22T11:49:45.000Z</time>
      </trkpt>
      <trkpt lat="46.83293" lon="6.54268">
        <ele>1231.4000244141</ele>
        <time>2017-04-22T11:49:49.000Z</time>
      </trkpt>
      <trkpt lat="46.83294" lon="6.54261">
        <ele>1232</ele>
        <time>2017-04-22T11:49:51.000Z</time>
      </trkpt>
      <trkpt lat="46.83297" lon="6.54252">
        <ele>1232.5999755859</ele>
        <time>2017-04-22T11:49:54.000Z</time>
      </trkpt>
      <trkpt lat="46.83298" lon="6.5425">
        <ele>1233.1999511719</ele>
        <time>2017-04-22T11:49:55.000Z</time>
      </trkpt>
      <trkpt lat="46.833" lon="6.54248">
        <ele>1233.8000488281</ele>
        <time>2017-04-22T11:49:56.000Z</time>
      </trkpt>
      <trkpt lat="46.83302" lon="6.54247">
        <ele>1234.1999511719</ele>
        <time>2017-04-22T11:49:57.000Z</time>
      </trkpt>
      <trkpt lat="46.83304" lon="6.54249">
        <ele>1235</ele>
        <time>2017-04-22T11:49:58.000Z</time>
      </trkpt>
      <trkpt lat="46.83306" lon="6.54251">
        <ele>1235.1999511719</ele>
        <time>2017-04-22T11:49:59.000Z</time>
      </trkpt>
      <trkpt lat="46.8331" lon="6.54255">
        <ele>1235.5999755859</ele>
        <time>2017-04-22T11:50:01.000Z</time>
      </trkpt>
      <trkpt lat="46.83311" lon="6.54259">
        <ele>1235.8000488281</ele>
        <time>2017-04-22T11:50:02.000Z</time>
      </trkpt>
      <trkpt lat="46.83312" lon="6.54262">
        <ele>1236</ele>
        <time>2017-04-22T11:50:03.000Z</time>
      </trkpt>
      <trkpt lat="46.83314" lon="6.54268">
        <ele>1237</ele>
        <time>2017-04-22T11:50:05.000Z</time>
      </trkpt>
      <trkpt lat="46.83316" lon="6.5427">
        <ele>1237.4000244141</ele>
        <time>2017-04-22T11:50:06.000Z</time>
      </trkpt>
      <trkpt lat="46.8332" lon="6.54281">
        <ele>1238</ele>
        <time>2017-04-22T11:50:10.000Z</time>
      </trkpt>
      <trkpt lat="46.83323" lon="6.54286">
        <ele>1238.4000244141</ele>
        <time>2017-04-22T11:50:12.000Z</time>
      </trkpt>
      <trkpt lat="46.83333" lon="6.54298">
        <ele>1239.4000244141</ele>
        <time>2017-04-22T11:50:17.000Z</time>
      </trkpt>
      <trkpt lat="46.83334" lon="6.54301">
        <ele>1239.4000244141</ele>
        <time>2017-04-22T11:50:18.000Z</time>
      </trkpt>
      <trkpt lat="46.83338" lon="6.54306">
        <ele>1239.5999755859</ele>
        <time>2017-04-22T11:50:20.000Z</time>
      </trkpt>
      <trkpt lat="46.83343" lon="6.54309">
        <ele>1240</ele>
        <time>2017-04-22T11:50:22.000Z</time>
      </trkpt>
      <trkpt lat="46.83348" lon="6.54312">
        <ele>1240.1999511719</ele>
        <time>2017-04-22T11:50:24.000Z</time>
      </trkpt>
      <trkpt lat="46.8335" lon="6.54314">
        <ele>1240.5999755859</ele>
        <time>2017-04-22T11:50:25.000Z</time>
      </trkpt>
      <trkpt lat="46.83356" lon="6.54323">
        <ele>1241.5999755859</ele>
        <time>2017-04-22T11:50:29.000Z</time>
      </trkpt>
      <trkpt lat="46.83368" lon="6.54337">
        <ele>1242.5999755859</ele>
        <time>2017-04-22T11:50:35.000Z</time>
      </trkpt>
      <trkpt lat="46.8337" lon="6.5434">
        <ele>1242.8000488281</ele>
        <time>2017-04-22T11:50:36.000Z</time>
      </trkpt>
      <trkpt lat="46.83373" lon="6.54345">
        <ele>1243.4000244141</ele>
        <time>2017-04-22T11:50:38.000Z</time>
      </trkpt>
      <trkpt lat="46.83383" lon="6.54358">
        <ele>1244</ele>
        <time>2017-04-22T11:50:43.000Z</time>
      </trkpt>
      <trkpt lat="46.83391" lon="6.54368">
        <ele>1245</ele>
        <time>2017-04-22T11:50:47.000Z</time>
      </trkpt>
      <trkpt lat="46.83393" lon="6.5437">
        <ele>1245</ele>
        <time>2017-04-22T11:50:48.000Z</time>
      </trkpt>
      <trkpt lat="46.83403" lon="6.54384">
        <ele>1246</ele>
        <time>2017-04-22T11:50:53.000Z</time>
      </trkpt>
      <trkpt lat="46.83415" lon="6.54402">
        <ele>1246.5999755859</ele>
        <time>2017-04-22T11:50:59.000Z</time>
      </trkpt>
      <trkpt lat="46.83418" lon="6.54408">
        <ele>1247</ele>
        <time>2017-04-22T11:51:01.000Z</time>
      </trkpt>
      <trkpt lat="46.83425" lon="6.54416">
        <ele>1247.1999511719</ele>
        <time>2017-04-22T11:51:04.000Z</time>
      </trkpt>
      <trkpt lat="46.83436" lon="6.5442">
        <ele>1247.5999755859</ele>
        <time>2017-04-22T11:51:08.000Z</time>
      </trkpt>
      <trkpt lat="46.83441" lon="6.5442">
        <ele>1248.4000244141</ele>
        <time>2017-04-22T11:51:10.000Z</time>
      </trkpt>
      <trkpt lat="46.83444" lon="6.5442">
        <ele>1248.5999755859</ele>
        <time>2017-04-22T11:51:11.000Z</time>
      </trkpt>
      <trkpt lat="46.83446" lon="6.5442">
        <ele>1248.8000488281</ele>
        <time>2017-04-22T11:51:12.000Z</time>
      </trkpt>
      <trkpt lat="46.83451" lon="6.54417">
        <ele>1249.4000244141</ele>
        <time>2017-04-22T11:51:14.000Z</time>
      </trkpt>
      <trkpt lat="46.83453" lon="6.54411">
        <ele>1250</ele>
        <time>2017-04-22T11:51:16.000Z</time>
      </trkpt>
      <trkpt lat="46.83453" lon="6.54405">
        <ele>1250.4000244141</ele>
        <time>2017-04-22T11:51:18.000Z</time>
      </trkpt>
      <trkpt lat="46.83452" lon="6.54403">
        <ele>1250.8000488281</ele>
        <time>2017-04-22T11:51:19.000Z</time>
      </trkpt>
      <trkpt lat="46.8345" lon="6.54395">
        <ele>1251.4000244141</ele>
        <time>2017-04-22T11:51:22.000Z</time>
      </trkpt>
      <trkpt lat="46.83448" lon="6.54389">
        <ele>1252</ele>
        <time>2017-04-22T11:51:24.000Z</time>
      </trkpt>
      <trkpt lat="46.83444" lon="6.54377">
        <ele>1253.1999511719</ele>
        <time>2017-04-22T11:51:28.000Z</time>
      </trkpt>
      <trkpt lat="46.83441" lon="6.54364">
        <ele>1254.1999511719</ele>
        <time>2017-04-22T11:51:32.000Z</time>
      </trkpt>
      <trkpt lat="46.83438" lon="6.54354">
        <ele>1255</ele>
        <time>2017-04-22T11:51:35.000Z</time>
      </trkpt>
      <trkpt lat="46.83438" lon="6.54351">
        <ele>1255.4000244141</ele>
        <time>2017-04-22T11:51:36.000Z</time>
      </trkpt>
      <trkpt lat="46.83434" lon="6.54334">
        <ele>1256.4000244141</ele>
        <time>2017-04-22T11:51:41.000Z</time>
      </trkpt>
      <trkpt lat="46.83434" lon="6.54331">
        <ele>1256.4000244141</ele>
        <time>2017-04-22T11:51:42.000Z</time>
      </trkpt>
      <trkpt lat="46.83431" lon="6.54321">
        <ele>1257.8000488281</ele>
        <time>2017-04-22T11:51:45.000Z</time>
      </trkpt>
      <trkpt lat="46.8343" lon="6.54315">
        <ele>1258.4000244141</ele>
        <time>2017-04-22T11:51:47.000Z</time>
      </trkpt>
      <trkpt lat="46.83429" lon="6.54304">
        <ele>1259</ele>
        <time>2017-04-22T11:51:50.000Z</time>
      </trkpt>
      <trkpt lat="46.83428" lon="6.54294">
        <ele>1259.5999755859</ele>
        <time>2017-04-22T11:51:53.000Z</time>
      </trkpt>
      <trkpt lat="46.83426" lon="6.54283">
        <ele>1260.1999511719</ele>
        <time>2017-04-22T11:51:56.000Z</time>
      </trkpt>
      <trkpt lat="46.83425" lon="6.54272">
        <ele>1261</ele>
        <time>2017-04-22T11:51:59.000Z</time>
      </trkpt>
      <trkpt lat="46.83425" lon="6.54269">
        <ele>1261.1999511719</ele>
        <time>2017-04-22T11:52:00.000Z</time>
      </trkpt>
      <trkpt lat="46.8342" lon="6.54251">
        <ele>1262.1999511719</ele>
        <time>2017-04-22T11:52:05.000Z</time>
      </trkpt>
      <trkpt lat="46.83417" lon="6.54234">
        <ele>1263.1999511719</ele>
        <time>2017-04-22T11:52:10.000Z</time>
      </trkpt>
      <trkpt lat="46.83416" lon="6.54231">
        <ele>1263.4000244141</ele>
        <time>2017-04-22T11:52:11.000Z</time>
      </trkpt>
      <trkpt lat="46.83412" lon="6.54219">
        <ele>1264.5999755859</ele>
        <time>2017-04-22T11:52:15.000Z</time>
      </trkpt>
      <trkpt lat="46.83411" lon="6.54216">
        <ele>1264.5999755859</ele>
        <time>2017-04-22T11:52:16.000Z</time>
      </trkpt>
      <trkpt lat="46.83407" lon="6.54197">
        <ele>1265.5999755859</ele>
        <time>2017-04-22T11:52:22.000Z</time>
      </trkpt>
      <trkpt lat="46.83406" lon="6.54183">
        <ele>1266.5999755859</ele>
        <time>2017-04-22T11:52:26.000Z</time>
      </trkpt>
      <trkpt lat="46.83405" lon="6.54173">
        <ele>1267.4000244141</ele>
        <time>2017-04-22T11:52:29.000Z</time>
      </trkpt>
      <trkpt lat="46.83405" lon="6.5417">
        <ele>1267.5999755859</ele>
        <time>2017-04-22T11:52:30.000Z</time>
      </trkpt>
      <trkpt lat="46.83406" lon="6.54157">
        <ele>1268.5999755859</ele>
        <time>2017-04-22T11:52:34.000Z</time>
      </trkpt>
      <trkpt lat="46.83407" lon="6.54154">
        <ele>1269</ele>
        <time>2017-04-22T11:52:35.000Z</time>
      </trkpt>
      <trkpt lat="46.8341" lon="6.54144">
        <ele>1270</ele>
        <time>2017-04-22T11:52:38.000Z</time>
      </trkpt>
      <trkpt lat="46.83414" lon="6.5414">
        <ele>1270.5999755859</ele>
        <time>2017-04-22T11:52:40.000Z</time>
      </trkpt>
      <trkpt lat="46.83416" lon="6.54139">
        <ele>1270.8000488281</ele>
        <time>2017-04-22T11:52:41.000Z</time>
      </trkpt>
      <trkpt lat="46.83418" lon="6.54139">
        <ele>1271.1999511719</ele>
        <time>2017-04-22T11:52:42.000Z</time>
      </trkpt>
      <trkpt lat="46.83425" lon="6.54143">
        <ele>1272.4000244141</ele>
        <time>2017-04-22T11:52:46.000Z</time>
      </trkpt>
      <trkpt lat="46.83429" lon="6.54151">
        <ele>1273.4000244141</ele>
        <time>2017-04-22T11:52:49.000Z</time>
      </trkpt>
      <trkpt lat="46.8343" lon="6.54154">
        <ele>1274.1999511719</ele>
        <time>2017-04-22T11:52:50.000Z</time>
      </trkpt>
      <trkpt lat="46.83431" lon="6.54157">
        <ele>1274.5999755859</ele>
        <time>2017-04-22T11:52:51.000Z</time>
      </trkpt>
      <trkpt lat="46.83437" lon="6.54168">
        <ele>1275.4000244141</ele>
        <time>2017-04-22T11:52:55.000Z</time>
      </trkpt>
      <trkpt lat="46.8344" lon="6.54173">
        <ele>1276.5999755859</ele>
        <time>2017-04-22T11:52:57.000Z</time>
      </trkpt>
      <trkpt lat="46.83445" lon="6.54186">
        <ele>1277.8000488281</ele>
        <time>2017-04-22T11:53:01.000Z</time>
      </trkpt>
      <trkpt lat="46.8345" lon="6.54195">
        <ele>1279</ele>
        <time>2017-04-22T11:53:04.000Z</time>
      </trkpt>
      <trkpt lat="46.83451" lon="6.54199">
        <ele>1279.4000244141</ele>
        <time>2017-04-22T11:53:05.000Z</time>
      </trkpt>
      <trkpt lat="46.83453" lon="6.54206">
        <ele>1279.8000488281</ele>
        <time>2017-04-22T11:53:07.000Z</time>
      </trkpt>
      <trkpt lat="46.83457" lon="6.54214">
        <ele>1280.1999511719</ele>
        <time>2017-04-22T11:53:09.000Z</time>
      </trkpt>
      <trkpt lat="46.8346" lon="6.54223">
        <ele>1280.5999755859</ele>
        <time>2017-04-22T11:53:11.000Z</time>
      </trkpt>
      <trkpt lat="46.83471" lon="6.54249">
        <ele>1281.1999511719</ele>
        <time>2017-04-22T11:53:17.000Z</time>
      </trkpt>
      <trkpt lat="46.83483" lon="6.54267">
        <ele>1281.1999511719</ele>
        <time>2017-04-22T11:53:22.000Z</time>
      </trkpt>
      <trkpt lat="46.83487" lon="6.54272">
        <ele>1281.8000488281</ele>
        <time>2017-04-22T11:53:24.000Z</time>
      </trkpt>
      <trkpt lat="46.83491" lon="6.54278">
        <ele>1282.1999511719</ele>
        <time>2017-04-22T11:53:26.000Z</time>
      </trkpt>
      <trkpt lat="46.83499" lon="6.54291">
        <ele>1283.5999755859</ele>
        <time>2017-04-22T11:53:30.000Z</time>
      </trkpt>
      <trkpt lat="46.83505" lon="6.54303">
        <ele>1284.8000488281</ele>
        <time>2017-04-22T11:53:33.000Z</time>
      </trkpt>
      <trkpt lat="46.83508" lon="6.54312">
        <ele>1285.5999755859</ele>
        <time>2017-04-22T11:53:35.000Z</time>
      </trkpt>
      <trkpt lat="46.8351" lon="6.54315">
        <ele>1285.8000488281</ele>
        <time>2017-04-22T11:53:36.000Z</time>
      </trkpt>
      <trkpt lat="46.83515" lon="6.5432">
        <ele>1286</ele>
        <time>2017-04-22T11:53:38.000Z</time>
      </trkpt>
      <trkpt lat="46.83518" lon="6.54322">
        <ele>1286</ele>
        <time>2017-04-22T11:53:39.000Z</time>
      </trkpt>
      <trkpt lat="46.83533" lon="6.54334">
        <ele>1287</ele>
        <time>2017-04-22T11:53:44.000Z</time>
      </trkpt>
      <trkpt lat="46.83549" lon="6.5434">
        <ele>1287.4000244141</ele>
        <time>2017-04-22T11:53:49.000Z</time>
      </trkpt>
      <trkpt lat="46.83561" lon="6.54339">
        <ele>1288</ele>
        <time>2017-04-22T11:53:52.000Z</time>
      </trkpt>
      <trkpt lat="46.83567" lon="6.54338">
        <ele>1288.8000488281</ele>
        <time>2017-04-22T11:53:54.000Z</time>
      </trkpt>
      <trkpt lat="46.83569" lon="6.54338">
        <ele>1289.1999511719</ele>
        <time>2017-04-22T11:53:55.000Z</time>
      </trkpt>
      <trkpt lat="46.83571" lon="6.54338">
        <ele>1289.1999511719</ele>
        <time>2017-04-22T11:53:56.000Z</time>
      </trkpt>
      <trkpt lat="46.83576" lon="6.54341">
        <ele>1289.4000244141</ele>
        <time>2017-04-22T11:53:58.000Z</time>
      </trkpt>
      <trkpt lat="46.83589" lon="6.54344">
        <ele>1289.5999755859</ele>
        <time>2017-04-22T11:54:01.000Z</time>
      </trkpt>
      <trkpt lat="46.83593" lon="6.54346">
        <ele>1289.8000488281</ele>
        <time>2017-04-22T11:54:02.000Z</time>
      </trkpt>
      <trkpt lat="46.83609" lon="6.54358">
        <ele>1290.4000244141</ele>
        <time>2017-04-22T11:54:07.000Z</time>
      </trkpt>
      <trkpt lat="46.83611" lon="6.54361">
        <ele>1290.4000244141</ele>
        <time>2017-04-22T11:54:08.000Z</time>
      </trkpt>
      <trkpt lat="46.83617" lon="6.54368">
        <ele>1291.4000244141</ele>
        <time>2017-04-22T11:54:11.000Z</time>
      </trkpt>
      <trkpt lat="46.83618" lon="6.54372">
        <ele>1291.5999755859</ele>
        <time>2017-04-22T11:54:12.000Z</time>
      </trkpt>
      <trkpt lat="46.83629" lon="6.54379">
        <ele>1292.4000244141</ele>
        <time>2017-04-22T11:54:16.000Z</time>
      </trkpt>
      <trkpt lat="46.83635" lon="6.54371">
        <ele>1293.1999511719</ele>
        <time>2017-04-22T11:54:19.000Z</time>
      </trkpt>
      <trkpt lat="46.83633" lon="6.54361">
        <ele>1293.1999511719</ele>
        <time>2017-04-22T11:54:21.000Z</time>
      </trkpt>
      <trkpt lat="46.8363" lon="6.5435">
        <ele>1293.4000244141</ele>
        <time>2017-04-22T11:54:23.000Z</time>
      </trkpt>
      <trkpt lat="46.83624" lon="6.54335">
        <ele>1293.4000244141</ele>
        <time>2017-04-22T11:54:26.000Z</time>
      </trkpt>
      <trkpt lat="46.83619" lon="6.54326">
        <ele>1293.8000488281</ele>
        <time>2017-04-22T11:54:28.000Z</time>
      </trkpt>
      <trkpt lat="46.83611" lon="6.54318">
        <ele>1294.5999755859</ele>
        <time>2017-04-22T11:54:31.000Z</time>
      </trkpt>
      <trkpt lat="46.83608" lon="6.54315">
        <ele>1294.8000488281</ele>
        <time>2017-04-22T11:54:32.000Z</time>
      </trkpt>
      <trkpt lat="46.83584" lon="6.54295">
        <ele>1295.4000244141</ele>
        <time>2017-04-22T11:54:40.000Z</time>
      </trkpt>
      <trkpt lat="46.83579" lon="6.54288">
        <ele>1296</ele>
        <time>2017-04-22T11:54:42.000Z</time>
      </trkpt>
      <trkpt lat="46.83571" lon="6.54278">
        <ele>1296.8000488281</ele>
        <time>2017-04-22T11:54:45.000Z</time>
      </trkpt>
      <trkpt lat="46.8357" lon="6.54274">
        <ele>1297</ele>
        <time>2017-04-22T11:54:46.000Z</time>
      </trkpt>
      <trkpt lat="46.83572" lon="6.54268">
        <ele>1297.4000244141</ele>
        <time>2017-04-22T11:54:48.000Z</time>
      </trkpt>
      <trkpt lat="46.83581" lon="6.54259">
        <ele>1297.4000244141</ele>
        <time>2017-04-22T11:54:52.000Z</time>
      </trkpt>
      <trkpt lat="46.83583" lon="6.54251">
        <ele>1298.1999511719</ele>
        <time>2017-04-22T11:54:54.000Z</time>
      </trkpt>
      <trkpt lat="46.83584" lon="6.54245">
        <ele>1298.8000488281</ele>
        <time>2017-04-22T11:54:56.000Z</time>
      </trkpt>
      <trkpt lat="46.83584" lon="6.54242">
        <ele>1299.1999511719</ele>
        <time>2017-04-22T11:54:57.000Z</time>
      </trkpt>
      <trkpt lat="46.83587" lon="6.54234">
        <ele>1300.4000244141</ele>
        <time>2017-04-22T11:55:00.000Z</time>
      </trkpt>
      <trkpt lat="46.83589" lon="6.54229">
        <ele>1300.8000488281</ele>
        <time>2017-04-22T11:55:02.000Z</time>
      </trkpt>
      <trkpt lat="46.83593" lon="6.54226">
        <ele>1301.4000244141</ele>
        <time>2017-04-22T11:55:04.000Z</time>
      </trkpt>
      <trkpt lat="46.83598" lon="6.54218">
        <ele>1302.8000488281</ele>
        <time>2017-04-22T11:55:08.000Z</time>
      </trkpt>
      <trkpt lat="46.83601" lon="6.54214">
        <ele>1303.8000488281</ele>
        <time>2017-04-22T11:55:10.000Z</time>
      </trkpt>
      <trkpt lat="46.83603" lon="6.54207">
        <ele>1304.8000488281</ele>
        <time>2017-04-22T11:55:12.000Z</time>
      </trkpt>
      <trkpt lat="46.83604" lon="6.54203">
        <ele>1304.8000488281</ele>
        <time>2017-04-22T11:55:13.000Z</time>
      </trkpt>
      <trkpt lat="46.83603" lon="6.54188">
        <ele>1306</ele>
        <time>2017-04-22T11:55:17.000Z</time>
      </trkpt>
      <trkpt lat="46.83603" lon="6.54185">
        <ele>1306.1999511719</ele>
        <time>2017-04-22T11:55:18.000Z</time>
      </trkpt>
      <trkpt lat="46.83603" lon="6.54178">
        <ele>1307.1999511719</ele>
        <time>2017-04-22T11:55:20.000Z</time>
      </trkpt>
      <trkpt lat="46.83603" lon="6.54168">
        <ele>1308.4000244141</ele>
        <time>2017-04-22T11:55:23.000Z</time>
      </trkpt>
      <trkpt lat="46.83606" lon="6.54157">
        <ele>1309.8000488281</ele>
        <time>2017-04-22T11:55:27.000Z</time>
      </trkpt>
      <trkpt lat="46.83608" lon="6.54152">
        <ele>1310.5999755859</ele>
        <time>2017-04-22T11:55:29.000Z</time>
      </trkpt>
      <trkpt lat="46.8361" lon="6.54149">
        <ele>1310.8000488281</ele>
        <time>2017-04-22T11:55:30.000Z</time>
      </trkpt>
      <trkpt lat="46.83615" lon="6.54142">
        <ele>1311.5999755859</ele>
        <time>2017-04-22T11:55:33.000Z</time>
      </trkpt>
      <trkpt lat="46.83617" lon="6.54138">
        <ele>1311.8000488281</ele>
        <time>2017-04-22T11:55:34.000Z</time>
      </trkpt>
      <trkpt lat="46.83625" lon="6.54123">
        <ele>1312.5999755859</ele>
        <time>2017-04-22T11:55:38.000Z</time>
      </trkpt>
      <trkpt lat="46.83627" lon="6.54114">
        <ele>1313</ele>
        <time>2017-04-22T11:55:40.000Z</time>
      </trkpt>
      <trkpt lat="46.83632" lon="6.54094">
        <ele>1314</ele>
        <time>2017-04-22T11:55:44.000Z</time>
      </trkpt>
      <trkpt lat="46.83638" lon="6.54072">
        <ele>1315.1999511719</ele>
        <time>2017-04-22T11:55:48.000Z</time>
      </trkpt>
      <trkpt lat="46.83642" lon="6.54055">
        <ele>1316.1999511719</ele>
        <time>2017-04-22T11:55:51.000Z</time>
      </trkpt>
      <trkpt lat="46.83644" lon="6.54046">
        <ele>1316.8000488281</ele>
        <time>2017-04-22T11:55:53.000Z</time>
      </trkpt>
      <trkpt lat="46.83647" lon="6.54026">
        <ele>1317.4000244141</ele>
        <time>2017-04-22T11:55:57.000Z</time>
      </trkpt>
      <trkpt lat="46.83648" lon="6.54007">
        <ele>1318.4000244141</ele>
        <time>2017-04-22T11:56:01.000Z</time>
      </trkpt>
      <trkpt lat="46.83647" lon="6.53976">
        <ele>1319.5999755859</ele>
        <time>2017-04-22T11:56:07.000Z</time>
      </trkpt>
      <trkpt lat="46.83646" lon="6.53961">
        <ele>1320.5999755859</ele>
        <time>2017-04-22T11:56:10.000Z</time>
      </trkpt>
      <trkpt lat="46.83646" lon="6.53946">
        <ele>1321.8000488281</ele>
        <time>2017-04-22T11:56:13.000Z</time>
      </trkpt>
      <trkpt lat="46.83644" lon="6.53931">
        <ele>1323.1999511719</ele>
        <time>2017-04-22T11:56:16.000Z</time>
      </trkpt>
      <trkpt lat="46.8364" lon="6.53921">
        <ele>1324.1999511719</ele>
        <time>2017-04-22T11:56:18.000Z</time>
      </trkpt>
      <trkpt lat="46.83635" lon="6.53908">
        <ele>1325.4000244141</ele>
        <time>2017-04-22T11:56:21.000Z</time>
      </trkpt>
      <trkpt lat="46.83631" lon="6.53895">
        <ele>1326.1999511719</ele>
        <time>2017-04-22T11:56:24.000Z</time>
      </trkpt>
      <trkpt lat="46.83629" lon="6.53886">
        <ele>1326.8000488281</ele>
        <time>2017-04-22T11:56:26.000Z</time>
      </trkpt>
      <trkpt lat="46.83624" lon="6.53872">
        <ele>1327.5999755859</ele>
        <time>2017-04-22T11:56:29.000Z</time>
      </trkpt>
      <trkpt lat="46.83622" lon="6.53869">
        <ele>1328</ele>
        <time>2017-04-22T11:56:30.000Z</time>
      </trkpt>
      <trkpt lat="46.83619" lon="6.53863">
        <ele>1328.8000488281</ele>
        <time>2017-04-22T11:56:32.000Z</time>
      </trkpt>
      <trkpt lat="46.83614" lon="6.53854">
        <ele>1329.1999511719</ele>
        <time>2017-04-22T11:56:35.000Z</time>
      </trkpt>
      <trkpt lat="46.83606" lon="6.53843">
        <ele>1328.8000488281</ele>
        <time>2017-04-22T11:56:38.000Z</time>
      </trkpt>
      <trkpt lat="46.83603" lon="6.5384">
        <ele>1328.5999755859</ele>
        <time>2017-04-22T11:56:39.000Z</time>
      </trkpt>
      <trkpt lat="46.83596" lon="6.53825">
        <ele>1328</ele>
        <time>2017-04-22T11:56:42.000Z</time>
      </trkpt>
      <trkpt lat="46.83595" lon="6.53815">
        <ele>1327.8000488281</ele>
        <time>2017-04-22T11:56:44.000Z</time>
      </trkpt>
      <trkpt lat="46.8359" lon="6.53808">
        <ele>1327.8000488281</ele>
        <time>2017-04-22T11:56:46.000Z</time>
      </trkpt>
      <trkpt lat="46.83577" lon="6.53808">
        <ele>1327.8000488281</ele>
        <time>2017-04-22T11:56:49.000Z</time>
      </trkpt>
      <trkpt lat="46.83569" lon="6.53812">
        <ele>1326.5999755859</ele>
        <time>2017-04-22T11:56:52.000Z</time>
      </trkpt>
      <trkpt lat="46.83568" lon="6.53815">
        <ele>1326.1999511719</ele>
        <time>2017-04-22T11:56:53.000Z</time>
      </trkpt>
      <trkpt lat="46.83567" lon="6.53819">
        <ele>1325</ele>
        <time>2017-04-22T11:56:54.000Z</time>
      </trkpt>
      <trkpt lat="46.83566" lon="6.53824">
        <ele>1323.5999755859</ele>
        <time>2017-04-22T11:56:55.000Z</time>
      </trkpt>
      <trkpt lat="46.83565" lon="6.53834">
        <ele>1322.1999511719</ele>
        <time>2017-04-22T11:56:57.000Z</time>
      </trkpt>
      <trkpt lat="46.83565" lon="6.5384">
        <ele>1321.5999755859</ele>
        <time>2017-04-22T11:56:58.000Z</time>
      </trkpt>
      <trkpt lat="46.8356" lon="6.53851">
        <ele>1320.8000488281</ele>
        <time>2017-04-22T11:57:00.000Z</time>
      </trkpt>
      <trkpt lat="46.83552" lon="6.53859">
        <ele>1319.1999511719</ele>
        <time>2017-04-22T11:57:02.000Z</time>
      </trkpt>
      <trkpt lat="46.83549" lon="6.53861">
        <ele>1317.8000488281</ele>
        <time>2017-04-22T11:57:03.000Z</time>
      </trkpt>
      <trkpt lat="46.83547" lon="6.53861">
        <ele>1317.1999511719</ele>
        <time>2017-04-22T11:57:04.000Z</time>
      </trkpt>
      <trkpt lat="46.83545" lon="6.53861">
        <ele>1316.5999755859</ele>
        <time>2017-04-22T11:57:05.000Z</time>
      </trkpt>
      <trkpt lat="46.83542" lon="6.53863">
        <ele>1315.4000244141</ele>
        <time>2017-04-22T11:57:07.000Z</time>
      </trkpt>
      <trkpt lat="46.83541" lon="6.53866">
        <ele>1315</ele>
        <time>2017-04-22T11:57:08.000Z</time>
      </trkpt>
      <trkpt lat="46.83536" lon="6.53871">
        <ele>1314</ele>
        <time>2017-04-22T11:57:10.000Z</time>
      </trkpt>
      <trkpt lat="46.83533" lon="6.53872">
        <ele>1313.4000244141</ele>
        <time>2017-04-22T11:57:11.000Z</time>
      </trkpt>
      <trkpt lat="46.8353" lon="6.53873">
        <ele>1312.5999755859</ele>
        <time>2017-04-22T11:57:12.000Z</time>
      </trkpt>
      <trkpt lat="46.83528" lon="6.53874">
        <ele>1311.1999511719</ele>
        <time>2017-04-22T11:57:13.000Z</time>
      </trkpt>
      <trkpt lat="46.83525" lon="6.53872">
        <ele>1309.8000488281</ele>
        <time>2017-04-22T11:57:14.000Z</time>
      </trkpt>
      <trkpt lat="46.83523" lon="6.53869">
        <ele>1308.8000488281</ele>
        <time>2017-04-22T11:57:15.000Z</time>
      </trkpt>
      <trkpt lat="46.83519" lon="6.53866">
        <ele>1308</ele>
        <time>2017-04-22T11:57:16.000Z</time>
      </trkpt>
      <trkpt lat="46.8351" lon="6.53859">
        <ele>1307</ele>
        <time>2017-04-22T11:57:18.000Z</time>
      </trkpt>
      <trkpt lat="46.83506" lon="6.53854">
        <ele>1306.1999511719</ele>
        <time>2017-04-22T11:57:19.000Z</time>
      </trkpt>
      <trkpt lat="46.83502" lon="6.53849">
        <ele>1305.8000488281</ele>
        <time>2017-04-22T11:57:20.000Z</time>
      </trkpt>
      <trkpt lat="46.83496" lon="6.53845">
        <ele>1305.1999511719</ele>
        <time>2017-04-22T11:57:21.000Z</time>
      </trkpt>
      <trkpt lat="46.83487" lon="6.53837">
        <ele>1304.4000244141</ele>
        <time>2017-04-22T11:57:23.000Z</time>
      </trkpt>
      <trkpt lat="46.83466" lon="6.53833">
        <ele>1304</ele>
        <time>2017-04-22T11:57:27.000Z</time>
      </trkpt>
      <trkpt lat="46.83456" lon="6.53834">
        <ele>1304.1999511719</ele>
        <time>2017-04-22T11:57:29.000Z</time>
      </trkpt>
      <trkpt lat="46.83442" lon="6.53835">
        <ele>1304</ele>
        <time>2017-04-22T11:57:32.000Z</time>
      </trkpt>
      <trkpt lat="46.8343" lon="6.53839">
        <ele>1303.5999755859</ele>
        <time>2017-04-22T11:57:34.000Z</time>
      </trkpt>
      <trkpt lat="46.83424" lon="6.53839">
        <ele>1303.1999511719</ele>
        <time>2017-04-22T11:57:35.000Z</time>
      </trkpt>
      <trkpt lat="46.83418" lon="6.53839">
        <ele>1302.8000488281</ele>
        <time>2017-04-22T11:57:36.000Z</time>
      </trkpt>
      <trkpt lat="46.83411" lon="6.53837">
        <ele>1302</ele>
        <time>2017-04-22T11:57:37.000Z</time>
      </trkpt>
      <trkpt lat="46.83396" lon="6.53832">
        <ele>1300.1999511719</ele>
        <time>2017-04-22T11:57:39.000Z</time>
      </trkpt>
      <trkpt lat="46.83389" lon="6.53827">
        <ele>1298.8000488281</ele>
        <time>2017-04-22T11:57:40.000Z</time>
      </trkpt>
      <trkpt lat="46.83384" lon="6.53821">
        <ele>1297.8000488281</ele>
        <time>2017-04-22T11:57:41.000Z</time>
      </trkpt>
      <trkpt lat="46.83379" lon="6.53815">
        <ele>1297.1999511719</ele>
        <time>2017-04-22T11:57:42.000Z</time>
      </trkpt>
      <trkpt lat="46.83375" lon="6.53809">
        <ele>1296.8000488281</ele>
        <time>2017-04-22T11:57:43.000Z</time>
      </trkpt>
      <trkpt lat="46.83372" lon="6.53804">
        <ele>1296.5999755859</ele>
        <time>2017-04-22T11:57:44.000Z</time>
      </trkpt>
      <trkpt lat="46.83368" lon="6.53799">
        <ele>1296.5999755859</ele>
        <time>2017-04-22T11:57:45.000Z</time>
      </trkpt>
      <trkpt lat="46.83361" lon="6.5379">
        <ele>1296.4000244141</ele>
        <time>2017-04-22T11:57:47.000Z</time>
      </trkpt>
      <trkpt lat="46.83348" lon="6.5378">
        <ele>1296.4000244141</ele>
        <time>2017-04-22T11:57:50.000Z</time>
      </trkpt>
      <trkpt lat="46.83343" lon="6.53777">
        <ele>1296.4000244141</ele>
        <time>2017-04-22T11:57:51.000Z</time>
      </trkpt>
      <trkpt lat="46.83332" lon="6.53771">
        <ele>1296.8000488281</ele>
        <time>2017-04-22T11:57:54.000Z</time>
      </trkpt>
      <trkpt lat="46.83323" lon="6.53765">
        <ele>1297</ele>
        <time>2017-04-22T11:57:56.000Z</time>
      </trkpt>
      <trkpt lat="46.83316" lon="6.53754">
        <ele>1297.1999511719</ele>
        <time>2017-04-22T11:57:58.000Z</time>
      </trkpt>
      <trkpt lat="46.83305" lon="6.53734">
        <ele>1296.5999755859</ele>
        <time>2017-04-22T11:58:01.000Z</time>
      </trkpt>
      <trkpt lat="46.83297" lon="6.53722">
        <ele>1296.4000244141</ele>
        <time>2017-04-22T11:58:03.000Z</time>
      </trkpt>
      <trkpt lat="46.83292" lon="6.53717">
        <ele>1296</ele>
        <time>2017-04-22T11:58:04.000Z</time>
      </trkpt>
      <trkpt lat="46.83282" lon="6.53708">
        <ele>1295.1999511719</ele>
        <time>2017-04-22T11:58:06.000Z</time>
      </trkpt>
      <trkpt lat="46.83278" lon="6.53702">
        <ele>1294.5999755859</ele>
        <time>2017-04-22T11:58:07.000Z</time>
      </trkpt>
      <trkpt lat="46.83275" lon="6.53679">
        <ele>1293</ele>
        <time>2017-04-22T11:58:10.000Z</time>
      </trkpt>
      <trkpt lat="46.83271" lon="6.53651">
        <ele>1292.1999511719</ele>
        <time>2017-04-22T11:58:14.000Z</time>
      </trkpt>
      <trkpt lat="46.83267" lon="6.53639">
        <ele>1292.4000244141</ele>
        <time>2017-04-22T11:58:16.000Z</time>
      </trkpt>
      <trkpt lat="46.83265" lon="6.53627">
        <ele>1292.5999755859</ele>
        <time>2017-04-22T11:58:18.000Z</time>
      </trkpt>
      <trkpt lat="46.83261" lon="6.53613">
        <ele>1292.8000488281</ele>
        <time>2017-04-22T11:58:20.000Z</time>
      </trkpt>
      <trkpt lat="46.83251" lon="6.53593">
        <ele>1292.8000488281</ele>
        <time>2017-04-22T11:58:23.000Z</time>
      </trkpt>
      <trkpt lat="46.83244" lon="6.53581">
        <ele>1292.8000488281</ele>
        <time>2017-04-22T11:58:25.000Z</time>
      </trkpt>
      <trkpt lat="46.83229" lon="6.53564">
        <ele>1293.1999511719</ele>
        <time>2017-04-22T11:58:29.000Z</time>
      </trkpt>
      <trkpt lat="46.83225" lon="6.53553">
        <ele>1294.4000244141</ele>
        <time>2017-04-22T11:58:31.000Z</time>
      </trkpt>
      <trkpt lat="46.83222" lon="6.53541">
        <ele>1295.4000244141</ele>
        <time>2017-04-22T11:58:33.000Z</time>
      </trkpt>
      <trkpt lat="46.83221" lon="6.53531">
        <ele>1295.8000488281</ele>
        <time>2017-04-22T11:58:35.000Z</time>
      </trkpt>
      <trkpt lat="46.83221" lon="6.53527">
        <ele>1296</ele>
        <time>2017-04-22T11:58:36.000Z</time>
      </trkpt>
      <trkpt lat="46.83221" lon="6.53517">
        <ele>1296.4000244141</ele>
        <time>2017-04-22T11:58:38.000Z</time>
      </trkpt>
      <trkpt lat="46.83221" lon="6.53508">
        <ele>1297.1999511719</ele>
        <time>2017-04-22T11:58:40.000Z</time>
      </trkpt>
      <trkpt lat="46.83221" lon="6.53504">
        <ele>1297.5999755859</ele>
        <time>2017-04-22T11:58:41.000Z</time>
      </trkpt>
      <trkpt lat="46.83217" lon="6.53488">
        <ele>1298.5999755859</ele>
        <time>2017-04-22T11:58:45.000Z</time>
      </trkpt>
      <trkpt lat="46.83216" lon="6.53485">
        <ele>1298.8000488281</ele>
        <time>2017-04-22T11:58:46.000Z</time>
      </trkpt>
      <trkpt lat="46.83215" lon="6.53469">
        <ele>1299.4000244141</ele>
        <time>2017-04-22T11:58:50.000Z</time>
      </trkpt>
      <trkpt lat="46.83215" lon="6.53461">
        <ele>1300.1999511719</ele>
        <time>2017-04-22T11:58:52.000Z</time>
      </trkpt>
      <trkpt lat="46.83214" lon="6.53455">
        <ele>1301.4000244141</ele>
        <time>2017-04-22T11:58:54.000Z</time>
      </trkpt>
      <trkpt lat="46.83214" lon="6.53452">
        <ele>1301.8000488281</ele>
        <time>2017-04-22T11:58:55.000Z</time>
      </trkpt>
      <trkpt lat="46.83214" lon="6.53448">
        <ele>1302.4000244141</ele>
        <time>2017-04-22T11:58:56.000Z</time>
      </trkpt>
      <trkpt lat="46.83212" lon="6.5344">
        <ele>1303.5999755859</ele>
        <time>2017-04-22T11:58:59.000Z</time>
      </trkpt>
      <trkpt lat="46.83212" lon="6.53431">
        <ele>1305</ele>
        <time>2017-04-22T11:59:02.000Z</time>
      </trkpt>
      <trkpt lat="46.83212" lon="6.53425">
        <ele>1306.1999511719</ele>
        <time>2017-04-22T11:59:04.000Z</time>
      </trkpt>
      <trkpt lat="46.83212" lon="6.53416">
        <ele>1307</ele>
        <time>2017-04-22T11:59:07.000Z</time>
      </trkpt>
      <trkpt lat="46.83213" lon="6.53409">
        <ele>1307.5999755859</ele>
        <time>2017-04-22T11:59:09.000Z</time>
      </trkpt>
      <trkpt lat="46.83209" lon="6.5339">
        <ele>1308.1999511719</ele>
        <time>2017-04-22T11:59:13.000Z</time>
      </trkpt>
      <trkpt lat="46.83206" lon="6.53381">
        <ele>1308.4000244141</ele>
        <time>2017-04-22T11:59:15.000Z</time>
      </trkpt>
      <trkpt lat="46.83205" lon="6.53365">
        <ele>1308.8000488281</ele>
        <time>2017-04-22T11:59:18.000Z</time>
      </trkpt>
      <trkpt lat="46.83204" lon="6.53349">
        <ele>1309.4000244141</ele>
        <time>2017-04-22T11:59:21.000Z</time>
      </trkpt>
      <trkpt lat="46.83203" lon="6.53338">
        <ele>1309.5999755859</ele>
        <time>2017-04-22T11:59:23.000Z</time>
      </trkpt>
      <trkpt lat="46.83204" lon="6.53313">
        <ele>1308.4000244141</ele>
        <time>2017-04-22T11:59:27.000Z</time>
      </trkpt>
      <trkpt lat="46.83204" lon="6.53306">
        <ele>1308</ele>
        <time>2017-04-22T11:59:28.000Z</time>
      </trkpt>
      <trkpt lat="46.83208" lon="6.53287">
        <ele>1307.4000244141</ele>
        <time>2017-04-22T11:59:32.000Z</time>
      </trkpt>
      <trkpt lat="46.83213" lon="6.53273">
        <ele>1309</ele>
        <time>2017-04-22T11:59:36.000Z</time>
      </trkpt>
      <trkpt lat="46.83213" lon="6.53269">
        <ele>1309.5999755859</ele>
        <time>2017-04-22T11:59:37.000Z</time>
      </trkpt>
      <trkpt lat="46.83214" lon="6.53262">
        <ele>1310.8000488281</ele>
        <time>2017-04-22T11:59:39.000Z</time>
      </trkpt>
      <trkpt lat="46.83211" lon="6.53258">
        <ele>1311.4000244141</ele>
        <time>2017-04-22T11:59:41.000Z</time>
      </trkpt>
      <trkpt lat="46.83202" lon="6.53259">
        <ele>1311.1999511719</ele>
        <time>2017-04-22T11:59:44.000Z</time>
      </trkpt>
      <trkpt lat="46.83199" lon="6.53263">
        <ele>1310.8000488281</ele>
        <time>2017-04-22T11:59:45.000Z</time>
      </trkpt>
      <trkpt lat="46.83195" lon="6.53265">
        <ele>1309.5999755859</ele>
        <time>2017-04-22T11:59:46.000Z</time>
      </trkpt>
      <trkpt lat="46.83192" lon="6.53267">
        <ele>1308.1999511719</ele>
        <time>2017-04-22T11:59:47.000Z</time>
      </trkpt>
      <trkpt lat="46.83187" lon="6.53271">
        <ele>1306.8000488281</ele>
        <time>2017-04-22T11:59:49.000Z</time>
      </trkpt>
      <trkpt lat="46.83184" lon="6.53276">
        <ele>1306.1999511719</ele>
        <time>2017-04-22T11:59:50.000Z</time>
      </trkpt>
      <trkpt lat="46.83182" lon="6.53282">
        <ele>1306</ele>
        <time>2017-04-22T11:59:51.000Z</time>
      </trkpt>
      <trkpt lat="46.83179" lon="6.53286">
        <ele>1305</ele>
        <time>2017-04-22T11:59:52.000Z</time>
      </trkpt>
      <trkpt lat="46.83175" lon="6.53286">
        <ele>1304.4000244141</ele>
        <time>2017-04-22T11:59:53.000Z</time>
      </trkpt>
      <trkpt lat="46.83172" lon="6.53285">
        <ele>1303.8000488281</ele>
        <time>2017-04-22T11:59:54.000Z</time>
      </trkpt>
      <trkpt lat="46.83169" lon="6.53283">
        <ele>1303.1999511719</ele>
        <time>2017-04-22T11:59:55.000Z</time>
      </trkpt>
      <trkpt lat="46.83166" lon="6.53282">
        <ele>1302.8000488281</ele>
        <time>2017-04-22T11:59:56.000Z</time>
      </trkpt>
      <trkpt lat="46.83159" lon="6.53281">
        <ele>1302.1999511719</ele>
        <time>2017-04-22T11:59:58.000Z</time>
      </trkpt>
      <trkpt lat="46.83155" lon="6.53282">
        <ele>1301</ele>
        <time>2017-04-22T11:59:59.000Z</time>
      </trkpt>
      <trkpt lat="46.83152" lon="6.53283">
        <ele>1299.5999755859</ele>
        <time>2017-04-22T12:00:00.000Z</time>
      </trkpt>
      <trkpt lat="46.83147" lon="6.53288">
        <ele>1297.8000488281</ele>
        <time>2017-04-22T12:00:02.000Z</time>
      </trkpt>
      <trkpt lat="46.83146" lon="6.53292">
        <ele>1297.1999511719</ele>
        <time>2017-04-22T12:00:03.000Z</time>
      </trkpt>
      <trkpt lat="46.83145" lon="6.53295">
        <ele>1296.1999511719</ele>
        <time>2017-04-22T12:00:04.000Z</time>
      </trkpt>
      <trkpt lat="46.83144" lon="6.53297">
        <ele>1295.4000244141</ele>
        <time>2017-04-22T12:00:05.000Z</time>
      </trkpt>
      <trkpt lat="46.83142" lon="6.53299">
        <ele>1294.8000488281</ele>
        <time>2017-04-22T12:00:06.000Z</time>
      </trkpt>
      <trkpt lat="46.83136" lon="6.53302">
        <ele>1293.8000488281</ele>
        <time>2017-04-22T12:00:08.000Z</time>
      </trkpt>
      <trkpt lat="46.83133" lon="6.53301">
        <ele>1293.4000244141</ele>
        <time>2017-04-22T12:00:09.000Z</time>
      </trkpt>
      <trkpt lat="46.83128" lon="6.53302">
        <ele>1292.4000244141</ele>
        <time>2017-04-22T12:00:11.000Z</time>
      </trkpt>
      <trkpt lat="46.83127" lon="6.53302">
        <ele>1291.8000488281</ele>
        <time>2017-04-22T12:00:12.000Z</time>
      </trkpt>
      <trkpt lat="46.83125" lon="6.53306">
        <ele>1291</ele>
        <time>2017-04-22T12:00:14.000Z</time>
      </trkpt>
      <trkpt lat="46.83122" lon="6.53311">
        <ele>1290</ele>
        <time>2017-04-22T12:00:17.000Z</time>
      </trkpt>
      <trkpt lat="46.83121" lon="6.53313">
        <ele>1289.8000488281</ele>
        <time>2017-04-22T12:00:18.000Z</time>
      </trkpt>
      <trkpt lat="46.83123" lon="6.53324">
        <ele>1289.4000244141</ele>
        <time>2017-04-22T12:00:21.000Z</time>
      </trkpt>
      <trkpt lat="46.83126" lon="6.53338">
        <ele>1290.8000488281</ele>
        <time>2017-04-22T12:00:25.000Z</time>
      </trkpt>
      <trkpt lat="46.83127" lon="6.53341">
        <ele>1291.1999511719</ele>
        <time>2017-04-22T12:00:26.000Z</time>
      </trkpt>
      <trkpt lat="46.83131" lon="6.53352">
        <ele>1291.8000488281</ele>
        <time>2017-04-22T12:00:29.000Z</time>
      </trkpt>
      <trkpt lat="46.83134" lon="6.53361">
        <ele>1292</ele>
        <time>2017-04-22T12:00:31.000Z</time>
      </trkpt>
      <trkpt lat="46.83135" lon="6.53365">
        <ele>1292.1999511719</ele>
        <time>2017-04-22T12:00:32.000Z</time>
      </trkpt>
      <trkpt lat="46.83138" lon="6.53373">
        <ele>1293.1999511719</ele>
        <time>2017-04-22T12:00:34.000Z</time>
      </trkpt>
      <trkpt lat="46.83142" lon="6.53382">
        <ele>1293.5999755859</ele>
        <time>2017-04-22T12:00:36.000Z</time>
      </trkpt>
      <trkpt lat="46.83147" lon="6.53398">
        <ele>1294.1999511719</ele>
        <time>2017-04-22T12:00:39.000Z</time>
      </trkpt>
      <trkpt lat="46.83153" lon="6.53405">
        <ele>1294.4000244141</ele>
        <time>2017-04-22T12:00:41.000Z</time>
      </trkpt>
      <trkpt lat="46.83164" lon="6.53428">
        <ele>1294.1999511719</ele>
        <time>2017-04-22T12:00:46.000Z</time>
      </trkpt>
      <trkpt lat="46.83167" lon="6.53434">
        <ele>1294.1999511719</ele>
        <time>2017-04-22T12:00:47.000Z</time>
      </trkpt>
      <trkpt lat="46.83174" lon="6.53452">
        <ele>1293.5999755859</ele>
        <time>2017-04-22T12:00:50.000Z</time>
      </trkpt>
      <trkpt lat="46.83178" lon="6.53466">
        <ele>1293.1999511719</ele>
        <time>2017-04-22T12:00:52.000Z</time>
      </trkpt>
      <trkpt lat="46.83181" lon="6.53472">
        <ele>1293.1999511719</ele>
        <time>2017-04-22T12:00:53.000Z</time>
      </trkpt>
      <trkpt lat="46.83184" lon="6.53477">
        <ele>1293.1999511719</ele>
        <time>2017-04-22T12:00:54.000Z</time>
      </trkpt>
      <trkpt lat="46.83194" lon="6.53493">
        <ele>1293.4000244141</ele>
        <time>2017-04-22T12:00:58.000Z</time>
      </trkpt>
      <trkpt lat="46.83199" lon="6.53501">
        <ele>1293.8000488281</ele>
        <time>2017-04-22T12:01:00.000Z</time>
      </trkpt>
      <trkpt lat="46.83203" lon="6.53511">
        <ele>1294</ele>
        <time>2017-04-22T12:01:02.000Z</time>
      </trkpt>
      <trkpt lat="46.8321" lon="6.53526">
        <ele>1293.8000488281</ele>
        <time>2017-04-22T12:01:06.000Z</time>
      </trkpt>
      <trkpt lat="46.83214" lon="6.5354">
        <ele>1294.1999511719</ele>
        <time>2017-04-22T12:01:10.000Z</time>
      </trkpt>
      <trkpt lat="46.83212" lon="6.53543">
        <ele>1294.8000488281</ele>
        <time>2017-04-22T12:01:11.000Z</time>
      </trkpt>
      <trkpt lat="46.83205" lon="6.53548">
        <ele>1294.4000244141</ele>
        <time>2017-04-22T12:01:13.000Z</time>
      </trkpt>
      <trkpt lat="46.83197" lon="6.53555">
        <ele>1292.8000488281</ele>
        <time>2017-04-22T12:01:15.000Z</time>
      </trkpt>
      <trkpt lat="46.83193" lon="6.53559">
        <ele>1290.8000488281</ele>
        <time>2017-04-22T12:01:16.000Z</time>
      </trkpt>
      <trkpt lat="46.83189" lon="6.53564">
        <ele>1289.8000488281</ele>
        <time>2017-04-22T12:01:17.000Z</time>
      </trkpt>
      <trkpt lat="46.83181" lon="6.53573">
        <ele>1288.1999511719</ele>
        <time>2017-04-22T12:01:19.000Z</time>
      </trkpt>
      <trkpt lat="46.83177" lon="6.53576">
        <ele>1286.8000488281</ele>
        <time>2017-04-22T12:01:20.000Z</time>
      </trkpt>
      <trkpt lat="46.83172" lon="6.53579">
        <ele>1286</ele>
        <time>2017-04-22T12:01:21.000Z</time>
      </trkpt>
      <trkpt lat="46.83167" lon="6.53582">
        <ele>1284.8000488281</ele>
        <time>2017-04-22T12:01:22.000Z</time>
      </trkpt>
      <trkpt lat="46.83161" lon="6.53585">
        <ele>1283.1999511719</ele>
        <time>2017-04-22T12:01:23.000Z</time>
      </trkpt>
      <trkpt lat="46.83156" lon="6.53587">
        <ele>1282</ele>
        <time>2017-04-22T12:01:24.000Z</time>
      </trkpt>
      <trkpt lat="46.83151" lon="6.53588">
        <ele>1281</ele>
        <time>2017-04-22T12:01:25.000Z</time>
      </trkpt>
      <trkpt lat="46.83145" lon="6.53588">
        <ele>1279.5999755859</ele>
        <time>2017-04-22T12:01:26.000Z</time>
      </trkpt>
      <trkpt lat="46.83138" lon="6.53587">
        <ele>1277.8000488281</ele>
        <time>2017-04-22T12:01:27.000Z</time>
      </trkpt>
      <trkpt lat="46.83131" lon="6.53585">
        <ele>1276.1999511719</ele>
        <time>2017-04-22T12:01:28.000Z</time>
      </trkpt>
      <trkpt lat="46.83125" lon="6.53579">
        <ele>1274.8000488281</ele>
        <time>2017-04-22T12:01:29.000Z</time>
      </trkpt>
      <trkpt lat="46.8312" lon="6.53571">
        <ele>1273.5999755859</ele>
        <time>2017-04-22T12:01:30.000Z</time>
      </trkpt>
      <trkpt lat="46.83114" lon="6.53553">
        <ele>1272.5999755859</ele>
        <time>2017-04-22T12:01:32.000Z</time>
      </trkpt>
      <trkpt lat="46.8311" lon="6.53536">
        <ele>1271.8000488281</ele>
        <time>2017-04-22T12:01:34.000Z</time>
      </trkpt>
      <trkpt lat="46.83109" lon="6.53529">
        <ele>1271.1999511719</ele>
        <time>2017-04-22T12:01:35.000Z</time>
      </trkpt>
      <trkpt lat="46.83103" lon="6.53506">
        <ele>1271.4000244141</ele>
        <time>2017-04-22T12:01:39.000Z</time>
      </trkpt>
      <trkpt lat="46.83098" lon="6.53487">
        <ele>1272.1999511719</ele>
        <time>2017-04-22T12:01:43.000Z</time>
      </trkpt>
      <trkpt lat="46.83096" lon="6.53482">
        <ele>1272.4000244141</ele>
        <time>2017-04-22T12:01:44.000Z</time>
      </trkpt>
      <trkpt lat="46.83088" lon="6.53458">
        <ele>1272.1999511719</ele>
        <time>2017-04-22T12:01:48.000Z</time>
      </trkpt>
      <trkpt lat="46.8308" lon="6.53427">
        <ele>1271.1999511719</ele>
        <time>2017-04-22T12:01:52.000Z</time>
      </trkpt>
      <trkpt lat="46.83073" lon="6.534">
        <ele>1270.4000244141</ele>
        <time>2017-04-22T12:01:56.000Z</time>
      </trkpt>
      <trkpt lat="46.83069" lon="6.53391">
        <ele>1270</ele>
        <time>2017-04-22T12:01:58.000Z</time>
      </trkpt>
      <trkpt lat="46.83065" lon="6.53379">
        <ele>1268.4000244141</ele>
        <time>2017-04-22T12:02:00.000Z</time>
      </trkpt>
      <trkpt lat="46.83061" lon="6.53367">
        <ele>1267.4000244141</ele>
        <time>2017-04-22T12:02:02.000Z</time>
      </trkpt>
      <trkpt lat="46.83058" lon="6.53359">
        <ele>1266</ele>
        <time>2017-04-22T12:02:04.000Z</time>
      </trkpt>
      <trkpt lat="46.83052" lon="6.53356">
        <ele>1264.8000488281</ele>
        <time>2017-04-22T12:02:05.000Z</time>
      </trkpt>
      <trkpt lat="46.83047" lon="6.53352">
        <ele>1263.8000488281</ele>
        <time>2017-04-22T12:02:06.000Z</time>
      </trkpt>
      <trkpt lat="46.83043" lon="6.53347">
        <ele>1262.4000244141</ele>
        <time>2017-04-22T12:02:07.000Z</time>
      </trkpt>
      <trkpt lat="46.83039" lon="6.53341">
        <ele>1261</ele>
        <time>2017-04-22T12:02:08.000Z</time>
      </trkpt>
      <trkpt lat="46.83035" lon="6.53333">
        <ele>1260.1999511719</ele>
        <time>2017-04-22T12:02:09.000Z</time>
      </trkpt>
      <trkpt lat="46.83032" lon="6.53325">
        <ele>1259</ele>
        <time>2017-04-22T12:02:10.000Z</time>
      </trkpt>
      <trkpt lat="46.8303" lon="6.53318">
        <ele>1257.4000244141</ele>
        <time>2017-04-22T12:02:11.000Z</time>
      </trkpt>
      <trkpt lat="46.83026" lon="6.53313">
        <ele>1256.1999511719</ele>
        <time>2017-04-22T12:02:12.000Z</time>
      </trkpt>
      <trkpt lat="46.83013" lon="6.53302">
        <ele>1254</ele>
        <time>2017-04-22T12:02:14.000Z</time>
      </trkpt>
      <trkpt lat="46.83007" lon="6.53295">
        <ele>1252.4000244141</ele>
        <time>2017-04-22T12:02:15.000Z</time>
      </trkpt>
      <trkpt lat="46.83001" lon="6.53285">
        <ele>1250.5999755859</ele>
        <time>2017-04-22T12:02:16.000Z</time>
      </trkpt>
      <trkpt lat="46.82996" lon="6.53275">
        <ele>1249.4000244141</ele>
        <time>2017-04-22T12:02:17.000Z</time>
      </trkpt>
      <trkpt lat="46.82992" lon="6.53266">
        <ele>1248.1999511719</ele>
        <time>2017-04-22T12:02:18.000Z</time>
      </trkpt>
      <trkpt lat="46.82988" lon="6.53257">
        <ele>1247.1999511719</ele>
        <time>2017-04-22T12:02:19.000Z</time>
      </trkpt>
      <trkpt lat="46.82984" lon="6.53249">
        <ele>1245.8000488281</ele>
        <time>2017-04-22T12:02:20.000Z</time>
      </trkpt>
      <trkpt lat="46.8298" lon="6.5324">
        <ele>1244.5999755859</ele>
        <time>2017-04-22T12:02:21.000Z</time>
      </trkpt>
      <trkpt lat="46.82977" lon="6.53232">
        <ele>1243.4000244141</ele>
        <time>2017-04-22T12:02:22.000Z</time>
      </trkpt>
      <trkpt lat="46.82975" lon="6.53223">
        <ele>1242.1999511719</ele>
        <time>2017-04-22T12:02:23.000Z</time>
      </trkpt>
      <trkpt lat="46.8297" lon="6.53205">
        <ele>1241</ele>
        <time>2017-04-22T12:02:25.000Z</time>
      </trkpt>
      <trkpt lat="46.82966" lon="6.53198">
        <ele>1239.8000488281</ele>
        <time>2017-04-22T12:02:26.000Z</time>
      </trkpt>
      <trkpt lat="46.82963" lon="6.53193">
        <ele>1238.1999511719</ele>
        <time>2017-04-22T12:02:27.000Z</time>
      </trkpt>
      <trkpt lat="46.82959" lon="6.5319">
        <ele>1236.8000488281</ele>
        <time>2017-04-22T12:02:28.000Z</time>
      </trkpt>
      <trkpt lat="46.82956" lon="6.53187">
        <ele>1235.8000488281</ele>
        <time>2017-04-22T12:02:29.000Z</time>
      </trkpt>
      <trkpt lat="46.82953" lon="6.53184">
        <ele>1234.8000488281</ele>
        <time>2017-04-22T12:02:30.000Z</time>
      </trkpt>
      <trkpt lat="46.82952" lon="6.5318">
        <ele>1234.1999511719</ele>
        <time>2017-04-22T12:02:31.000Z</time>
      </trkpt>
      <trkpt lat="46.82951" lon="6.53176">
        <ele>1233.8000488281</ele>
        <time>2017-04-22T12:02:32.000Z</time>
      </trkpt>
      <trkpt lat="46.82951" lon="6.53171">
        <ele>1233.5999755859</ele>
        <time>2017-04-22T12:02:33.000Z</time>
      </trkpt>
      <trkpt lat="46.8295" lon="6.53159">
        <ele>1233.1999511719</ele>
        <time>2017-04-22T12:02:36.000Z</time>
      </trkpt>
      <trkpt lat="46.8295" lon="6.53144">
        <ele>1233</ele>
        <time>2017-04-22T12:02:39.000Z</time>
      </trkpt>
      <trkpt lat="46.82944" lon="6.5311">
        <ele>1233.4000244141</ele>
        <time>2017-04-22T12:02:46.000Z</time>
      </trkpt>
      <trkpt lat="46.82944" lon="6.53106">
        <ele>1233.4000244141</ele>
        <time>2017-04-22T12:02:47.000Z</time>
      </trkpt>
      <trkpt lat="46.82944" lon="6.53089">
        <ele>1233.4000244141</ele>
        <time>2017-04-22T12:02:50.000Z</time>
      </trkpt>
      <trkpt lat="46.82943" lon="6.53084">
        <ele>1233.4000244141</ele>
        <time>2017-04-22T12:02:51.000Z</time>
      </trkpt>
      <trkpt lat="46.82941" lon="6.53069">
        <ele>1234.1999511719</ele>
        <time>2017-04-22T12:02:55.000Z</time>
      </trkpt>
      <trkpt lat="46.82941" lon="6.53065">
        <ele>1234.8000488281</ele>
        <time>2017-04-22T12:02:56.000Z</time>
      </trkpt>
      <trkpt lat="46.8294" lon="6.53052">
        <ele>1235.4000244141</ele>
        <time>2017-04-22T12:02:59.000Z</time>
      </trkpt>
      <trkpt lat="46.82939" lon="6.53044">
        <ele>1235.5999755859</ele>
        <time>2017-04-22T12:03:01.000Z</time>
      </trkpt>
      <trkpt lat="46.82939" lon="6.53033">
        <ele>1236.5999755859</ele>
        <time>2017-04-22T12:03:04.000Z</time>
      </trkpt>
      <trkpt lat="46.82938" lon="6.53024">
        <ele>1237.4000244141</ele>
        <time>2017-04-22T12:03:07.000Z</time>
      </trkpt>
      <trkpt lat="46.82938" lon="6.53021">
        <ele>1237.8000488281</ele>
        <time>2017-04-22T12:03:08.000Z</time>
      </trkpt>
      <trkpt lat="46.82939" lon="6.53011">
        <ele>1239.1999511719</ele>
        <time>2017-04-22T12:03:11.000Z</time>
      </trkpt>
      <trkpt lat="46.82941" lon="6.53003">
        <ele>1240.1999511719</ele>
        <time>2017-04-22T12:03:14.000Z</time>
      </trkpt>
      <trkpt lat="46.82941" lon="6.53001">
        <ele>1240.4000244141</ele>
        <time>2017-04-22T12:03:15.000Z</time>
      </trkpt>
      <trkpt lat="46.82938" lon="6.52994">
        <ele>1241</ele>
        <time>2017-04-22T12:03:18.000Z</time>
      </trkpt>
      <trkpt lat="46.82932" lon="6.52979">
        <ele>1241</ele>
        <time>2017-04-22T12:03:22.000Z</time>
      </trkpt>
      <trkpt lat="46.82929" lon="6.5297">
        <ele>1240.8000488281</ele>
        <time>2017-04-22T12:03:24.000Z</time>
      </trkpt>
      <trkpt lat="46.82927" lon="6.52962">
        <ele>1240</ele>
        <time>2017-04-22T12:03:26.000Z</time>
      </trkpt>
      <trkpt lat="46.82924" lon="6.52953">
        <ele>1239</ele>
        <time>2017-04-22T12:03:28.000Z</time>
      </trkpt>
      <trkpt lat="46.82922" lon="6.52947">
        <ele>1239</ele>
        <time>2017-04-22T12:03:29.000Z</time>
      </trkpt>
      <trkpt lat="46.82919" lon="6.5294">
        <ele>1238.8000488281</ele>
        <time>2017-04-22T12:03:30.000Z</time>
      </trkpt>
      <trkpt lat="46.82914" lon="6.52925">
        <ele>1238</ele>
        <time>2017-04-22T12:03:32.000Z</time>
      </trkpt>
      <trkpt lat="46.82913" lon="6.52918">
        <ele>1236.8000488281</ele>
        <time>2017-04-22T12:03:33.000Z</time>
      </trkpt>
      <trkpt lat="46.82911" lon="6.5291">
        <ele>1236.4000244141</ele>
        <time>2017-04-22T12:03:34.000Z</time>
      </trkpt>
      <trkpt lat="46.82908" lon="6.52898">
        <ele>1235.4000244141</ele>
        <time>2017-04-22T12:03:36.000Z</time>
      </trkpt>
      <trkpt lat="46.82905" lon="6.52888">
        <ele>1234</ele>
        <time>2017-04-22T12:03:38.000Z</time>
      </trkpt>
      <trkpt lat="46.82903" lon="6.52881">
        <ele>1232.1999511719</ele>
        <time>2017-04-22T12:03:40.000Z</time>
      </trkpt>
      <trkpt lat="46.82901" lon="6.52876">
        <ele>1231.4000244141</ele>
        <time>2017-04-22T12:03:42.000Z</time>
      </trkpt>
      <trkpt lat="46.82899" lon="6.52873">
        <ele>1231</ele>
        <time>2017-04-22T12:03:43.000Z</time>
      </trkpt>
      <trkpt lat="46.82898" lon="6.52869">
        <ele>1230.1999511719</ele>
        <time>2017-04-22T12:03:44.000Z</time>
      </trkpt>
      <trkpt lat="46.82896" lon="6.52864">
        <ele>1230</ele>
        <time>2017-04-22T12:03:45.000Z</time>
      </trkpt>
      <trkpt lat="46.82893" lon="6.52851">
        <ele>1228.8000488281</ele>
        <time>2017-04-22T12:03:47.000Z</time>
      </trkpt>
      <trkpt lat="46.82893" lon="6.52836">
        <ele>1228</ele>
        <time>2017-04-22T12:03:51.000Z</time>
      </trkpt>
      <trkpt lat="46.82892" lon="6.52833">
        <ele>1228.1999511719</ele>
        <time>2017-04-22T12:03:52.000Z</time>
      </trkpt>
      <trkpt lat="46.82891" lon="6.52825">
        <ele>1228.8000488281</ele>
        <time>2017-04-22T12:03:54.000Z</time>
      </trkpt>
      <trkpt lat="46.82888" lon="6.5282">
        <ele>1229.4000244141</ele>
        <time>2017-04-22T12:03:56.000Z</time>
      </trkpt>
      <trkpt lat="46.82886" lon="6.52812">
        <ele>1230</ele>
        <time>2017-04-22T12:03:58.000Z</time>
      </trkpt>
      <trkpt lat="46.82883" lon="6.528">
        <ele>1230.5999755859</ele>
        <time>2017-04-22T12:04:01.000Z</time>
      </trkpt>
      <trkpt lat="46.82882" lon="6.52795">
        <ele>1230.8000488281</ele>
        <time>2017-04-22T12:04:02.000Z</time>
      </trkpt>
      <trkpt lat="46.82882" lon="6.5279">
        <ele>1231</ele>
        <time>2017-04-22T12:04:03.000Z</time>
      </trkpt>
      <trkpt lat="46.8288" lon="6.52781">
        <ele>1231.5999755859</ele>
        <time>2017-04-22T12:04:05.000Z</time>
      </trkpt>
      <trkpt lat="46.8288" lon="6.52777">
        <ele>1232</ele>
        <time>2017-04-22T12:04:06.000Z</time>
      </trkpt>
      <trkpt lat="46.82882" lon="6.52764">
        <ele>1232.5999755859</ele>
        <time>2017-04-22T12:04:09.000Z</time>
      </trkpt>
      <trkpt lat="46.82882" lon="6.52758">
        <ele>1232.8000488281</ele>
        <time>2017-04-22T12:04:11.000Z</time>
      </trkpt>
      <trkpt lat="46.82882" lon="6.52755">
        <ele>1233.1999511719</ele>
        <time>2017-04-22T12:04:12.000Z</time>
      </trkpt>
      <trkpt lat="46.82879" lon="6.52744">
        <ele>1234</ele>
        <time>2017-04-22T12:04:15.000Z</time>
      </trkpt>
      <trkpt lat="46.82878" lon="6.52737">
        <ele>1235.1999511719</ele>
        <time>2017-04-22T12:04:18.000Z</time>
      </trkpt>
      <trkpt lat="46.82878" lon="6.52735">
        <ele>1235.4000244141</ele>
        <time>2017-04-22T12:04:19.000Z</time>
      </trkpt>
      <trkpt lat="46.82876" lon="6.52728">
        <ele>1236.1999511719</ele>
        <time>2017-04-22T12:04:23.000Z</time>
      </trkpt>
      <trkpt lat="46.82873" lon="6.5272">
        <ele>1236.1999511719</ele>
        <time>2017-04-22T12:04:25.000Z</time>
      </trkpt>
      <trkpt lat="46.82869" lon="6.52704">
        <ele>1236</ele>
        <time>2017-04-22T12:04:29.000Z</time>
      </trkpt>
      <trkpt lat="46.82863" lon="6.52683">
        <ele>1236.4000244141</ele>
        <time>2017-04-22T12:04:34.000Z</time>
      </trkpt>
      <trkpt lat="46.82855" lon="6.52665">
        <ele>1236.1999511719</ele>
        <time>2017-04-22T12:04:38.000Z</time>
      </trkpt>
      <trkpt lat="46.82844" lon="6.52637">
        <ele>1235.1999511719</ele>
        <time>2017-04-22T12:04:42.000Z</time>
      </trkpt>
      <trkpt lat="46.82841" lon="6.5263">
        <ele>1234.8000488281</ele>
        <time>2017-04-22T12:04:43.000Z</time>
      </trkpt>
      <trkpt lat="46.82833" lon="6.52613">
        <ele>1234.4000244141</ele>
        <time>2017-04-22T12:04:45.000Z</time>
      </trkpt>
      <trkpt lat="46.82829" lon="6.52604">
        <ele>1234.1999511719</ele>
        <time>2017-04-22T12:04:46.000Z</time>
      </trkpt>
      <trkpt lat="46.8282" lon="6.52587">
        <ele>1233.4000244141</ele>
        <time>2017-04-22T12:04:48.000Z</time>
      </trkpt>
      <trkpt lat="46.8281" lon="6.52561">
        <ele>1232.1999511719</ele>
        <time>2017-04-22T12:04:51.000Z</time>
      </trkpt>
      <trkpt lat="46.82807" lon="6.52554">
        <ele>1232</ele>
        <time>2017-04-22T12:04:52.000Z</time>
      </trkpt>
      <trkpt lat="46.82798" lon="6.52534">
        <ele>1232.1999511719</ele>
        <time>2017-04-22T12:04:55.000Z</time>
      </trkpt>
      <trkpt lat="46.82793" lon="6.52512">
        <ele>1233.1999511719</ele>
        <time>2017-04-22T12:04:59.000Z</time>
      </trkpt>
      <trkpt lat="46.82784" lon="6.5249">
        <ele>1234</ele>
        <time>2017-04-22T12:05:03.000Z</time>
      </trkpt>
      <trkpt lat="46.82778" lon="6.52482">
        <ele>1234.5999755859</ele>
        <time>2017-04-22T12:05:05.000Z</time>
      </trkpt>
      <trkpt lat="46.82773" lon="6.52473">
        <ele>1235.4000244141</ele>
        <time>2017-04-22T12:05:07.000Z</time>
      </trkpt>
      <trkpt lat="46.8277" lon="6.52468">
        <ele>1235.5999755859</ele>
        <time>2017-04-22T12:05:08.000Z</time>
      </trkpt>
      <trkpt lat="46.82767" lon="6.52464">
        <ele>1236</ele>
        <time>2017-04-22T12:05:09.000Z</time>
      </trkpt>
      <trkpt lat="46.82763" lon="6.52446">
        <ele>1236.5999755859</ele>
        <time>2017-04-22T12:05:12.000Z</time>
      </trkpt>
      <trkpt lat="46.82762" lon="6.5244">
        <ele>1236.8000488281</ele>
        <time>2017-04-22T12:05:13.000Z</time>
      </trkpt>
      <trkpt lat="46.82758" lon="6.52422">
        <ele>1237.1999511719</ele>
        <time>2017-04-22T12:05:16.000Z</time>
      </trkpt>
      <trkpt lat="46.82755" lon="6.52412">
        <ele>1237.4000244141</ele>
        <time>2017-04-22T12:05:18.000Z</time>
      </trkpt>
      <trkpt lat="46.82753" lon="6.52397">
        <ele>1238</ele>
        <time>2017-04-22T12:05:21.000Z</time>
      </trkpt>
      <trkpt lat="46.82752" lon="6.52382">
        <ele>1239</ele>
        <time>2017-04-22T12:05:24.000Z</time>
      </trkpt>
      <trkpt lat="46.82752" lon="6.52346">
        <ele>1239.1999511719</ele>
        <time>2017-04-22T12:05:30.000Z</time>
      </trkpt>
      <trkpt lat="46.82752" lon="6.52332">
        <ele>1240.4000244141</ele>
        <time>2017-04-22T12:05:33.000Z</time>
      </trkpt>
      <trkpt lat="46.82752" lon="6.52324">
        <ele>1241</ele>
        <time>2017-04-22T12:05:35.000Z</time>
      </trkpt>
      <trkpt lat="46.82752" lon="6.52315">
        <ele>1241.4000244141</ele>
        <time>2017-04-22T12:05:37.000Z</time>
      </trkpt>
      <trkpt lat="46.82752" lon="6.52298">
        <ele>1242</ele>
        <time>2017-04-22T12:05:40.000Z</time>
      </trkpt>
      <trkpt lat="46.82752" lon="6.52287">
        <ele>1242.4000244141</ele>
        <time>2017-04-22T12:05:42.000Z</time>
      </trkpt>
      <trkpt lat="46.82754" lon="6.52268">
        <ele>1242.8000488281</ele>
        <time>2017-04-22T12:05:46.000Z</time>
      </trkpt>
      <trkpt lat="46.82754" lon="6.52259">
        <ele>1243.4000244141</ele>
        <time>2017-04-22T12:05:48.000Z</time>
      </trkpt>
      <trkpt lat="46.82754" lon="6.52248">
        <ele>1243.8000488281</ele>
        <time>2017-04-22T12:05:51.000Z</time>
      </trkpt>
      <trkpt lat="46.82755" lon="6.5224">
        <ele>1244.4000244141</ele>
        <time>2017-04-22T12:05:53.000Z</time>
      </trkpt>
      <trkpt lat="46.82755" lon="6.52228">
        <ele>1245</ele>
        <time>2017-04-22T12:05:56.000Z</time>
      </trkpt>
      <trkpt lat="46.82754" lon="6.52216">
        <ele>1245.4000244141</ele>
        <time>2017-04-22T12:05:59.000Z</time>
      </trkpt>
      <trkpt lat="46.82755" lon="6.52203">
        <ele>1246.1999511719</ele>
        <time>2017-04-22T12:06:02.000Z</time>
      </trkpt>
      <trkpt lat="46.82755" lon="6.52198">
        <ele>1246.4000244141</ele>
        <time>2017-04-22T12:06:03.000Z</time>
      </trkpt>
      <trkpt lat="46.82757" lon="6.52181">
        <ele>1247</ele>
        <time>2017-04-22T12:06:07.000Z</time>
      </trkpt>
      <trkpt lat="46.8276" lon="6.52168">
        <ele>1247.4000244141</ele>
        <time>2017-04-22T12:06:10.000Z</time>
      </trkpt>
      <trkpt lat="46.82763" lon="6.52155">
        <ele>1248.1999511719</ele>
        <time>2017-04-22T12:06:13.000Z</time>
      </trkpt>
      <trkpt lat="46.82764" lon="6.52151">
        <ele>1248.4000244141</ele>
        <time>2017-04-22T12:06:14.000Z</time>
      </trkpt>
      <trkpt lat="46.82767" lon="6.52136">
        <ele>1249.4000244141</ele>
        <time>2017-04-22T12:06:17.000Z</time>
      </trkpt>
      <trkpt lat="46.82769" lon="6.52132">
        <ele>1249.5999755859</ele>
        <time>2017-04-22T12:06:18.000Z</time>
      </trkpt>
      <trkpt lat="46.82774" lon="6.52113">
        <ele>1250.4000244141</ele>
        <time>2017-04-22T12:06:22.000Z</time>
      </trkpt>
      <trkpt lat="46.82776" lon="6.52108">
        <ele>1250.8000488281</ele>
        <time>2017-04-22T12:06:23.000Z</time>
      </trkpt>
      <trkpt lat="46.82783" lon="6.52079">
        <ele>1251.1999511719</ele>
        <time>2017-04-22T12:06:28.000Z</time>
      </trkpt>
      <trkpt lat="46.82786" lon="6.5207">
        <ele>1251.8000488281</ele>
        <time>2017-04-22T12:06:30.000Z</time>
      </trkpt>
      <trkpt lat="46.8279" lon="6.52056">
        <ele>1252.5999755859</ele>
        <time>2017-04-22T12:06:33.000Z</time>
      </trkpt>
      <trkpt lat="46.82794" lon="6.52039">
        <ele>1253.4000244141</ele>
        <time>2017-04-22T12:06:37.000Z</time>
      </trkpt>
      <trkpt lat="46.82794" lon="6.52034">
        <ele>1253.8000488281</ele>
        <time>2017-04-22T12:06:38.000Z</time>
      </trkpt>
      <trkpt lat="46.82795" lon="6.52012">
        <ele>1254.5999755859</ele>
        <time>2017-04-22T12:06:42.000Z</time>
      </trkpt>
      <trkpt lat="46.82795" lon="6.52007">
        <ele>1254.8000488281</ele>
        <time>2017-04-22T12:06:43.000Z</time>
      </trkpt>
      <trkpt lat="46.82798" lon="6.5198">
        <ele>1255</ele>
        <time>2017-04-22T12:06:48.000Z</time>
      </trkpt>
      <trkpt lat="46.82803" lon="6.51953">
        <ele>1255.8000488281</ele>
        <time>2017-04-22T12:06:54.000Z</time>
      </trkpt>
      <trkpt lat="46.82801" lon="6.51928">
        <ele>1257</ele>
        <time>2017-04-22T12:06:59.000Z</time>
      </trkpt>
      <trkpt lat="46.82801" lon="6.51908">
        <ele>1258</ele>
        <time>2017-04-22T12:07:03.000Z</time>
      </trkpt>
      <trkpt lat="46.82802" lon="6.51886">
        <ele>1259</ele>
        <time>2017-04-22T12:07:08.000Z</time>
      </trkpt>
      <trkpt lat="46.82802" lon="6.51876">
        <ele>1259.1999511719</ele>
        <time>2017-04-22T12:07:10.000Z</time>
      </trkpt>
      <trkpt lat="46.82803" lon="6.51858">
        <ele>1259.5999755859</ele>
        <time>2017-04-22T12:07:14.000Z</time>
      </trkpt>
      <trkpt lat="46.82801" lon="6.51828">
        <ele>1259.5999755859</ele>
        <time>2017-04-22T12:07:19.000Z</time>
      </trkpt>
      <trkpt lat="46.82798" lon="6.51798">
        <ele>1259</ele>
        <time>2017-04-22T12:07:24.000Z</time>
      </trkpt>
      <trkpt lat="46.82798" lon="6.5179">
        <ele>1259</ele>
        <time>2017-04-22T12:07:25.000Z</time>
      </trkpt>
      <trkpt lat="46.82798" lon="6.51764">
        <ele>1258.1999511719</ele>
        <time>2017-04-22T12:07:28.000Z</time>
      </trkpt>
      <trkpt lat="46.82798" lon="6.51756">
        <ele>1257.8000488281</ele>
        <time>2017-04-22T12:07:29.000Z</time>
      </trkpt>
      <trkpt lat="46.82798" lon="6.51747">
        <ele>1257.1999511719</ele>
        <time>2017-04-22T12:07:30.000Z</time>
      </trkpt>
      <trkpt lat="46.8279" lon="6.51724">
        <ele>1256.1999511719</ele>
        <time>2017-04-22T12:07:33.000Z</time>
      </trkpt>
      <trkpt lat="46.82785" lon="6.5172">
        <ele>1255.4000244141</ele>
        <time>2017-04-22T12:07:34.000Z</time>
      </trkpt>
      <trkpt lat="46.82781" lon="6.51715">
        <ele>1254.8000488281</ele>
        <time>2017-04-22T12:07:35.000Z</time>
      </trkpt>
      <trkpt lat="46.82777" lon="6.51711">
        <ele>1254.1999511719</ele>
        <time>2017-04-22T12:07:36.000Z</time>
      </trkpt>
      <trkpt lat="46.82773" lon="6.51705">
        <ele>1252.8000488281</ele>
        <time>2017-04-22T12:07:37.000Z</time>
      </trkpt>
      <trkpt lat="46.82767" lon="6.517">
        <ele>1251</ele>
        <time>2017-04-22T12:07:38.000Z</time>
      </trkpt>
      <trkpt lat="46.82761" lon="6.51694">
        <ele>1249.1999511719</ele>
        <time>2017-04-22T12:07:39.000Z</time>
      </trkpt>
      <trkpt lat="46.82756" lon="6.51687">
        <ele>1247.5999755859</ele>
        <time>2017-04-22T12:07:40.000Z</time>
      </trkpt>
      <trkpt lat="46.82752" lon="6.5168">
        <ele>1245.5999755859</ele>
        <time>2017-04-22T12:07:41.000Z</time>
      </trkpt>
      <trkpt lat="46.82747" lon="6.51674">
        <ele>1244.1999511719</ele>
        <time>2017-04-22T12:07:42.000Z</time>
      </trkpt>
      <trkpt lat="46.82741" lon="6.51666">
        <ele>1243</ele>
        <time>2017-04-22T12:07:43.000Z</time>
      </trkpt>
      <trkpt lat="46.82735" lon="6.51658">
        <ele>1241.1999511719</ele>
        <time>2017-04-22T12:07:44.000Z</time>
      </trkpt>
      <trkpt lat="46.8273" lon="6.5165">
        <ele>1239.4000244141</ele>
        <time>2017-04-22T12:07:45.000Z</time>
      </trkpt>
      <trkpt lat="46.82727" lon="6.51642">
        <ele>1238.1999511719</ele>
        <time>2017-04-22T12:07:46.000Z</time>
      </trkpt>
      <trkpt lat="46.82725" lon="6.51634">
        <ele>1237.4000244141</ele>
        <time>2017-04-22T12:07:47.000Z</time>
      </trkpt>
      <trkpt lat="46.82724" lon="6.51627">
        <ele>1236.4000244141</ele>
        <time>2017-04-22T12:07:48.000Z</time>
      </trkpt>
      <trkpt lat="46.82723" lon="6.51621">
        <ele>1235.1999511719</ele>
        <time>2017-04-22T12:07:49.000Z</time>
      </trkpt>
      <trkpt lat="46.82721" lon="6.51616">
        <ele>1234.5999755859</ele>
        <time>2017-04-22T12:07:50.000Z</time>
      </trkpt>
      <trkpt lat="46.82717" lon="6.51609">
        <ele>1233.8000488281</ele>
        <time>2017-04-22T12:07:51.000Z</time>
      </trkpt>
      <trkpt lat="46.82707" lon="6.51599">
        <ele>1230.8000488281</ele>
        <time>2017-04-22T12:07:53.000Z</time>
      </trkpt>
      <trkpt lat="46.82703" lon="6.51592">
        <ele>1229.8000488281</ele>
        <time>2017-04-22T12:07:54.000Z</time>
      </trkpt>
      <trkpt lat="46.82699" lon="6.51586">
        <ele>1229.1999511719</ele>
        <time>2017-04-22T12:07:55.000Z</time>
      </trkpt>
      <trkpt lat="46.82689" lon="6.51573">
        <ele>1227.1999511719</ele>
        <time>2017-04-22T12:07:57.000Z</time>
      </trkpt>
      <trkpt lat="46.82684" lon="6.51568">
        <ele>1225.1999511719</ele>
        <time>2017-04-22T12:07:58.000Z</time>
      </trkpt>
      <trkpt lat="46.82679" lon="6.51562">
        <ele>1224.1999511719</ele>
        <time>2017-04-22T12:07:59.000Z</time>
      </trkpt>
      <trkpt lat="46.82672" lon="6.51551">
        <ele>1221.8000488281</ele>
        <time>2017-04-22T12:08:01.000Z</time>
      </trkpt>
      <trkpt lat="46.82668" lon="6.51545">
        <ele>1221</ele>
        <time>2017-04-22T12:08:02.000Z</time>
      </trkpt>
      <trkpt lat="46.82666" lon="6.5154">
        <ele>1219.8000488281</ele>
        <time>2017-04-22T12:08:03.000Z</time>
      </trkpt>
      <trkpt lat="46.82663" lon="6.51535">
        <ele>1218.4000244141</ele>
        <time>2017-04-22T12:08:04.000Z</time>
      </trkpt>
      <trkpt lat="46.82661" lon="6.5153">
        <ele>1216.5999755859</ele>
        <time>2017-04-22T12:08:05.000Z</time>
      </trkpt>
      <trkpt lat="46.82658" lon="6.51526">
        <ele>1215.1999511719</ele>
        <time>2017-04-22T12:08:06.000Z</time>
      </trkpt>
      <trkpt lat="46.82656" lon="6.51523">
        <ele>1214</ele>
        <time>2017-04-22T12:08:07.000Z</time>
      </trkpt>
      <trkpt lat="46.82655" lon="6.51522">
        <ele>1212.8000488281</ele>
        <time>2017-04-22T12:08:08.000Z</time>
      </trkpt>
      <trkpt lat="46.8265" lon="6.51521">
        <ele>1211.4000244141</ele>
        <time>2017-04-22T12:08:10.000Z</time>
      </trkpt>
      <trkpt lat="46.82644" lon="6.51522">
        <ele>1209.5999755859</ele>
        <time>2017-04-22T12:08:12.000Z</time>
      </trkpt>
      <trkpt lat="46.8264" lon="6.51522">
        <ele>1208.5999755859</ele>
        <time>2017-04-22T12:08:13.000Z</time>
      </trkpt>
      <trkpt lat="46.82636" lon="6.51521">
        <ele>1207.5999755859</ele>
        <time>2017-04-22T12:08:14.000Z</time>
      </trkpt>
      <trkpt lat="46.82631" lon="6.51517">
        <ele>1206.8000488281</ele>
        <time>2017-04-22T12:08:15.000Z</time>
      </trkpt>
      <trkpt lat="46.82619" lon="6.51501">
        <ele>1204.5999755859</ele>
        <time>2017-04-22T12:08:17.000Z</time>
      </trkpt>
      <trkpt lat="46.82609" lon="6.51483">
        <ele>1202.5999755859</ele>
        <time>2017-04-22T12:08:19.000Z</time>
      </trkpt>
      <trkpt lat="46.82604" lon="6.51475">
        <ele>1201.4000244141</ele>
        <time>2017-04-22T12:08:20.000Z</time>
      </trkpt>
      <trkpt lat="46.82599" lon="6.51469">
        <ele>1200.8000488281</ele>
        <time>2017-04-22T12:08:21.000Z</time>
      </trkpt>
      <trkpt lat="46.82594" lon="6.51463">
        <ele>1200.1999511719</ele>
        <time>2017-04-22T12:08:22.000Z</time>
      </trkpt>
      <trkpt lat="46.8259" lon="6.51458">
        <ele>1198.4000244141</ele>
        <time>2017-04-22T12:08:23.000Z</time>
      </trkpt>
      <trkpt lat="46.82587" lon="6.51455">
        <ele>1197.4000244141</ele>
        <time>2017-04-22T12:08:24.000Z</time>
      </trkpt>
      <trkpt lat="46.82587" lon="6.51454">
        <ele>1195.5999755859</ele>
        <time>2017-04-22T12:08:25.000Z</time>
      </trkpt>
      <trkpt lat="46.82586" lon="6.51452">
        <ele>1194.5999755859</ele>
        <time>2017-04-22T12:08:26.000Z</time>
      </trkpt>
      <trkpt lat="46.82586" lon="6.5145">
        <ele>1194.1999511719</ele>
        <time>2017-04-22T12:08:27.000Z</time>
      </trkpt>
      <trkpt lat="46.82589" lon="6.51448">
        <ele>1193.8000488281</ele>
        <time>2017-04-22T12:08:32.000Z</time>
      </trkpt>
      <trkpt lat="46.82598" lon="6.51448">
        <ele>1194</ele>
        <time>2017-04-22T12:08:36.000Z</time>
      </trkpt>
      <trkpt lat="46.8261" lon="6.5145">
        <ele>1194.4000244141</ele>
        <time>2017-04-22T12:08:40.000Z</time>
      </trkpt>
      <trkpt lat="46.82615" lon="6.5145">
        <ele>1194.5999755859</ele>
        <time>2017-04-22T12:08:41.000Z</time>
      </trkpt>
      <trkpt lat="46.82624" lon="6.51454">
        <ele>1194.8000488281</ele>
        <time>2017-04-22T12:08:43.000Z</time>
      </trkpt>
      <trkpt lat="46.82638" lon="6.51465">
        <ele>1195.1999511719</ele>
        <time>2017-04-22T12:08:48.000Z</time>
      </trkpt>
      <trkpt lat="46.82652" lon="6.51469">
        <ele>1195.4000244141</ele>
        <time>2017-04-22T12:08:53.000Z</time>
      </trkpt>
      <trkpt lat="46.82654" lon="6.51469">
        <ele>1195.5999755859</ele>
        <time>2017-04-22T12:08:54.000Z</time>
      </trkpt>
      <trkpt lat="46.82665" lon="6.51472">
        <ele>1196.5999755859</ele>
        <time>2017-04-22T12:08:58.000Z</time>
      </trkpt>
      <trkpt lat="46.82667" lon="6.51473">
        <ele>1196.8000488281</ele>
        <time>2017-04-22T12:08:59.000Z</time>
      </trkpt>
      <trkpt lat="46.82677" lon="6.51476">
        <ele>1197.8000488281</ele>
        <time>2017-04-22T12:09:03.000Z</time>
      </trkpt>
      <trkpt lat="46.82687" lon="6.51479">
        <ele>1199</ele>
        <time>2017-04-22T12:09:07.000Z</time>
      </trkpt>
      <trkpt lat="46.8269" lon="6.5148">
        <ele>1199.1999511719</ele>
        <time>2017-04-22T12:09:08.000Z</time>
      </trkpt>
      <trkpt lat="46.82702" lon="6.51486">
        <ele>1200.1999511719</ele>
        <time>2017-04-22T12:09:12.000Z</time>
      </trkpt>
      <trkpt lat="46.82704" lon="6.51487">
        <ele>1200.5999755859</ele>
        <time>2017-04-22T12:09:13.000Z</time>
      </trkpt>
      <trkpt lat="46.82711" lon="6.51491">
        <ele>1201.1999511719</ele>
        <time>2017-04-22T12:09:16.000Z</time>
      </trkpt>
      <trkpt lat="46.82718" lon="6.51495">
        <ele>1202.1999511719</ele>
        <time>2017-04-22T12:09:19.000Z</time>
      </trkpt>
      <trkpt lat="46.82726" lon="6.51497">
        <ele>1203.5999755859</ele>
        <time>2017-04-22T12:09:22.000Z</time>
      </trkpt>
      <trkpt lat="46.82728" lon="6.51498">
        <ele>1204</ele>
        <time>2017-04-22T12:09:23.000Z</time>
      </trkpt>
      <trkpt lat="46.82734" lon="6.51499">
        <ele>1204.8000488281</ele>
        <time>2017-04-22T12:09:25.000Z</time>
      </trkpt>
      <trkpt lat="46.82741" lon="6.51501">
        <ele>1205.8000488281</ele>
        <time>2017-04-22T12:09:28.000Z</time>
      </trkpt>
      <trkpt lat="46.82744" lon="6.51502">
        <ele>1206.1999511719</ele>
        <time>2017-04-22T12:09:29.000Z</time>
      </trkpt>
      <trkpt lat="46.82749" lon="6.51505">
        <ele>1207</ele>
        <time>2017-04-22T12:09:31.000Z</time>
      </trkpt>
      <trkpt lat="46.82758" lon="6.51509">
        <ele>1208</ele>
        <time>2017-04-22T12:09:34.000Z</time>
      </trkpt>
      <trkpt lat="46.82761" lon="6.5151">
        <ele>1208.4000244141</ele>
        <time>2017-04-22T12:09:35.000Z</time>
      </trkpt>
      <trkpt lat="46.82772" lon="6.51513">
        <ele>1209.4000244141</ele>
        <time>2017-04-22T12:09:39.000Z</time>
      </trkpt>
      <trkpt lat="46.82779" lon="6.51516">
        <ele>1210.4000244141</ele>
        <time>2017-04-22T12:09:42.000Z</time>
      </trkpt>
      <trkpt lat="46.82788" lon="6.51516">
        <ele>1211</ele>
        <time>2017-04-22T12:09:45.000Z</time>
      </trkpt>
      <trkpt lat="46.82794" lon="6.51514">
        <ele>1211.5999755859</ele>
        <time>2017-04-22T12:09:47.000Z</time>
      </trkpt>
      <trkpt lat="46.82801" lon="6.51509">
        <ele>1212</ele>
        <time>2017-04-22T12:09:49.000Z</time>
      </trkpt>
      <trkpt lat="46.82809" lon="6.515">
        <ele>1212.4000244141</ele>
        <time>2017-04-22T12:09:51.000Z</time>
      </trkpt>
      <trkpt lat="46.82816" lon="6.51488">
        <ele>1212.4000244141</ele>
        <time>2017-04-22T12:09:53.000Z</time>
      </trkpt>
      <trkpt lat="46.82826" lon="6.51457">
        <ele>1211.8000488281</ele>
        <time>2017-04-22T12:09:57.000Z</time>
      </trkpt>
      <trkpt lat="46.82829" lon="6.51449">
        <ele>1211.5999755859</ele>
        <time>2017-04-22T12:09:58.000Z</time>
      </trkpt>
      <trkpt lat="46.82832" lon="6.51429">
        <ele>1210.5999755859</ele>
        <time>2017-04-22T12:10:00.000Z</time>
      </trkpt>
      <trkpt lat="46.82833" lon="6.51407">
        <ele>1209.4000244141</ele>
        <time>2017-04-22T12:10:02.000Z</time>
      </trkpt>
      <trkpt lat="46.82833" lon="6.51397">
        <ele>1209.1999511719</ele>
        <time>2017-04-22T12:10:03.000Z</time>
      </trkpt>
      <trkpt lat="46.82832" lon="6.51369">
        <ele>1208.8000488281</ele>
        <time>2017-04-22T12:10:06.000Z</time>
      </trkpt>
      <trkpt lat="46.82834" lon="6.51342">
        <ele>1209.1999511719</ele>
        <time>2017-04-22T12:10:10.000Z</time>
      </trkpt>
      <trkpt lat="46.82835" lon="6.51311">
        <ele>1210.1999511719</ele>
        <time>2017-04-22T12:10:15.000Z</time>
      </trkpt>
      <trkpt lat="46.82835" lon="6.51302">
        <ele>1211.1999511719</ele>
        <time>2017-04-22T12:10:17.000Z</time>
      </trkpt>
      <trkpt lat="46.82835" lon="6.51297">
        <ele>1211.5999755859</ele>
        <time>2017-04-22T12:10:18.000Z</time>
      </trkpt>
      <trkpt lat="46.82834" lon="6.51282">
        <ele>1212.8000488281</ele>
        <time>2017-04-22T12:10:21.000Z</time>
      </trkpt>
      <trkpt lat="46.82833" lon="6.51267">
        <ele>1213.1999511719</ele>
        <time>2017-04-22T12:10:24.000Z</time>
      </trkpt>
      <trkpt lat="46.82833" lon="6.51259">
        <ele>1213.8000488281</ele>
        <time>2017-04-22T12:10:26.000Z</time>
      </trkpt>
      <trkpt lat="46.82835" lon="6.51245">
        <ele>1214.5999755859</ele>
        <time>2017-04-22T12:10:29.000Z</time>
      </trkpt>
      <trkpt lat="46.82835" lon="6.51225">
        <ele>1215.8000488281</ele>
        <time>2017-04-22T12:10:33.000Z</time>
      </trkpt>
      <trkpt lat="46.82836" lon="6.51221">
        <ele>1216</ele>
        <time>2017-04-22T12:10:34.000Z</time>
      </trkpt>
      <trkpt lat="46.82834" lon="6.51201">
        <ele>1216.8000488281</ele>
        <time>2017-04-22T12:10:38.000Z</time>
      </trkpt>
      <trkpt lat="46.82833" lon="6.51195">
        <ele>1217</ele>
        <time>2017-04-22T12:10:39.000Z</time>
      </trkpt>
      <trkpt lat="46.82832" lon="6.51178">
        <ele>1217.8000488281</ele>
        <time>2017-04-22T12:10:42.000Z</time>
      </trkpt>
      <trkpt lat="46.82831" lon="6.51155">
        <ele>1218.5999755859</ele>
        <time>2017-04-22T12:10:46.000Z</time>
      </trkpt>
      <trkpt lat="46.8283" lon="6.51145">
        <ele>1219</ele>
        <time>2017-04-22T12:10:48.000Z</time>
      </trkpt>
      <trkpt lat="46.82829" lon="6.5113">
        <ele>1219.8000488281</ele>
        <time>2017-04-22T12:10:51.000Z</time>
      </trkpt>
      <trkpt lat="46.82829" lon="6.51126">
        <ele>1220.1999511719</ele>
        <time>2017-04-22T12:10:52.000Z</time>
      </trkpt>
      <trkpt lat="46.82829" lon="6.51119">
        <ele>1220.5999755859</ele>
        <time>2017-04-22T12:10:54.000Z</time>
      </trkpt>
      <trkpt lat="46.8283" lon="6.51109">
        <ele>1221.4000244141</ele>
        <time>2017-04-22T12:10:56.000Z</time>
      </trkpt>
      <trkpt lat="46.8283" lon="6.51092">
        <ele>1222.1999511719</ele>
        <time>2017-04-22T12:11:00.000Z</time>
      </trkpt>
      <trkpt lat="46.8283" lon="6.51088">
        <ele>1222.5999755859</ele>
        <time>2017-04-22T12:11:01.000Z</time>
      </trkpt>
      <trkpt lat="46.82829" lon="6.51064">
        <ele>1223.5999755859</ele>
        <time>2017-04-22T12:11:06.000Z</time>
      </trkpt>
      <trkpt lat="46.82829" lon="6.5104">
        <ele>1224</ele>
        <time>2017-04-22T12:11:11.000Z</time>
      </trkpt>
      <trkpt lat="46.8283" lon="6.51022">
        <ele>1224.1999511719</ele>
        <time>2017-04-22T12:11:14.000Z</time>
      </trkpt>
      <trkpt lat="46.82831" lon="6.51007">
        <ele>1224.5999755859</ele>
        <time>2017-04-22T12:11:17.000Z</time>
      </trkpt>
      <trkpt lat="46.82833" lon="6.50994">
        <ele>1224.5999755859</ele>
        <time>2017-04-22T12:11:19.000Z</time>
      </trkpt>
      <trkpt lat="46.82835" lon="6.50981">
        <ele>1224.4000244141</ele>
        <time>2017-04-22T12:11:21.000Z</time>
      </trkpt>
      <trkpt lat="46.82842" lon="6.50956">
        <ele>1224.5999755859</ele>
        <time>2017-04-22T12:11:25.000Z</time>
      </trkpt>
      <trkpt lat="46.82844" lon="6.50951">
        <ele>1224.8000488281</ele>
        <time>2017-04-22T12:11:26.000Z</time>
      </trkpt>
      <trkpt lat="46.82853" lon="6.50936">
        <ele>1224.8000488281</ele>
        <time>2017-04-22T12:11:29.000Z</time>
      </trkpt>
      <trkpt lat="46.82856" lon="6.50931">
        <ele>1224.8000488281</ele>
        <time>2017-04-22T12:11:30.000Z</time>
      </trkpt>
      <trkpt lat="46.82869" lon="6.50902">
        <ele>1225.4000244141</ele>
        <time>2017-04-22T12:11:35.000Z</time>
      </trkpt>
      <trkpt lat="46.82872" lon="6.50892">
        <ele>1225.8000488281</ele>
        <time>2017-04-22T12:11:37.000Z</time>
      </trkpt>
      <trkpt lat="46.82875" lon="6.50881">
        <ele>1226.1999511719</ele>
        <time>2017-04-22T12:11:40.000Z</time>
      </trkpt>
      <trkpt lat="46.8288" lon="6.5087">
        <ele>1227</ele>
        <time>2017-04-22T12:11:43.000Z</time>
      </trkpt>
      <trkpt lat="46.82882" lon="6.50866">
        <ele>1227</ele>
        <time>2017-04-22T12:11:44.000Z</time>
      </trkpt>
      <trkpt lat="46.82892" lon="6.50843">
        <ele>1227.8000488281</ele>
        <time>2017-04-22T12:11:49.000Z</time>
      </trkpt>
      <trkpt lat="46.82894" lon="6.50839">
        <ele>1228.1999511719</ele>
        <time>2017-04-22T12:11:50.000Z</time>
      </trkpt>
      <trkpt lat="46.82911" lon="6.50814">
        <ele>1229</ele>
        <time>2017-04-22T12:11:56.000Z</time>
      </trkpt>
      <trkpt lat="46.82914" lon="6.5081">
        <ele>1229.1999511719</ele>
        <time>2017-04-22T12:11:57.000Z</time>
      </trkpt>
      <trkpt lat="46.82926" lon="6.50793">
        <ele>1229.4000244141</ele>
        <time>2017-04-22T12:12:01.000Z</time>
      </trkpt>
      <trkpt lat="46.82942" lon="6.50772">
        <ele>1230.1999511719</ele>
        <time>2017-04-22T12:12:07.000Z</time>
      </trkpt>
      <trkpt lat="46.82944" lon="6.50769">
        <ele>1230.4000244141</ele>
        <time>2017-04-22T12:12:08.000Z</time>
      </trkpt>
      <trkpt lat="46.82948" lon="6.50763">
        <ele>1231.1999511719</ele>
        <time>2017-04-22T12:12:10.000Z</time>
      </trkpt>
      <trkpt lat="46.82956" lon="6.50752">
        <ele>1232.4000244141</ele>
        <time>2017-04-22T12:12:14.000Z</time>
      </trkpt>
      <trkpt lat="46.82964" lon="6.50748">
        <ele>1233.4000244141</ele>
        <time>2017-04-22T12:12:17.000Z</time>
      </trkpt>
      <trkpt lat="46.82966" lon="6.50747">
        <ele>1233.5999755859</ele>
        <time>2017-04-22T12:12:18.000Z</time>
      </trkpt>
      <trkpt lat="46.82972" lon="6.50745">
        <ele>1234.4000244141</ele>
        <time>2017-04-22T12:12:20.000Z</time>
      </trkpt>
      <trkpt lat="46.82978" lon="6.50743">
        <ele>1234.8000488281</ele>
        <time>2017-04-22T12:12:22.000Z</time>
      </trkpt>
      <trkpt lat="46.82994" lon="6.50738">
        <ele>1235.8000488281</ele>
        <time>2017-04-22T12:12:27.000Z</time>
      </trkpt>
      <trkpt lat="46.83" lon="6.50736">
        <ele>1237</ele>
        <time>2017-04-22T12:12:29.000Z</time>
      </trkpt>
      <trkpt lat="46.83009" lon="6.50733">
        <ele>1238.1999511719</ele>
        <time>2017-04-22T12:12:32.000Z</time>
      </trkpt>
      <trkpt lat="46.83021" lon="6.50729">
        <ele>1239.4000244141</ele>
        <time>2017-04-22T12:12:36.000Z</time>
      </trkpt>
      <trkpt lat="46.83032" lon="6.50726">
        <ele>1240.1999511719</ele>
        <time>2017-04-22T12:12:39.000Z</time>
      </trkpt>
      <trkpt lat="46.83036" lon="6.50724">
        <ele>1240.5999755859</ele>
        <time>2017-04-22T12:12:40.000Z</time>
      </trkpt>
      <trkpt lat="46.83051" lon="6.5072">
        <ele>1241.8000488281</ele>
        <time>2017-04-22T12:12:44.000Z</time>
      </trkpt>
      <trkpt lat="46.83062" lon="6.50717">
        <ele>1242.4000244141</ele>
        <time>2017-04-22T12:12:47.000Z</time>
      </trkpt>
      <trkpt lat="46.8307" lon="6.50714">
        <ele>1243</ele>
        <time>2017-04-22T12:12:49.000Z</time>
      </trkpt>
      <trkpt lat="46.83089" lon="6.50708">
        <ele>1244</ele>
        <time>2017-04-22T12:12:54.000Z</time>
      </trkpt>
      <trkpt lat="46.83093" lon="6.50707">
        <ele>1244.1999511719</ele>
        <time>2017-04-22T12:12:55.000Z</time>
      </trkpt>
      <trkpt lat="46.83102" lon="6.50705">
        <ele>1245.4000244141</ele>
        <time>2017-04-22T12:12:58.000Z</time>
      </trkpt>
      <trkpt lat="46.83112" lon="6.50703">
        <ele>1246.4000244141</ele>
        <time>2017-04-22T12:13:01.000Z</time>
      </trkpt>
      <trkpt lat="46.8312" lon="6.50702">
        <ele>1247.5999755859</ele>
        <time>2017-04-22T12:13:04.000Z</time>
      </trkpt>
      <trkpt lat="46.83125" lon="6.507">
        <ele>1248.5999755859</ele>
        <time>2017-04-22T12:13:06.000Z</time>
      </trkpt>
      <trkpt lat="46.83128" lon="6.507">
        <ele>1249</ele>
        <time>2017-04-22T12:13:07.000Z</time>
      </trkpt>
      <trkpt lat="46.83135" lon="6.507">
        <ele>1249.8000488281</ele>
        <time>2017-04-22T12:13:09.000Z</time>
      </trkpt>
      <trkpt lat="46.83142" lon="6.507">
        <ele>1250.8000488281</ele>
        <time>2017-04-22T12:13:11.000Z</time>
      </trkpt>
      <trkpt lat="46.83153" lon="6.50701">
        <ele>1251.5999755859</ele>
        <time>2017-04-22T12:13:14.000Z</time>
      </trkpt>
      <trkpt lat="46.83162" lon="6.50703">
        <ele>1251.8000488281</ele>
        <time>2017-04-22T12:13:16.000Z</time>
      </trkpt>
      <trkpt lat="46.83177" lon="6.50703">
        <ele>1252</ele>
        <time>2017-04-22T12:13:19.000Z</time>
      </trkpt>
      <trkpt lat="46.83204" lon="6.50709">
        <ele>1251.5999755859</ele>
        <time>2017-04-22T12:13:25.000Z</time>
      </trkpt>
      <trkpt lat="46.83244" lon="6.5072">
        <ele>1250.5999755859</ele>
        <time>2017-04-22T12:13:32.000Z</time>
      </trkpt>
      <trkpt lat="46.8325" lon="6.50722">
        <ele>1250.4000244141</ele>
        <time>2017-04-22T12:13:33.000Z</time>
      </trkpt>
      <trkpt lat="46.83266" lon="6.50726">
        <ele>1250</ele>
        <time>2017-04-22T12:13:36.000Z</time>
      </trkpt>
      <trkpt lat="46.83277" lon="6.50727">
        <ele>1249.8000488281</ele>
        <time>2017-04-22T12:13:38.000Z</time>
      </trkpt>
      <trkpt lat="46.83289" lon="6.5073">
        <ele>1249.4000244141</ele>
        <time>2017-04-22T12:13:40.000Z</time>
      </trkpt>
      <trkpt lat="46.8331" lon="6.50739">
        <ele>1248.8000488281</ele>
        <time>2017-04-22T12:13:44.000Z</time>
      </trkpt>
      <trkpt lat="46.83314" lon="6.50741">
        <ele>1248.8000488281</ele>
        <time>2017-04-22T12:13:45.000Z</time>
      </trkpt>
      <trkpt lat="46.83324" lon="6.50746">
        <ele>1248.8000488281</ele>
        <time>2017-04-22T12:13:47.000Z</time>
      </trkpt>
      <trkpt lat="46.83334" lon="6.50751">
        <ele>1249</ele>
        <time>2017-04-22T12:13:49.000Z</time>
      </trkpt>
      <trkpt lat="46.83349" lon="6.50756">
        <ele>1249</ele>
        <time>2017-04-22T12:13:52.000Z</time>
      </trkpt>
      <trkpt lat="46.83365" lon="6.50758">
        <ele>1249.5999755859</ele>
        <time>2017-04-22T12:13:55.000Z</time>
      </trkpt>
      <trkpt lat="46.83391" lon="6.50761">
        <ele>1249.5999755859</ele>
        <time>2017-04-22T12:14:00.000Z</time>
      </trkpt>
      <trkpt lat="46.83418" lon="6.50762">
        <ele>1248.4000244141</ele>
        <time>2017-04-22T12:14:04.000Z</time>
      </trkpt>
      <trkpt lat="46.83424" lon="6.50763">
        <ele>1248.1999511719</ele>
        <time>2017-04-22T12:14:05.000Z</time>
      </trkpt>
      <trkpt lat="46.83437" lon="6.50767">
        <ele>1248</ele>
        <time>2017-04-22T12:14:07.000Z</time>
      </trkpt>
      <trkpt lat="46.83448" lon="6.50772">
        <ele>1247.8000488281</ele>
        <time>2017-04-22T12:14:09.000Z</time>
      </trkpt>
      <trkpt lat="46.83453" lon="6.50775">
        <ele>1247.5999755859</ele>
        <time>2017-04-22T12:14:10.000Z</time>
      </trkpt>
      <trkpt lat="46.83491" lon="6.50794">
        <ele>1247.8000488281</ele>
        <time>2017-04-22T12:14:17.000Z</time>
      </trkpt>
      <trkpt lat="46.8353" lon="6.5081">
        <ele>1248.5999755859</ele>
        <time>2017-04-22T12:14:24.000Z</time>
      </trkpt>
      <trkpt lat="46.8355" lon="6.5082">
        <ele>1249</ele>
        <time>2017-04-22T12:14:28.000Z</time>
      </trkpt>
      <trkpt lat="46.83556" lon="6.50821">
        <ele>1249</ele>
        <time>2017-04-22T12:14:29.000Z</time>
      </trkpt>
      <trkpt lat="46.83561" lon="6.50821">
        <ele>1249</ele>
        <time>2017-04-22T12:14:30.000Z</time>
      </trkpt>
      <trkpt lat="46.83578" lon="6.50823">
        <ele>1249</ele>
        <time>2017-04-22T12:14:33.000Z</time>
      </trkpt>
      <trkpt lat="46.83584" lon="6.50823">
        <ele>1249</ele>
        <time>2017-04-22T12:14:34.000Z</time>
      </trkpt>
      <trkpt lat="46.83635" lon="6.5083">
        <ele>1248.8000488281</ele>
        <time>2017-04-22T12:14:43.000Z</time>
      </trkpt>
      <trkpt lat="46.83664" lon="6.50836">
        <ele>1249</ele>
        <time>2017-04-22T12:14:49.000Z</time>
      </trkpt>
      <trkpt lat="46.83693" lon="6.50843">
        <ele>1249.5999755859</ele>
        <time>2017-04-22T12:14:55.000Z</time>
      </trkpt>
      <trkpt lat="46.83701" lon="6.50844">
        <ele>1249.4000244141</ele>
        <time>2017-04-22T12:14:57.000Z</time>
      </trkpt>
      <trkpt lat="46.83723" lon="6.50845">
        <ele>1249.8000488281</ele>
        <time>2017-04-22T12:15:02.000Z</time>
      </trkpt>
      <trkpt lat="46.83727" lon="6.50845">
        <ele>1250</ele>
        <time>2017-04-22T12:15:03.000Z</time>
      </trkpt>
      <trkpt lat="46.83731" lon="6.50845">
        <ele>1250.1999511719</ele>
        <time>2017-04-22T12:15:04.000Z</time>
      </trkpt>
      <trkpt lat="46.8374" lon="6.50844">
        <ele>1251</ele>
        <time>2017-04-22T12:15:06.000Z</time>
      </trkpt>
      <trkpt lat="46.83744" lon="6.50843">
        <ele>1251.4000244141</ele>
        <time>2017-04-22T12:15:07.000Z</time>
      </trkpt>
      <trkpt lat="46.83758" lon="6.50844">
        <ele>1252.4000244141</ele>
        <time>2017-04-22T12:15:10.000Z</time>
      </trkpt>
      <trkpt lat="46.83763" lon="6.50844">
        <ele>1252.5999755859</ele>
        <time>2017-04-22T12:15:11.000Z</time>
      </trkpt>
      <trkpt lat="46.83794" lon="6.50845">
        <ele>1253</ele>
        <time>2017-04-22T12:15:17.000Z</time>
      </trkpt>
      <trkpt lat="46.8382" lon="6.50847">
        <ele>1253.4000244141</ele>
        <time>2017-04-22T12:15:22.000Z</time>
      </trkpt>
      <trkpt lat="46.83828" lon="6.50852">
        <ele>1253.8000488281</ele>
        <time>2017-04-22T12:15:24.000Z</time>
      </trkpt>
      <trkpt lat="46.83838" lon="6.50861">
        <ele>1255</ele>
        <time>2017-04-22T12:15:27.000Z</time>
      </trkpt>
      <trkpt lat="46.8385" lon="6.5087">
        <ele>1256.4000244141</ele>
        <time>2017-04-22T12:15:31.000Z</time>
      </trkpt>
      <trkpt lat="46.83859" lon="6.50874">
        <ele>1257.8000488281</ele>
        <time>2017-04-22T12:15:34.000Z</time>
      </trkpt>
      <trkpt lat="46.83868" lon="6.50877">
        <ele>1258.8000488281</ele>
        <time>2017-04-22T12:15:37.000Z</time>
      </trkpt>
      <trkpt lat="46.8388" lon="6.50881">
        <ele>1260</ele>
        <time>2017-04-22T12:15:41.000Z</time>
      </trkpt>
      <trkpt lat="46.83883" lon="6.50881">
        <ele>1260.1999511719</ele>
        <time>2017-04-22T12:15:42.000Z</time>
      </trkpt>
      <trkpt lat="46.83895" lon="6.50886">
        <ele>1261.4000244141</ele>
        <time>2017-04-22T12:15:46.000Z</time>
      </trkpt>
      <trkpt lat="46.83906" lon="6.5089">
        <ele>1262.8000488281</ele>
        <time>2017-04-22T12:15:50.000Z</time>
      </trkpt>
      <trkpt lat="46.83912" lon="6.50892">
        <ele>1263.1999511719</ele>
        <time>2017-04-22T12:15:52.000Z</time>
      </trkpt>
      <trkpt lat="46.83919" lon="6.50897">
        <ele>1263.8000488281</ele>
        <time>2017-04-22T12:15:55.000Z</time>
      </trkpt>
      <trkpt lat="46.83931" lon="6.50902">
        <ele>1264.4000244141</ele>
        <time>2017-04-22T12:15:59.000Z</time>
      </trkpt>
      <trkpt lat="46.8394" lon="6.50906">
        <ele>1265</ele>
        <time>2017-04-22T12:16:02.000Z</time>
      </trkpt>
      <trkpt lat="46.83959" lon="6.50909">
        <ele>1265.8000488281</ele>
        <time>2017-04-22T12:16:08.000Z</time>
      </trkpt>
      <trkpt lat="46.83962" lon="6.50909">
        <ele>1266</ele>
        <time>2017-04-22T12:16:09.000Z</time>
      </trkpt>
      <trkpt lat="46.83974" lon="6.50907">
        <ele>1267.1999511719</ele>
        <time>2017-04-22T12:16:13.000Z</time>
      </trkpt>
      <trkpt lat="46.8398" lon="6.50906">
        <ele>1267.5999755859</ele>
        <time>2017-04-22T12:16:15.000Z</time>
      </trkpt>
      <trkpt lat="46.83997" lon="6.50903">
        <ele>1268.1999511719</ele>
        <time>2017-04-22T12:16:20.000Z</time>
      </trkpt>
      <trkpt lat="46.84001" lon="6.50902">
        <ele>1268.4000244141</ele>
        <time>2017-04-22T12:16:21.000Z</time>
      </trkpt>
      <trkpt lat="46.84009" lon="6.509">
        <ele>1268.5999755859</ele>
        <time>2017-04-22T12:16:23.000Z</time>
      </trkpt>
      <trkpt lat="46.84026" lon="6.50897">
        <ele>1268.1999511719</ele>
        <time>2017-04-22T12:16:28.000Z</time>
      </trkpt>
      <trkpt lat="46.84051" lon="6.50905">
        <ele>1268</ele>
        <time>2017-04-22T12:16:34.000Z</time>
      </trkpt>
      <trkpt lat="46.84081" lon="6.50916">
        <ele>1268.1999511719</ele>
        <time>2017-04-22T12:16:41.000Z</time>
      </trkpt>
      <trkpt lat="46.84105" lon="6.50925">
        <ele>1268.8000488281</ele>
        <time>2017-04-22T12:16:48.000Z</time>
      </trkpt>
      <trkpt lat="46.84111" lon="6.50928">
        <ele>1269.1999511719</ele>
        <time>2017-04-22T12:16:50.000Z</time>
      </trkpt>
      <trkpt lat="46.8412" lon="6.50936">
        <ele>1269.8000488281</ele>
        <time>2017-04-22T12:16:53.000Z</time>
      </trkpt>
      <trkpt lat="46.84132" lon="6.5095">
        <ele>1270.5999755859</ele>
        <time>2017-04-22T12:16:58.000Z</time>
      </trkpt>
      <trkpt lat="46.84139" lon="6.50956">
        <ele>1271.8000488281</ele>
        <time>2017-04-22T12:17:02.000Z</time>
      </trkpt>
      <trkpt lat="46.8414" lon="6.50958">
        <ele>1272.1999511719</ele>
        <time>2017-04-22T12:17:03.000Z</time>
      </trkpt>
      <trkpt lat="46.84145" lon="6.50962">
        <ele>1273.1999511719</ele>
        <time>2017-04-22T12:17:06.000Z</time>
      </trkpt>
      <trkpt lat="46.84148" lon="6.50965">
        <ele>1273.8000488281</ele>
        <time>2017-04-22T12:17:08.000Z</time>
      </trkpt>
      <trkpt lat="46.84152" lon="6.50972">
        <ele>1274.4000244141</ele>
        <time>2017-04-22T12:17:11.000Z</time>
      </trkpt>
      <trkpt lat="46.84155" lon="6.50977">
        <ele>1274.5999755859</ele>
        <time>2017-04-22T12:17:13.000Z</time>
      </trkpt>
      <trkpt lat="46.84169" lon="6.50996">
        <ele>1275.1999511719</ele>
        <time>2017-04-22T12:17:20.000Z</time>
      </trkpt>
      <trkpt lat="46.84172" lon="6.51002">
        <ele>1275.4000244141</ele>
        <time>2017-04-22T12:17:22.000Z</time>
      </trkpt>
      <trkpt lat="46.84177" lon="6.51008">
        <ele>1275.5999755859</ele>
        <time>2017-04-22T12:17:24.000Z</time>
      </trkpt>
      <trkpt lat="46.84183" lon="6.5102">
        <ele>1276.4000244141</ele>
        <time>2017-04-22T12:17:29.000Z</time>
      </trkpt>
      <trkpt lat="46.84184" lon="6.51022">
        <ele>1276.8000488281</ele>
        <time>2017-04-22T12:17:30.000Z</time>
      </trkpt>
      <trkpt lat="46.84187" lon="6.5103">
        <ele>1277.5999755859</ele>
        <time>2017-04-22T12:17:33.000Z</time>
      </trkpt>
      <trkpt lat="46.84188" lon="6.51033">
        <ele>1278</ele>
        <time>2017-04-22T12:17:34.000Z</time>
      </trkpt>
      <trkpt lat="46.84194" lon="6.5104">
        <ele>1279.1999511719</ele>
        <time>2017-04-22T12:17:37.000Z</time>
      </trkpt>
      <trkpt lat="46.84197" lon="6.51046">
        <ele>1280</ele>
        <time>2017-04-22T12:17:39.000Z</time>
      </trkpt>
      <trkpt lat="46.84198" lon="6.51048">
        <ele>1280.1999511719</ele>
        <time>2017-04-22T12:17:40.000Z</time>
      </trkpt>
      <trkpt lat="46.84205" lon="6.51059">
        <ele>1281</ele>
        <time>2017-04-22T12:17:44.000Z</time>
      </trkpt>
      <trkpt lat="46.84216" lon="6.51073">
        <ele>1281</ele>
        <time>2017-04-22T12:17:48.000Z</time>
      </trkpt>
      <trkpt lat="46.84222" lon="6.51084">
        <ele>1279</ele>
        <time>2017-04-22T12:17:52.000Z</time>
      </trkpt>
      <trkpt lat="46.84224" lon="6.51093">
        <ele>1276.8000488281</ele>
        <time>2017-04-22T12:17:54.000Z</time>
      </trkpt>
      <trkpt lat="46.84223" lon="6.511">
        <ele>1275.4000244141</ele>
        <time>2017-04-22T12:17:55.000Z</time>
      </trkpt>
      <trkpt lat="46.84223" lon="6.51108">
        <ele>1274.4000244141</ele>
        <time>2017-04-22T12:17:56.000Z</time>
      </trkpt>
      <trkpt lat="46.84222" lon="6.51116">
        <ele>1273.4000244141</ele>
        <time>2017-04-22T12:17:57.000Z</time>
      </trkpt>
      <trkpt lat="46.8422" lon="6.51125">
        <ele>1271.8000488281</ele>
        <time>2017-04-22T12:17:59.000Z</time>
      </trkpt>
      <trkpt lat="46.84217" lon="6.51134">
        <ele>1270.4000244141</ele>
        <time>2017-04-22T12:18:02.000Z</time>
      </trkpt>
      <trkpt lat="46.84215" lon="6.51138">
        <ele>1269.5999755859</ele>
        <time>2017-04-22T12:18:03.000Z</time>
      </trkpt>
      <trkpt lat="46.84213" lon="6.51141">
        <ele>1268.4000244141</ele>
        <time>2017-04-22T12:18:04.000Z</time>
      </trkpt>
      <trkpt lat="46.84209" lon="6.51149">
        <ele>1266.5999755859</ele>
        <time>2017-04-22T12:18:06.000Z</time>
      </trkpt>
      <trkpt lat="46.84208" lon="6.51152">
        <ele>1265</ele>
        <time>2017-04-22T12:18:07.000Z</time>
      </trkpt>
      <trkpt lat="46.84205" lon="6.51159">
        <ele>1263</ele>
        <time>2017-04-22T12:18:08.000Z</time>
      </trkpt>
      <trkpt lat="46.84204" lon="6.51162">
        <ele>1261.8000488281</ele>
        <time>2017-04-22T12:18:09.000Z</time>
      </trkpt>
      <trkpt lat="46.84202" lon="6.51167">
        <ele>1260.1999511719</ele>
        <time>2017-04-22T12:18:10.000Z</time>
      </trkpt>
      <trkpt lat="46.84202" lon="6.51168">
        <ele>1259.1999511719</ele>
        <time>2017-04-22T12:18:11.000Z</time>
      </trkpt>
      <trkpt lat="46.842" lon="6.51176">
        <ele>1257.5999755859</ele>
        <time>2017-04-22T12:18:13.000Z</time>
      </trkpt>
      <trkpt lat="46.842" lon="6.51187">
        <ele>1255.4000244141</ele>
        <time>2017-04-22T12:18:15.000Z</time>
      </trkpt>
      <trkpt lat="46.84199" lon="6.51201">
        <ele>1253.5999755859</ele>
        <time>2017-04-22T12:18:17.000Z</time>
      </trkpt>
      <trkpt lat="46.84198" lon="6.51211">
        <ele>1252.8000488281</ele>
        <time>2017-04-22T12:18:18.000Z</time>
      </trkpt>
      <trkpt lat="46.84198" lon="6.51218">
        <ele>1250.8000488281</ele>
        <time>2017-04-22T12:18:19.000Z</time>
      </trkpt>
      <trkpt lat="46.84201" lon="6.51227">
        <ele>1249.4000244141</ele>
        <time>2017-04-22T12:18:21.000Z</time>
      </trkpt>
      <trkpt lat="46.84203" lon="6.51239">
        <ele>1248.1999511719</ele>
        <time>2017-04-22T12:18:23.000Z</time>
      </trkpt>
      <trkpt lat="46.84203" lon="6.51258">
        <ele>1247.4000244141</ele>
        <time>2017-04-22T12:18:25.000Z</time>
      </trkpt>
      <trkpt lat="46.84203" lon="6.51268">
        <ele>1246.8000488281</ele>
        <time>2017-04-22T12:18:26.000Z</time>
      </trkpt>
      <trkpt lat="46.84203" lon="6.51277">
        <ele>1244.8000488281</ele>
        <time>2017-04-22T12:18:27.000Z</time>
      </trkpt>
      <trkpt lat="46.84203" lon="6.51287">
        <ele>1243.5999755859</ele>
        <time>2017-04-22T12:18:28.000Z</time>
      </trkpt>
      <trkpt lat="46.84202" lon="6.51297">
        <ele>1243</ele>
        <time>2017-04-22T12:18:29.000Z</time>
      </trkpt>
      <trkpt lat="46.842" lon="6.51306">
        <ele>1242.4000244141</ele>
        <time>2017-04-22T12:18:30.000Z</time>
      </trkpt>
      <trkpt lat="46.84196" lon="6.51326">
        <ele>1240.8000488281</ele>
        <time>2017-04-22T12:18:32.000Z</time>
      </trkpt>
      <trkpt lat="46.84196" lon="6.51338">
        <ele>1239.8000488281</ele>
        <time>2017-04-22T12:18:33.000Z</time>
      </trkpt>
      <trkpt lat="46.84195" lon="6.5135">
        <ele>1239.1999511719</ele>
        <time>2017-04-22T12:18:34.000Z</time>
      </trkpt>
      <trkpt lat="46.84195" lon="6.51362">
        <ele>1237.5999755859</ele>
        <time>2017-04-22T12:18:35.000Z</time>
      </trkpt>
      <trkpt lat="46.84194" lon="6.51387">
        <ele>1236.1999511719</ele>
        <time>2017-04-22T12:18:37.000Z</time>
      </trkpt>
      <trkpt lat="46.84193" lon="6.514">
        <ele>1235.4000244141</ele>
        <time>2017-04-22T12:18:38.000Z</time>
      </trkpt>
      <trkpt lat="46.8419" lon="6.51413">
        <ele>1234.1999511719</ele>
        <time>2017-04-22T12:18:39.000Z</time>
      </trkpt>
      <trkpt lat="46.84189" lon="6.51423">
        <ele>1232.5999755859</ele>
        <time>2017-04-22T12:18:40.000Z</time>
      </trkpt>
      <trkpt lat="46.84189" lon="6.51441">
        <ele>1230.1999511719</ele>
        <time>2017-04-22T12:18:42.000Z</time>
      </trkpt>
      <trkpt lat="46.8419" lon="6.51451">
        <ele>1228.8000488281</ele>
        <time>2017-04-22T12:18:43.000Z</time>
      </trkpt>
      <trkpt lat="46.84191" lon="6.5146">
        <ele>1227.1999511719</ele>
        <time>2017-04-22T12:18:44.000Z</time>
      </trkpt>
      <trkpt lat="46.8419" lon="6.51472">
        <ele>1226</ele>
        <time>2017-04-22T12:18:45.000Z</time>
      </trkpt>
      <trkpt lat="46.84189" lon="6.51484">
        <ele>1225.1999511719</ele>
        <time>2017-04-22T12:18:46.000Z</time>
      </trkpt>
      <trkpt lat="46.84186" lon="6.51496">
        <ele>1224</ele>
        <time>2017-04-22T12:18:47.000Z</time>
      </trkpt>
      <trkpt lat="46.84184" lon="6.51507">
        <ele>1222.4000244141</ele>
        <time>2017-04-22T12:18:48.000Z</time>
      </trkpt>
      <trkpt lat="46.84182" lon="6.51517">
        <ele>1221.1999511719</ele>
        <time>2017-04-22T12:18:49.000Z</time>
      </trkpt>
      <trkpt lat="46.84177" lon="6.51534">
        <ele>1219</ele>
        <time>2017-04-22T12:18:51.000Z</time>
      </trkpt>
      <trkpt lat="46.84172" lon="6.51546">
        <ele>1217.5999755859</ele>
        <time>2017-04-22T12:18:52.000Z</time>
      </trkpt>
      <trkpt lat="46.84162" lon="6.51571">
        <ele>1216.1999511719</ele>
        <time>2017-04-22T12:18:54.000Z</time>
      </trkpt>
      <trkpt lat="46.8416" lon="6.51581">
        <ele>1215.5999755859</ele>
        <time>2017-04-22T12:18:55.000Z</time>
      </trkpt>
      <trkpt lat="46.84159" lon="6.51599">
        <ele>1215.4000244141</ele>
        <time>2017-04-22T12:18:58.000Z</time>
      </trkpt>
      <trkpt lat="46.84159" lon="6.51619">
        <ele>1217.1999511719</ele>
        <time>2017-04-22T12:19:02.000Z</time>
      </trkpt>
      <trkpt lat="46.84159" lon="6.51631">
        <ele>1218.5999755859</ele>
        <time>2017-04-22T12:19:05.000Z</time>
      </trkpt>
      <trkpt lat="46.84161" lon="6.51645">
        <ele>1220.1999511719</ele>
        <time>2017-04-22T12:19:08.000Z</time>
      </trkpt>
      <trkpt lat="46.84164" lon="6.51653">
        <ele>1221.5999755859</ele>
        <time>2017-04-22T12:19:10.000Z</time>
      </trkpt>
      <trkpt lat="46.84166" lon="6.5166">
        <ele>1222.5999755859</ele>
        <time>2017-04-22T12:19:12.000Z</time>
      </trkpt>
      <trkpt lat="46.84169" lon="6.51667">
        <ele>1223.4000244141</ele>
        <time>2017-04-22T12:19:14.000Z</time>
      </trkpt>
      <trkpt lat="46.84169" lon="6.5167">
        <ele>1224.1999511719</ele>
        <time>2017-04-22T12:19:15.000Z</time>
      </trkpt>
      <trkpt lat="46.8417" lon="6.51675">
        <ele>1224.5999755859</ele>
        <time>2017-04-22T12:19:16.000Z</time>
      </trkpt>
      <trkpt lat="46.8417" lon="6.51678">
        <ele>1225.1999511719</ele>
        <time>2017-04-22T12:19:17.000Z</time>
      </trkpt>
      <trkpt lat="46.84168" lon="6.51684">
        <ele>1226</ele>
        <time>2017-04-22T12:19:19.000Z</time>
      </trkpt>
      <trkpt lat="46.84167" lon="6.51686">
        <ele>1226.4000244141</ele>
        <time>2017-04-22T12:19:20.000Z</time>
      </trkpt>
      <trkpt lat="46.84163" lon="6.5169">
        <ele>1227.4000244141</ele>
        <time>2017-04-22T12:19:23.000Z</time>
      </trkpt>
      <trkpt lat="46.84161" lon="6.51691">
        <ele>1227.8000488281</ele>
        <time>2017-04-22T12:19:25.000Z</time>
      </trkpt>
      <trkpt lat="46.84158" lon="6.51695">
        <ele>1228.5999755859</ele>
        <time>2017-04-22T12:19:28.000Z</time>
      </trkpt>
      <trkpt lat="46.84152" lon="6.51698">
        <ele>1229.5999755859</ele>
        <time>2017-04-22T12:19:31.000Z</time>
      </trkpt>
      <trkpt lat="46.84151" lon="6.517">
        <ele>1229.8000488281</ele>
        <time>2017-04-22T12:19:32.000Z</time>
      </trkpt>
      <trkpt lat="46.84144" lon="6.51707">
        <ele>1230.5999755859</ele>
        <time>2017-04-22T12:19:36.000Z</time>
      </trkpt>
      <trkpt lat="46.84142" lon="6.51708">
        <ele>1230.5999755859</ele>
        <time>2017-04-22T12:19:37.000Z</time>
      </trkpt>
      <trkpt lat="46.8413" lon="6.51717">
        <ele>1231.5999755859</ele>
        <time>2017-04-22T12:19:42.000Z</time>
      </trkpt>
      <trkpt lat="46.84127" lon="6.51719">
        <ele>1231.8000488281</ele>
        <time>2017-04-22T12:19:43.000Z</time>
      </trkpt>
      <trkpt lat="46.84121" lon="6.51721">
        <ele>1232.8000488281</ele>
        <time>2017-04-22T12:19:46.000Z</time>
      </trkpt>
      <trkpt lat="46.84117" lon="6.51723">
        <ele>1233.1999511719</ele>
        <time>2017-04-22T12:19:48.000Z</time>
      </trkpt>
      <trkpt lat="46.84106" lon="6.51726">
        <ele>1234</ele>
        <time>2017-04-22T12:19:53.000Z</time>
      </trkpt>
      <trkpt lat="46.84096" lon="6.51727">
        <ele>1234.5999755859</ele>
        <time>2017-04-22T12:19:58.000Z</time>
      </trkpt>
      <trkpt lat="46.8409" lon="6.51728">
        <ele>1235</ele>
        <time>2017-04-22T12:20:00.000Z</time>
      </trkpt>
      <trkpt lat="46.84083" lon="6.51728">
        <ele>1235.1999511719</ele>
        <time>2017-04-22T12:20:02.000Z</time>
      </trkpt>
      <trkpt lat="46.84075" lon="6.51732">
        <ele>1236.1999511719</ele>
        <time>2017-04-22T12:20:05.000Z</time>
      </trkpt>
      <trkpt lat="46.84068" lon="6.51733">
        <ele>1236.8000488281</ele>
        <time>2017-04-22T12:20:07.000Z</time>
      </trkpt>
      <trkpt lat="46.84059" lon="6.51735">
        <ele>1237.5999755859</ele>
        <time>2017-04-22T12:20:11.000Z</time>
      </trkpt>
      <trkpt lat="46.84054" lon="6.51737">
        <ele>1238</ele>
        <time>2017-04-22T12:20:13.000Z</time>
      </trkpt>
      <trkpt lat="46.84046" lon="6.5174">
        <ele>1239</ele>
        <time>2017-04-22T12:20:16.000Z</time>
      </trkpt>
      <trkpt lat="46.84036" lon="6.51741">
        <ele>1240.4000244141</ele>
        <time>2017-04-22T12:20:19.000Z</time>
      </trkpt>
      <trkpt lat="46.84024" lon="6.51743">
        <ele>1241.4000244141</ele>
        <time>2017-04-22T12:20:23.000Z</time>
      </trkpt>
      <trkpt lat="46.84019" lon="6.51744">
        <ele>1241.8000488281</ele>
        <time>2017-04-22T12:20:25.000Z</time>
      </trkpt>
      <trkpt lat="46.8401" lon="6.51747">
        <ele>1242.5999755859</ele>
        <time>2017-04-22T12:20:28.000Z</time>
      </trkpt>
      <trkpt lat="46.84002" lon="6.51746">
        <ele>1243.4000244141</ele>
        <time>2017-04-22T12:20:31.000Z</time>
      </trkpt>
      <trkpt lat="46.83999" lon="6.51747">
        <ele>1243.5999755859</ele>
        <time>2017-04-22T12:20:32.000Z</time>
      </trkpt>
      <trkpt lat="46.83989" lon="6.5175">
        <ele>1245</ele>
        <time>2017-04-22T12:20:36.000Z</time>
      </trkpt>
      <trkpt lat="46.83977" lon="6.51753">
        <ele>1246.1999511719</ele>
        <time>2017-04-22T12:20:40.000Z</time>
      </trkpt>
      <trkpt lat="46.83975" lon="6.51753">
        <ele>1246.4000244141</ele>
        <time>2017-04-22T12:20:41.000Z</time>
      </trkpt>
      <trkpt lat="46.83969" lon="6.51751">
        <ele>1247.4000244141</ele>
        <time>2017-04-22T12:20:44.000Z</time>
      </trkpt>
      <trkpt lat="46.83966" lon="6.51749">
        <ele>1248</ele>
        <time>2017-04-22T12:20:46.000Z</time>
      </trkpt>
      <trkpt lat="46.83963" lon="6.51749">
        <ele>1248.4000244141</ele>
        <time>2017-04-22T12:20:47.000Z</time>
      </trkpt>
      <trkpt lat="46.83956" lon="6.51746">
        <ele>1249.8000488281</ele>
        <time>2017-04-22T12:20:51.000Z</time>
      </trkpt>
      <trkpt lat="46.83948" lon="6.51744">
        <ele>1250.8000488281</ele>
        <time>2017-04-22T12:20:54.000Z</time>
      </trkpt>
      <trkpt lat="46.83937" lon="6.51742">
        <ele>1252.1999511719</ele>
        <time>2017-04-22T12:20:58.000Z</time>
      </trkpt>
      <trkpt lat="46.83926" lon="6.51741">
        <ele>1253.4000244141</ele>
        <time>2017-04-22T12:21:02.000Z</time>
      </trkpt>
      <trkpt lat="46.8391" lon="6.51741">
        <ele>1254.5999755859</ele>
        <time>2017-04-22T12:21:06.000Z</time>
      </trkpt>
      <trkpt lat="46.83904" lon="6.51741">
        <ele>1255.1999511719</ele>
        <time>2017-04-22T12:21:08.000Z</time>
      </trkpt>
      <trkpt lat="46.83895" lon="6.5174">
        <ele>1256</ele>
        <time>2017-04-22T12:21:11.000Z</time>
      </trkpt>
      <trkpt lat="46.8389" lon="6.51739">
        <ele>1256.8000488281</ele>
        <time>2017-04-22T12:21:13.000Z</time>
      </trkpt>
      <trkpt lat="46.83886" lon="6.51738">
        <ele>1257.1999511719</ele>
        <time>2017-04-22T12:21:14.000Z</time>
      </trkpt>
      <trkpt lat="46.83875" lon="6.51735">
        <ele>1258.4000244141</ele>
        <time>2017-04-22T12:21:18.000Z</time>
      </trkpt>
      <trkpt lat="46.83872" lon="6.51735">
        <ele>1258.8000488281</ele>
        <time>2017-04-22T12:21:19.000Z</time>
      </trkpt>
      <trkpt lat="46.8387" lon="6.51739">
        <ele>1259.4000244141</ele>
        <time>2017-04-22T12:21:21.000Z</time>
      </trkpt>
      <trkpt lat="46.83871" lon="6.51742">
        <ele>1259.1999511719</ele>
        <time>2017-04-22T12:21:22.000Z</time>
      </trkpt>
      <trkpt lat="46.83876" lon="6.51746">
        <ele>1259.5999755859</ele>
        <time>2017-04-22T12:21:24.000Z</time>
      </trkpt>
      <trkpt lat="46.83893" lon="6.51764">
        <ele>1260</ele>
        <time>2017-04-22T12:21:30.000Z</time>
      </trkpt>
      <trkpt lat="46.83899" lon="6.51769">
        <ele>1260.4000244141</ele>
        <time>2017-04-22T12:21:32.000Z</time>
      </trkpt>
      <trkpt lat="46.83913" lon="6.5178">
        <ele>1261.1999511719</ele>
        <time>2017-04-22T12:21:36.000Z</time>
      </trkpt>
      <trkpt lat="46.8392" lon="6.51785">
        <ele>1261.4000244141</ele>
        <time>2017-04-22T12:21:38.000Z</time>
      </trkpt>
      <trkpt lat="46.83934" lon="6.51797">
        <ele>1261.5999755859</ele>
        <time>2017-04-22T12:21:42.000Z</time>
      </trkpt>
      <trkpt lat="46.83953" lon="6.51814">
        <ele>1262.5999755859</ele>
        <time>2017-04-22T12:21:48.000Z</time>
      </trkpt>
      <trkpt lat="46.83956" lon="6.51817">
        <ele>1262.8000488281</ele>
        <time>2017-04-22T12:21:49.000Z</time>
      </trkpt>
      <trkpt lat="46.83961" lon="6.51822">
        <ele>1263.5999755859</ele>
        <time>2017-04-22T12:21:51.000Z</time>
      </trkpt>
      <trkpt lat="46.8397" lon="6.51831">
        <ele>1264.8000488281</ele>
        <time>2017-04-22T12:21:54.000Z</time>
      </trkpt>
      <trkpt lat="46.83982" lon="6.5184">
        <ele>1265.8000488281</ele>
        <time>2017-04-22T12:21:58.000Z</time>
      </trkpt>
      <trkpt lat="46.83985" lon="6.51842">
        <ele>1266.1999511719</ele>
        <time>2017-04-22T12:21:59.000Z</time>
      </trkpt>
      <trkpt lat="46.83995" lon="6.51847">
        <ele>1267.4000244141</ele>
        <time>2017-04-22T12:22:02.000Z</time>
      </trkpt>
      <trkpt lat="46.84008" lon="6.51853">
        <ele>1268.4000244141</ele>
        <time>2017-04-22T12:22:06.000Z</time>
      </trkpt>
      <trkpt lat="46.84018" lon="6.51859">
        <ele>1269.4000244141</ele>
        <time>2017-04-22T12:22:09.000Z</time>
      </trkpt>
      <trkpt lat="46.84032" lon="6.51869">
        <ele>1270.5999755859</ele>
        <time>2017-04-22T12:22:14.000Z</time>
      </trkpt>
      <trkpt lat="46.84038" lon="6.51873">
        <ele>1271</ele>
        <time>2017-04-22T12:22:16.000Z</time>
      </trkpt>
      <trkpt lat="46.84048" lon="6.51878">
        <ele>1271.5999755859</ele>
        <time>2017-04-22T12:22:19.000Z</time>
      </trkpt>
      <trkpt lat="46.84054" lon="6.51879">
        <ele>1271.5999755859</ele>
        <time>2017-04-22T12:22:21.000Z</time>
      </trkpt>
      <trkpt lat="46.84061" lon="6.51879">
        <ele>1272.4000244141</ele>
        <time>2017-04-22T12:22:24.000Z</time>
      </trkpt>
      <trkpt lat="46.84067" lon="6.51877">
        <ele>1273.5999755859</ele>
        <time>2017-04-22T12:22:26.000Z</time>
      </trkpt>
      <trkpt lat="46.84073" lon="6.51876">
        <ele>1274.5999755859</ele>
        <time>2017-04-22T12:22:28.000Z</time>
      </trkpt>
      <trkpt lat="46.84084" lon="6.51874">
        <ele>1276</ele>
        <time>2017-04-22T12:22:31.000Z</time>
      </trkpt>
      <trkpt lat="46.84094" lon="6.51875">
        <ele>1277</ele>
        <time>2017-04-22T12:22:34.000Z</time>
      </trkpt>
      <trkpt lat="46.84097" lon="6.51876">
        <ele>1277.4000244141</ele>
        <time>2017-04-22T12:22:35.000Z</time>
      </trkpt>
      <trkpt lat="46.84107" lon="6.51878">
        <ele>1278.4000244141</ele>
        <time>2017-04-22T12:22:38.000Z</time>
      </trkpt>
      <trkpt lat="46.84117" lon="6.51881">
        <ele>1279.4000244141</ele>
        <time>2017-04-22T12:22:41.000Z</time>
      </trkpt>
      <trkpt lat="46.84121" lon="6.51882">
        <ele>1279.5999755859</ele>
        <time>2017-04-22T12:22:42.000Z</time>
      </trkpt>
      <trkpt lat="46.84136" lon="6.51887">
        <ele>1280.5999755859</ele>
        <time>2017-04-22T12:22:47.000Z</time>
      </trkpt>
      <trkpt lat="46.84145" lon="6.51891">
        <ele>1281.8000488281</ele>
        <time>2017-04-22T12:22:50.000Z</time>
      </trkpt>
      <trkpt lat="46.84161" lon="6.51899">
        <ele>1283</ele>
        <time>2017-04-22T12:22:55.000Z</time>
      </trkpt>
      <trkpt lat="46.84169" lon="6.51906">
        <ele>1284</ele>
        <time>2017-04-22T12:22:58.000Z</time>
      </trkpt>
      <trkpt lat="46.84172" lon="6.51909">
        <ele>1284.5999755859</ele>
        <time>2017-04-22T12:22:59.000Z</time>
      </trkpt>
      <trkpt lat="46.84177" lon="6.51914">
        <ele>1285.1999511719</ele>
        <time>2017-04-22T12:23:01.000Z</time>
      </trkpt>
      <trkpt lat="46.84189" lon="6.51929">
        <ele>1286.1999511719</ele>
        <time>2017-04-22T12:23:06.000Z</time>
      </trkpt>
      <trkpt lat="46.84193" lon="6.51936">
        <ele>1286.8000488281</ele>
        <time>2017-04-22T12:23:08.000Z</time>
      </trkpt>
      <trkpt lat="46.84196" lon="6.51944">
        <ele>1287.4000244141</ele>
        <time>2017-04-22T12:23:10.000Z</time>
      </trkpt>
      <trkpt lat="46.84201" lon="6.51961">
        <ele>1288.4000244141</ele>
        <time>2017-04-22T12:23:14.000Z</time>
      </trkpt>
      <trkpt lat="46.84203" lon="6.51969">
        <ele>1289</ele>
        <time>2017-04-22T12:23:16.000Z</time>
      </trkpt>
      <trkpt lat="46.84204" lon="6.51977">
        <ele>1289.5999755859</ele>
        <time>2017-04-22T12:23:18.000Z</time>
      </trkpt>
      <trkpt lat="46.84207" lon="6.51994">
        <ele>1290.5999755859</ele>
        <time>2017-04-22T12:23:22.000Z</time>
      </trkpt>
      <trkpt lat="46.84209" lon="6.51998">
        <ele>1290.8000488281</ele>
        <time>2017-04-22T12:23:23.000Z</time>
      </trkpt>
      <trkpt lat="46.84211" lon="6.52005">
        <ele>1291.4000244141</ele>
        <time>2017-04-22T12:23:25.000Z</time>
      </trkpt>
      <trkpt lat="46.8421" lon="6.52007">
        <ele>1291.5999755859</ele>
        <time>2017-04-22T12:23:26.000Z</time>
      </trkpt>
      <trkpt lat="46.84205" lon="6.52004">
        <ele>1292.5999755859</ele>
        <time>2017-04-22T12:23:29.000Z</time>
      </trkpt>
      <trkpt lat="46.84203" lon="6.52003">
        <ele>1293</ele>
        <time>2017-04-22T12:23:30.000Z</time>
      </trkpt>
      <trkpt lat="46.84198" lon="6.51995">
        <ele>1294</ele>
        <time>2017-04-22T12:23:33.000Z</time>
      </trkpt>
      <trkpt lat="46.84193" lon="6.5199">
        <ele>1294.8000488281</ele>
        <time>2017-04-22T12:23:35.000Z</time>
      </trkpt>
      <trkpt lat="46.84192" lon="6.51988">
        <ele>1295.1999511719</ele>
        <time>2017-04-22T12:23:36.000Z</time>
      </trkpt>
      <trkpt lat="46.84186" lon="6.51982">
        <ele>1296.1999511719</ele>
        <time>2017-04-22T12:23:39.000Z</time>
      </trkpt>
      <trkpt lat="46.84181" lon="6.51979">
        <ele>1297</ele>
        <time>2017-04-22T12:23:41.000Z</time>
      </trkpt>
      <trkpt lat="46.84176" lon="6.51976">
        <ele>1297.5999755859</ele>
        <time>2017-04-22T12:23:43.000Z</time>
      </trkpt>
      <trkpt lat="46.84165" lon="6.51973">
        <ele>1299</ele>
        <time>2017-04-22T12:23:47.000Z</time>
      </trkpt>
      <trkpt lat="46.84163" lon="6.51972">
        <ele>1299</ele>
        <time>2017-04-22T12:23:48.000Z</time>
      </trkpt>
      <trkpt lat="46.84158" lon="6.51969">
        <ele>1300.1999511719</ele>
        <time>2017-04-22T12:23:50.000Z</time>
      </trkpt>
      <trkpt lat="46.8415" lon="6.51965">
        <ele>1301.4000244141</ele>
        <time>2017-04-22T12:23:53.000Z</time>
      </trkpt>
      <trkpt lat="46.84144" lon="6.51965">
        <ele>1302.5999755859</ele>
        <time>2017-04-22T12:23:55.000Z</time>
      </trkpt>
      <trkpt lat="46.8414" lon="6.51968">
        <ele>1303.1999511719</ele>
        <time>2017-04-22T12:23:57.000Z</time>
      </trkpt>
      <trkpt lat="46.84139" lon="6.51971">
        <ele>1303.5999755859</ele>
        <time>2017-04-22T12:23:58.000Z</time>
      </trkpt>
      <trkpt lat="46.8414" lon="6.51974">
        <ele>1304.1999511719</ele>
        <time>2017-04-22T12:23:59.000Z</time>
      </trkpt>
      <trkpt lat="46.84143" lon="6.51979">
        <ele>1305.1999511719</ele>
        <time>2017-04-22T12:24:01.000Z</time>
      </trkpt>
      <trkpt lat="46.84147" lon="6.51984">
        <ele>1306.4000244141</ele>
        <time>2017-04-22T12:24:03.000Z</time>
      </trkpt>
      <trkpt lat="46.84152" lon="6.51989">
        <ele>1307</ele>
        <time>2017-04-22T12:24:05.000Z</time>
      </trkpt>
      <trkpt lat="46.84154" lon="6.51992">
        <ele>1307.5999755859</ele>
        <time>2017-04-22T12:24:06.000Z</time>
      </trkpt>
      <trkpt lat="46.84157" lon="6.51997">
        <ele>1308.1999511719</ele>
        <time>2017-04-22T12:24:08.000Z</time>
      </trkpt>
      <trkpt lat="46.84159" lon="6.52001">
        <ele>1308.5999755859</ele>
        <time>2017-04-22T12:24:09.000Z</time>
      </trkpt>
      <trkpt lat="46.84163" lon="6.52007">
        <ele>1309.5999755859</ele>
        <time>2017-04-22T12:24:11.000Z</time>
      </trkpt>
      <trkpt lat="46.8417" lon="6.52016">
        <ele>1310.8000488281</ele>
        <time>2017-04-22T12:24:14.000Z</time>
      </trkpt>
      <trkpt lat="46.84173" lon="6.52019">
        <ele>1311.1999511719</ele>
        <time>2017-04-22T12:24:15.000Z</time>
      </trkpt>
      <trkpt lat="46.84177" lon="6.52025">
        <ele>1312</ele>
        <time>2017-04-22T12:24:17.000Z</time>
      </trkpt>
      <trkpt lat="46.84182" lon="6.52035">
        <ele>1313.5999755859</ele>
        <time>2017-04-22T12:24:20.000Z</time>
      </trkpt>
      <trkpt lat="46.84189" lon="6.52046">
        <ele>1314.5999755859</ele>
        <time>2017-04-22T12:24:23.000Z</time>
      </trkpt>
      <trkpt lat="46.8419" lon="6.52049">
        <ele>1314.8000488281</ele>
        <time>2017-04-22T12:24:24.000Z</time>
      </trkpt>
      <trkpt lat="46.84198" lon="6.52063">
        <ele>1315.8000488281</ele>
        <time>2017-04-22T12:24:28.000Z</time>
      </trkpt>
      <trkpt lat="46.842" lon="6.52067">
        <ele>1316</ele>
        <time>2017-04-22T12:24:29.000Z</time>
      </trkpt>
      <trkpt lat="46.8421" lon="6.52079">
        <ele>1317</ele>
        <time>2017-04-22T12:24:33.000Z</time>
      </trkpt>
      <trkpt lat="46.84221" lon="6.52089">
        <ele>1317.8000488281</ele>
        <time>2017-04-22T12:24:37.000Z</time>
      </trkpt>
      <trkpt lat="46.84224" lon="6.52092">
        <ele>1318.1999511719</ele>
        <time>2017-04-22T12:24:38.000Z</time>
      </trkpt>
      <trkpt lat="46.84231" lon="6.52101">
        <ele>1319.1999511719</ele>
        <time>2017-04-22T12:24:41.000Z</time>
      </trkpt>
      <trkpt lat="46.84238" lon="6.5211">
        <ele>1320.4000244141</ele>
        <time>2017-04-22T12:24:44.000Z</time>
      </trkpt>
      <trkpt lat="46.84241" lon="6.52113">
        <ele>1320.8000488281</ele>
        <time>2017-04-22T12:24:45.000Z</time>
      </trkpt>
      <trkpt lat="46.84245" lon="6.52118">
        <ele>1321.5999755859</ele>
        <time>2017-04-22T12:24:47.000Z</time>
      </trkpt>
      <trkpt lat="46.8425" lon="6.52126">
        <ele>1323</ele>
        <time>2017-04-22T12:24:50.000Z</time>
      </trkpt>
      <trkpt lat="46.84252" lon="6.52129">
        <ele>1323.4000244141</ele>
        <time>2017-04-22T12:24:51.000Z</time>
      </trkpt>
      <trkpt lat="46.84255" lon="6.52132">
        <ele>1324</ele>
        <time>2017-04-22T12:24:52.000Z</time>
      </trkpt>
      <trkpt lat="46.84259" lon="6.52138">
        <ele>1324.8000488281</ele>
        <time>2017-04-22T12:24:54.000Z</time>
      </trkpt>
      <trkpt lat="46.84268" lon="6.52144">
        <ele>1326.1999511719</ele>
        <time>2017-04-22T12:24:57.000Z</time>
      </trkpt>
      <trkpt lat="46.84273" lon="6.52148">
        <ele>1327.4000244141</ele>
        <time>2017-04-22T12:24:59.000Z</time>
      </trkpt>
      <trkpt lat="46.84277" lon="6.52153">
        <ele>1328.8000488281</ele>
        <time>2017-04-22T12:25:01.000Z</time>
      </trkpt>
      <trkpt lat="46.8428" lon="6.52155">
        <ele>1329.4000244141</ele>
        <time>2017-04-22T12:25:02.000Z</time>
      </trkpt>
      <trkpt lat="46.84282" lon="6.52157">
        <ele>1330</ele>
        <time>2017-04-22T12:25:03.000Z</time>
      </trkpt>
      <trkpt lat="46.8429" lon="6.52163">
        <ele>1331.5999755859</ele>
        <time>2017-04-22T12:25:06.000Z</time>
      </trkpt>
      <trkpt lat="46.84295" lon="6.52166">
        <ele>1333</ele>
        <time>2017-04-22T12:25:08.000Z</time>
      </trkpt>
      <trkpt lat="46.84298" lon="6.52166">
        <ele>1333.5999755859</ele>
        <time>2017-04-22T12:25:09.000Z</time>
      </trkpt>
      <trkpt lat="46.843" lon="6.52163">
        <ele>1334.4000244141</ele>
        <time>2017-04-22T12:25:10.000Z</time>
      </trkpt>
      <trkpt lat="46.84304" lon="6.52157">
        <ele>1335.5999755859</ele>
        <time>2017-04-22T12:25:12.000Z</time>
      </trkpt>
      <trkpt lat="46.84306" lon="6.52154">
        <ele>1336</ele>
        <time>2017-04-22T12:25:13.000Z</time>
      </trkpt>
      <trkpt lat="46.8431" lon="6.52146">
        <ele>1337</ele>
        <time>2017-04-22T12:25:15.000Z</time>
      </trkpt>
      <trkpt lat="46.84318" lon="6.52137">
        <ele>1338.1999511719</ele>
        <time>2017-04-22T12:25:18.000Z</time>
      </trkpt>
      <trkpt lat="46.84321" lon="6.52135">
        <ele>1338.5999755859</ele>
        <time>2017-04-22T12:25:19.000Z</time>
      </trkpt>
      <trkpt lat="46.84331" lon="6.5213">
        <ele>1339.4000244141</ele>
        <time>2017-04-22T12:25:22.000Z</time>
      </trkpt>
      <trkpt lat="46.84341" lon="6.52124">
        <ele>1340.8000488281</ele>
        <time>2017-04-22T12:25:25.000Z</time>
      </trkpt>
      <trkpt lat="46.84345" lon="6.52123">
        <ele>1341.1999511719</ele>
        <time>2017-04-22T12:25:26.000Z</time>
      </trkpt>
      <trkpt lat="46.84352" lon="6.52119">
        <ele>1342</ele>
        <time>2017-04-22T12:25:28.000Z</time>
      </trkpt>
      <trkpt lat="46.84359" lon="6.52115">
        <ele>1343.4000244141</ele>
        <time>2017-04-22T12:25:30.000Z</time>
      </trkpt>
      <trkpt lat="46.84368" lon="6.5211">
        <ele>1344.8000488281</ele>
        <time>2017-04-22T12:25:33.000Z</time>
      </trkpt>
      <trkpt lat="46.84374" lon="6.52107">
        <ele>1346</ele>
        <time>2017-04-22T12:25:35.000Z</time>
      </trkpt>
      <trkpt lat="46.84383" lon="6.52106">
        <ele>1347.5999755859</ele>
        <time>2017-04-22T12:25:38.000Z</time>
      </trkpt>
      <trkpt lat="46.84389" lon="6.52105">
        <ele>1349.1999511719</ele>
        <time>2017-04-22T12:25:40.000Z</time>
      </trkpt>
      <trkpt lat="46.84392" lon="6.52105">
        <ele>1349.8000488281</ele>
        <time>2017-04-22T12:25:41.000Z</time>
      </trkpt>
      <trkpt lat="46.84394" lon="6.52105">
        <ele>1350.1999511719</ele>
        <time>2017-04-22T12:25:42.000Z</time>
      </trkpt>
      <trkpt lat="46.844" lon="6.52106">
        <ele>1351.5999755859</ele>
        <time>2017-04-22T12:25:44.000Z</time>
      </trkpt>
      <trkpt lat="46.84405" lon="6.52111">
        <ele>1352.5999755859</ele>
        <time>2017-04-22T12:25:46.000Z</time>
      </trkpt>
      <trkpt lat="46.84407" lon="6.52114">
        <ele>1353.1999511719</ele>
        <time>2017-04-22T12:25:47.000Z</time>
      </trkpt>
      <trkpt lat="46.84409" lon="6.52117">
        <ele>1354</ele>
        <time>2017-04-22T12:25:48.000Z</time>
      </trkpt>
      <trkpt lat="46.84413" lon="6.52129">
        <ele>1355.1999511719</ele>
        <time>2017-04-22T12:25:51.000Z</time>
      </trkpt>
      <trkpt lat="46.84415" lon="6.52137">
        <ele>1356.4000244141</ele>
        <time>2017-04-22T12:25:53.000Z</time>
      </trkpt>
      <trkpt lat="46.84418" lon="6.52144">
        <ele>1357.5999755859</ele>
        <time>2017-04-22T12:25:55.000Z</time>
      </trkpt>
      <trkpt lat="46.84421" lon="6.52152">
        <ele>1359</ele>
        <time>2017-04-22T12:25:57.000Z</time>
      </trkpt>
      <trkpt lat="46.84426" lon="6.52169">
        <ele>1360.1999511719</ele>
        <time>2017-04-22T12:26:01.000Z</time>
      </trkpt>
      <trkpt lat="46.84432" lon="6.52183">
        <ele>1361.8000488281</ele>
        <time>2017-04-22T12:26:04.000Z</time>
      </trkpt>
      <trkpt lat="46.84437" lon="6.52198">
        <ele>1362.8000488281</ele>
        <time>2017-04-22T12:26:07.000Z</time>
      </trkpt>
      <trkpt lat="46.8444" lon="6.52207">
        <ele>1363.5999755859</ele>
        <time>2017-04-22T12:26:09.000Z</time>
      </trkpt>
      <trkpt lat="46.84441" lon="6.52212">
        <ele>1364.1999511719</ele>
        <time>2017-04-22T12:26:10.000Z</time>
      </trkpt>
      <trkpt lat="46.84449" lon="6.52231">
        <ele>1365.4000244141</ele>
        <time>2017-04-22T12:26:14.000Z</time>
      </trkpt>
      <trkpt lat="46.84453" lon="6.5224">
        <ele>1366.4000244141</ele>
        <time>2017-04-22T12:26:16.000Z</time>
      </trkpt>
      <trkpt lat="46.84453" lon="6.52245">
        <ele>1366.5999755859</ele>
        <time>2017-04-22T12:26:17.000Z</time>
      </trkpt>
      <trkpt lat="46.84449" lon="6.52258">
        <ele>1368</ele>
        <time>2017-04-22T12:26:20.000Z</time>
      </trkpt>
      <trkpt lat="46.84443" lon="6.52262">
        <ele>1369</ele>
        <time>2017-04-22T12:26:22.000Z</time>
      </trkpt>
      <trkpt lat="46.8444" lon="6.52264">
        <ele>1369.5999755859</ele>
        <time>2017-04-22T12:26:23.000Z</time>
      </trkpt>
      <trkpt lat="46.84434" lon="6.52266">
        <ele>1370.4000244141</ele>
        <time>2017-04-22T12:26:25.000Z</time>
      </trkpt>
      <trkpt lat="46.84431" lon="6.52266">
        <ele>1370.8000488281</ele>
        <time>2017-04-22T12:26:26.000Z</time>
      </trkpt>
      <trkpt lat="46.84425" lon="6.52267">
        <ele>1371.8000488281</ele>
        <time>2017-04-22T12:26:28.000Z</time>
      </trkpt>
      <trkpt lat="46.84415" lon="6.52268">
        <ele>1373</ele>
        <time>2017-04-22T12:26:31.000Z</time>
      </trkpt>
      <trkpt lat="46.84403" lon="6.52269">
        <ele>1373.8000488281</ele>
        <time>2017-04-22T12:26:34.000Z</time>
      </trkpt>
      <trkpt lat="46.84395" lon="6.5227">
        <ele>1375</ele>
        <time>2017-04-22T12:26:36.000Z</time>
      </trkpt>
      <trkpt lat="46.8438" lon="6.52272">
        <ele>1376</ele>
        <time>2017-04-22T12:26:40.000Z</time>
      </trkpt>
      <trkpt lat="46.84376" lon="6.52272">
        <ele>1376.4000244141</ele>
        <time>2017-04-22T12:26:41.000Z</time>
      </trkpt>
      <trkpt lat="46.84367" lon="6.52275">
        <ele>1377.1999511719</ele>
        <time>2017-04-22T12:26:43.000Z</time>
      </trkpt>
      <trkpt lat="46.84362" lon="6.52278">
        <ele>1377.1999511719</ele>
        <time>2017-04-22T12:26:44.000Z</time>
      </trkpt>
      <trkpt lat="46.84345" lon="6.52287">
        <ele>1377.5999755859</ele>
        <time>2017-04-22T12:26:47.000Z</time>
      </trkpt>
      <trkpt lat="46.84322" lon="6.52287">
        <ele>1377.8000488281</ele>
        <time>2017-04-22T12:26:51.000Z</time>
      </trkpt>
      <trkpt lat="46.84311" lon="6.52284">
        <ele>1378.4000244141</ele>
        <time>2017-04-22T12:26:53.000Z</time>
      </trkpt>
      <trkpt lat="46.84293" lon="6.52282">
        <ele>1377.1999511719</ele>
        <time>2017-04-22T12:26:56.000Z</time>
      </trkpt>
      <trkpt lat="46.84269" lon="6.52273">
        <ele>1376.1999511719</ele>
        <time>2017-04-22T12:27:00.000Z</time>
      </trkpt>
      <trkpt lat="46.84263" lon="6.52269">
        <ele>1375.8000488281</ele>
        <time>2017-04-22T12:27:01.000Z</time>
      </trkpt>
      <trkpt lat="46.84259" lon="6.52265">
        <ele>1375.4000244141</ele>
        <time>2017-04-22T12:27:02.000Z</time>
      </trkpt>
      <trkpt lat="46.84249" lon="6.52259">
        <ele>1374.5999755859</ele>
        <time>2017-04-22T12:27:04.000Z</time>
      </trkpt>
      <trkpt lat="46.84239" lon="6.52255">
        <ele>1373.4000244141</ele>
        <time>2017-04-22T12:27:06.000Z</time>
      </trkpt>
      <trkpt lat="46.84229" lon="6.52249">
        <ele>1372.8000488281</ele>
        <time>2017-04-22T12:27:08.000Z</time>
      </trkpt>
      <trkpt lat="46.84225" lon="6.52246">
        <ele>1373</ele>
        <time>2017-04-22T12:27:09.000Z</time>
      </trkpt>
      <trkpt lat="46.84213" lon="6.52238">
        <ele>1373.8000488281</ele>
        <time>2017-04-22T12:27:12.000Z</time>
      </trkpt>
      <trkpt lat="46.84196" lon="6.52227">
        <ele>1374.4000244141</ele>
        <time>2017-04-22T12:27:16.000Z</time>
      </trkpt>
      <trkpt lat="46.84192" lon="6.52224">
        <ele>1374.4000244141</ele>
        <time>2017-04-22T12:27:17.000Z</time>
      </trkpt>
      <trkpt lat="46.8417" lon="6.52209">
        <ele>1375.4000244141</ele>
        <time>2017-04-22T12:27:21.000Z</time>
      </trkpt>
      <trkpt lat="46.84151" lon="6.52195">
        <ele>1375</ele>
        <time>2017-04-22T12:27:25.000Z</time>
      </trkpt>
      <trkpt lat="46.84123" lon="6.52176">
        <ele>1375.8000488281</ele>
        <time>2017-04-22T12:27:31.000Z</time>
      </trkpt>
      <trkpt lat="46.84104" lon="6.52169">
        <ele>1377</ele>
        <time>2017-04-22T12:27:35.000Z</time>
      </trkpt>
      <trkpt lat="46.84088" lon="6.52169">
        <ele>1378.4000244141</ele>
        <time>2017-04-22T12:27:38.000Z</time>
      </trkpt>
      <trkpt lat="46.84078" lon="6.5217">
        <ele>1379.1999511719</ele>
        <time>2017-04-22T12:27:40.000Z</time>
      </trkpt>
      <trkpt lat="46.84068" lon="6.5217">
        <ele>1380.4000244141</ele>
        <time>2017-04-22T12:27:42.000Z</time>
      </trkpt>
      <trkpt lat="46.84058" lon="6.5217">
        <ele>1381.5999755859</ele>
        <time>2017-04-22T12:27:44.000Z</time>
      </trkpt>
      <trkpt lat="46.84047" lon="6.52172">
        <ele>1382.4000244141</ele>
        <time>2017-04-22T12:27:46.000Z</time>
      </trkpt>
      <trkpt lat="46.84043" lon="6.52173">
        <ele>1383</ele>
        <time>2017-04-22T12:27:47.000Z</time>
      </trkpt>
      <trkpt lat="46.8403" lon="6.52175">
        <ele>1384.1999511719</ele>
        <time>2017-04-22T12:27:50.000Z</time>
      </trkpt>
      <trkpt lat="46.84014" lon="6.52176">
        <ele>1385</ele>
        <time>2017-04-22T12:27:53.000Z</time>
      </trkpt>
      <trkpt lat="46.84008" lon="6.52175">
        <ele>1385.4000244141</ele>
        <time>2017-04-22T12:27:54.000Z</time>
      </trkpt>
      <trkpt lat="46.84002" lon="6.52175">
        <ele>1385.4000244141</ele>
        <time>2017-04-22T12:27:55.000Z</time>
      </trkpt>
      <trkpt lat="46.83988" lon="6.52175">
        <ele>1386.4000244141</ele>
        <time>2017-04-22T12:27:58.000Z</time>
      </trkpt>
      <trkpt lat="46.83979" lon="6.52174">
        <ele>1387.5999755859</ele>
        <time>2017-04-22T12:28:00.000Z</time>
      </trkpt>
      <trkpt lat="46.83966" lon="6.52172">
        <ele>1388.1999511719</ele>
        <time>2017-04-22T12:28:03.000Z</time>
      </trkpt>
      <trkpt lat="46.83961" lon="6.52171">
        <ele>1388.4000244141</ele>
        <time>2017-04-22T12:28:04.000Z</time>
      </trkpt>
      <trkpt lat="46.83957" lon="6.5217">
        <ele>1388.5999755859</ele>
        <time>2017-04-22T12:28:05.000Z</time>
      </trkpt>
      <trkpt lat="46.83948" lon="6.5217">
        <ele>1389.4000244141</ele>
        <time>2017-04-22T12:28:07.000Z</time>
      </trkpt>
      <trkpt lat="46.83944" lon="6.52169">
        <ele>1390</ele>
        <time>2017-04-22T12:28:08.000Z</time>
      </trkpt>
      <trkpt lat="46.83934" lon="6.5217">
        <ele>1391</ele>
        <time>2017-04-22T12:28:10.000Z</time>
      </trkpt>
      <trkpt lat="46.83925" lon="6.52171">
        <ele>1392.1999511719</ele>
        <time>2017-04-22T12:28:12.000Z</time>
      </trkpt>
      <trkpt lat="46.83915" lon="6.52169">
        <ele>1393.4000244141</ele>
        <time>2017-04-22T12:28:14.000Z</time>
      </trkpt>
      <trkpt lat="46.839" lon="6.5217">
        <ele>1394.1999511719</ele>
        <time>2017-04-22T12:28:17.000Z</time>
      </trkpt>
      <trkpt lat="46.83895" lon="6.52171">
        <ele>1394.8000488281</ele>
        <time>2017-04-22T12:28:18.000Z</time>
      </trkpt>
      <trkpt lat="46.83885" lon="6.52177">
        <ele>1395.5999755859</ele>
        <time>2017-04-22T12:28:20.000Z</time>
      </trkpt>
      <trkpt lat="46.83881" lon="6.5218">
        <ele>1396</ele>
        <time>2017-04-22T12:28:21.000Z</time>
      </trkpt>
      <trkpt lat="46.83876" lon="6.52184">
        <ele>1396.1999511719</ele>
        <time>2017-04-22T12:28:22.000Z</time>
      </trkpt>
      <trkpt lat="46.83859" lon="6.52199">
        <ele>1397</ele>
        <time>2017-04-22T12:28:26.000Z</time>
      </trkpt>
      <trkpt lat="46.83855" lon="6.52202">
        <ele>1397.4000244141</ele>
        <time>2017-04-22T12:28:27.000Z</time>
      </trkpt>
      <trkpt lat="46.83851" lon="6.52205">
        <ele>1397.8000488281</ele>
        <time>2017-04-22T12:28:28.000Z</time>
      </trkpt>
      <trkpt lat="46.83847" lon="6.52208">
        <ele>1398.1999511719</ele>
        <time>2017-04-22T12:28:29.000Z</time>
      </trkpt>
      <trkpt lat="46.83832" lon="6.52217">
        <ele>1399.4000244141</ele>
        <time>2017-04-22T12:28:33.000Z</time>
      </trkpt>
      <trkpt lat="46.83828" lon="6.52218">
        <ele>1400</ele>
        <time>2017-04-22T12:28:34.000Z</time>
      </trkpt>
      <trkpt lat="46.8382" lon="6.52219">
        <ele>1400.5999755859</ele>
        <time>2017-04-22T12:28:36.000Z</time>
      </trkpt>
      <trkpt lat="46.83815" lon="6.5222">
        <ele>1400.8000488281</ele>
        <time>2017-04-22T12:28:37.000Z</time>
      </trkpt>
      <trkpt lat="46.83811" lon="6.52222">
        <ele>1401.1999511719</ele>
        <time>2017-04-22T12:28:38.000Z</time>
      </trkpt>
      <trkpt lat="46.83786" lon="6.52229">
        <ele>1402.1999511719</ele>
        <time>2017-04-22T12:28:43.000Z</time>
      </trkpt>
      <trkpt lat="46.83782" lon="6.5223">
        <ele>1402.5999755859</ele>
        <time>2017-04-22T12:28:44.000Z</time>
      </trkpt>
      <trkpt lat="46.83778" lon="6.52231">
        <ele>1403.1999511719</ele>
        <time>2017-04-22T12:28:45.000Z</time>
      </trkpt>
      <trkpt lat="46.83767" lon="6.52232">
        <ele>1404.4000244141</ele>
        <time>2017-04-22T12:28:48.000Z</time>
      </trkpt>
      <trkpt lat="46.83753" lon="6.52228">
        <ele>1405.5999755859</ele>
        <time>2017-04-22T12:28:52.000Z</time>
      </trkpt>
      <trkpt lat="46.83749" lon="6.52227">
        <ele>1406</ele>
        <time>2017-04-22T12:28:53.000Z</time>
      </trkpt>
      <trkpt lat="46.83741" lon="6.52224">
        <ele>1406.8000488281</ele>
        <time>2017-04-22T12:28:55.000Z</time>
      </trkpt>
      <trkpt lat="46.83737" lon="6.52221">
        <ele>1407.1999511719</ele>
        <time>2017-04-22T12:28:56.000Z</time>
      </trkpt>
      <trkpt lat="46.83732" lon="6.52218">
        <ele>1407.4000244141</ele>
        <time>2017-04-22T12:28:57.000Z</time>
      </trkpt>
      <trkpt lat="46.83728" lon="6.52216">
        <ele>1408</ele>
        <time>2017-04-22T12:28:58.000Z</time>
      </trkpt>
      <trkpt lat="46.83718" lon="6.52211">
        <ele>1408.4000244141</ele>
        <time>2017-04-22T12:29:00.000Z</time>
      </trkpt>
      <trkpt lat="46.83713" lon="6.52208">
        <ele>1408.4000244141</ele>
        <time>2017-04-22T12:29:01.000Z</time>
      </trkpt>
      <trkpt lat="46.83709" lon="6.52204">
        <ele>1408.4000244141</ele>
        <time>2017-04-22T12:29:02.000Z</time>
      </trkpt>
      <trkpt lat="46.83699" lon="6.52196">
        <ele>1409.1999511719</ele>
        <time>2017-04-22T12:29:05.000Z</time>
      </trkpt>
      <trkpt lat="46.83692" lon="6.52192">
        <ele>1410.1999511719</ele>
        <time>2017-04-22T12:29:07.000Z</time>
      </trkpt>
      <trkpt lat="46.8368" lon="6.52186">
        <ele>1411.1999511719</ele>
        <time>2017-04-22T12:29:10.000Z</time>
      </trkpt>
      <trkpt lat="46.83675" lon="6.52183">
        <ele>1411.4000244141</ele>
        <time>2017-04-22T12:29:11.000Z</time>
      </trkpt>
      <trkpt lat="46.83668" lon="6.52179">
        <ele>1412.1999511719</ele>
        <time>2017-04-22T12:29:13.000Z</time>
      </trkpt>
      <trkpt lat="46.8366" lon="6.52176">
        <ele>1413.8000488281</ele>
        <time>2017-04-22T12:29:15.000Z</time>
      </trkpt>
      <trkpt lat="46.83649" lon="6.52169">
        <ele>1415</ele>
        <time>2017-04-22T12:29:18.000Z</time>
      </trkpt>
      <trkpt lat="46.83648" lon="6.52168">
        <ele>1415</ele>
        <time>2017-04-22T12:29:19.000Z</time>
      </trkpt>
      <trkpt lat="46.83643" lon="6.52164">
        <ele>1414.8000488281</ele>
        <time>2017-04-22T12:29:29.000Z</time>
      </trkpt>
      <trkpt lat="46.83641" lon="6.52162">
        <ele>1415</ele>
        <time>2017-04-22T12:29:40.000Z</time>
      </trkpt>
      <trkpt lat="46.83635" lon="6.52159">
        <ele>1415</ele>
        <time>2017-04-22T12:29:42.000Z</time>
      </trkpt>
      <trkpt lat="46.8363" lon="6.52158">
        <ele>1414.8000488281</ele>
        <time>2017-04-22T12:29:43.000Z</time>
      </trkpt>
      <trkpt lat="46.83599" lon="6.52149">
        <ele>1413.5999755859</ele>
        <time>2017-04-22T12:29:48.000Z</time>
      </trkpt>
      <trkpt lat="46.83559" lon="6.52141">
        <ele>1412.4000244141</ele>
        <time>2017-04-22T12:29:55.000Z</time>
      </trkpt>
      <trkpt lat="46.83548" lon="6.52138">
        <ele>1412.4000244141</ele>
        <time>2017-04-22T12:29:57.000Z</time>
      </trkpt>
      <trkpt lat="46.83536" lon="6.52138">
        <ele>1411.5999755859</ele>
        <time>2017-04-22T12:30:00.000Z</time>
      </trkpt>
      <trkpt lat="46.83533" lon="6.52138">
        <ele>1411.1999511719</ele>
        <time>2017-04-22T12:30:01.000Z</time>
      </trkpt>
      <trkpt lat="46.83532" lon="6.52138">
        <ele>1410.5999755859</ele>
        <time>2017-04-22T12:30:03.000Z</time>
      </trkpt>
      <trkpt lat="46.83532" lon="6.52138">
        <ele>1410.1999511719</ele>
        <time>2017-04-22T12:30:07.000Z</time>
      </trkpt>
      <trkpt lat="46.83532" lon="6.52138">
        <ele>1410.1999511719</ele>
        <time>2017-04-22T12:30:12.000Z</time>
      </trkpt>
      <trkpt lat="46.83531" lon="6.52137">
        <ele>1410.1999511719</ele>
        <time>2017-04-22T12:30:19.000Z</time>
      </trkpt>
      <trkpt lat="46.83528" lon="6.52136">
        <ele>1410</ele>
        <time>2017-04-22T12:30:20.000Z</time>
      </trkpt>
      <trkpt lat="46.8351" lon="6.52134">
        <ele>1408.5999755859</ele>
        <time>2017-04-22T12:30:24.000Z</time>
      </trkpt>
      <trkpt lat="46.83494" lon="6.52131">
        <ele>1407.8000488281</ele>
        <time>2017-04-22T12:30:27.000Z</time>
      </trkpt>
      <trkpt lat="46.83489" lon="6.52133">
        <ele>1407.5999755859</ele>
        <time>2017-04-22T12:30:28.000Z</time>
      </trkpt>
      <trkpt lat="46.83486" lon="6.52136">
        <ele>1407.4000244141</ele>
        <time>2017-04-22T12:30:29.000Z</time>
      </trkpt>
      <trkpt lat="46.83484" lon="6.52148">
        <ele>1406.5999755859</ele>
        <time>2017-04-22T12:30:32.000Z</time>
      </trkpt>
      <trkpt lat="46.83484" lon="6.52149">
        <ele>1406.1999511719</ele>
        <time>2017-04-22T12:30:34.000Z</time>
      </trkpt>
      <trkpt lat="46.83469" lon="6.52227">
        <ele>1411.1999511719</ele>
        <time>2017-04-22T12:31:24.000Z</time>
      </trkpt>
      <trkpt lat="46.83462" lon="6.52241">
        <ele>1411.1999511719</ele>
        <time>2017-04-22T12:31:29.000Z</time>
      </trkpt>
      <trkpt lat="46.83462" lon="6.52263">
        <ele>1410.5999755859</ele>
        <time>2017-04-22T12:31:33.000Z</time>
      </trkpt>
      <trkpt lat="46.83461" lon="6.52275">
        <ele>1410.1999511719</ele>
        <time>2017-04-22T12:31:35.000Z</time>
      </trkpt>
      <trkpt lat="46.83461" lon="6.5228">
        <ele>1410</ele>
        <time>2017-04-22T12:31:36.000Z</time>
      </trkpt>
      <trkpt lat="46.8346" lon="6.52287">
        <ele>1409.4000244141</ele>
        <time>2017-04-22T12:31:38.000Z</time>
      </trkpt>
      <trkpt lat="46.83459" lon="6.52289">
        <ele>1409.1999511719</ele>
        <time>2017-04-22T12:31:40.000Z</time>
      </trkpt>
      <trkpt lat="46.83458" lon="6.52289">
        <ele>1409.1999511719</ele>
        <time>2017-04-22T12:31:44.000Z</time>
      </trkpt>
      <trkpt lat="46.83457" lon="6.52296">
        <ele>1409.1999511719</ele>
        <time>2017-04-22T12:31:52.000Z</time>
      </trkpt>
      <trkpt lat="46.83456" lon="6.52319">
        <ele>1409</ele>
        <time>2017-04-22T12:31:57.000Z</time>
      </trkpt>
      <trkpt lat="46.83462" lon="6.52348">
        <ele>1409.5999755859</ele>
        <time>2017-04-22T12:32:04.000Z</time>
      </trkpt>
      <trkpt lat="46.83464" lon="6.52356">
        <ele>1409.1999511719</ele>
        <time>2017-04-22T12:32:08.000Z</time>
      </trkpt>
      <trkpt lat="46.83464" lon="6.52356">
        <ele>1409.1999511719</ele>
        <time>2017-04-22T12:32:12.000Z</time>
      </trkpt>
      <trkpt lat="46.83464" lon="6.52356">
        <ele>1409.5999755859</ele>
        <time>2017-04-22T12:32:26.000Z</time>
      </trkpt>
      <trkpt lat="46.83465" lon="6.52358">
        <ele>1409.5999755859</ele>
        <time>2017-04-22T12:32:30.000Z</time>
      </trkpt>
      <trkpt lat="46.83468" lon="6.52361">
        <ele>1409.5999755859</ele>
        <time>2017-04-22T12:32:32.000Z</time>
      </trkpt>
      <trkpt lat="46.83472" lon="6.52362">
        <ele>1410.4000244141</ele>
        <time>2017-04-22T12:32:34.000Z</time>
      </trkpt>
      <trkpt lat="46.83474" lon="6.52364">
        <ele>1410.5999755859</ele>
        <time>2017-04-22T12:32:35.000Z</time>
      </trkpt>
      <trkpt lat="46.83477" lon="6.52367">
        <ele>1411.8000488281</ele>
        <time>2017-04-22T12:32:37.000Z</time>
      </trkpt>
      <trkpt lat="46.83481" lon="6.5237">
        <ele>1412.8000488281</ele>
        <time>2017-04-22T12:32:39.000Z</time>
      </trkpt>
      <trkpt lat="46.83487" lon="6.52376">
        <ele>1414.1999511719</ele>
        <time>2017-04-22T12:32:42.000Z</time>
      </trkpt>
      <trkpt lat="46.83493" lon="6.52381">
        <ele>1415.4000244141</ele>
        <time>2017-04-22T12:32:45.000Z</time>
      </trkpt>
      <trkpt lat="46.83497" lon="6.52383">
        <ele>1416.4000244141</ele>
        <time>2017-04-22T12:32:47.000Z</time>
      </trkpt>
      <trkpt lat="46.83503" lon="6.52387">
        <ele>1418.1999511719</ele>
        <time>2017-04-22T12:32:50.000Z</time>
      </trkpt>
      <trkpt lat="46.83507" lon="6.52388">
        <ele>1419.5999755859</ele>
        <time>2017-04-22T12:32:52.000Z</time>
      </trkpt>
      <trkpt lat="46.8351" lon="6.5239">
        <ele>1420.5999755859</ele>
        <time>2017-04-22T12:32:54.000Z</time>
      </trkpt>
      <trkpt lat="46.83514" lon="6.52393">
        <ele>1421.4000244141</ele>
        <time>2017-04-22T12:32:56.000Z</time>
      </trkpt>
      <trkpt lat="46.83516" lon="6.52394">
        <ele>1421.8000488281</ele>
        <time>2017-04-22T12:32:57.000Z</time>
      </trkpt>
      <trkpt lat="46.8352" lon="6.52395">
        <ele>1423</ele>
        <time>2017-04-22T12:32:59.000Z</time>
      </trkpt>
      <trkpt lat="46.83524" lon="6.52397">
        <ele>1424</ele>
        <time>2017-04-22T12:33:01.000Z</time>
      </trkpt>
      <trkpt lat="46.83526" lon="6.52398">
        <ele>1424.4000244141</ele>
        <time>2017-04-22T12:33:02.000Z</time>
      </trkpt>
      <trkpt lat="46.8353" lon="6.52401">
        <ele>1425.1999511719</ele>
        <time>2017-04-22T12:33:04.000Z</time>
      </trkpt>
      <trkpt lat="46.83536" lon="6.52404">
        <ele>1426.5999755859</ele>
        <time>2017-04-22T12:33:07.000Z</time>
      </trkpt>
      <trkpt lat="46.8354" lon="6.52406">
        <ele>1427.1999511719</ele>
        <time>2017-04-22T12:33:09.000Z</time>
      </trkpt>
      <trkpt lat="46.83542" lon="6.52407">
        <ele>1427.5999755859</ele>
        <time>2017-04-22T12:33:10.000Z</time>
      </trkpt>
      <trkpt lat="46.83546" lon="6.52409">
        <ele>1428.8000488281</ele>
        <time>2017-04-22T12:33:12.000Z</time>
      </trkpt>
      <trkpt lat="46.83553" lon="6.52411">
        <ele>1429.8000488281</ele>
        <time>2017-04-22T12:33:15.000Z</time>
      </trkpt>
      <trkpt lat="46.83557" lon="6.52412">
        <ele>1430.8000488281</ele>
        <time>2017-04-22T12:33:17.000Z</time>
      </trkpt>
      <trkpt lat="46.83559" lon="6.52412">
        <ele>1431.1999511719</ele>
        <time>2017-04-22T12:33:18.000Z</time>
      </trkpt>
      <trkpt lat="46.83565" lon="6.52416">
        <ele>1432.5999755859</ele>
        <time>2017-04-22T12:33:21.000Z</time>
      </trkpt>
      <trkpt lat="46.83569" lon="6.52418">
        <ele>1433.5999755859</ele>
        <time>2017-04-22T12:33:23.000Z</time>
      </trkpt>
      <trkpt lat="46.83572" lon="6.52419">
        <ele>1434</ele>
        <time>2017-04-22T12:33:24.000Z</time>
      </trkpt>
      <trkpt lat="46.83576" lon="6.52423">
        <ele>1434.8000488281</ele>
        <time>2017-04-22T12:33:26.000Z</time>
      </trkpt>
      <trkpt lat="46.83582" lon="6.52429">
        <ele>1436</ele>
        <time>2017-04-22T12:33:29.000Z</time>
      </trkpt>
      <trkpt lat="46.83587" lon="6.52432">
        <ele>1437</ele>
        <time>2017-04-22T12:33:31.000Z</time>
      </trkpt>
      <trkpt lat="46.83593" lon="6.52439">
        <ele>1438.4000244141</ele>
        <time>2017-04-22T12:33:34.000Z</time>
      </trkpt>
      <trkpt lat="46.83597" lon="6.52442">
        <ele>1439.5999755859</ele>
        <time>2017-04-22T12:33:36.000Z</time>
      </trkpt>
      <trkpt lat="46.83602" lon="6.52448">
        <ele>1440.5999755859</ele>
        <time>2017-04-22T12:33:39.000Z</time>
      </trkpt>
      <trkpt lat="46.83605" lon="6.5245">
        <ele>1441</ele>
        <time>2017-04-22T12:33:40.000Z</time>
      </trkpt>
      <trkpt lat="46.83609" lon="6.52454">
        <ele>1442</ele>
        <time>2017-04-22T12:33:42.000Z</time>
      </trkpt>
      <trkpt lat="46.83612" lon="6.52459">
        <ele>1443.1999511719</ele>
        <time>2017-04-22T12:33:44.000Z</time>
      </trkpt>
      <trkpt lat="46.8362" lon="6.52468">
        <ele>1444.1999511719</ele>
        <time>2017-04-22T12:33:48.000Z</time>
      </trkpt>
      <trkpt lat="46.83622" lon="6.52476">
        <ele>1445.4000244141</ele>
        <time>2017-04-22T12:33:53.000Z</time>
      </trkpt>
      <trkpt lat="46.83641" lon="6.52512">
        <ele>1448.1999511719</ele>
        <time>2017-04-22T12:34:26.000Z</time>
      </trkpt>
      <trkpt lat="46.83643" lon="6.52515">
        <ele>1448.5999755859</ele>
        <time>2017-04-22T12:34:27.000Z</time>
      </trkpt>
      <trkpt lat="46.83647" lon="6.52522">
        <ele>1449.1999511719</ele>
        <time>2017-04-22T12:34:29.000Z</time>
      </trkpt>
      <trkpt lat="46.83658" lon="6.52537">
        <ele>1450.4000244141</ele>
        <time>2017-04-22T12:34:34.000Z</time>
      </trkpt>
      <trkpt lat="46.83664" lon="6.52552">
        <ele>1451.4000244141</ele>
        <time>2017-04-22T12:34:38.000Z</time>
      </trkpt>
      <trkpt lat="46.83665" lon="6.5256">
        <ele>1451.5999755859</ele>
        <time>2017-04-22T12:34:40.000Z</time>
      </trkpt>
      <trkpt lat="46.83668" lon="6.52592">
        <ele>1451.5999755859</ele>
        <time>2017-04-22T12:34:48.000Z</time>
      </trkpt>
      <trkpt lat="46.83668" lon="6.52593">
        <ele>1451.5999755859</ele>
        <time>2017-04-22T12:34:49.000Z</time>
      </trkpt>
      <trkpt lat="46.83664" lon="6.52611">
        <ele>1450.8000488281</ele>
        <time>2017-04-22T12:35:17.000Z</time>
      </trkpt>
      <trkpt lat="46.83663" lon="6.52616">
        <ele>1450.8000488281</ele>
        <time>2017-04-22T12:35:18.000Z</time>
      </trkpt>
      <trkpt lat="46.83661" lon="6.52627">
        <ele>1450.4000244141</ele>
        <time>2017-04-22T12:35:20.000Z</time>
      </trkpt>
      <trkpt lat="46.83659" lon="6.52632">
        <ele>1450.1999511719</ele>
        <time>2017-04-22T12:35:21.000Z</time>
      </trkpt>
      <trkpt lat="46.83653" lon="6.52645">
        <ele>1449.5999755859</ele>
        <time>2017-04-22T12:35:23.000Z</time>
      </trkpt>
      <trkpt lat="46.83649" lon="6.52652">
        <ele>1449.1999511719</ele>
        <time>2017-04-22T12:35:24.000Z</time>
      </trkpt>
      <trkpt lat="46.83641" lon="6.52668">
        <ele>1447</ele>
        <time>2017-04-22T12:35:26.000Z</time>
      </trkpt>
      <trkpt lat="46.83638" lon="6.52678">
        <ele>1446</ele>
        <time>2017-04-22T12:35:27.000Z</time>
      </trkpt>
      <trkpt lat="46.83636" lon="6.5269">
        <ele>1445.4000244141</ele>
        <time>2017-04-22T12:35:28.000Z</time>
      </trkpt>
      <trkpt lat="46.83632" lon="6.52703">
        <ele>1444.4000244141</ele>
        <time>2017-04-22T12:35:29.000Z</time>
      </trkpt>
      <trkpt lat="46.83629" lon="6.52718">
        <ele>1443.1999511719</ele>
        <time>2017-04-22T12:35:30.000Z</time>
      </trkpt>
      <trkpt lat="46.83624" lon="6.52733">
        <ele>1441.1999511719</ele>
        <time>2017-04-22T12:35:31.000Z</time>
      </trkpt>
      <trkpt lat="46.8362" lon="6.52748">
        <ele>1440</ele>
        <time>2017-04-22T12:35:32.000Z</time>
      </trkpt>
      <trkpt lat="46.83616" lon="6.52763">
        <ele>1438.5999755859</ele>
        <time>2017-04-22T12:35:33.000Z</time>
      </trkpt>
      <trkpt lat="46.83612" lon="6.52777">
        <ele>1436.5999755859</ele>
        <time>2017-04-22T12:35:34.000Z</time>
      </trkpt>
      <trkpt lat="46.83609" lon="6.52789">
        <ele>1434.5999755859</ele>
        <time>2017-04-22T12:35:35.000Z</time>
      </trkpt>
      <trkpt lat="46.83606" lon="6.52801">
        <ele>1433.1999511719</ele>
        <time>2017-04-22T12:35:36.000Z</time>
      </trkpt>
      <trkpt lat="46.83604" lon="6.52812">
        <ele>1432</ele>
        <time>2017-04-22T12:35:37.000Z</time>
      </trkpt>
      <trkpt lat="46.83604" lon="6.52832">
        <ele>1430.1999511719</ele>
        <time>2017-04-22T12:35:39.000Z</time>
      </trkpt>
      <trkpt lat="46.83609" lon="6.52848">
        <ele>1429.1999511719</ele>
        <time>2017-04-22T12:35:41.000Z</time>
      </trkpt>
      <trkpt lat="46.83613" lon="6.52853">
        <ele>1428.8000488281</ele>
        <time>2017-04-22T12:35:42.000Z</time>
      </trkpt>
      <trkpt lat="46.83622" lon="6.52862">
        <ele>1428.5999755859</ele>
        <time>2017-04-22T12:35:45.000Z</time>
      </trkpt>
      <trkpt lat="46.83622" lon="6.52872">
        <ele>1428</ele>
        <time>2017-04-22T12:35:48.000Z</time>
      </trkpt>
      <trkpt lat="46.83616" lon="6.52876">
        <ele>1427</ele>
        <time>2017-04-22T12:35:51.000Z</time>
      </trkpt>
      <trkpt lat="46.83614" lon="6.52878">
        <ele>1426.4000244141</ele>
        <time>2017-04-22T12:35:52.000Z</time>
      </trkpt>
      <trkpt lat="46.83613" lon="6.5288">
        <ele>1425.8000488281</ele>
        <time>2017-04-22T12:35:53.000Z</time>
      </trkpt>
      <trkpt lat="46.83614" lon="6.52889">
        <ele>1424.8000488281</ele>
        <time>2017-04-22T12:35:55.000Z</time>
      </trkpt>
      <trkpt lat="46.83617" lon="6.52895">
        <ele>1424.1999511719</ele>
        <time>2017-04-22T12:35:56.000Z</time>
      </trkpt>
      <trkpt lat="46.8362" lon="6.529">
        <ele>1423.5999755859</ele>
        <time>2017-04-22T12:35:57.000Z</time>
      </trkpt>
      <trkpt lat="46.83627" lon="6.52912">
        <ele>1422.1999511719</ele>
        <time>2017-04-22T12:36:00.000Z</time>
      </trkpt>
      <trkpt lat="46.83626" lon="6.52927">
        <ele>1421.4000244141</ele>
        <time>2017-04-22T12:36:02.000Z</time>
      </trkpt>
      <trkpt lat="46.83627" lon="6.52936">
        <ele>1420.4000244141</ele>
        <time>2017-04-22T12:36:03.000Z</time>
      </trkpt>
      <trkpt lat="46.83633" lon="6.52957">
        <ele>1418.5999755859</ele>
        <time>2017-04-22T12:36:05.000Z</time>
      </trkpt>
      <trkpt lat="46.83636" lon="6.52966">
        <ele>1416.8000488281</ele>
        <time>2017-04-22T12:36:06.000Z</time>
      </trkpt>
      <trkpt lat="46.83638" lon="6.52973">
        <ele>1415.8000488281</ele>
        <time>2017-04-22T12:36:07.000Z</time>
      </trkpt>
      <trkpt lat="46.83638" lon="6.52986">
        <ele>1413.8000488281</ele>
        <time>2017-04-22T12:36:09.000Z</time>
      </trkpt>
      <trkpt lat="46.83635" lon="6.52997">
        <ele>1412</ele>
        <time>2017-04-22T12:36:11.000Z</time>
      </trkpt>
      <trkpt lat="46.83633" lon="6.53">
        <ele>1410.8000488281</ele>
        <time>2017-04-22T12:36:12.000Z</time>
      </trkpt>
      <trkpt lat="46.8363" lon="6.53003">
        <ele>1410</ele>
        <time>2017-04-22T12:36:13.000Z</time>
      </trkpt>
      <trkpt lat="46.83628" lon="6.53006">
        <ele>1409.1999511719</ele>
        <time>2017-04-22T12:36:14.000Z</time>
      </trkpt>
      <trkpt lat="46.83631" lon="6.53012">
        <ele>1407.8000488281</ele>
        <time>2017-04-22T12:36:16.000Z</time>
      </trkpt>
      <trkpt lat="46.83643" lon="6.5303">
        <ele>1406.8000488281</ele>
        <time>2017-04-22T12:36:21.000Z</time>
      </trkpt>
      <trkpt lat="46.83653" lon="6.53049">
        <ele>1407</ele>
        <time>2017-04-22T12:36:24.000Z</time>
      </trkpt>
      <trkpt lat="46.83656" lon="6.53058">
        <ele>1406.5999755859</ele>
        <time>2017-04-22T12:36:25.000Z</time>
      </trkpt>
      <trkpt lat="46.83658" lon="6.5308">
        <ele>1405.1999511719</ele>
        <time>2017-04-22T12:36:27.000Z</time>
      </trkpt>
      <trkpt lat="46.8366" lon="6.53091">
        <ele>1404.4000244141</ele>
        <time>2017-04-22T12:36:28.000Z</time>
      </trkpt>
      <trkpt lat="46.83662" lon="6.53101">
        <ele>1403</ele>
        <time>2017-04-22T12:36:29.000Z</time>
      </trkpt>
      <trkpt lat="46.83664" lon="6.53112">
        <ele>1401.5999755859</ele>
        <time>2017-04-22T12:36:30.000Z</time>
      </trkpt>
      <trkpt lat="46.83664" lon="6.53122">
        <ele>1400</ele>
        <time>2017-04-22T12:36:31.000Z</time>
      </trkpt>
      <trkpt lat="46.83662" lon="6.53131">
        <ele>1397.8000488281</ele>
        <time>2017-04-22T12:36:32.000Z</time>
      </trkpt>
      <trkpt lat="46.83659" lon="6.5314">
        <ele>1396</ele>
        <time>2017-04-22T12:36:33.000Z</time>
      </trkpt>
      <trkpt lat="46.83656" lon="6.53146">
        <ele>1394.4000244141</ele>
        <time>2017-04-22T12:36:34.000Z</time>
      </trkpt>
      <trkpt lat="46.83655" lon="6.53151">
        <ele>1392.5999755859</ele>
        <time>2017-04-22T12:36:35.000Z</time>
      </trkpt>
      <trkpt lat="46.83656" lon="6.53155">
        <ele>1391.4000244141</ele>
        <time>2017-04-22T12:36:36.000Z</time>
      </trkpt>
      <trkpt lat="46.83663" lon="6.53163">
        <ele>1390.1999511719</ele>
        <time>2017-04-22T12:36:38.000Z</time>
      </trkpt>
      <trkpt lat="46.83666" lon="6.53166">
        <ele>1389.8000488281</ele>
        <time>2017-04-22T12:36:39.000Z</time>
      </trkpt>
      <trkpt lat="46.83674" lon="6.53172">
        <ele>1389</ele>
        <time>2017-04-22T12:36:41.000Z</time>
      </trkpt>
      <trkpt lat="46.8368" lon="6.53182">
        <ele>1387.4000244141</ele>
        <time>2017-04-22T12:36:43.000Z</time>
      </trkpt>
      <trkpt lat="46.83683" lon="6.53193">
        <ele>1386.1999511719</ele>
        <time>2017-04-22T12:36:45.000Z</time>
      </trkpt>
      <trkpt lat="46.83683" lon="6.53199">
        <ele>1385.5999755859</ele>
        <time>2017-04-22T12:36:46.000Z</time>
      </trkpt>
      <trkpt lat="46.83682" lon="6.53205">
        <ele>1384.4000244141</ele>
        <time>2017-04-22T12:36:47.000Z</time>
      </trkpt>
      <trkpt lat="46.83679" lon="6.53211">
        <ele>1382.8000488281</ele>
        <time>2017-04-22T12:36:48.000Z</time>
      </trkpt>
      <trkpt lat="46.83677" lon="6.53219">
        <ele>1382</ele>
        <time>2017-04-22T12:36:49.000Z</time>
      </trkpt>
      <trkpt lat="46.83674" lon="6.53228">
        <ele>1380.8000488281</ele>
        <time>2017-04-22T12:36:50.000Z</time>
      </trkpt>
      <trkpt lat="46.83672" lon="6.53237">
        <ele>1379.5999755859</ele>
        <time>2017-04-22T12:36:51.000Z</time>
      </trkpt>
      <trkpt lat="46.8367" lon="6.53246">
        <ele>1378.1999511719</ele>
        <time>2017-04-22T12:36:52.000Z</time>
      </trkpt>
      <trkpt lat="46.83669" lon="6.53256">
        <ele>1377</ele>
        <time>2017-04-22T12:36:53.000Z</time>
      </trkpt>
      <trkpt lat="46.8367" lon="6.53275">
        <ele>1375.8000488281</ele>
        <time>2017-04-22T12:36:55.000Z</time>
      </trkpt>
      <trkpt lat="46.83668" lon="6.53296">
        <ele>1374.5999755859</ele>
        <time>2017-04-22T12:36:57.000Z</time>
      </trkpt>
      <trkpt lat="46.8366" lon="6.53314">
        <ele>1373</ele>
        <time>2017-04-22T12:36:59.000Z</time>
      </trkpt>
      <trkpt lat="46.83655" lon="6.53322">
        <ele>1372.4000244141</ele>
        <time>2017-04-22T12:37:00.000Z</time>
      </trkpt>
      <trkpt lat="46.8365" lon="6.53331">
        <ele>1371.5999755859</ele>
        <time>2017-04-22T12:37:01.000Z</time>
      </trkpt>
      <trkpt lat="46.83643" lon="6.53348">
        <ele>1370.4000244141</ele>
        <time>2017-04-22T12:37:03.000Z</time>
      </trkpt>
      <trkpt lat="46.8364" lon="6.53357">
        <ele>1369.1999511719</ele>
        <time>2017-04-22T12:37:04.000Z</time>
      </trkpt>
      <trkpt lat="46.83638" lon="6.53366">
        <ele>1368.1999511719</ele>
        <time>2017-04-22T12:37:05.000Z</time>
      </trkpt>
      <trkpt lat="46.83637" lon="6.53376">
        <ele>1367.4000244141</ele>
        <time>2017-04-22T12:37:06.000Z</time>
      </trkpt>
      <trkpt lat="46.83635" lon="6.53385">
        <ele>1366.4000244141</ele>
        <time>2017-04-22T12:37:07.000Z</time>
      </trkpt>
      <trkpt lat="46.83633" lon="6.53394">
        <ele>1364.8000488281</ele>
        <time>2017-04-22T12:37:08.000Z</time>
      </trkpt>
      <trkpt lat="46.8363" lon="6.53403">
        <ele>1364.4000244141</ele>
        <time>2017-04-22T12:37:09.000Z</time>
      </trkpt>
      <trkpt lat="46.83628" lon="6.53412">
        <ele>1363.8000488281</ele>
        <time>2017-04-22T12:37:10.000Z</time>
      </trkpt>
      <trkpt lat="46.83624" lon="6.53429">
        <ele>1362.8000488281</ele>
        <time>2017-04-22T12:37:12.000Z</time>
      </trkpt>
      <trkpt lat="46.83622" lon="6.53438">
        <ele>1362.1999511719</ele>
        <time>2017-04-22T12:37:13.000Z</time>
      </trkpt>
      <trkpt lat="46.8362" lon="6.53448">
        <ele>1361.4000244141</ele>
        <time>2017-04-22T12:37:14.000Z</time>
      </trkpt>
      <trkpt lat="46.83615" lon="6.53469">
        <ele>1359.4000244141</ele>
        <time>2017-04-22T12:37:16.000Z</time>
      </trkpt>
      <trkpt lat="46.83614" lon="6.5348">
        <ele>1358.4000244141</ele>
        <time>2017-04-22T12:37:17.000Z</time>
      </trkpt>
      <trkpt lat="46.83612" lon="6.5349">
        <ele>1358</ele>
        <time>2017-04-22T12:37:18.000Z</time>
      </trkpt>
      <trkpt lat="46.83607" lon="6.53514">
        <ele>1357</ele>
        <time>2017-04-22T12:37:21.000Z</time>
      </trkpt>
      <trkpt lat="46.83605" lon="6.53522">
        <ele>1356.8000488281</ele>
        <time>2017-04-22T12:37:22.000Z</time>
      </trkpt>
      <trkpt lat="46.83594" lon="6.53539">
        <ele>1356.1999511719</ele>
        <time>2017-04-22T12:37:25.000Z</time>
      </trkpt>
      <trkpt lat="46.83585" lon="6.5355">
        <ele>1355.8000488281</ele>
        <time>2017-04-22T12:37:27.000Z</time>
      </trkpt>
      <trkpt lat="46.83583" lon="6.53559">
        <ele>1355.5999755859</ele>
        <time>2017-04-22T12:37:28.000Z</time>
      </trkpt>
      <trkpt lat="46.83582" lon="6.53581">
        <ele>1354.1999511719</ele>
        <time>2017-04-22T12:37:30.000Z</time>
      </trkpt>
      <trkpt lat="46.83582" lon="6.53605">
        <ele>1352.1999511719</ele>
        <time>2017-04-22T12:37:32.000Z</time>
      </trkpt>
      <trkpt lat="46.83586" lon="6.5363">
        <ele>1351</ele>
        <time>2017-04-22T12:37:34.000Z</time>
      </trkpt>
      <trkpt lat="46.83593" lon="6.53654">
        <ele>1350.4000244141</ele>
        <time>2017-04-22T12:37:36.000Z</time>
      </trkpt>
      <trkpt lat="46.83605" lon="6.53692">
        <ele>1350</ele>
        <time>2017-04-22T12:37:39.000Z</time>
      </trkpt>
      <trkpt lat="46.83609" lon="6.53704">
        <ele>1348.4000244141</ele>
        <time>2017-04-22T12:37:40.000Z</time>
      </trkpt>
      <trkpt lat="46.83613" lon="6.53716">
        <ele>1346.5999755859</ele>
        <time>2017-04-22T12:37:41.000Z</time>
      </trkpt>
      <trkpt lat="46.83616" lon="6.53729">
        <ele>1344.5999755859</ele>
        <time>2017-04-22T12:37:42.000Z</time>
      </trkpt>
      <trkpt lat="46.83619" lon="6.53742">
        <ele>1343.1999511719</ele>
        <time>2017-04-22T12:37:43.000Z</time>
      </trkpt>
      <trkpt lat="46.83621" lon="6.53754">
        <ele>1341.8000488281</ele>
        <time>2017-04-22T12:37:44.000Z</time>
      </trkpt>
      <trkpt lat="46.83623" lon="6.53764">
        <ele>1340.8000488281</ele>
        <time>2017-04-22T12:37:45.000Z</time>
      </trkpt>
      <trkpt lat="46.83626" lon="6.53783">
        <ele>1338.5999755859</ele>
        <time>2017-04-22T12:37:47.000Z</time>
      </trkpt>
      <trkpt lat="46.83626" lon="6.53791">
        <ele>1337.4000244141</ele>
        <time>2017-04-22T12:37:48.000Z</time>
      </trkpt>
      <trkpt lat="46.83624" lon="6.53796">
        <ele>1336.8000488281</ele>
        <time>2017-04-22T12:37:49.000Z</time>
      </trkpt>
      <trkpt lat="46.83621" lon="6.53797">
        <ele>1336.4000244141</ele>
        <time>2017-04-22T12:37:50.000Z</time>
      </trkpt>
      <trkpt lat="46.83617" lon="6.53797">
        <ele>1336.4000244141</ele>
        <time>2017-04-22T12:37:51.000Z</time>
      </trkpt>
      <trkpt lat="46.83607" lon="6.53794">
        <ele>1334.4000244141</ele>
        <time>2017-04-22T12:37:53.000Z</time>
      </trkpt>
      <trkpt lat="46.83601" lon="6.53793">
        <ele>1333</ele>
        <time>2017-04-22T12:37:54.000Z</time>
      </trkpt>
      <trkpt lat="46.83594" lon="6.53791">
        <ele>1331.8000488281</ele>
        <time>2017-04-22T12:37:55.000Z</time>
      </trkpt>
      <trkpt lat="46.83588" lon="6.53791">
        <ele>1330.8000488281</ele>
        <time>2017-04-22T12:37:56.000Z</time>
      </trkpt>
      <trkpt lat="46.83582" lon="6.53791">
        <ele>1330.1999511719</ele>
        <time>2017-04-22T12:37:57.000Z</time>
      </trkpt>
      <trkpt lat="46.83575" lon="6.53794">
        <ele>1329.5999755859</ele>
        <time>2017-04-22T12:37:59.000Z</time>
      </trkpt>
      <trkpt lat="46.83573" lon="6.53798">
        <ele>1329.1999511719</ele>
        <time>2017-04-22T12:38:00.000Z</time>
      </trkpt>
      <trkpt lat="46.83571" lon="6.53804">
        <ele>1328.5999755859</ele>
        <time>2017-04-22T12:38:01.000Z</time>
      </trkpt>
      <trkpt lat="46.8357" lon="6.53809">
        <ele>1327.8000488281</ele>
        <time>2017-04-22T12:38:02.000Z</time>
      </trkpt>
      <trkpt lat="46.8357" lon="6.53814">
        <ele>1326.8000488281</ele>
        <time>2017-04-22T12:38:03.000Z</time>
      </trkpt>
      <trkpt lat="46.83569" lon="6.53818">
        <ele>1326.1999511719</ele>
        <time>2017-04-22T12:38:04.000Z</time>
      </trkpt>
      <trkpt lat="46.83569" lon="6.53821">
        <ele>1325.8000488281</ele>
        <time>2017-04-22T12:38:05.000Z</time>
      </trkpt>
      <trkpt lat="46.83567" lon="6.53832">
        <ele>1324.4000244141</ele>
        <time>2017-04-22T12:38:07.000Z</time>
      </trkpt>
      <trkpt lat="46.83564" lon="6.53839">
        <ele>1323.1999511719</ele>
        <time>2017-04-22T12:38:08.000Z</time>
      </trkpt>
      <trkpt lat="46.8356" lon="6.53844">
        <ele>1322</ele>
        <time>2017-04-22T12:38:09.000Z</time>
      </trkpt>
      <trkpt lat="46.83557" lon="6.53848">
        <ele>1320.4000244141</ele>
        <time>2017-04-22T12:38:10.000Z</time>
      </trkpt>
      <trkpt lat="46.83555" lon="6.5385">
        <ele>1319.1999511719</ele>
        <time>2017-04-22T12:38:11.000Z</time>
      </trkpt>
      <trkpt lat="46.83552" lon="6.53852">
        <ele>1318.1999511719</ele>
        <time>2017-04-22T12:38:13.000Z</time>
      </trkpt>
      <trkpt lat="46.83544" lon="6.53864">
        <ele>1317</ele>
        <time>2017-04-22T12:38:17.000Z</time>
      </trkpt>
      <trkpt lat="46.83541" lon="6.53867">
        <ele>1316.4000244141</ele>
        <time>2017-04-22T12:38:18.000Z</time>
      </trkpt>
      <trkpt lat="46.83538" lon="6.5387">
        <ele>1315</ele>
        <time>2017-04-22T12:38:19.000Z</time>
      </trkpt>
      <trkpt lat="46.83536" lon="6.53869">
        <ele>1313.1999511719</ele>
        <time>2017-04-22T12:38:20.000Z</time>
      </trkpt>
      <trkpt lat="46.83534" lon="6.53868">
        <ele>1312</ele>
        <time>2017-04-22T12:38:21.000Z</time>
      </trkpt>
      <trkpt lat="46.83532" lon="6.53864">
        <ele>1310.8000488281</ele>
        <time>2017-04-22T12:38:23.000Z</time>
      </trkpt>
      <trkpt lat="46.83531" lon="6.53863">
        <ele>1310.1999511719</ele>
        <time>2017-04-22T12:38:24.000Z</time>
      </trkpt>
      <trkpt lat="46.83531" lon="6.53863">
        <ele>1310</ele>
        <time>2017-04-22T12:38:25.000Z</time>
      </trkpt>
      <trkpt lat="46.83526" lon="6.53865">
        <ele>1308</ele>
        <time>2017-04-22T12:39:18.000Z</time>
      </trkpt>
      <trkpt lat="46.83524" lon="6.53864">
        <ele>1308.1999511719</ele>
        <time>2017-04-22T12:39:21.000Z</time>
      </trkpt>
      <trkpt lat="46.83522" lon="6.53862">
        <ele>1308</ele>
        <time>2017-04-22T12:39:22.000Z</time>
      </trkpt>
      <trkpt lat="46.83515" lon="6.53857">
        <ele>1307.8000488281</ele>
        <time>2017-04-22T12:39:24.000Z</time>
      </trkpt>
      <trkpt lat="46.83507" lon="6.5385">
        <ele>1307.4000244141</ele>
        <time>2017-04-22T12:39:26.000Z</time>
      </trkpt>
      <trkpt lat="46.83498" lon="6.53842">
        <ele>1307</ele>
        <time>2017-04-22T12:39:28.000Z</time>
      </trkpt>
      <trkpt lat="46.83494" lon="6.5384">
        <ele>1306.8000488281</ele>
        <time>2017-04-22T12:39:29.000Z</time>
      </trkpt>
      <trkpt lat="46.83484" lon="6.53836">
        <ele>1306.1999511719</ele>
        <time>2017-04-22T12:39:31.000Z</time>
      </trkpt>
      <trkpt lat="46.83479" lon="6.53835">
        <ele>1306.1999511719</ele>
        <time>2017-04-22T12:39:32.000Z</time>
      </trkpt>
      <trkpt lat="46.83467" lon="6.53836">
        <ele>1306.1999511719</ele>
        <time>2017-04-22T12:39:34.000Z</time>
      </trkpt>
      <trkpt lat="46.83457" lon="6.53837">
        <ele>1306</ele>
        <time>2017-04-22T12:39:36.000Z</time>
      </trkpt>
      <trkpt lat="46.83441" lon="6.5384">
        <ele>1305.1999511719</ele>
        <time>2017-04-22T12:39:39.000Z</time>
      </trkpt>
      <trkpt lat="46.83428" lon="6.53843">
        <ele>1304.4000244141</ele>
        <time>2017-04-22T12:39:41.000Z</time>
      </trkpt>
      <trkpt lat="46.83415" lon="6.53842">
        <ele>1303.5999755859</ele>
        <time>2017-04-22T12:39:43.000Z</time>
      </trkpt>
      <trkpt lat="46.83408" lon="6.5384">
        <ele>1303</ele>
        <time>2017-04-22T12:39:44.000Z</time>
      </trkpt>
      <trkpt lat="46.834" lon="6.53837">
        <ele>1301.8000488281</ele>
        <time>2017-04-22T12:39:45.000Z</time>
      </trkpt>
      <trkpt lat="46.83393" lon="6.53832">
        <ele>1300.8000488281</ele>
        <time>2017-04-22T12:39:46.000Z</time>
      </trkpt>
      <trkpt lat="46.83387" lon="6.53826">
        <ele>1299.8000488281</ele>
        <time>2017-04-22T12:39:47.000Z</time>
      </trkpt>
      <trkpt lat="46.83368" lon="6.53801">
        <ele>1299.4000244141</ele>
        <time>2017-04-22T12:39:51.000Z</time>
      </trkpt>
      <trkpt lat="46.8335" lon="6.53783">
        <ele>1299.5999755859</ele>
        <time>2017-04-22T12:39:55.000Z</time>
      </trkpt>
      <trkpt lat="46.83345" lon="6.5378">
        <ele>1299.8000488281</ele>
        <time>2017-04-22T12:39:56.000Z</time>
      </trkpt>
      <trkpt lat="46.8333" lon="6.53767">
        <ele>1301</ele>
        <time>2017-04-22T12:40:00.000Z</time>
      </trkpt>
      <trkpt lat="46.83325" lon="6.53762">
        <ele>1301.1999511719</ele>
        <time>2017-04-22T12:40:01.000Z</time>
      </trkpt>
      <trkpt lat="46.83321" lon="6.53755">
        <ele>1301.1999511719</ele>
        <time>2017-04-22T12:40:02.000Z</time>
      </trkpt>
      <trkpt lat="46.83318" lon="6.53748">
        <ele>1301</ele>
        <time>2017-04-22T12:40:03.000Z</time>
      </trkpt>
      <trkpt lat="46.83306" lon="6.53726">
        <ele>1300</ele>
        <time>2017-04-22T12:40:06.000Z</time>
      </trkpt>
      <trkpt lat="46.83301" lon="6.5372">
        <ele>1299.4000244141</ele>
        <time>2017-04-22T12:40:07.000Z</time>
      </trkpt>
      <trkpt lat="46.83295" lon="6.53715">
        <ele>1299</ele>
        <time>2017-04-22T12:40:08.000Z</time>
      </trkpt>
      <trkpt lat="46.8329" lon="6.5371">
        <ele>1298.4000244141</ele>
        <time>2017-04-22T12:40:09.000Z</time>
      </trkpt>
      <trkpt lat="46.83283" lon="6.53696">
        <ele>1297.1999511719</ele>
        <time>2017-04-22T12:40:11.000Z</time>
      </trkpt>
      <trkpt lat="46.83283" lon="6.53687">
        <ele>1296.1999511719</ele>
        <time>2017-04-22T12:40:12.000Z</time>
      </trkpt>
      <trkpt lat="46.83284" lon="6.53669">
        <ele>1295.1999511719</ele>
        <time>2017-04-22T12:40:14.000Z</time>
      </trkpt>
      <trkpt lat="46.83283" lon="6.53662">
        <ele>1295</ele>
        <time>2017-04-22T12:40:15.000Z</time>
      </trkpt>
      <trkpt lat="46.8328" lon="6.53648">
        <ele>1295</ele>
        <time>2017-04-22T12:40:17.000Z</time>
      </trkpt>
      <trkpt lat="46.83274" lon="6.53628">
        <ele>1295.4000244141</ele>
        <time>2017-04-22T12:40:20.000Z</time>
      </trkpt>
      <trkpt lat="46.83273" lon="6.53622">
        <ele>1295.5999755859</ele>
        <time>2017-04-22T12:40:21.000Z</time>
      </trkpt>
      <trkpt lat="46.83272" lon="6.53614">
        <ele>1295.5999755859</ele>
        <time>2017-04-22T12:40:22.000Z</time>
      </trkpt>
      <trkpt lat="46.83266" lon="6.53599">
        <ele>1296.1999511719</ele>
        <time>2017-04-22T12:40:24.000Z</time>
      </trkpt>
      <trkpt lat="46.8326" lon="6.53587">
        <ele>1296.5999755859</ele>
        <time>2017-04-22T12:40:26.000Z</time>
      </trkpt>
      <trkpt lat="46.83255" lon="6.53581">
        <ele>1296.5999755859</ele>
        <time>2017-04-22T12:40:27.000Z</time>
      </trkpt>
      <trkpt lat="46.83247" lon="6.53569">
        <ele>1296.8000488281</ele>
        <time>2017-04-22T12:40:29.000Z</time>
      </trkpt>
      <trkpt lat="46.83243" lon="6.53564">
        <ele>1296.8000488281</ele>
        <time>2017-04-22T12:40:30.000Z</time>
      </trkpt>
      <trkpt lat="46.83234" lon="6.53538">
        <ele>1297.1999511719</ele>
        <time>2017-04-22T12:40:34.000Z</time>
      </trkpt>
      <trkpt lat="46.83233" lon="6.5353">
        <ele>1297.4000244141</ele>
        <time>2017-04-22T12:40:35.000Z</time>
      </trkpt>
      <trkpt lat="46.83232" lon="6.53518">
        <ele>1298.5999755859</ele>
        <time>2017-04-22T12:40:37.000Z</time>
      </trkpt>
      <trkpt lat="46.83232" lon="6.53513">
        <ele>1299.1999511719</ele>
        <time>2017-04-22T12:40:38.000Z</time>
      </trkpt>
      <trkpt lat="46.83231" lon="6.53507">
        <ele>1299.8000488281</ele>
        <time>2017-04-22T12:40:39.000Z</time>
      </trkpt>
      <trkpt lat="46.83229" lon="6.53502">
        <ele>1300.4000244141</ele>
        <time>2017-04-22T12:40:40.000Z</time>
      </trkpt>
      <trkpt lat="46.83228" lon="6.53497">
        <ele>1301</ele>
        <time>2017-04-22T12:40:41.000Z</time>
      </trkpt>
      <trkpt lat="46.83226" lon="6.53492">
        <ele>1301.4000244141</ele>
        <time>2017-04-22T12:40:42.000Z</time>
      </trkpt>
      <trkpt lat="46.83223" lon="6.53482">
        <ele>1302.1999511719</ele>
        <time>2017-04-22T12:40:44.000Z</time>
      </trkpt>
      <trkpt lat="46.83221" lon="6.53466">
        <ele>1303.1999511719</ele>
        <time>2017-04-22T12:40:47.000Z</time>
      </trkpt>
      <trkpt lat="46.83221" lon="6.53462">
        <ele>1303.5999755859</ele>
        <time>2017-04-22T12:40:48.000Z</time>
      </trkpt>
      <trkpt lat="46.83221" lon="6.53455">
        <ele>1304.5999755859</ele>
        <time>2017-04-22T12:40:50.000Z</time>
      </trkpt>
      <trkpt lat="46.83219" lon="6.53449">
        <ele>1305.4000244141</ele>
        <time>2017-04-22T12:40:52.000Z</time>
      </trkpt>
      <trkpt lat="46.83219" lon="6.53445">
        <ele>1305.8000488281</ele>
        <time>2017-04-22T12:40:53.000Z</time>
      </trkpt>
      <trkpt lat="46.83217" lon="6.53439">
        <ele>1307</ele>
        <time>2017-04-22T12:40:55.000Z</time>
      </trkpt>
      <trkpt lat="46.83216" lon="6.53432">
        <ele>1308.1999511719</ele>
        <time>2017-04-22T12:40:57.000Z</time>
      </trkpt>
      <trkpt lat="46.83216" lon="6.53423">
        <ele>1309.1999511719</ele>
        <time>2017-04-22T12:41:00.000Z</time>
      </trkpt>
      <trkpt lat="46.83217" lon="6.53418">
        <ele>1310</ele>
        <time>2017-04-22T12:41:02.000Z</time>
      </trkpt>
      <trkpt lat="46.83217" lon="6.53415">
        <ele>1310.4000244141</ele>
        <time>2017-04-22T12:41:03.000Z</time>
      </trkpt>
      <trkpt lat="46.83213" lon="6.53389">
        <ele>1311.4000244141</ele>
        <time>2017-04-22T12:41:09.000Z</time>
      </trkpt>
      <trkpt lat="46.83212" lon="6.53367">
        <ele>1311.4000244141</ele>
        <time>2017-04-22T12:41:13.000Z</time>
      </trkpt>
      <trkpt lat="46.83211" lon="6.53362">
        <ele>1311.5999755859</ele>
        <time>2017-04-22T12:41:14.000Z</time>
      </trkpt>
      <trkpt lat="46.83211" lon="6.53356">
        <ele>1311.5999755859</ele>
        <time>2017-04-22T12:41:15.000Z</time>
      </trkpt>
      <trkpt lat="46.83211" lon="6.53344">
        <ele>1311.8000488281</ele>
        <time>2017-04-22T12:41:17.000Z</time>
      </trkpt>
      <trkpt lat="46.83209" lon="6.53334">
        <ele>1311.5999755859</ele>
        <time>2017-04-22T12:41:19.000Z</time>
      </trkpt>
      <trkpt lat="46.83208" lon="6.5332">
        <ele>1311.1999511719</ele>
        <time>2017-04-22T12:41:21.000Z</time>
      </trkpt>
      <trkpt lat="46.83208" lon="6.53307">
        <ele>1310.5999755859</ele>
        <time>2017-04-22T12:41:23.000Z</time>
      </trkpt>
      <trkpt lat="46.8321" lon="6.533">
        <ele>1310.4000244141</ele>
        <time>2017-04-22T12:41:24.000Z</time>
      </trkpt>
      <trkpt lat="46.83211" lon="6.53294">
        <ele>1310.4000244141</ele>
        <time>2017-04-22T12:41:25.000Z</time>
      </trkpt>
      <trkpt lat="46.83217" lon="6.53275">
        <ele>1311.1999511719</ele>
        <time>2017-04-22T12:41:30.000Z</time>
      </trkpt>
      <trkpt lat="46.83217" lon="6.53271">
        <ele>1311.5999755859</ele>
        <time>2017-04-22T12:41:31.000Z</time>
      </trkpt>
      <trkpt lat="46.83219" lon="6.53264">
        <ele>1313</ele>
        <time>2017-04-22T12:41:33.000Z</time>
      </trkpt>
      <trkpt lat="46.83219" lon="6.53261">
        <ele>1313.5999755859</ele>
        <time>2017-04-22T12:41:34.000Z</time>
      </trkpt>
      <trkpt lat="46.83219" lon="6.53259">
        <ele>1314.1999511719</ele>
        <time>2017-04-22T12:41:35.000Z</time>
      </trkpt>
      <trkpt lat="46.83218" lon="6.53257">
        <ele>1314.4000244141</ele>
        <time>2017-04-22T12:41:36.000Z</time>
      </trkpt>
      <trkpt lat="46.83215" lon="6.53257">
        <ele>1314.1999511719</ele>
        <time>2017-04-22T12:41:38.000Z</time>
      </trkpt>
      <trkpt lat="46.83211" lon="6.53261">
        <ele>1313.8000488281</ele>
        <time>2017-04-22T12:41:39.000Z</time>
      </trkpt>
      <trkpt lat="46.83201" lon="6.53268">
        <ele>1311.5999755859</ele>
        <time>2017-04-22T12:41:41.000Z</time>
      </trkpt>
      <trkpt lat="46.83197" lon="6.53269">
        <ele>1310.4000244141</ele>
        <time>2017-04-22T12:41:42.000Z</time>
      </trkpt>
      <trkpt lat="46.83193" lon="6.53276">
        <ele>1308.5999755859</ele>
        <time>2017-04-22T12:41:44.000Z</time>
      </trkpt>
      <trkpt lat="46.8319" lon="6.53281">
        <ele>1307.4000244141</ele>
        <time>2017-04-22T12:41:45.000Z</time>
      </trkpt>
      <trkpt lat="46.83183" lon="6.53288">
        <ele>1306.1999511719</ele>
        <time>2017-04-22T12:41:47.000Z</time>
      </trkpt>
      <trkpt lat="46.83181" lon="6.53287">
        <ele>1305.8000488281</ele>
        <time>2017-04-22T12:41:48.000Z</time>
      </trkpt>
      <trkpt lat="46.83176" lon="6.53283">
        <ele>1305</ele>
        <time>2017-04-22T12:41:50.000Z</time>
      </trkpt>
      <trkpt lat="46.83168" lon="6.53282">
        <ele>1303.5999755859</ele>
        <time>2017-04-22T12:41:52.000Z</time>
      </trkpt>
      <trkpt lat="46.83164" lon="6.53282">
        <ele>1302.4000244141</ele>
        <time>2017-04-22T12:41:53.000Z</time>
      </trkpt>
      <trkpt lat="46.83157" lon="6.53285">
        <ele>1300.5999755859</ele>
        <time>2017-04-22T12:41:55.000Z</time>
      </trkpt>
      <trkpt lat="46.83154" lon="6.53287">
        <ele>1299.4000244141</ele>
        <time>2017-04-22T12:41:56.000Z</time>
      </trkpt>
      <trkpt lat="46.83152" lon="6.53291">
        <ele>1298.5999755859</ele>
        <time>2017-04-22T12:41:57.000Z</time>
      </trkpt>
      <trkpt lat="46.8315" lon="6.53295">
        <ele>1297.8000488281</ele>
        <time>2017-04-22T12:41:58.000Z</time>
      </trkpt>
      <trkpt lat="46.83149" lon="6.53298">
        <ele>1297.4000244141</ele>
        <time>2017-04-22T12:41:59.000Z</time>
      </trkpt>
      <trkpt lat="46.83144" lon="6.53303">
        <ele>1296.8000488281</ele>
        <time>2017-04-22T12:42:01.000Z</time>
      </trkpt>
      <trkpt lat="46.83138" lon="6.53304">
        <ele>1296.4000244141</ele>
        <time>2017-04-22T12:42:03.000Z</time>
      </trkpt>
      <trkpt lat="46.83135" lon="6.53304">
        <ele>1296</ele>
        <time>2017-04-22T12:42:04.000Z</time>
      </trkpt>
      <trkpt lat="46.83132" lon="6.53305">
        <ele>1295.4000244141</ele>
        <time>2017-04-22T12:42:05.000Z</time>
      </trkpt>
      <trkpt lat="46.8313" lon="6.53306">
        <ele>1294.8000488281</ele>
        <time>2017-04-22T12:42:06.000Z</time>
      </trkpt>
      <trkpt lat="46.83129" lon="6.53308">
        <ele>1294.1999511719</ele>
        <time>2017-04-22T12:42:07.000Z</time>
      </trkpt>
      <trkpt lat="46.83124" lon="6.53316">
        <ele>1293.1999511719</ele>
        <time>2017-04-22T12:42:11.000Z</time>
      </trkpt>
      <trkpt lat="46.83123" lon="6.53323">
        <ele>1293</ele>
        <time>2017-04-22T12:42:13.000Z</time>
      </trkpt>
      <trkpt lat="46.83124" lon="6.53333">
        <ele>1293.1999511719</ele>
        <time>2017-04-22T12:42:15.000Z</time>
      </trkpt>
      <trkpt lat="46.83129" lon="6.5335">
        <ele>1294.1999511719</ele>
        <time>2017-04-22T12:42:20.000Z</time>
      </trkpt>
      <trkpt lat="46.83129" lon="6.53354">
        <ele>1294.4000244141</ele>
        <time>2017-04-22T12:42:21.000Z</time>
      </trkpt>
      <trkpt lat="46.83133" lon="6.53372">
        <ele>1295.4000244141</ele>
        <time>2017-04-22T12:42:25.000Z</time>
      </trkpt>
      <trkpt lat="46.8314" lon="6.53393">
        <ele>1296.5999755859</ele>
        <time>2017-04-22T12:42:29.000Z</time>
      </trkpt>
      <trkpt lat="46.83142" lon="6.53399">
        <ele>1297</ele>
        <time>2017-04-22T12:42:30.000Z</time>
      </trkpt>
      <trkpt lat="46.83146" lon="6.5341">
        <ele>1297.4000244141</ele>
        <time>2017-04-22T12:42:32.000Z</time>
      </trkpt>
      <trkpt lat="46.8315" lon="6.53424">
        <ele>1297.4000244141</ele>
        <time>2017-04-22T12:42:34.000Z</time>
      </trkpt>
      <trkpt lat="46.83165" lon="6.53461">
        <ele>1296.4000244141</ele>
        <time>2017-04-22T12:42:39.000Z</time>
      </trkpt>
      <trkpt lat="46.83167" lon="6.53468">
        <ele>1296.4000244141</ele>
        <time>2017-04-22T12:42:40.000Z</time>
      </trkpt>
      <trkpt lat="46.8317" lon="6.53475">
        <ele>1296.4000244141</ele>
        <time>2017-04-22T12:42:41.000Z</time>
      </trkpt>
      <trkpt lat="46.83177" lon="6.53486">
        <ele>1296</ele>
        <time>2017-04-22T12:42:43.000Z</time>
      </trkpt>
      <trkpt lat="46.83194" lon="6.53511">
        <ele>1296.1999511719</ele>
        <time>2017-04-22T12:42:48.000Z</time>
      </trkpt>
      <trkpt lat="46.83204" lon="6.53526">
        <ele>1296.8000488281</ele>
        <time>2017-04-22T12:42:51.000Z</time>
      </trkpt>
      <trkpt lat="46.83211" lon="6.53534">
        <ele>1296.8000488281</ele>
        <time>2017-04-22T12:42:53.000Z</time>
      </trkpt>
      <trkpt lat="46.83212" lon="6.53549">
        <ele>1296.8000488281</ele>
        <time>2017-04-22T12:42:56.000Z</time>
      </trkpt>
      <trkpt lat="46.83206" lon="6.53555">
        <ele>1296.4000244141</ele>
        <time>2017-04-22T12:42:58.000Z</time>
      </trkpt>
      <trkpt lat="46.83199" lon="6.53561">
        <ele>1295.8000488281</ele>
        <time>2017-04-22T12:43:00.000Z</time>
      </trkpt>
      <trkpt lat="46.83196" lon="6.53563">
        <ele>1295.4000244141</ele>
        <time>2017-04-22T12:43:01.000Z</time>
      </trkpt>
      <trkpt lat="46.83192" lon="6.53567">
        <ele>1294.5999755859</ele>
        <time>2017-04-22T12:43:02.000Z</time>
      </trkpt>
      <trkpt lat="46.83189" lon="6.53572">
        <ele>1293.1999511719</ele>
        <time>2017-04-22T12:43:03.000Z</time>
      </trkpt>
      <trkpt lat="46.83184" lon="6.53577">
        <ele>1292</ele>
        <time>2017-04-22T12:43:04.000Z</time>
      </trkpt>
      <trkpt lat="46.83181" lon="6.5358">
        <ele>1291</ele>
        <time>2017-04-22T12:43:05.000Z</time>
      </trkpt>
      <trkpt lat="46.83177" lon="6.53583">
        <ele>1289.5999755859</ele>
        <time>2017-04-22T12:43:06.000Z</time>
      </trkpt>
      <trkpt lat="46.83173" lon="6.53586">
        <ele>1288.4000244141</ele>
        <time>2017-04-22T12:43:07.000Z</time>
      </trkpt>
      <trkpt lat="46.83168" lon="6.53588">
        <ele>1287.4000244141</ele>
        <time>2017-04-22T12:43:08.000Z</time>
      </trkpt>
      <trkpt lat="46.83159" lon="6.53591">
        <ele>1284.8000488281</ele>
        <time>2017-04-22T12:43:10.000Z</time>
      </trkpt>
      <trkpt lat="46.83155" lon="6.53591">
        <ele>1282.5999755859</ele>
        <time>2017-04-22T12:43:11.000Z</time>
      </trkpt>
      <trkpt lat="46.8315" lon="6.53591">
        <ele>1281.1999511719</ele>
        <time>2017-04-22T12:43:12.000Z</time>
      </trkpt>
      <trkpt lat="46.83138" lon="6.53588">
        <ele>1280</ele>
        <time>2017-04-22T12:43:14.000Z</time>
      </trkpt>
      <trkpt lat="46.83131" lon="6.53584">
        <ele>1279.4000244141</ele>
        <time>2017-04-22T12:43:15.000Z</time>
      </trkpt>
      <trkpt lat="46.83126" lon="6.53578">
        <ele>1278</ele>
        <time>2017-04-22T12:43:16.000Z</time>
      </trkpt>
      <trkpt lat="46.83123" lon="6.53571">
        <ele>1276</ele>
        <time>2017-04-22T12:43:17.000Z</time>
      </trkpt>
      <trkpt lat="46.83121" lon="6.53565">
        <ele>1274.8000488281</ele>
        <time>2017-04-22T12:43:18.000Z</time>
      </trkpt>
      <trkpt lat="46.83114" lon="6.53545">
        <ele>1274</ele>
        <time>2017-04-22T12:43:21.000Z</time>
      </trkpt>
      <trkpt lat="46.8311" lon="6.53531">
        <ele>1274.1999511719</ele>
        <time>2017-04-22T12:43:23.000Z</time>
      </trkpt>
      <trkpt lat="46.83104" lon="6.53513">
        <ele>1274.5999755859</ele>
        <time>2017-04-22T12:43:26.000Z</time>
      </trkpt>
      <trkpt lat="46.83097" lon="6.53491">
        <ele>1275.1999511719</ele>
        <time>2017-04-22T12:43:30.000Z</time>
      </trkpt>
      <trkpt lat="46.83087" lon="6.53461">
        <ele>1274.5999755859</ele>
        <time>2017-04-22T12:43:34.000Z</time>
      </trkpt>
      <trkpt lat="46.83083" lon="6.53444">
        <ele>1273.5999755859</ele>
        <time>2017-04-22T12:43:36.000Z</time>
      </trkpt>
      <trkpt lat="46.83078" lon="6.53419">
        <ele>1272.5999755859</ele>
        <time>2017-04-22T12:43:39.000Z</time>
      </trkpt>
      <trkpt lat="46.83077" lon="6.53411">
        <ele>1272.4000244141</ele>
        <time>2017-04-22T12:43:40.000Z</time>
      </trkpt>
      <trkpt lat="46.83072" lon="6.5339">
        <ele>1271.5999755859</ele>
        <time>2017-04-22T12:43:43.000Z</time>
      </trkpt>
      <trkpt lat="46.8307" lon="6.53384">
        <ele>1271.4000244141</ele>
        <time>2017-04-22T12:43:44.000Z</time>
      </trkpt>
      <trkpt lat="46.83066" lon="6.5337">
        <ele>1270.4000244141</ele>
        <time>2017-04-22T12:43:46.000Z</time>
      </trkpt>
      <trkpt lat="46.83064" lon="6.53364">
        <ele>1270</ele>
        <time>2017-04-22T12:43:47.000Z</time>
      </trkpt>
      <trkpt lat="46.83058" lon="6.53358">
        <ele>1267.5999755859</ele>
        <time>2017-04-22T12:43:49.000Z</time>
      </trkpt>
      <trkpt lat="46.83052" lon="6.53353">
        <ele>1266</ele>
        <time>2017-04-22T12:43:50.000Z</time>
      </trkpt>
      <trkpt lat="46.83045" lon="6.53347">
        <ele>1264.4000244141</ele>
        <time>2017-04-22T12:43:51.000Z</time>
      </trkpt>
      <trkpt lat="46.8304" lon="6.53341">
        <ele>1263.1999511719</ele>
        <time>2017-04-22T12:43:52.000Z</time>
      </trkpt>
      <trkpt lat="46.83036" lon="6.53333">
        <ele>1262</ele>
        <time>2017-04-22T12:43:53.000Z</time>
      </trkpt>
      <trkpt lat="46.83032" lon="6.53325">
        <ele>1260.5999755859</ele>
        <time>2017-04-22T12:43:54.000Z</time>
      </trkpt>
      <trkpt lat="46.83029" lon="6.53317">
        <ele>1259.4000244141</ele>
        <time>2017-04-22T12:43:55.000Z</time>
      </trkpt>
      <trkpt lat="46.83022" lon="6.53305">
        <ele>1257.5999755859</ele>
        <time>2017-04-22T12:43:57.000Z</time>
      </trkpt>
      <trkpt lat="46.83015" lon="6.53299">
        <ele>1256.4000244141</ele>
        <time>2017-04-22T12:43:58.000Z</time>
      </trkpt>
      <trkpt lat="46.83008" lon="6.53291">
        <ele>1255.4000244141</ele>
        <time>2017-04-22T12:43:59.000Z</time>
      </trkpt>
      <trkpt lat="46.83003" lon="6.53281">
        <ele>1254</ele>
        <time>2017-04-22T12:44:00.000Z</time>
      </trkpt>
      <trkpt lat="46.82998" lon="6.5327">
        <ele>1252</ele>
        <time>2017-04-22T12:44:01.000Z</time>
      </trkpt>
      <trkpt lat="46.82993" lon="6.53261">
        <ele>1250.1999511719</ele>
        <time>2017-04-22T12:44:02.000Z</time>
      </trkpt>
      <trkpt lat="46.82988" lon="6.5325">
        <ele>1249</ele>
        <time>2017-04-22T12:44:03.000Z</time>
      </trkpt>
      <trkpt lat="46.82984" lon="6.5324">
        <ele>1247.5999755859</ele>
        <time>2017-04-22T12:44:04.000Z</time>
      </trkpt>
      <trkpt lat="46.8298" lon="6.53231">
        <ele>1245.5999755859</ele>
        <time>2017-04-22T12:44:05.000Z</time>
      </trkpt>
      <trkpt lat="46.82977" lon="6.53221">
        <ele>1244</ele>
        <time>2017-04-22T12:44:06.000Z</time>
      </trkpt>
      <trkpt lat="46.82974" lon="6.53212">
        <ele>1243</ele>
        <time>2017-04-22T12:44:07.000Z</time>
      </trkpt>
      <trkpt lat="46.82972" lon="6.53204">
        <ele>1242.1999511719</ele>
        <time>2017-04-22T12:44:08.000Z</time>
      </trkpt>
      <trkpt lat="46.82969" lon="6.53199">
        <ele>1241.4000244141</ele>
        <time>2017-04-22T12:44:09.000Z</time>
      </trkpt>
      <trkpt lat="46.82966" lon="6.53194">
        <ele>1240.4000244141</ele>
        <time>2017-04-22T12:44:10.000Z</time>
      </trkpt>
      <trkpt lat="46.82962" lon="6.53194">
        <ele>1239.8000488281</ele>
        <time>2017-04-22T12:44:11.000Z</time>
      </trkpt>
      <trkpt lat="46.82959" lon="6.53196">
        <ele>1239.1999511719</ele>
        <time>2017-04-22T12:44:12.000Z</time>
      </trkpt>
      <trkpt lat="46.82957" lon="6.53202">
        <ele>1238.1999511719</ele>
        <time>2017-04-22T12:44:13.000Z</time>
      </trkpt>
      <trkpt lat="46.82956" lon="6.53209">
        <ele>1237.1999511719</ele>
        <time>2017-04-22T12:44:14.000Z</time>
      </trkpt>
      <trkpt lat="46.82954" lon="6.53218">
        <ele>1236.4000244141</ele>
        <time>2017-04-22T12:44:15.000Z</time>
      </trkpt>
      <trkpt lat="46.82953" lon="6.53227">
        <ele>1235.8000488281</ele>
        <time>2017-04-22T12:44:16.000Z</time>
      </trkpt>
      <trkpt lat="46.82952" lon="6.53246">
        <ele>1233.5999755859</ele>
        <time>2017-04-22T12:44:18.000Z</time>
      </trkpt>
      <trkpt lat="46.82949" lon="6.53256">
        <ele>1232.5999755859</ele>
        <time>2017-04-22T12:44:19.000Z</time>
      </trkpt>
      <trkpt lat="46.82945" lon="6.53283">
        <ele>1230.1999511719</ele>
        <time>2017-04-22T12:44:21.000Z</time>
      </trkpt>
      <trkpt lat="46.82946" lon="6.53299">
        <ele>1228.8000488281</ele>
        <time>2017-04-22T12:44:22.000Z</time>
      </trkpt>
      <trkpt lat="46.82948" lon="6.53313">
        <ele>1227.4000244141</ele>
        <time>2017-04-22T12:44:23.000Z</time>
      </trkpt>
      <trkpt lat="46.8295" lon="6.53324">
        <ele>1226.8000488281</ele>
        <time>2017-04-22T12:44:24.000Z</time>
      </trkpt>
      <trkpt lat="46.82953" lon="6.53333">
        <ele>1226.1999511719</ele>
        <time>2017-04-22T12:44:25.000Z</time>
      </trkpt>
      <trkpt lat="46.82957" lon="6.53342">
        <ele>1227.5999755859</ele>
        <time>2017-04-22T12:44:27.000Z</time>
      </trkpt>
      <trkpt lat="46.8296" lon="6.53348">
        <ele>1228.8000488281</ele>
        <time>2017-04-22T12:44:29.000Z</time>
      </trkpt>
      <trkpt lat="46.82961" lon="6.53354">
        <ele>1229.8000488281</ele>
        <time>2017-04-22T12:44:31.000Z</time>
      </trkpt>
      <trkpt lat="46.82961" lon="6.53356">
        <ele>1230</ele>
        <time>2017-04-22T12:44:32.000Z</time>
      </trkpt>
      <trkpt lat="46.82967" lon="6.53371">
        <ele>1231</ele>
        <time>2017-04-22T12:44:36.000Z</time>
      </trkpt>
      <trkpt lat="46.82975" lon="6.53382">
        <ele>1232.5999755859</ele>
        <time>2017-04-22T12:44:40.000Z</time>
      </trkpt>
      <trkpt lat="46.82978" lon="6.53385">
        <ele>1233.1999511719</ele>
        <time>2017-04-22T12:44:41.000Z</time>
      </trkpt>
      <trkpt lat="46.8298" lon="6.53387">
        <ele>1233.8000488281</ele>
        <time>2017-04-22T12:44:42.000Z</time>
      </trkpt>
      <trkpt lat="46.82983" lon="6.53395">
        <ele>1235.5999755859</ele>
        <time>2017-04-22T12:44:45.000Z</time>
      </trkpt>
      <trkpt lat="46.82984" lon="6.53397">
        <ele>1236</ele>
        <time>2017-04-22T12:44:46.000Z</time>
      </trkpt>
      <trkpt lat="46.82985" lon="6.53402">
        <ele>1236.8000488281</ele>
        <time>2017-04-22T12:44:48.000Z</time>
      </trkpt>
      <trkpt lat="46.82987" lon="6.53404">
        <ele>1237</ele>
        <time>2017-04-22T12:44:49.000Z</time>
      </trkpt>
      <trkpt lat="46.82988" lon="6.53406">
        <ele>1238</ele>
        <time>2017-04-22T12:44:50.000Z</time>
      </trkpt>
      <trkpt lat="46.82989" lon="6.53409">
        <ele>1238.4000244141</ele>
        <time>2017-04-22T12:44:51.000Z</time>
      </trkpt>
      <trkpt lat="46.82994" lon="6.53421">
        <ele>1239.1999511719</ele>
        <time>2017-04-22T12:44:54.000Z</time>
      </trkpt>
      <trkpt lat="46.82996" lon="6.53429">
        <ele>1239.5999755859</ele>
        <time>2017-04-22T12:44:56.000Z</time>
      </trkpt>
      <trkpt lat="46.82998" lon="6.53437">
        <ele>1240.1999511719</ele>
        <time>2017-04-22T12:44:58.000Z</time>
      </trkpt>
      <trkpt lat="46.83001" lon="6.53446">
        <ele>1241.4000244141</ele>
        <time>2017-04-22T12:45:01.000Z</time>
      </trkpt>
      <trkpt lat="46.83001" lon="6.5345">
        <ele>1241.5999755859</ele>
        <time>2017-04-22T12:45:02.000Z</time>
      </trkpt>
      <trkpt lat="46.83002" lon="6.5347">
        <ele>1241.8000488281</ele>
        <time>2017-04-22T12:45:05.000Z</time>
      </trkpt>
      <trkpt lat="46.83001" lon="6.53478">
        <ele>1241.5999755859</ele>
        <time>2017-04-22T12:45:06.000Z</time>
      </trkpt>
      <trkpt lat="46.83002" lon="6.53497">
        <ele>1240.1999511719</ele>
        <time>2017-04-22T12:45:08.000Z</time>
      </trkpt>
      <trkpt lat="46.83002" lon="6.53517">
        <ele>1238.5999755859</ele>
        <time>2017-04-22T12:45:10.000Z</time>
      </trkpt>
      <trkpt lat="46.83003" lon="6.53526">
        <ele>1238</ele>
        <time>2017-04-22T12:45:11.000Z</time>
      </trkpt>
      <trkpt lat="46.83003" lon="6.53535">
        <ele>1236.5999755859</ele>
        <time>2017-04-22T12:45:12.000Z</time>
      </trkpt>
      <trkpt lat="46.83003" lon="6.53543">
        <ele>1235.1999511719</ele>
        <time>2017-04-22T12:45:13.000Z</time>
      </trkpt>
      <trkpt lat="46.83003" lon="6.5355">
        <ele>1234</ele>
        <time>2017-04-22T12:45:14.000Z</time>
      </trkpt>
      <trkpt lat="46.83003" lon="6.53558">
        <ele>1233.1999511719</ele>
        <time>2017-04-22T12:45:15.000Z</time>
      </trkpt>
      <trkpt lat="46.83004" lon="6.53565">
        <ele>1232.4000244141</ele>
        <time>2017-04-22T12:45:16.000Z</time>
      </trkpt>
      <trkpt lat="46.83004" lon="6.53571">
        <ele>1232</ele>
        <time>2017-04-22T12:45:17.000Z</time>
      </trkpt>
      <trkpt lat="46.83004" lon="6.53578">
        <ele>1231.1999511719</ele>
        <time>2017-04-22T12:45:18.000Z</time>
      </trkpt>
      <trkpt lat="46.83005" lon="6.53583">
        <ele>1230.5999755859</ele>
        <time>2017-04-22T12:45:19.000Z</time>
      </trkpt>
      <trkpt lat="46.83006" lon="6.53587">
        <ele>1230</ele>
        <time>2017-04-22T12:45:20.000Z</time>
      </trkpt>
      <trkpt lat="46.83015" lon="6.53601">
        <ele>1229</ele>
        <time>2017-04-22T12:45:23.000Z</time>
      </trkpt>
      <trkpt lat="46.83018" lon="6.53605">
        <ele>1229.1999511719</ele>
        <time>2017-04-22T12:45:24.000Z</time>
      </trkpt>
      <trkpt lat="46.83022" lon="6.5361">
        <ele>1230</ele>
        <time>2017-04-22T12:45:26.000Z</time>
      </trkpt>
      <trkpt lat="46.83031" lon="6.53619">
        <ele>1231.1999511719</ele>
        <time>2017-04-22T12:45:29.000Z</time>
      </trkpt>
      <trkpt lat="46.83033" lon="6.53622">
        <ele>1231.5999755859</ele>
        <time>2017-04-22T12:45:30.000Z</time>
      </trkpt>
      <trkpt lat="46.83037" lon="6.53629">
        <ele>1232</ele>
        <time>2017-04-22T12:45:32.000Z</time>
      </trkpt>
      <trkpt lat="46.8304" lon="6.53637">
        <ele>1232.1999511719</ele>
        <time>2017-04-22T12:45:34.000Z</time>
      </trkpt>
      <trkpt lat="46.83042" lon="6.53646">
        <ele>1232.4000244141</ele>
        <time>2017-04-22T12:45:36.000Z</time>
      </trkpt>
      <trkpt lat="46.83045" lon="6.53656">
        <ele>1233</ele>
        <time>2017-04-22T12:45:38.000Z</time>
      </trkpt>
      <trkpt lat="46.83049" lon="6.53665">
        <ele>1233.1999511719</ele>
        <time>2017-04-22T12:45:40.000Z</time>
      </trkpt>
      <trkpt lat="46.83052" lon="6.53677">
        <ele>1232.8000488281</ele>
        <time>2017-04-22T12:45:42.000Z</time>
      </trkpt>
      <trkpt lat="46.83054" lon="6.53685">
        <ele>1232.1999511719</ele>
        <time>2017-04-22T12:45:44.000Z</time>
      </trkpt>
      <trkpt lat="46.8306" lon="6.53697">
        <ele>1231.1999511719</ele>
        <time>2017-04-22T12:45:47.000Z</time>
      </trkpt>
      <trkpt lat="46.83063" lon="6.53706">
        <ele>1230.4000244141</ele>
        <time>2017-04-22T12:45:48.000Z</time>
      </trkpt>
      <trkpt lat="46.83062" lon="6.53711">
        <ele>1229.4000244141</ele>
        <time>2017-04-22T12:45:49.000Z</time>
      </trkpt>
      <trkpt lat="46.83061" lon="6.53714">
        <ele>1228.5999755859</ele>
        <time>2017-04-22T12:45:50.000Z</time>
      </trkpt>
      <trkpt lat="46.83062" lon="6.53717">
        <ele>1228</ele>
        <time>2017-04-22T12:45:51.000Z</time>
      </trkpt>
      <trkpt lat="46.83059" lon="6.53725">
        <ele>1226.8000488281</ele>
        <time>2017-04-22T12:45:53.000Z</time>
      </trkpt>
      <trkpt lat="46.83058" lon="6.53743">
        <ele>1225</ele>
        <time>2017-04-22T12:45:55.000Z</time>
      </trkpt>
      <trkpt lat="46.83059" lon="6.5375">
        <ele>1224.5999755859</ele>
        <time>2017-04-22T12:45:56.000Z</time>
      </trkpt>
      <trkpt lat="46.83059" lon="6.53756">
        <ele>1224.1999511719</ele>
        <time>2017-04-22T12:45:57.000Z</time>
      </trkpt>
      <trkpt lat="46.83063" lon="6.53778">
        <ele>1223.4000244141</ele>
        <time>2017-04-22T12:46:01.000Z</time>
      </trkpt>
      <trkpt lat="46.83063" lon="6.53783">
        <ele>1223.4000244141</ele>
        <time>2017-04-22T12:46:02.000Z</time>
      </trkpt>
      <trkpt lat="46.83066" lon="6.53797">
        <ele>1223.4000244141</ele>
        <time>2017-04-22T12:46:05.000Z</time>
      </trkpt>
      <trkpt lat="46.83068" lon="6.53801">
        <ele>1223.4000244141</ele>
        <time>2017-04-22T12:46:06.000Z</time>
      </trkpt>
      <trkpt lat="46.83069" lon="6.53816">
        <ele>1223.1999511719</ele>
        <time>2017-04-22T12:46:09.000Z</time>
      </trkpt>
      <trkpt lat="46.83068" lon="6.53823">
        <ele>1223</ele>
        <time>2017-04-22T12:46:10.000Z</time>
      </trkpt>
      <trkpt lat="46.83071" lon="6.53843">
        <ele>1222.1999511719</ele>
        <time>2017-04-22T12:46:13.000Z</time>
      </trkpt>
      <trkpt lat="46.83072" lon="6.53855">
        <ele>1222</ele>
        <time>2017-04-22T12:46:15.000Z</time>
      </trkpt>
      <trkpt lat="46.83075" lon="6.53869">
        <ele>1221.8000488281</ele>
        <time>2017-04-22T12:46:18.000Z</time>
      </trkpt>
      <trkpt lat="46.83084" lon="6.53882">
        <ele>1223.8000488281</ele>
        <time>2017-04-22T12:46:23.000Z</time>
      </trkpt>
      <trkpt lat="46.83089" lon="6.53888">
        <ele>1225</ele>
        <time>2017-04-22T12:46:26.000Z</time>
      </trkpt>
      <trkpt lat="46.83093" lon="6.53894">
        <ele>1225.8000488281</ele>
        <time>2017-04-22T12:46:28.000Z</time>
      </trkpt>
      <trkpt lat="46.83095" lon="6.53895">
        <ele>1226.1999511719</ele>
        <time>2017-04-22T12:46:29.000Z</time>
      </trkpt>
      <trkpt lat="46.83101" lon="6.53899">
        <ele>1227.4000244141</ele>
        <time>2017-04-22T12:46:32.000Z</time>
      </trkpt>
      <trkpt lat="46.83104" lon="6.53902">
        <ele>1228.8000488281</ele>
        <time>2017-04-22T12:46:34.000Z</time>
      </trkpt>
      <trkpt lat="46.83107" lon="6.53904">
        <ele>1229.8000488281</ele>
        <time>2017-04-22T12:46:36.000Z</time>
      </trkpt>
      <trkpt lat="46.8311" lon="6.53906">
        <ele>1231</ele>
        <time>2017-04-22T12:46:38.000Z</time>
      </trkpt>
      <trkpt lat="46.83113" lon="6.53909">
        <ele>1232</ele>
        <time>2017-04-22T12:46:40.000Z</time>
      </trkpt>
      <trkpt lat="46.83113" lon="6.53911">
        <ele>1232.1999511719</ele>
        <time>2017-04-22T12:46:41.000Z</time>
      </trkpt>
      <trkpt lat="46.83115" lon="6.53917">
        <ele>1232.5999755859</ele>
        <time>2017-04-22T12:46:43.000Z</time>
      </trkpt>
      <trkpt lat="46.83124" lon="6.53933">
        <ele>1232.4000244141</ele>
        <time>2017-04-22T12:46:48.000Z</time>
      </trkpt>
      <trkpt lat="46.83128" lon="6.53939">
        <ele>1232.4000244141</ele>
        <time>2017-04-22T12:46:50.000Z</time>
      </trkpt>
      <trkpt lat="46.83131" lon="6.53945">
        <ele>1232.5999755859</ele>
        <time>2017-04-22T12:46:52.000Z</time>
      </trkpt>
      <trkpt lat="46.83135" lon="6.53954">
        <ele>1232.8000488281</ele>
        <time>2017-04-22T12:46:54.000Z</time>
      </trkpt>
      <trkpt lat="46.83137" lon="6.53961">
        <ele>1232.8000488281</ele>
        <time>2017-04-22T12:46:56.000Z</time>
      </trkpt>
      <trkpt lat="46.83132" lon="6.53963">
        <ele>1232.1999511719</ele>
        <time>2017-04-22T12:46:59.000Z</time>
      </trkpt>
      <trkpt lat="46.83126" lon="6.53954">
        <ele>1231.4000244141</ele>
        <time>2017-04-22T12:47:03.000Z</time>
      </trkpt>
      <trkpt lat="46.83122" lon="6.53953">
        <ele>1231</ele>
        <time>2017-04-22T12:47:05.000Z</time>
      </trkpt>
      <trkpt lat="46.8312" lon="6.53952">
        <ele>1230.5999755859</ele>
        <time>2017-04-22T12:47:06.000Z</time>
      </trkpt>
      <trkpt lat="46.83118" lon="6.53956">
        <ele>1229.1999511719</ele>
        <time>2017-04-22T12:47:08.000Z</time>
      </trkpt>
      <trkpt lat="46.83119" lon="6.5396">
        <ele>1227.8000488281</ele>
        <time>2017-04-22T12:47:10.000Z</time>
      </trkpt>
      <trkpt lat="46.83118" lon="6.53962">
        <ele>1227.1999511719</ele>
        <time>2017-04-22T12:47:12.000Z</time>
      </trkpt>
      <trkpt lat="46.83116" lon="6.5396">
        <ele>1226.8000488281</ele>
        <time>2017-04-22T12:47:14.000Z</time>
      </trkpt>
      <trkpt lat="46.83113" lon="6.53951">
        <ele>1226</ele>
        <time>2017-04-22T12:47:18.000Z</time>
      </trkpt>
      <trkpt lat="46.8311" lon="6.53946">
        <ele>1225.5999755859</ele>
        <time>2017-04-22T12:47:20.000Z</time>
      </trkpt>
      <trkpt lat="46.83106" lon="6.53948">
        <ele>1225.1999511719</ele>
        <time>2017-04-22T12:47:22.000Z</time>
      </trkpt>
      <trkpt lat="46.83105" lon="6.53957">
        <ele>1223.8000488281</ele>
        <time>2017-04-22T12:47:24.000Z</time>
      </trkpt>
      <trkpt lat="46.83104" lon="6.53964">
        <ele>1223.1999511719</ele>
        <time>2017-04-22T12:47:25.000Z</time>
      </trkpt>
      <trkpt lat="46.83104" lon="6.5397">
        <ele>1222.4000244141</ele>
        <time>2017-04-22T12:47:26.000Z</time>
      </trkpt>
      <trkpt lat="46.83105" lon="6.53978">
        <ele>1221.1999511719</ele>
        <time>2017-04-22T12:47:28.000Z</time>
      </trkpt>
      <trkpt lat="46.83101" lon="6.53977">
        <ele>1220.1999511719</ele>
        <time>2017-04-22T12:47:31.000Z</time>
      </trkpt>
      <trkpt lat="46.83095" lon="6.5397">
        <ele>1218.8000488281</ele>
        <time>2017-04-22T12:47:35.000Z</time>
      </trkpt>
      <trkpt lat="46.83091" lon="6.53974">
        <ele>1217.4000244141</ele>
        <time>2017-04-22T12:47:38.000Z</time>
      </trkpt>
      <trkpt lat="46.83088" lon="6.53974">
        <ele>1216</ele>
        <time>2017-04-22T12:47:40.000Z</time>
      </trkpt>
      <trkpt lat="46.83085" lon="6.53977">
        <ele>1214.8000488281</ele>
        <time>2017-04-22T12:47:42.000Z</time>
      </trkpt>
      <trkpt lat="46.83084" lon="6.53997">
        <ele>1213</ele>
        <time>2017-04-22T12:47:46.000Z</time>
      </trkpt>
      <trkpt lat="46.83083" lon="6.54013">
        <ele>1211.5999755859</ele>
        <time>2017-04-22T12:47:48.000Z</time>
      </trkpt>
      <trkpt lat="46.83084" lon="6.54021">
        <ele>1210.8000488281</ele>
        <time>2017-04-22T12:47:49.000Z</time>
      </trkpt>
      <trkpt lat="46.83085" lon="6.5403">
        <ele>1210.1999511719</ele>
        <time>2017-04-22T12:47:50.000Z</time>
      </trkpt>
      <trkpt lat="46.83088" lon="6.54049">
        <ele>1209.4000244141</ele>
        <time>2017-04-22T12:47:53.000Z</time>
      </trkpt>
      <trkpt lat="46.83086" lon="6.54056">
        <ele>1209</ele>
        <time>2017-04-22T12:47:54.000Z</time>
      </trkpt>
      <trkpt lat="46.83076" lon="6.54069">
        <ele>1208.1999511719</ele>
        <time>2017-04-22T12:47:56.000Z</time>
      </trkpt>
      <trkpt lat="46.8307" lon="6.54075">
        <ele>1207.1999511719</ele>
        <time>2017-04-22T12:47:57.000Z</time>
      </trkpt>
      <trkpt lat="46.83066" lon="6.54083">
        <ele>1206</ele>
        <time>2017-04-22T12:47:58.000Z</time>
      </trkpt>
      <trkpt lat="46.83062" lon="6.54091">
        <ele>1204.8000488281</ele>
        <time>2017-04-22T12:47:59.000Z</time>
      </trkpt>
      <trkpt lat="46.83059" lon="6.54097">
        <ele>1203.5999755859</ele>
        <time>2017-04-22T12:48:00.000Z</time>
      </trkpt>
      <trkpt lat="46.83053" lon="6.54099">
        <ele>1202.5999755859</ele>
        <time>2017-04-22T12:48:01.000Z</time>
      </trkpt>
      <trkpt lat="46.83047" lon="6.54102">
        <ele>1201.1999511719</ele>
        <time>2017-04-22T12:48:02.000Z</time>
      </trkpt>
      <trkpt lat="46.83036" lon="6.54102">
        <ele>1199.5999755859</ele>
        <time>2017-04-22T12:48:04.000Z</time>
      </trkpt>
      <trkpt lat="46.83024" lon="6.54097">
        <ele>1198.4000244141</ele>
        <time>2017-04-22T12:48:06.000Z</time>
      </trkpt>
      <trkpt lat="46.8302" lon="6.54094">
        <ele>1198</ele>
        <time>2017-04-22T12:48:07.000Z</time>
      </trkpt>
      <trkpt lat="46.83014" lon="6.54083">
        <ele>1197.1999511719</ele>
        <time>2017-04-22T12:48:09.000Z</time>
      </trkpt>
      <trkpt lat="46.83008" lon="6.54071">
        <ele>1196</ele>
        <time>2017-04-22T12:48:11.000Z</time>
      </trkpt>
      <trkpt lat="46.83005" lon="6.54064">
        <ele>1195.1999511719</ele>
        <time>2017-04-22T12:48:12.000Z</time>
      </trkpt>
      <trkpt lat="46.83002" lon="6.54056">
        <ele>1194.4000244141</ele>
        <time>2017-04-22T12:48:13.000Z</time>
      </trkpt>
      <trkpt lat="46.82999" lon="6.54048">
        <ele>1194.1999511719</ele>
        <time>2017-04-22T12:48:14.000Z</time>
      </trkpt>
      <trkpt lat="46.82994" lon="6.54026">
        <ele>1193.1999511719</ele>
        <time>2017-04-22T12:48:17.000Z</time>
      </trkpt>
      <trkpt lat="46.8299" lon="6.54014">
        <ele>1192.1999511719</ele>
        <time>2017-04-22T12:48:19.000Z</time>
      </trkpt>
      <trkpt lat="46.8299" lon="6.54004">
        <ele>1192</ele>
        <time>2017-04-22T12:48:21.000Z</time>
      </trkpt>
      <trkpt lat="46.82997" lon="6.53986">
        <ele>1193.4000244141</ele>
        <time>2017-04-22T12:48:25.000Z</time>
      </trkpt>
      <trkpt lat="46.83001" lon="6.53981">
        <ele>1194.4000244141</ele>
        <time>2017-04-22T12:48:27.000Z</time>
      </trkpt>
      <trkpt lat="46.83007" lon="6.53972">
        <ele>1195.8000488281</ele>
        <time>2017-04-22T12:48:30.000Z</time>
      </trkpt>
      <trkpt lat="46.83009" lon="6.53964">
        <ele>1196.8000488281</ele>
        <time>2017-04-22T12:48:32.000Z</time>
      </trkpt>
      <trkpt lat="46.83009" lon="6.5396">
        <ele>1197.1999511719</ele>
        <time>2017-04-22T12:48:33.000Z</time>
      </trkpt>
      <trkpt lat="46.83005" lon="6.5394">
        <ele>1198</ele>
        <time>2017-04-22T12:48:37.000Z</time>
      </trkpt>
      <trkpt lat="46.83003" lon="6.53928">
        <ele>1198.4000244141</ele>
        <time>2017-04-22T12:48:39.000Z</time>
      </trkpt>
      <trkpt lat="46.83003" lon="6.53912">
        <ele>1199.5999755859</ele>
        <time>2017-04-22T12:48:42.000Z</time>
      </trkpt>
      <trkpt lat="46.83" lon="6.53894">
        <ele>1200.8000488281</ele>
        <time>2017-04-22T12:48:46.000Z</time>
      </trkpt>
      <trkpt lat="46.82998" lon="6.53889">
        <ele>1200.8000488281</ele>
        <time>2017-04-22T12:48:47.000Z</time>
      </trkpt>
      <trkpt lat="46.82989" lon="6.53874">
        <ele>1201</ele>
        <time>2017-04-22T12:48:50.000Z</time>
      </trkpt>
      <trkpt lat="46.82973" lon="6.53867">
        <ele>1200.5999755859</ele>
        <time>2017-04-22T12:48:53.000Z</time>
      </trkpt>
      <trkpt lat="46.82967" lon="6.53863">
        <ele>1200.1999511719</ele>
        <time>2017-04-22T12:48:54.000Z</time>
      </trkpt>
      <trkpt lat="46.82962" lon="6.53859">
        <ele>1199.4000244141</ele>
        <time>2017-04-22T12:48:55.000Z</time>
      </trkpt>
      <trkpt lat="46.82954" lon="6.53847">
        <ele>1197.4000244141</ele>
        <time>2017-04-22T12:48:57.000Z</time>
      </trkpt>
      <trkpt lat="46.82952" lon="6.53841">
        <ele>1196.1999511719</ele>
        <time>2017-04-22T12:48:58.000Z</time>
      </trkpt>
      <trkpt lat="46.82951" lon="6.53835">
        <ele>1195.5999755859</ele>
        <time>2017-04-22T12:48:59.000Z</time>
      </trkpt>
      <trkpt lat="46.8295" lon="6.53829">
        <ele>1195.8000488281</ele>
        <time>2017-04-22T12:49:00.000Z</time>
      </trkpt>
      <trkpt lat="46.82949" lon="6.53823">
        <ele>1196</ele>
        <time>2017-04-22T12:49:01.000Z</time>
      </trkpt>
      <trkpt lat="46.82943" lon="6.53808">
        <ele>1196.4000244141</ele>
        <time>2017-04-22T12:49:05.000Z</time>
      </trkpt>
      <trkpt lat="46.82936" lon="6.53793">
        <ele>1195.8000488281</ele>
        <time>2017-04-22T12:49:08.000Z</time>
      </trkpt>
      <trkpt lat="46.82932" lon="6.53781">
        <ele>1195</ele>
        <time>2017-04-22T12:49:10.000Z</time>
      </trkpt>
      <trkpt lat="46.82929" lon="6.53775">
        <ele>1194.8000488281</ele>
        <time>2017-04-22T12:49:11.000Z</time>
      </trkpt>
      <trkpt lat="46.82927" lon="6.53771">
        <ele>1194.1999511719</ele>
        <time>2017-04-22T12:49:12.000Z</time>
      </trkpt>
      <trkpt lat="46.82924" lon="6.53768">
        <ele>1194</ele>
        <time>2017-04-22T12:49:13.000Z</time>
      </trkpt>
      <trkpt lat="46.82921" lon="6.53767">
        <ele>1193.4000244141</ele>
        <time>2017-04-22T12:49:14.000Z</time>
      </trkpt>
      <trkpt lat="46.82916" lon="6.5377">
        <ele>1192.5999755859</ele>
        <time>2017-04-22T12:49:16.000Z</time>
      </trkpt>
      <trkpt lat="46.82916" lon="6.5377">
        <ele>1192.4000244141</ele>
        <time>2017-04-22T12:49:17.000Z</time>
      </trkpt>
      <trkpt lat="46.82913" lon="6.53775">
        <ele>1192</ele>
        <time>2017-04-22T12:49:21.000Z</time>
      </trkpt>
      <trkpt lat="46.82913" lon="6.53792">
        <ele>1191.8000488281</ele>
        <time>2017-04-22T12:49:24.000Z</time>
      </trkpt>
      <trkpt lat="46.82915" lon="6.53805">
        <ele>1191.5999755859</ele>
        <time>2017-04-22T12:49:26.000Z</time>
      </trkpt>
      <trkpt lat="46.8292" lon="6.53835">
        <ele>1191.8000488281</ele>
        <time>2017-04-22T12:49:31.000Z</time>
      </trkpt>
      <trkpt lat="46.82926" lon="6.53857">
        <ele>1192.1999511719</ele>
        <time>2017-04-22T12:49:34.000Z</time>
      </trkpt>
      <trkpt lat="46.82931" lon="6.53871">
        <ele>1192.4000244141</ele>
        <time>2017-04-22T12:49:36.000Z</time>
      </trkpt>
      <trkpt lat="46.82939" lon="6.539">
        <ele>1191.8000488281</ele>
        <time>2017-04-22T12:49:41.000Z</time>
      </trkpt>
      <trkpt lat="46.82941" lon="6.53904">
        <ele>1191.8000488281</ele>
        <time>2017-04-22T12:49:43.000Z</time>
      </trkpt>
    </trkseg>
  </trk>
</gpx>